<?xml version="1.0" encoding="UTF-8" standalone="no" ?>
<gpx xmlns="http://www.topografix.com/GPX/1/1" xmlns:xsi="http://www.w3.org/2001/XMLSchema-instance" xsi:schemaLocation="http://www.topografix.com/GPX/1/1 http://www.topografix.com/GPX/1/1/gpx.xsd" version="1.1" creator="VisuGPX - https://www.visugpx.com">
  <metadata>
    <name>Rando 17 Mars</name>
    <desc><![CDATA[La parcours au départ de Guengat du 17 Mars]]></desc>
  </metadata>
  <trk>
    <name><![CDATA[17 mars 2013 09:13:08]]></name>
    <cmt><![CDATA[17 mars 2013 09:13:08]]></cmt>
    <trkseg>
      <trkpt lat="48.05441" lon="-4.1997">
        <ele>77</ele>
        <time>2013-03-17T08:13:09Z</time>
      </trkpt>
      <trkpt lat="48.0544" lon="-4.19979">
        <ele>75</ele>
        <time>2013-03-17T08:13:39Z</time>
      </trkpt>
      <trkpt lat="48.05438" lon="-4.19985">
        <ele>75</ele>
        <time>2013-03-17T08:13:42Z</time>
      </trkpt>
      <trkpt lat="48.05438" lon="-4.19993">
        <ele>75</ele>
        <time>2013-03-17T08:13:44Z</time>
      </trkpt>
      <trkpt lat="48.05441" lon="-4.19999">
        <ele>75</ele>
        <time>2013-03-17T08:13:46Z</time>
      </trkpt>
      <trkpt lat="48.05447" lon="-4.20001">
        <ele>75</ele>
        <time>2013-03-17T08:13:48Z</time>
      </trkpt>
      <trkpt lat="48.05453" lon="-4.20003">
        <ele>76</ele>
        <time>2013-03-17T08:13:50Z</time>
      </trkpt>
      <trkpt lat="48.05464" lon="-4.20008">
        <ele>77</ele>
        <time>2013-03-17T08:13:53Z</time>
      </trkpt>
      <trkpt lat="48.05473" lon="-4.20011">
        <ele>77</ele>
        <time>2013-03-17T08:13:55Z</time>
      </trkpt>
      <trkpt lat="48.05478" lon="-4.20012">
        <ele>77</ele>
        <time>2013-03-17T08:13:56Z</time>
      </trkpt>
      <trkpt lat="48.05487" lon="-4.20014">
        <ele>76</ele>
        <time>2013-03-17T08:13:58Z</time>
      </trkpt>
      <trkpt lat="48.05497" lon="-4.20015">
        <ele>76</ele>
        <time>2013-03-17T08:14:00Z</time>
      </trkpt>
      <trkpt lat="48.05508" lon="-4.20014">
        <ele>76</ele>
        <time>2013-03-17T08:14:02Z</time>
      </trkpt>
      <trkpt lat="48.05514" lon="-4.20015">
        <ele>76</ele>
        <time>2013-03-17T08:14:03Z</time>
      </trkpt>
      <trkpt lat="48.05522" lon="-4.20016">
        <ele>77</ele>
        <time>2013-03-17T08:14:05Z</time>
      </trkpt>
      <trkpt lat="48.05529" lon="-4.20018">
        <ele>77</ele>
        <time>2013-03-17T08:14:07Z</time>
      </trkpt>
      <trkpt lat="48.05536" lon="-4.20022">
        <ele>77</ele>
        <time>2013-03-17T08:14:09Z</time>
      </trkpt>
      <trkpt lat="48.0554" lon="-4.20023">
        <ele>77</ele>
        <time>2013-03-17T08:14:10Z</time>
      </trkpt>
      <trkpt lat="48.0555" lon="-4.20028">
        <ele>77</ele>
        <time>2013-03-17T08:14:12Z</time>
      </trkpt>
      <trkpt lat="48.05561" lon="-4.20031">
        <ele>78</ele>
        <time>2013-03-17T08:14:14Z</time>
      </trkpt>
      <trkpt lat="48.05569" lon="-4.20034">
        <ele>79</ele>
        <time>2013-03-17T08:14:16Z</time>
      </trkpt>
      <trkpt lat="48.05574" lon="-4.20036">
        <ele>79</ele>
        <time>2013-03-17T08:14:17Z</time>
      </trkpt>
      <trkpt lat="48.05579" lon="-4.20039">
        <ele>79</ele>
        <time>2013-03-17T08:14:18Z</time>
      </trkpt>
      <trkpt lat="48.05584" lon="-4.20041">
        <ele>79</ele>
        <time>2013-03-17T08:14:19Z</time>
      </trkpt>
      <trkpt lat="48.05589" lon="-4.20044">
        <ele>79</ele>
        <time>2013-03-17T08:14:20Z</time>
      </trkpt>
      <trkpt lat="48.05598" lon="-4.20047">
        <ele>79</ele>
        <time>2013-03-17T08:14:22Z</time>
      </trkpt>
      <trkpt lat="48.05603" lon="-4.2005">
        <ele>78</ele>
        <time>2013-03-17T08:14:23Z</time>
      </trkpt>
      <trkpt lat="48.05609" lon="-4.20053">
        <ele>78</ele>
        <time>2013-03-17T08:14:24Z</time>
      </trkpt>
      <trkpt lat="48.05613" lon="-4.20056">
        <ele>77</ele>
        <time>2013-03-17T08:14:25Z</time>
      </trkpt>
      <trkpt lat="48.05619" lon="-4.20058">
        <ele>77</ele>
        <time>2013-03-17T08:14:26Z</time>
      </trkpt>
      <trkpt lat="48.05624" lon="-4.20061">
        <ele>77</ele>
        <time>2013-03-17T08:14:27Z</time>
      </trkpt>
      <trkpt lat="48.05629" lon="-4.20064">
        <ele>77</ele>
        <time>2013-03-17T08:14:28Z</time>
      </trkpt>
      <trkpt lat="48.05634" lon="-4.20067">
        <ele>77</ele>
        <time>2013-03-17T08:14:29Z</time>
      </trkpt>
      <trkpt lat="48.05639" lon="-4.2007">
        <ele>78</ele>
        <time>2013-03-17T08:14:30Z</time>
      </trkpt>
      <trkpt lat="48.05646" lon="-4.20076">
        <ele>78</ele>
        <time>2013-03-17T08:14:32Z</time>
      </trkpt>
      <trkpt lat="48.05651" lon="-4.20082">
        <ele>78</ele>
        <time>2013-03-17T08:14:34Z</time>
      </trkpt>
      <trkpt lat="48.05657" lon="-4.20089">
        <ele>78</ele>
        <time>2013-03-17T08:14:36Z</time>
      </trkpt>
      <trkpt lat="48.05664" lon="-4.20095">
        <ele>78</ele>
        <time>2013-03-17T08:14:38Z</time>
      </trkpt>
      <trkpt lat="48.05672" lon="-4.20103">
        <ele>78</ele>
        <time>2013-03-17T08:14:40Z</time>
      </trkpt>
      <trkpt lat="48.05676" lon="-4.20107">
        <ele>78</ele>
        <time>2013-03-17T08:14:41Z</time>
      </trkpt>
      <trkpt lat="48.0568" lon="-4.20111">
        <ele>78</ele>
        <time>2013-03-17T08:14:42Z</time>
      </trkpt>
      <trkpt lat="48.05687" lon="-4.20118">
        <ele>77</ele>
        <time>2013-03-17T08:14:44Z</time>
      </trkpt>
      <trkpt lat="48.05694" lon="-4.20126">
        <ele>76</ele>
        <time>2013-03-17T08:14:46Z</time>
      </trkpt>
      <trkpt lat="48.05705" lon="-4.2014">
        <ele>75</ele>
        <time>2013-03-17T08:14:49Z</time>
      </trkpt>
      <trkpt lat="48.05709" lon="-4.20145">
        <ele>75</ele>
        <time>2013-03-17T08:14:50Z</time>
      </trkpt>
      <trkpt lat="48.05712" lon="-4.20151">
        <ele>75</ele>
        <time>2013-03-17T08:14:51Z</time>
      </trkpt>
      <trkpt lat="48.05714" lon="-4.20158">
        <ele>74</ele>
        <time>2013-03-17T08:14:52Z</time>
      </trkpt>
      <trkpt lat="48.05717" lon="-4.20163">
        <ele>74</ele>
        <time>2013-03-17T08:14:53Z</time>
      </trkpt>
      <trkpt lat="48.0572" lon="-4.20169">
        <ele>74</ele>
        <time>2013-03-17T08:14:54Z</time>
      </trkpt>
      <trkpt lat="48.05724" lon="-4.20175">
        <ele>74</ele>
        <time>2013-03-17T08:14:55Z</time>
      </trkpt>
      <trkpt lat="48.05728" lon="-4.2018">
        <ele>74</ele>
        <time>2013-03-17T08:14:56Z</time>
      </trkpt>
      <trkpt lat="48.0573" lon="-4.20186">
        <ele>75</ele>
        <time>2013-03-17T08:14:57Z</time>
      </trkpt>
      <trkpt lat="48.05733" lon="-4.20192">
        <ele>75</ele>
        <time>2013-03-17T08:14:58Z</time>
      </trkpt>
      <trkpt lat="48.05736" lon="-4.20197">
        <ele>75</ele>
        <time>2013-03-17T08:14:59Z</time>
      </trkpt>
      <trkpt lat="48.0574" lon="-4.20209">
        <ele>74</ele>
        <time>2013-03-17T08:15:01Z</time>
      </trkpt>
      <trkpt lat="48.05743" lon="-4.20215">
        <ele>74</ele>
        <time>2013-03-17T08:15:02Z</time>
      </trkpt>
      <trkpt lat="48.05745" lon="-4.20221">
        <ele>74</ele>
        <time>2013-03-17T08:15:03Z</time>
      </trkpt>
      <trkpt lat="48.05747" lon="-4.20227">
        <ele>74</ele>
        <time>2013-03-17T08:15:04Z</time>
      </trkpt>
      <trkpt lat="48.0575" lon="-4.20234">
        <ele>74</ele>
        <time>2013-03-17T08:15:05Z</time>
      </trkpt>
      <trkpt lat="48.05754" lon="-4.20247">
        <ele>74</ele>
        <time>2013-03-17T08:15:07Z</time>
      </trkpt>
      <trkpt lat="48.05756" lon="-4.20253">
        <ele>74</ele>
        <time>2013-03-17T08:15:08Z</time>
      </trkpt>
      <trkpt lat="48.05759" lon="-4.20264">
        <ele>75</ele>
        <time>2013-03-17T08:15:10Z</time>
      </trkpt>
      <trkpt lat="48.05763" lon="-4.20275">
        <ele>76</ele>
        <time>2013-03-17T08:15:12Z</time>
      </trkpt>
      <trkpt lat="48.05766" lon="-4.20288">
        <ele>76</ele>
        <time>2013-03-17T08:15:14Z</time>
      </trkpt>
      <trkpt lat="48.05769" lon="-4.20299">
        <ele>77</ele>
        <time>2013-03-17T08:15:16Z</time>
      </trkpt>
      <trkpt lat="48.05772" lon="-4.20309">
        <ele>77</ele>
        <time>2013-03-17T08:15:18Z</time>
      </trkpt>
      <trkpt lat="48.05774" lon="-4.20319">
        <ele>78</ele>
        <time>2013-03-17T08:15:20Z</time>
      </trkpt>
      <trkpt lat="48.05775" lon="-4.20328">
        <ele>79</ele>
        <time>2013-03-17T08:15:22Z</time>
      </trkpt>
      <trkpt lat="48.05777" lon="-4.20338">
        <ele>79</ele>
        <time>2013-03-17T08:15:24Z</time>
      </trkpt>
      <trkpt lat="48.05779" lon="-4.20346">
        <ele>79</ele>
        <time>2013-03-17T08:15:26Z</time>
      </trkpt>
      <trkpt lat="48.05779" lon="-4.20353">
        <ele>79</ele>
        <time>2013-03-17T08:15:29Z</time>
      </trkpt>
      <trkpt lat="48.05779" lon="-4.20362">
        <ele>79</ele>
        <time>2013-03-17T08:15:32Z</time>
      </trkpt>
      <trkpt lat="48.05781" lon="-4.2037">
        <ele>79</ele>
        <time>2013-03-17T08:15:34Z</time>
      </trkpt>
      <trkpt lat="48.05781" lon="-4.20377">
        <ele>80</ele>
        <time>2013-03-17T08:15:36Z</time>
      </trkpt>
      <trkpt lat="48.05782" lon="-4.20387">
        <ele>80</ele>
        <time>2013-03-17T08:15:38Z</time>
      </trkpt>
      <trkpt lat="48.05783" lon="-4.20394">
        <ele>80</ele>
        <time>2013-03-17T08:15:39Z</time>
      </trkpt>
      <trkpt lat="48.05784" lon="-4.20407">
        <ele>80</ele>
        <time>2013-03-17T08:15:41Z</time>
      </trkpt>
      <trkpt lat="48.05784" lon="-4.20419">
        <ele>81</ele>
        <time>2013-03-17T08:15:43Z</time>
      </trkpt>
      <trkpt lat="48.05784" lon="-4.20426">
        <ele>81</ele>
        <time>2013-03-17T08:15:44Z</time>
      </trkpt>
      <trkpt lat="48.05784" lon="-4.20439">
        <ele>81</ele>
        <time>2013-03-17T08:15:46Z</time>
      </trkpt>
      <trkpt lat="48.05784" lon="-4.20447">
        <ele>81</ele>
        <time>2013-03-17T08:15:47Z</time>
      </trkpt>
      <trkpt lat="48.05783" lon="-4.20455">
        <ele>81</ele>
        <time>2013-03-17T08:15:48Z</time>
      </trkpt>
      <trkpt lat="48.05782" lon="-4.20462">
        <ele>81</ele>
        <time>2013-03-17T08:15:49Z</time>
      </trkpt>
      <trkpt lat="48.05782" lon="-4.20469">
        <ele>81</ele>
        <time>2013-03-17T08:15:50Z</time>
      </trkpt>
      <trkpt lat="48.05781" lon="-4.20477">
        <ele>81</ele>
        <time>2013-03-17T08:15:51Z</time>
      </trkpt>
      <trkpt lat="48.0578" lon="-4.20485">
        <ele>81</ele>
        <time>2013-03-17T08:15:52Z</time>
      </trkpt>
      <trkpt lat="48.05779" lon="-4.20493">
        <ele>81</ele>
        <time>2013-03-17T08:15:53Z</time>
      </trkpt>
      <trkpt lat="48.05778" lon="-4.20501">
        <ele>81</ele>
        <time>2013-03-17T08:15:54Z</time>
      </trkpt>
      <trkpt lat="48.05777" lon="-4.20513">
        <ele>80</ele>
        <time>2013-03-17T08:15:56Z</time>
      </trkpt>
      <trkpt lat="48.05776" lon="-4.2052">
        <ele>80</ele>
        <time>2013-03-17T08:15:57Z</time>
      </trkpt>
      <trkpt lat="48.05775" lon="-4.20528">
        <ele>80</ele>
        <time>2013-03-17T08:15:58Z</time>
      </trkpt>
      <trkpt lat="48.05774" lon="-4.20535">
        <ele>79</ele>
        <time>2013-03-17T08:15:59Z</time>
      </trkpt>
      <trkpt lat="48.05772" lon="-4.20543">
        <ele>79</ele>
        <time>2013-03-17T08:16:00Z</time>
      </trkpt>
      <trkpt lat="48.05771" lon="-4.2055">
        <ele>79</ele>
        <time>2013-03-17T08:16:01Z</time>
      </trkpt>
      <trkpt lat="48.05769" lon="-4.20558">
        <ele>78</ele>
        <time>2013-03-17T08:16:02Z</time>
      </trkpt>
      <trkpt lat="48.05767" lon="-4.20565">
        <ele>78</ele>
        <time>2013-03-17T08:16:03Z</time>
      </trkpt>
      <trkpt lat="48.05765" lon="-4.20572">
        <ele>78</ele>
        <time>2013-03-17T08:16:04Z</time>
      </trkpt>
      <trkpt lat="48.05763" lon="-4.2058">
        <ele>78</ele>
        <time>2013-03-17T08:16:05Z</time>
      </trkpt>
      <trkpt lat="48.05761" lon="-4.20587">
        <ele>78</ele>
        <time>2013-03-17T08:16:06Z</time>
      </trkpt>
      <trkpt lat="48.05759" lon="-4.20594">
        <ele>78</ele>
        <time>2013-03-17T08:16:07Z</time>
      </trkpt>
      <trkpt lat="48.05757" lon="-4.20601">
        <ele>78</ele>
        <time>2013-03-17T08:16:08Z</time>
      </trkpt>
      <trkpt lat="48.05754" lon="-4.20608">
        <ele>78</ele>
        <time>2013-03-17T08:16:09Z</time>
      </trkpt>
      <trkpt lat="48.05752" lon="-4.20614">
        <ele>78</ele>
        <time>2013-03-17T08:16:10Z</time>
      </trkpt>
      <trkpt lat="48.05748" lon="-4.20627">
        <ele>78</ele>
        <time>2013-03-17T08:16:12Z</time>
      </trkpt>
      <trkpt lat="48.05744" lon="-4.20639">
        <ele>78</ele>
        <time>2013-03-17T08:16:14Z</time>
      </trkpt>
      <trkpt lat="48.05739" lon="-4.20651">
        <ele>78</ele>
        <time>2013-03-17T08:16:16Z</time>
      </trkpt>
      <trkpt lat="48.05736" lon="-4.20657">
        <ele>79</ele>
        <time>2013-03-17T08:16:17Z</time>
      </trkpt>
      <trkpt lat="48.05731" lon="-4.20666">
        <ele>79</ele>
        <time>2013-03-17T08:16:19Z</time>
      </trkpt>
      <trkpt lat="48.05726" lon="-4.20677">
        <ele>78</ele>
        <time>2013-03-17T08:16:21Z</time>
      </trkpt>
      <trkpt lat="48.05724" lon="-4.20683">
        <ele>78</ele>
        <time>2013-03-17T08:16:22Z</time>
      </trkpt>
      <trkpt lat="48.05721" lon="-4.20689">
        <ele>78</ele>
        <time>2013-03-17T08:16:23Z</time>
      </trkpt>
      <trkpt lat="48.05717" lon="-4.20694">
        <ele>78</ele>
        <time>2013-03-17T08:16:24Z</time>
      </trkpt>
      <trkpt lat="48.05714" lon="-4.20699">
        <ele>78</ele>
        <time>2013-03-17T08:16:25Z</time>
      </trkpt>
      <trkpt lat="48.05708" lon="-4.20708">
        <ele>78</ele>
        <time>2013-03-17T08:16:27Z</time>
      </trkpt>
      <trkpt lat="48.05704" lon="-4.20714">
        <ele>78</ele>
        <time>2013-03-17T08:16:28Z</time>
      </trkpt>
      <trkpt lat="48.05701" lon="-4.20719">
        <ele>78</ele>
        <time>2013-03-17T08:16:29Z</time>
      </trkpt>
      <trkpt lat="48.05694" lon="-4.20728">
        <ele>78</ele>
        <time>2013-03-17T08:16:31Z</time>
      </trkpt>
      <trkpt lat="48.05691" lon="-4.20732">
        <ele>79</ele>
        <time>2013-03-17T08:16:32Z</time>
      </trkpt>
      <trkpt lat="48.05684" lon="-4.20741">
        <ele>79</ele>
        <time>2013-03-17T08:16:34Z</time>
      </trkpt>
      <trkpt lat="48.0568" lon="-4.20745">
        <ele>79</ele>
        <time>2013-03-17T08:16:35Z</time>
      </trkpt>
      <trkpt lat="48.05677" lon="-4.2075">
        <ele>78</ele>
        <time>2013-03-17T08:16:36Z</time>
      </trkpt>
      <trkpt lat="48.05673" lon="-4.20754">
        <ele>78</ele>
        <time>2013-03-17T08:16:37Z</time>
      </trkpt>
      <trkpt lat="48.05669" lon="-4.20759">
        <ele>78</ele>
        <time>2013-03-17T08:16:38Z</time>
      </trkpt>
      <trkpt lat="48.05661" lon="-4.20766">
        <ele>77</ele>
        <time>2013-03-17T08:16:40Z</time>
      </trkpt>
      <trkpt lat="48.05656" lon="-4.2077">
        <ele>77</ele>
        <time>2013-03-17T08:16:41Z</time>
      </trkpt>
      <trkpt lat="48.05652" lon="-4.20774">
        <ele>77</ele>
        <time>2013-03-17T08:16:42Z</time>
      </trkpt>
      <trkpt lat="48.05648" lon="-4.20777">
        <ele>77</ele>
        <time>2013-03-17T08:16:43Z</time>
      </trkpt>
      <trkpt lat="48.0564" lon="-4.20784">
        <ele>77</ele>
        <time>2013-03-17T08:16:45Z</time>
      </trkpt>
      <trkpt lat="48.05635" lon="-4.20787">
        <ele>77</ele>
        <time>2013-03-17T08:16:46Z</time>
      </trkpt>
      <trkpt lat="48.05631" lon="-4.20791">
        <ele>77</ele>
        <time>2013-03-17T08:16:47Z</time>
      </trkpt>
      <trkpt lat="48.05627" lon="-4.20794">
        <ele>77</ele>
        <time>2013-03-17T08:16:48Z</time>
      </trkpt>
      <trkpt lat="48.05623" lon="-4.20797">
        <ele>76</ele>
        <time>2013-03-17T08:16:49Z</time>
      </trkpt>
      <trkpt lat="48.05618" lon="-4.20801">
        <ele>76</ele>
        <time>2013-03-17T08:16:50Z</time>
      </trkpt>
      <trkpt lat="48.05614" lon="-4.20804">
        <ele>76</ele>
        <time>2013-03-17T08:16:51Z</time>
      </trkpt>
      <trkpt lat="48.0561" lon="-4.20808">
        <ele>76</ele>
        <time>2013-03-17T08:16:52Z</time>
      </trkpt>
      <trkpt lat="48.05601" lon="-4.20814">
        <ele>77</ele>
        <time>2013-03-17T08:16:54Z</time>
      </trkpt>
      <trkpt lat="48.05596" lon="-4.20817">
        <ele>77</ele>
        <time>2013-03-17T08:16:55Z</time>
      </trkpt>
      <trkpt lat="48.05588" lon="-4.20823">
        <ele>77</ele>
        <time>2013-03-17T08:16:57Z</time>
      </trkpt>
      <trkpt lat="48.05583" lon="-4.20827">
        <ele>76</ele>
        <time>2013-03-17T08:16:58Z</time>
      </trkpt>
      <trkpt lat="48.05578" lon="-4.20831">
        <ele>76</ele>
        <time>2013-03-17T08:16:59Z</time>
      </trkpt>
      <trkpt lat="48.05574" lon="-4.20834">
        <ele>75</ele>
        <time>2013-03-17T08:17:00Z</time>
      </trkpt>
      <trkpt lat="48.05569" lon="-4.20837">
        <ele>75</ele>
        <time>2013-03-17T08:17:01Z</time>
      </trkpt>
      <trkpt lat="48.05565" lon="-4.2084">
        <ele>75</ele>
        <time>2013-03-17T08:17:02Z</time>
      </trkpt>
      <trkpt lat="48.05557" lon="-4.20846">
        <ele>75</ele>
        <time>2013-03-17T08:17:04Z</time>
      </trkpt>
      <trkpt lat="48.05553" lon="-4.2085">
        <ele>75</ele>
        <time>2013-03-17T08:17:05Z</time>
      </trkpt>
      <trkpt lat="48.05549" lon="-4.20854">
        <ele>74</ele>
        <time>2013-03-17T08:17:06Z</time>
      </trkpt>
      <trkpt lat="48.05545" lon="-4.20857">
        <ele>74</ele>
        <time>2013-03-17T08:17:07Z</time>
      </trkpt>
      <trkpt lat="48.0554" lon="-4.20861">
        <ele>75</ele>
        <time>2013-03-17T08:17:08Z</time>
      </trkpt>
      <trkpt lat="48.05535" lon="-4.20864">
        <ele>75</ele>
        <time>2013-03-17T08:17:09Z</time>
      </trkpt>
      <trkpt lat="48.05529" lon="-4.20868">
        <ele>75</ele>
        <time>2013-03-17T08:17:10Z</time>
      </trkpt>
      <trkpt lat="48.05525" lon="-4.20872">
        <ele>75</ele>
        <time>2013-03-17T08:17:11Z</time>
      </trkpt>
      <trkpt lat="48.05516" lon="-4.2088">
        <ele>75</ele>
        <time>2013-03-17T08:17:13Z</time>
      </trkpt>
      <trkpt lat="48.05511" lon="-4.20885">
        <ele>75</ele>
        <time>2013-03-17T08:17:14Z</time>
      </trkpt>
      <trkpt lat="48.05505" lon="-4.2089">
        <ele>75</ele>
        <time>2013-03-17T08:17:15Z</time>
      </trkpt>
      <trkpt lat="48.05501" lon="-4.20893">
        <ele>75</ele>
        <time>2013-03-17T08:17:16Z</time>
      </trkpt>
      <trkpt lat="48.05495" lon="-4.20898">
        <ele>75</ele>
        <time>2013-03-17T08:17:17Z</time>
      </trkpt>
      <trkpt lat="48.0549" lon="-4.20902">
        <ele>75</ele>
        <time>2013-03-17T08:17:18Z</time>
      </trkpt>
      <trkpt lat="48.05485" lon="-4.20907">
        <ele>75</ele>
        <time>2013-03-17T08:17:19Z</time>
      </trkpt>
      <trkpt lat="48.05477" lon="-4.20913">
        <ele>75</ele>
        <time>2013-03-17T08:17:21Z</time>
      </trkpt>
      <trkpt lat="48.05473" lon="-4.20917">
        <ele>74</ele>
        <time>2013-03-17T08:17:22Z</time>
      </trkpt>
      <trkpt lat="48.05468" lon="-4.2092">
        <ele>74</ele>
        <time>2013-03-17T08:17:23Z</time>
      </trkpt>
      <trkpt lat="48.05463" lon="-4.20924">
        <ele>73</ele>
        <time>2013-03-17T08:17:24Z</time>
      </trkpt>
      <trkpt lat="48.05458" lon="-4.20929">
        <ele>73</ele>
        <time>2013-03-17T08:17:25Z</time>
      </trkpt>
      <trkpt lat="48.05453" lon="-4.20933">
        <ele>73</ele>
        <time>2013-03-17T08:17:26Z</time>
      </trkpt>
      <trkpt lat="48.05448" lon="-4.20936">
        <ele>73</ele>
        <time>2013-03-17T08:17:27Z</time>
      </trkpt>
      <trkpt lat="48.05444" lon="-4.2094">
        <ele>73</ele>
        <time>2013-03-17T08:17:28Z</time>
      </trkpt>
      <trkpt lat="48.05438" lon="-4.20945">
        <ele>74</ele>
        <time>2013-03-17T08:17:29Z</time>
      </trkpt>
      <trkpt lat="48.05432" lon="-4.20949">
        <ele>74</ele>
        <time>2013-03-17T08:17:30Z</time>
      </trkpt>
      <trkpt lat="48.05427" lon="-4.20954">
        <ele>74</ele>
        <time>2013-03-17T08:17:31Z</time>
      </trkpt>
      <trkpt lat="48.05423" lon="-4.20958">
        <ele>75</ele>
        <time>2013-03-17T08:17:32Z</time>
      </trkpt>
      <trkpt lat="48.05418" lon="-4.20962">
        <ele>75</ele>
        <time>2013-03-17T08:17:33Z</time>
      </trkpt>
      <trkpt lat="48.05413" lon="-4.20966">
        <ele>75</ele>
        <time>2013-03-17T08:17:34Z</time>
      </trkpt>
      <trkpt lat="48.05408" lon="-4.2097">
        <ele>75</ele>
        <time>2013-03-17T08:17:35Z</time>
      </trkpt>
      <trkpt lat="48.05404" lon="-4.20973">
        <ele>75</ele>
        <time>2013-03-17T08:17:36Z</time>
      </trkpt>
      <trkpt lat="48.05398" lon="-4.20977">
        <ele>75</ele>
        <time>2013-03-17T08:17:37Z</time>
      </trkpt>
      <trkpt lat="48.05391" lon="-4.20981">
        <ele>74</ele>
        <time>2013-03-17T08:17:38Z</time>
      </trkpt>
      <trkpt lat="48.05385" lon="-4.20986">
        <ele>74</ele>
        <time>2013-03-17T08:17:39Z</time>
      </trkpt>
      <trkpt lat="48.05379" lon="-4.20991">
        <ele>74</ele>
        <time>2013-03-17T08:17:40Z</time>
      </trkpt>
      <trkpt lat="48.05375" lon="-4.20995">
        <ele>74</ele>
        <time>2013-03-17T08:17:41Z</time>
      </trkpt>
      <trkpt lat="48.0537" lon="-4.20999">
        <ele>74</ele>
        <time>2013-03-17T08:17:42Z</time>
      </trkpt>
      <trkpt lat="48.05365" lon="-4.21003">
        <ele>73</ele>
        <time>2013-03-17T08:17:43Z</time>
      </trkpt>
      <trkpt lat="48.05359" lon="-4.21009">
        <ele>73</ele>
        <time>2013-03-17T08:17:44Z</time>
      </trkpt>
      <trkpt lat="48.05353" lon="-4.21014">
        <ele>73</ele>
        <time>2013-03-17T08:17:45Z</time>
      </trkpt>
      <trkpt lat="48.05348" lon="-4.21018">
        <ele>73</ele>
        <time>2013-03-17T08:17:46Z</time>
      </trkpt>
      <trkpt lat="48.05343" lon="-4.21022">
        <ele>73</ele>
        <time>2013-03-17T08:17:47Z</time>
      </trkpt>
      <trkpt lat="48.05338" lon="-4.21027">
        <ele>73</ele>
        <time>2013-03-17T08:17:48Z</time>
      </trkpt>
      <trkpt lat="48.05333" lon="-4.21033">
        <ele>73</ele>
        <time>2013-03-17T08:17:49Z</time>
      </trkpt>
      <trkpt lat="48.05328" lon="-4.21039">
        <ele>72</ele>
        <time>2013-03-17T08:17:50Z</time>
      </trkpt>
      <trkpt lat="48.05324" lon="-4.21045">
        <ele>72</ele>
        <time>2013-03-17T08:17:51Z</time>
      </trkpt>
      <trkpt lat="48.05319" lon="-4.21051">
        <ele>72</ele>
        <time>2013-03-17T08:17:52Z</time>
      </trkpt>
      <trkpt lat="48.05315" lon="-4.21056">
        <ele>72</ele>
        <time>2013-03-17T08:17:53Z</time>
      </trkpt>
      <trkpt lat="48.05311" lon="-4.21061">
        <ele>72</ele>
        <time>2013-03-17T08:17:54Z</time>
      </trkpt>
      <trkpt lat="48.05307" lon="-4.21066">
        <ele>71</ele>
        <time>2013-03-17T08:17:55Z</time>
      </trkpt>
      <trkpt lat="48.05303" lon="-4.21071">
        <ele>71</ele>
        <time>2013-03-17T08:17:56Z</time>
      </trkpt>
      <trkpt lat="48.053" lon="-4.21076">
        <ele>71</ele>
        <time>2013-03-17T08:17:57Z</time>
      </trkpt>
      <trkpt lat="48.05297" lon="-4.21081">
        <ele>71</ele>
        <time>2013-03-17T08:17:58Z</time>
      </trkpt>
      <trkpt lat="48.05293" lon="-4.21086">
        <ele>71</ele>
        <time>2013-03-17T08:17:59Z</time>
      </trkpt>
      <trkpt lat="48.0529" lon="-4.21091">
        <ele>71</ele>
        <time>2013-03-17T08:18:00Z</time>
      </trkpt>
      <trkpt lat="48.05282" lon="-4.21102">
        <ele>71</ele>
        <time>2013-03-17T08:18:02Z</time>
      </trkpt>
      <trkpt lat="48.05279" lon="-4.21107">
        <ele>70</ele>
        <time>2013-03-17T08:18:03Z</time>
      </trkpt>
      <trkpt lat="48.05275" lon="-4.21113">
        <ele>70</ele>
        <time>2013-03-17T08:18:04Z</time>
      </trkpt>
      <trkpt lat="48.05271" lon="-4.21121">
        <ele>70</ele>
        <time>2013-03-17T08:18:05Z</time>
      </trkpt>
      <trkpt lat="48.05266" lon="-4.21128">
        <ele>70</ele>
        <time>2013-03-17T08:18:06Z</time>
      </trkpt>
      <trkpt lat="48.05263" lon="-4.21134">
        <ele>69</ele>
        <time>2013-03-17T08:18:07Z</time>
      </trkpt>
      <trkpt lat="48.05259" lon="-4.21141">
        <ele>69</ele>
        <time>2013-03-17T08:18:08Z</time>
      </trkpt>
      <trkpt lat="48.05255" lon="-4.21148">
        <ele>69</ele>
        <time>2013-03-17T08:18:09Z</time>
      </trkpt>
      <trkpt lat="48.05252" lon="-4.21154">
        <ele>69</ele>
        <time>2013-03-17T08:18:10Z</time>
      </trkpt>
      <trkpt lat="48.05248" lon="-4.21162">
        <ele>69</ele>
        <time>2013-03-17T08:18:11Z</time>
      </trkpt>
      <trkpt lat="48.05245" lon="-4.2117">
        <ele>69</ele>
        <time>2013-03-17T08:18:12Z</time>
      </trkpt>
      <trkpt lat="48.05242" lon="-4.21178">
        <ele>69</ele>
        <time>2013-03-17T08:18:13Z</time>
      </trkpt>
      <trkpt lat="48.05239" lon="-4.21184">
        <ele>68</ele>
        <time>2013-03-17T08:18:14Z</time>
      </trkpt>
      <trkpt lat="48.05236" lon="-4.2119">
        <ele>68</ele>
        <time>2013-03-17T08:18:15Z</time>
      </trkpt>
      <trkpt lat="48.05233" lon="-4.21198">
        <ele>68</ele>
        <time>2013-03-17T08:18:16Z</time>
      </trkpt>
      <trkpt lat="48.0523" lon="-4.21206">
        <ele>69</ele>
        <time>2013-03-17T08:18:17Z</time>
      </trkpt>
      <trkpt lat="48.05228" lon="-4.21213">
        <ele>69</ele>
        <time>2013-03-17T08:18:18Z</time>
      </trkpt>
      <trkpt lat="48.05226" lon="-4.2122">
        <ele>69</ele>
        <time>2013-03-17T08:18:19Z</time>
      </trkpt>
      <trkpt lat="48.05223" lon="-4.21227">
        <ele>70</ele>
        <time>2013-03-17T08:18:20Z</time>
      </trkpt>
      <trkpt lat="48.0522" lon="-4.21235">
        <ele>70</ele>
        <time>2013-03-17T08:18:21Z</time>
      </trkpt>
      <trkpt lat="48.05218" lon="-4.21243">
        <ele>71</ele>
        <time>2013-03-17T08:18:22Z</time>
      </trkpt>
      <trkpt lat="48.05216" lon="-4.21252">
        <ele>71</ele>
        <time>2013-03-17T08:18:23Z</time>
      </trkpt>
      <trkpt lat="48.05214" lon="-4.21261">
        <ele>72</ele>
        <time>2013-03-17T08:18:24Z</time>
      </trkpt>
      <trkpt lat="48.05211" lon="-4.21268">
        <ele>72</ele>
        <time>2013-03-17T08:18:25Z</time>
      </trkpt>
      <trkpt lat="48.05209" lon="-4.21275">
        <ele>73</ele>
        <time>2013-03-17T08:18:26Z</time>
      </trkpt>
      <trkpt lat="48.05208" lon="-4.21283">
        <ele>73</ele>
        <time>2013-03-17T08:18:27Z</time>
      </trkpt>
      <trkpt lat="48.05206" lon="-4.21292">
        <ele>73</ele>
        <time>2013-03-17T08:18:28Z</time>
      </trkpt>
      <trkpt lat="48.05204" lon="-4.213">
        <ele>73</ele>
        <time>2013-03-17T08:18:29Z</time>
      </trkpt>
      <trkpt lat="48.05203" lon="-4.21309">
        <ele>73</ele>
        <time>2013-03-17T08:18:30Z</time>
      </trkpt>
      <trkpt lat="48.05202" lon="-4.21317">
        <ele>73</ele>
        <time>2013-03-17T08:18:31Z</time>
      </trkpt>
      <trkpt lat="48.05201" lon="-4.21325">
        <ele>73</ele>
        <time>2013-03-17T08:18:32Z</time>
      </trkpt>
      <trkpt lat="48.05199" lon="-4.21332">
        <ele>73</ele>
        <time>2013-03-17T08:18:33Z</time>
      </trkpt>
      <trkpt lat="48.05197" lon="-4.21342">
        <ele>73</ele>
        <time>2013-03-17T08:18:34Z</time>
      </trkpt>
      <trkpt lat="48.05196" lon="-4.21349">
        <ele>73</ele>
        <time>2013-03-17T08:18:35Z</time>
      </trkpt>
      <trkpt lat="48.05195" lon="-4.21357">
        <ele>73</ele>
        <time>2013-03-17T08:18:36Z</time>
      </trkpt>
      <trkpt lat="48.05194" lon="-4.21365">
        <ele>72</ele>
        <time>2013-03-17T08:18:37Z</time>
      </trkpt>
      <trkpt lat="48.05193" lon="-4.21372">
        <ele>72</ele>
        <time>2013-03-17T08:18:38Z</time>
      </trkpt>
      <trkpt lat="48.05192" lon="-4.21381">
        <ele>72</ele>
        <time>2013-03-17T08:18:39Z</time>
      </trkpt>
      <trkpt lat="48.05191" lon="-4.21389">
        <ele>71</ele>
        <time>2013-03-17T08:18:40Z</time>
      </trkpt>
      <trkpt lat="48.05191" lon="-4.21398">
        <ele>71</ele>
        <time>2013-03-17T08:18:41Z</time>
      </trkpt>
      <trkpt lat="48.0519" lon="-4.21405">
        <ele>71</ele>
        <time>2013-03-17T08:18:42Z</time>
      </trkpt>
      <trkpt lat="48.05189" lon="-4.21414">
        <ele>71</ele>
        <time>2013-03-17T08:18:43Z</time>
      </trkpt>
      <trkpt lat="48.05188" lon="-4.21422">
        <ele>70</ele>
        <time>2013-03-17T08:18:44Z</time>
      </trkpt>
      <trkpt lat="48.05188" lon="-4.2143">
        <ele>70</ele>
        <time>2013-03-17T08:18:45Z</time>
      </trkpt>
      <trkpt lat="48.05187" lon="-4.21439">
        <ele>70</ele>
        <time>2013-03-17T08:18:46Z</time>
      </trkpt>
      <trkpt lat="48.05187" lon="-4.21447">
        <ele>70</ele>
        <time>2013-03-17T08:18:47Z</time>
      </trkpt>
      <trkpt lat="48.05187" lon="-4.21455">
        <ele>70</ele>
        <time>2013-03-17T08:18:48Z</time>
      </trkpt>
      <trkpt lat="48.05187" lon="-4.21464">
        <ele>70</ele>
        <time>2013-03-17T08:18:49Z</time>
      </trkpt>
      <trkpt lat="48.05187" lon="-4.21472">
        <ele>69</ele>
        <time>2013-03-17T08:18:50Z</time>
      </trkpt>
      <trkpt lat="48.05186" lon="-4.21478">
        <ele>69</ele>
        <time>2013-03-17T08:18:51Z</time>
      </trkpt>
      <trkpt lat="48.05186" lon="-4.21486">
        <ele>69</ele>
        <time>2013-03-17T08:18:52Z</time>
      </trkpt>
      <trkpt lat="48.05187" lon="-4.21495">
        <ele>69</ele>
        <time>2013-03-17T08:18:53Z</time>
      </trkpt>
      <trkpt lat="48.05188" lon="-4.21504">
        <ele>69</ele>
        <time>2013-03-17T08:18:54Z</time>
      </trkpt>
      <trkpt lat="48.05188" lon="-4.21514">
        <ele>68</ele>
        <time>2013-03-17T08:18:55Z</time>
      </trkpt>
      <trkpt lat="48.05189" lon="-4.21523">
        <ele>68</ele>
        <time>2013-03-17T08:18:56Z</time>
      </trkpt>
      <trkpt lat="48.05189" lon="-4.21533">
        <ele>68</ele>
        <time>2013-03-17T08:18:57Z</time>
      </trkpt>
      <trkpt lat="48.0519" lon="-4.21541">
        <ele>68</ele>
        <time>2013-03-17T08:18:58Z</time>
      </trkpt>
      <trkpt lat="48.05191" lon="-4.2155">
        <ele>67</ele>
        <time>2013-03-17T08:18:59Z</time>
      </trkpt>
      <trkpt lat="48.05192" lon="-4.21559">
        <ele>67</ele>
        <time>2013-03-17T08:19:00Z</time>
      </trkpt>
      <trkpt lat="48.05193" lon="-4.21568">
        <ele>67</ele>
        <time>2013-03-17T08:19:01Z</time>
      </trkpt>
      <trkpt lat="48.05194" lon="-4.21577">
        <ele>67</ele>
        <time>2013-03-17T08:19:02Z</time>
      </trkpt>
      <trkpt lat="48.05195" lon="-4.21584">
        <ele>67</ele>
        <time>2013-03-17T08:19:03Z</time>
      </trkpt>
      <trkpt lat="48.05196" lon="-4.21592">
        <ele>67</ele>
        <time>2013-03-17T08:19:04Z</time>
      </trkpt>
      <trkpt lat="48.05197" lon="-4.21599">
        <ele>67</ele>
        <time>2013-03-17T08:19:05Z</time>
      </trkpt>
      <trkpt lat="48.05198" lon="-4.21607">
        <ele>67</ele>
        <time>2013-03-17T08:19:06Z</time>
      </trkpt>
      <trkpt lat="48.052" lon="-4.21615">
        <ele>66</ele>
        <time>2013-03-17T08:19:07Z</time>
      </trkpt>
      <trkpt lat="48.05202" lon="-4.21623">
        <ele>66</ele>
        <time>2013-03-17T08:19:08Z</time>
      </trkpt>
      <trkpt lat="48.05203" lon="-4.21632">
        <ele>66</ele>
        <time>2013-03-17T08:19:09Z</time>
      </trkpt>
      <trkpt lat="48.05205" lon="-4.21641">
        <ele>66</ele>
        <time>2013-03-17T08:19:10Z</time>
      </trkpt>
      <trkpt lat="48.05206" lon="-4.21649">
        <ele>66</ele>
        <time>2013-03-17T08:19:11Z</time>
      </trkpt>
      <trkpt lat="48.05207" lon="-4.21657">
        <ele>66</ele>
        <time>2013-03-17T08:19:12Z</time>
      </trkpt>
      <trkpt lat="48.05208" lon="-4.21664">
        <ele>66</ele>
        <time>2013-03-17T08:19:13Z</time>
      </trkpt>
      <trkpt lat="48.0521" lon="-4.21673">
        <ele>66</ele>
        <time>2013-03-17T08:19:14Z</time>
      </trkpt>
      <trkpt lat="48.05211" lon="-4.21681">
        <ele>66</ele>
        <time>2013-03-17T08:19:15Z</time>
      </trkpt>
      <trkpt lat="48.05213" lon="-4.21689">
        <ele>65</ele>
        <time>2013-03-17T08:19:16Z</time>
      </trkpt>
      <trkpt lat="48.05216" lon="-4.21702">
        <ele>65</ele>
        <time>2013-03-17T08:19:18Z</time>
      </trkpt>
      <trkpt lat="48.05218" lon="-4.21709">
        <ele>64</ele>
        <time>2013-03-17T08:19:19Z</time>
      </trkpt>
      <trkpt lat="48.0522" lon="-4.21717">
        <ele>64</ele>
        <time>2013-03-17T08:19:20Z</time>
      </trkpt>
      <trkpt lat="48.05222" lon="-4.21725">
        <ele>64</ele>
        <time>2013-03-17T08:19:21Z</time>
      </trkpt>
      <trkpt lat="48.05224" lon="-4.21733">
        <ele>64</ele>
        <time>2013-03-17T08:19:22Z</time>
      </trkpt>
      <trkpt lat="48.05226" lon="-4.2174">
        <ele>64</ele>
        <time>2013-03-17T08:19:23Z</time>
      </trkpt>
      <trkpt lat="48.05228" lon="-4.21748">
        <ele>63</ele>
        <time>2013-03-17T08:19:24Z</time>
      </trkpt>
      <trkpt lat="48.0523" lon="-4.21758">
        <ele>63</ele>
        <time>2013-03-17T08:19:25Z</time>
      </trkpt>
      <trkpt lat="48.05232" lon="-4.21769">
        <ele>63</ele>
        <time>2013-03-17T08:19:26Z</time>
      </trkpt>
      <trkpt lat="48.05234" lon="-4.2178">
        <ele>63</ele>
        <time>2013-03-17T08:19:27Z</time>
      </trkpt>
      <trkpt lat="48.05235" lon="-4.21789">
        <ele>62</ele>
        <time>2013-03-17T08:19:28Z</time>
      </trkpt>
      <trkpt lat="48.05236" lon="-4.21797">
        <ele>62</ele>
        <time>2013-03-17T08:19:29Z</time>
      </trkpt>
      <trkpt lat="48.05238" lon="-4.21805">
        <ele>61</ele>
        <time>2013-03-17T08:19:30Z</time>
      </trkpt>
      <trkpt lat="48.05239" lon="-4.21814">
        <ele>61</ele>
        <time>2013-03-17T08:19:31Z</time>
      </trkpt>
      <trkpt lat="48.05241" lon="-4.21823">
        <ele>61</ele>
        <time>2013-03-17T08:19:32Z</time>
      </trkpt>
      <trkpt lat="48.05242" lon="-4.21833">
        <ele>60</ele>
        <time>2013-03-17T08:19:33Z</time>
      </trkpt>
      <trkpt lat="48.05244" lon="-4.2184">
        <ele>60</ele>
        <time>2013-03-17T08:19:34Z</time>
      </trkpt>
      <trkpt lat="48.05245" lon="-4.21848">
        <ele>60</ele>
        <time>2013-03-17T08:19:35Z</time>
      </trkpt>
      <trkpt lat="48.05247" lon="-4.21857">
        <ele>59</ele>
        <time>2013-03-17T08:19:36Z</time>
      </trkpt>
      <trkpt lat="48.05248" lon="-4.21865">
        <ele>59</ele>
        <time>2013-03-17T08:19:37Z</time>
      </trkpt>
      <trkpt lat="48.0525" lon="-4.21874">
        <ele>59</ele>
        <time>2013-03-17T08:19:38Z</time>
      </trkpt>
      <trkpt lat="48.05251" lon="-4.21881">
        <ele>59</ele>
        <time>2013-03-17T08:19:39Z</time>
      </trkpt>
      <trkpt lat="48.05252" lon="-4.21889">
        <ele>59</ele>
        <time>2013-03-17T08:19:40Z</time>
      </trkpt>
      <trkpt lat="48.05255" lon="-4.21903">
        <ele>59</ele>
        <time>2013-03-17T08:19:42Z</time>
      </trkpt>
      <trkpt lat="48.05258" lon="-4.21911">
        <ele>59</ele>
        <time>2013-03-17T08:19:43Z</time>
      </trkpt>
      <trkpt lat="48.05261" lon="-4.21919">
        <ele>59</ele>
        <time>2013-03-17T08:19:44Z</time>
      </trkpt>
      <trkpt lat="48.05264" lon="-4.21928">
        <ele>59</ele>
        <time>2013-03-17T08:19:45Z</time>
      </trkpt>
      <trkpt lat="48.05266" lon="-4.21935">
        <ele>59</ele>
        <time>2013-03-17T08:19:46Z</time>
      </trkpt>
      <trkpt lat="48.05268" lon="-4.21944">
        <ele>58</ele>
        <time>2013-03-17T08:19:47Z</time>
      </trkpt>
      <trkpt lat="48.0527" lon="-4.21952">
        <ele>58</ele>
        <time>2013-03-17T08:19:48Z</time>
      </trkpt>
      <trkpt lat="48.05272" lon="-4.21959">
        <ele>57</ele>
        <time>2013-03-17T08:19:49Z</time>
      </trkpt>
      <trkpt lat="48.05274" lon="-4.21965">
        <ele>57</ele>
        <time>2013-03-17T08:19:50Z</time>
      </trkpt>
      <trkpt lat="48.05276" lon="-4.21973">
        <ele>57</ele>
        <time>2013-03-17T08:19:51Z</time>
      </trkpt>
      <trkpt lat="48.05279" lon="-4.21981">
        <ele>57</ele>
        <time>2013-03-17T08:19:52Z</time>
      </trkpt>
      <trkpt lat="48.05281" lon="-4.2199">
        <ele>57</ele>
        <time>2013-03-17T08:19:53Z</time>
      </trkpt>
      <trkpt lat="48.05282" lon="-4.21998">
        <ele>58</ele>
        <time>2013-03-17T08:19:54Z</time>
      </trkpt>
      <trkpt lat="48.05283" lon="-4.22008">
        <ele>58</ele>
        <time>2013-03-17T08:19:55Z</time>
      </trkpt>
      <trkpt lat="48.05285" lon="-4.22017">
        <ele>57</ele>
        <time>2013-03-17T08:19:56Z</time>
      </trkpt>
      <trkpt lat="48.05287" lon="-4.22026">
        <ele>57</ele>
        <time>2013-03-17T08:19:57Z</time>
      </trkpt>
      <trkpt lat="48.05289" lon="-4.22036">
        <ele>56</ele>
        <time>2013-03-17T08:19:58Z</time>
      </trkpt>
      <trkpt lat="48.05292" lon="-4.22046">
        <ele>56</ele>
        <time>2013-03-17T08:19:59Z</time>
      </trkpt>
      <trkpt lat="48.05294" lon="-4.22053">
        <ele>56</ele>
        <time>2013-03-17T08:20:00Z</time>
      </trkpt>
      <trkpt lat="48.05297" lon="-4.22061">
        <ele>56</ele>
        <time>2013-03-17T08:20:01Z</time>
      </trkpt>
      <trkpt lat="48.053" lon="-4.22068">
        <ele>55</ele>
        <time>2013-03-17T08:20:02Z</time>
      </trkpt>
      <trkpt lat="48.05304" lon="-4.22074">
        <ele>55</ele>
        <time>2013-03-17T08:20:03Z</time>
      </trkpt>
      <trkpt lat="48.05307" lon="-4.22081">
        <ele>55</ele>
        <time>2013-03-17T08:20:04Z</time>
      </trkpt>
      <trkpt lat="48.05311" lon="-4.22087">
        <ele>54</ele>
        <time>2013-03-17T08:20:05Z</time>
      </trkpt>
      <trkpt lat="48.05314" lon="-4.22095">
        <ele>53</ele>
        <time>2013-03-17T08:20:06Z</time>
      </trkpt>
      <trkpt lat="48.05318" lon="-4.221">
        <ele>52</ele>
        <time>2013-03-17T08:20:07Z</time>
      </trkpt>
      <trkpt lat="48.05321" lon="-4.22107">
        <ele>52</ele>
        <time>2013-03-17T08:20:08Z</time>
      </trkpt>
      <trkpt lat="48.05323" lon="-4.22115">
        <ele>51</ele>
        <time>2013-03-17T08:20:09Z</time>
      </trkpt>
      <trkpt lat="48.05326" lon="-4.22123">
        <ele>51</ele>
        <time>2013-03-17T08:20:10Z</time>
      </trkpt>
      <trkpt lat="48.05329" lon="-4.2213">
        <ele>51</ele>
        <time>2013-03-17T08:20:11Z</time>
      </trkpt>
      <trkpt lat="48.05332" lon="-4.2214">
        <ele>50</ele>
        <time>2013-03-17T08:20:12Z</time>
      </trkpt>
      <trkpt lat="48.05334" lon="-4.22146">
        <ele>50</ele>
        <time>2013-03-17T08:20:13Z</time>
      </trkpt>
      <trkpt lat="48.05337" lon="-4.22154">
        <ele>50</ele>
        <time>2013-03-17T08:20:14Z</time>
      </trkpt>
      <trkpt lat="48.0534" lon="-4.22163">
        <ele>49</ele>
        <time>2013-03-17T08:20:15Z</time>
      </trkpt>
      <trkpt lat="48.05343" lon="-4.22171">
        <ele>49</ele>
        <time>2013-03-17T08:20:16Z</time>
      </trkpt>
      <trkpt lat="48.05345" lon="-4.22179">
        <ele>49</ele>
        <time>2013-03-17T08:20:17Z</time>
      </trkpt>
      <trkpt lat="48.05348" lon="-4.22188">
        <ele>49</ele>
        <time>2013-03-17T08:20:18Z</time>
      </trkpt>
      <trkpt lat="48.05353" lon="-4.22202">
        <ele>49</ele>
        <time>2013-03-17T08:20:20Z</time>
      </trkpt>
      <trkpt lat="48.05356" lon="-4.2221">
        <ele>48</ele>
        <time>2013-03-17T08:20:21Z</time>
      </trkpt>
      <trkpt lat="48.05359" lon="-4.22218">
        <ele>48</ele>
        <time>2013-03-17T08:20:22Z</time>
      </trkpt>
      <trkpt lat="48.05362" lon="-4.22225">
        <ele>48</ele>
        <time>2013-03-17T08:20:23Z</time>
      </trkpt>
      <trkpt lat="48.05365" lon="-4.22232">
        <ele>47</ele>
        <time>2013-03-17T08:20:24Z</time>
      </trkpt>
      <trkpt lat="48.05371" lon="-4.22245">
        <ele>45</ele>
        <time>2013-03-17T08:20:26Z</time>
      </trkpt>
      <trkpt lat="48.05376" lon="-4.22262">
        <ele>44</ele>
        <time>2013-03-17T08:20:28Z</time>
      </trkpt>
      <trkpt lat="48.05379" lon="-4.2227">
        <ele>43</ele>
        <time>2013-03-17T08:20:29Z</time>
      </trkpt>
      <trkpt lat="48.05382" lon="-4.22278">
        <ele>43</ele>
        <time>2013-03-17T08:20:30Z</time>
      </trkpt>
      <trkpt lat="48.05384" lon="-4.22284">
        <ele>43</ele>
        <time>2013-03-17T08:20:31Z</time>
      </trkpt>
      <trkpt lat="48.05387" lon="-4.2229">
        <ele>43</ele>
        <time>2013-03-17T08:20:32Z</time>
      </trkpt>
      <trkpt lat="48.05389" lon="-4.22298">
        <ele>43</ele>
        <time>2013-03-17T08:20:33Z</time>
      </trkpt>
      <trkpt lat="48.05392" lon="-4.22306">
        <ele>42</ele>
        <time>2013-03-17T08:20:34Z</time>
      </trkpt>
      <trkpt lat="48.05395" lon="-4.22315">
        <ele>42</ele>
        <time>2013-03-17T08:20:35Z</time>
      </trkpt>
      <trkpt lat="48.05398" lon="-4.22324">
        <ele>42</ele>
        <time>2013-03-17T08:20:36Z</time>
      </trkpt>
      <trkpt lat="48.054" lon="-4.22333">
        <ele>43</ele>
        <time>2013-03-17T08:20:37Z</time>
      </trkpt>
      <trkpt lat="48.05403" lon="-4.22342">
        <ele>43</ele>
        <time>2013-03-17T08:20:38Z</time>
      </trkpt>
      <trkpt lat="48.05405" lon="-4.2235">
        <ele>44</ele>
        <time>2013-03-17T08:20:39Z</time>
      </trkpt>
      <trkpt lat="48.05408" lon="-4.22357">
        <ele>45</ele>
        <time>2013-03-17T08:20:40Z</time>
      </trkpt>
      <trkpt lat="48.05411" lon="-4.22364">
        <ele>46</ele>
        <time>2013-03-17T08:20:41Z</time>
      </trkpt>
      <trkpt lat="48.05413" lon="-4.22372">
        <ele>47</ele>
        <time>2013-03-17T08:20:42Z</time>
      </trkpt>
      <trkpt lat="48.05416" lon="-4.2238">
        <ele>48</ele>
        <time>2013-03-17T08:20:43Z</time>
      </trkpt>
      <trkpt lat="48.0542" lon="-4.22387">
        <ele>49</ele>
        <time>2013-03-17T08:20:44Z</time>
      </trkpt>
      <trkpt lat="48.05423" lon="-4.22393">
        <ele>49</ele>
        <time>2013-03-17T08:20:45Z</time>
      </trkpt>
      <trkpt lat="48.05427" lon="-4.22398">
        <ele>50</ele>
        <time>2013-03-17T08:20:46Z</time>
      </trkpt>
      <trkpt lat="48.05431" lon="-4.22403">
        <ele>50</ele>
        <time>2013-03-17T08:20:47Z</time>
      </trkpt>
      <trkpt lat="48.05435" lon="-4.22409">
        <ele>51</ele>
        <time>2013-03-17T08:20:48Z</time>
      </trkpt>
      <trkpt lat="48.05438" lon="-4.22415">
        <ele>51</ele>
        <time>2013-03-17T08:20:49Z</time>
      </trkpt>
      <trkpt lat="48.05442" lon="-4.22422">
        <ele>51</ele>
        <time>2013-03-17T08:20:50Z</time>
      </trkpt>
      <trkpt lat="48.05445" lon="-4.22428">
        <ele>51</ele>
        <time>2013-03-17T08:20:51Z</time>
      </trkpt>
      <trkpt lat="48.05448" lon="-4.22434">
        <ele>51</ele>
        <time>2013-03-17T08:20:52Z</time>
      </trkpt>
      <trkpt lat="48.05452" lon="-4.22441">
        <ele>51</ele>
        <time>2013-03-17T08:20:53Z</time>
      </trkpt>
      <trkpt lat="48.05458" lon="-4.2245">
        <ele>51</ele>
        <time>2013-03-17T08:20:55Z</time>
      </trkpt>
      <trkpt lat="48.05461" lon="-4.22456">
        <ele>52</ele>
        <time>2013-03-17T08:20:56Z</time>
      </trkpt>
      <trkpt lat="48.05465" lon="-4.22463">
        <ele>52</ele>
        <time>2013-03-17T08:20:57Z</time>
      </trkpt>
      <trkpt lat="48.05469" lon="-4.22469">
        <ele>52</ele>
        <time>2013-03-17T08:20:58Z</time>
      </trkpt>
      <trkpt lat="48.05474" lon="-4.22475">
        <ele>51</ele>
        <time>2013-03-17T08:20:59Z</time>
      </trkpt>
      <trkpt lat="48.05479" lon="-4.22482">
        <ele>51</ele>
        <time>2013-03-17T08:21:00Z</time>
      </trkpt>
      <trkpt lat="48.05484" lon="-4.22489">
        <ele>51</ele>
        <time>2013-03-17T08:21:01Z</time>
      </trkpt>
      <trkpt lat="48.05489" lon="-4.22497">
        <ele>50</ele>
        <time>2013-03-17T08:21:02Z</time>
      </trkpt>
      <trkpt lat="48.05494" lon="-4.22503">
        <ele>50</ele>
        <time>2013-03-17T08:21:03Z</time>
      </trkpt>
      <trkpt lat="48.05497" lon="-4.22509">
        <ele>49</ele>
        <time>2013-03-17T08:21:04Z</time>
      </trkpt>
      <trkpt lat="48.05501" lon="-4.22516">
        <ele>49</ele>
        <time>2013-03-17T08:21:05Z</time>
      </trkpt>
      <trkpt lat="48.05505" lon="-4.22522">
        <ele>49</ele>
        <time>2013-03-17T08:21:06Z</time>
      </trkpt>
      <trkpt lat="48.0551" lon="-4.22528">
        <ele>48</ele>
        <time>2013-03-17T08:21:07Z</time>
      </trkpt>
      <trkpt lat="48.05513" lon="-4.22532">
        <ele>48</ele>
        <time>2013-03-17T08:21:08Z</time>
      </trkpt>
      <trkpt lat="48.05518" lon="-4.22541">
        <ele>48</ele>
        <time>2013-03-17T08:21:09Z</time>
      </trkpt>
      <trkpt lat="48.05522" lon="-4.22549">
        <ele>47</ele>
        <time>2013-03-17T08:21:10Z</time>
      </trkpt>
      <trkpt lat="48.05527" lon="-4.22558">
        <ele>47</ele>
        <time>2013-03-17T08:21:11Z</time>
      </trkpt>
      <trkpt lat="48.0553" lon="-4.22564">
        <ele>47</ele>
        <time>2013-03-17T08:21:12Z</time>
      </trkpt>
      <trkpt lat="48.05535" lon="-4.2257">
        <ele>46</ele>
        <time>2013-03-17T08:21:13Z</time>
      </trkpt>
      <trkpt lat="48.05539" lon="-4.22575">
        <ele>46</ele>
        <time>2013-03-17T08:21:14Z</time>
      </trkpt>
      <trkpt lat="48.05543" lon="-4.22581">
        <ele>45</ele>
        <time>2013-03-17T08:21:15Z</time>
      </trkpt>
      <trkpt lat="48.05547" lon="-4.22586">
        <ele>45</ele>
        <time>2013-03-17T08:21:16Z</time>
      </trkpt>
      <trkpt lat="48.05551" lon="-4.22593">
        <ele>46</ele>
        <time>2013-03-17T08:21:17Z</time>
      </trkpt>
      <trkpt lat="48.05555" lon="-4.226">
        <ele>46</ele>
        <time>2013-03-17T08:21:18Z</time>
      </trkpt>
      <trkpt lat="48.05559" lon="-4.22607">
        <ele>45</ele>
        <time>2013-03-17T08:21:19Z</time>
      </trkpt>
      <trkpt lat="48.05564" lon="-4.22613">
        <ele>45</ele>
        <time>2013-03-17T08:21:20Z</time>
      </trkpt>
      <trkpt lat="48.05568" lon="-4.22621">
        <ele>44</ele>
        <time>2013-03-17T08:21:21Z</time>
      </trkpt>
      <trkpt lat="48.05573" lon="-4.22629">
        <ele>44</ele>
        <time>2013-03-17T08:21:22Z</time>
      </trkpt>
      <trkpt lat="48.05577" lon="-4.22637">
        <ele>44</ele>
        <time>2013-03-17T08:21:23Z</time>
      </trkpt>
      <trkpt lat="48.05581" lon="-4.22645">
        <ele>45</ele>
        <time>2013-03-17T08:21:24Z</time>
      </trkpt>
      <trkpt lat="48.05585" lon="-4.22653">
        <ele>45</ele>
        <time>2013-03-17T08:21:25Z</time>
      </trkpt>
      <trkpt lat="48.05589" lon="-4.22659">
        <ele>45</ele>
        <time>2013-03-17T08:21:26Z</time>
      </trkpt>
      <trkpt lat="48.05592" lon="-4.22666">
        <ele>45</ele>
        <time>2013-03-17T08:21:27Z</time>
      </trkpt>
      <trkpt lat="48.05595" lon="-4.22674">
        <ele>45</ele>
        <time>2013-03-17T08:21:28Z</time>
      </trkpt>
      <trkpt lat="48.05599" lon="-4.22681">
        <ele>45</ele>
        <time>2013-03-17T08:21:29Z</time>
      </trkpt>
      <trkpt lat="48.05602" lon="-4.22689">
        <ele>45</ele>
        <time>2013-03-17T08:21:30Z</time>
      </trkpt>
      <trkpt lat="48.05605" lon="-4.22698">
        <ele>45</ele>
        <time>2013-03-17T08:21:31Z</time>
      </trkpt>
      <trkpt lat="48.05609" lon="-4.22707">
        <ele>45</ele>
        <time>2013-03-17T08:21:32Z</time>
      </trkpt>
      <trkpt lat="48.05611" lon="-4.22717">
        <ele>44</ele>
        <time>2013-03-17T08:21:33Z</time>
      </trkpt>
      <trkpt lat="48.05614" lon="-4.22724">
        <ele>44</ele>
        <time>2013-03-17T08:21:34Z</time>
      </trkpt>
      <trkpt lat="48.05616" lon="-4.22732">
        <ele>44</ele>
        <time>2013-03-17T08:21:35Z</time>
      </trkpt>
      <trkpt lat="48.05618" lon="-4.22741">
        <ele>43</ele>
        <time>2013-03-17T08:21:36Z</time>
      </trkpt>
      <trkpt lat="48.0562" lon="-4.22749">
        <ele>43</ele>
        <time>2013-03-17T08:21:37Z</time>
      </trkpt>
      <trkpt lat="48.05621" lon="-4.22757">
        <ele>42</ele>
        <time>2013-03-17T08:21:38Z</time>
      </trkpt>
      <trkpt lat="48.05623" lon="-4.22767">
        <ele>41</ele>
        <time>2013-03-17T08:21:39Z</time>
      </trkpt>
      <trkpt lat="48.05625" lon="-4.22774">
        <ele>41</ele>
        <time>2013-03-17T08:21:40Z</time>
      </trkpt>
      <trkpt lat="48.05626" lon="-4.22783">
        <ele>41</ele>
        <time>2013-03-17T08:21:41Z</time>
      </trkpt>
      <trkpt lat="48.05627" lon="-4.22793">
        <ele>40</ele>
        <time>2013-03-17T08:21:42Z</time>
      </trkpt>
      <trkpt lat="48.05627" lon="-4.22801">
        <ele>40</ele>
        <time>2013-03-17T08:21:43Z</time>
      </trkpt>
      <trkpt lat="48.05629" lon="-4.22818">
        <ele>41</ele>
        <time>2013-03-17T08:21:45Z</time>
      </trkpt>
      <trkpt lat="48.0563" lon="-4.22831">
        <ele>41</ele>
        <time>2013-03-17T08:21:46Z</time>
      </trkpt>
      <trkpt lat="48.05631" lon="-4.22841">
        <ele>42</ele>
        <time>2013-03-17T08:21:47Z</time>
      </trkpt>
      <trkpt lat="48.0563" lon="-4.22851">
        <ele>43</ele>
        <time>2013-03-17T08:21:48Z</time>
      </trkpt>
      <trkpt lat="48.05631" lon="-4.22859">
        <ele>43</ele>
        <time>2013-03-17T08:21:49Z</time>
      </trkpt>
      <trkpt lat="48.05631" lon="-4.22868">
        <ele>44</ele>
        <time>2013-03-17T08:21:50Z</time>
      </trkpt>
      <trkpt lat="48.05633" lon="-4.22877">
        <ele>44</ele>
        <time>2013-03-17T08:21:51Z</time>
      </trkpt>
      <trkpt lat="48.05634" lon="-4.22886">
        <ele>45</ele>
        <time>2013-03-17T08:21:52Z</time>
      </trkpt>
      <trkpt lat="48.05634" lon="-4.22896">
        <ele>45</ele>
        <time>2013-03-17T08:21:53Z</time>
      </trkpt>
      <trkpt lat="48.05635" lon="-4.22905">
        <ele>45</ele>
        <time>2013-03-17T08:21:54Z</time>
      </trkpt>
      <trkpt lat="48.05636" lon="-4.22914">
        <ele>45</ele>
        <time>2013-03-17T08:21:55Z</time>
      </trkpt>
      <trkpt lat="48.05637" lon="-4.22923">
        <ele>45</ele>
        <time>2013-03-17T08:21:56Z</time>
      </trkpt>
      <trkpt lat="48.05636" lon="-4.22943">
        <ele>46</ele>
        <time>2013-03-17T08:21:58Z</time>
      </trkpt>
      <trkpt lat="48.05635" lon="-4.22953">
        <ele>46</ele>
        <time>2013-03-17T08:21:59Z</time>
      </trkpt>
      <trkpt lat="48.05635" lon="-4.2296">
        <ele>46</ele>
        <time>2013-03-17T08:22:00Z</time>
      </trkpt>
      <trkpt lat="48.05636" lon="-4.22969">
        <ele>46</ele>
        <time>2013-03-17T08:22:01Z</time>
      </trkpt>
      <trkpt lat="48.05637" lon="-4.22979">
        <ele>46</ele>
        <time>2013-03-17T08:22:02Z</time>
      </trkpt>
      <trkpt lat="48.05638" lon="-4.22987">
        <ele>47</ele>
        <time>2013-03-17T08:22:03Z</time>
      </trkpt>
      <trkpt lat="48.05638" lon="-4.22997">
        <ele>47</ele>
        <time>2013-03-17T08:22:04Z</time>
      </trkpt>
      <trkpt lat="48.0564" lon="-4.23008">
        <ele>47</ele>
        <time>2013-03-17T08:22:05Z</time>
      </trkpt>
      <trkpt lat="48.05641" lon="-4.23017">
        <ele>47</ele>
        <time>2013-03-17T08:22:06Z</time>
      </trkpt>
      <trkpt lat="48.05643" lon="-4.23026">
        <ele>48</ele>
        <time>2013-03-17T08:22:07Z</time>
      </trkpt>
      <trkpt lat="48.05648" lon="-4.23043">
        <ele>48</ele>
        <time>2013-03-17T08:22:09Z</time>
      </trkpt>
      <trkpt lat="48.0565" lon="-4.23052">
        <ele>48</ele>
        <time>2013-03-17T08:22:10Z</time>
      </trkpt>
      <trkpt lat="48.05654" lon="-4.23071">
        <ele>48</ele>
        <time>2013-03-17T08:22:12Z</time>
      </trkpt>
      <trkpt lat="48.05657" lon="-4.23079">
        <ele>48</ele>
        <time>2013-03-17T08:22:13Z</time>
      </trkpt>
      <trkpt lat="48.05659" lon="-4.23087">
        <ele>48</ele>
        <time>2013-03-17T08:22:14Z</time>
      </trkpt>
      <trkpt lat="48.05661" lon="-4.23096">
        <ele>48</ele>
        <time>2013-03-17T08:22:15Z</time>
      </trkpt>
      <trkpt lat="48.05661" lon="-4.23107">
        <ele>48</ele>
        <time>2013-03-17T08:22:16Z</time>
      </trkpt>
      <trkpt lat="48.05663" lon="-4.23115">
        <ele>48</ele>
        <time>2013-03-17T08:22:17Z</time>
      </trkpt>
      <trkpt lat="48.05666" lon="-4.23123">
        <ele>48</ele>
        <time>2013-03-17T08:22:18Z</time>
      </trkpt>
      <trkpt lat="48.05669" lon="-4.23133">
        <ele>48</ele>
        <time>2013-03-17T08:22:19Z</time>
      </trkpt>
      <trkpt lat="48.05671" lon="-4.23142">
        <ele>48</ele>
        <time>2013-03-17T08:22:20Z</time>
      </trkpt>
      <trkpt lat="48.05675" lon="-4.23149">
        <ele>48</ele>
        <time>2013-03-17T08:22:21Z</time>
      </trkpt>
      <trkpt lat="48.05678" lon="-4.23156">
        <ele>48</ele>
        <time>2013-03-17T08:22:22Z</time>
      </trkpt>
      <trkpt lat="48.05682" lon="-4.23164">
        <ele>47</ele>
        <time>2013-03-17T08:22:23Z</time>
      </trkpt>
      <trkpt lat="48.05686" lon="-4.2317">
        <ele>47</ele>
        <time>2013-03-17T08:22:24Z</time>
      </trkpt>
      <trkpt lat="48.0569" lon="-4.23176">
        <ele>46</ele>
        <time>2013-03-17T08:22:25Z</time>
      </trkpt>
      <trkpt lat="48.05693" lon="-4.23183">
        <ele>45</ele>
        <time>2013-03-17T08:22:26Z</time>
      </trkpt>
      <trkpt lat="48.05697" lon="-4.23191">
        <ele>44</ele>
        <time>2013-03-17T08:22:27Z</time>
      </trkpt>
      <trkpt lat="48.05701" lon="-4.23197">
        <ele>43</ele>
        <time>2013-03-17T08:22:28Z</time>
      </trkpt>
      <trkpt lat="48.05705" lon="-4.23205">
        <ele>43</ele>
        <time>2013-03-17T08:22:29Z</time>
      </trkpt>
      <trkpt lat="48.05708" lon="-4.23213">
        <ele>42</ele>
        <time>2013-03-17T08:22:30Z</time>
      </trkpt>
      <trkpt lat="48.05711" lon="-4.2322">
        <ele>42</ele>
        <time>2013-03-17T08:22:31Z</time>
      </trkpt>
      <trkpt lat="48.05718" lon="-4.23232">
        <ele>41</ele>
        <time>2013-03-17T08:22:33Z</time>
      </trkpt>
      <trkpt lat="48.05722" lon="-4.23239">
        <ele>40</ele>
        <time>2013-03-17T08:22:34Z</time>
      </trkpt>
      <trkpt lat="48.05727" lon="-4.23247">
        <ele>40</ele>
        <time>2013-03-17T08:22:35Z</time>
      </trkpt>
      <trkpt lat="48.05731" lon="-4.23255">
        <ele>40</ele>
        <time>2013-03-17T08:22:36Z</time>
      </trkpt>
      <trkpt lat="48.05735" lon="-4.23261">
        <ele>39</ele>
        <time>2013-03-17T08:22:37Z</time>
      </trkpt>
      <trkpt lat="48.05739" lon="-4.23268">
        <ele>39</ele>
        <time>2013-03-17T08:22:38Z</time>
      </trkpt>
      <trkpt lat="48.05743" lon="-4.23273">
        <ele>39</ele>
        <time>2013-03-17T08:22:39Z</time>
      </trkpt>
      <trkpt lat="48.05747" lon="-4.2328">
        <ele>39</ele>
        <time>2013-03-17T08:22:40Z</time>
      </trkpt>
      <trkpt lat="48.0575" lon="-4.23286">
        <ele>40</ele>
        <time>2013-03-17T08:22:41Z</time>
      </trkpt>
      <trkpt lat="48.05754" lon="-4.23293">
        <ele>39</ele>
        <time>2013-03-17T08:22:42Z</time>
      </trkpt>
      <trkpt lat="48.05758" lon="-4.233">
        <ele>40</ele>
        <time>2013-03-17T08:22:43Z</time>
      </trkpt>
      <trkpt lat="48.05766" lon="-4.23315">
        <ele>40</ele>
        <time>2013-03-17T08:22:45Z</time>
      </trkpt>
      <trkpt lat="48.05774" lon="-4.23338">
        <ele>40</ele>
        <time>2013-03-17T08:22:47Z</time>
      </trkpt>
      <trkpt lat="48.05779" lon="-4.23347">
        <ele>40</ele>
        <time>2013-03-17T08:22:48Z</time>
      </trkpt>
      <trkpt lat="48.05783" lon="-4.23354">
        <ele>40</ele>
        <time>2013-03-17T08:22:49Z</time>
      </trkpt>
      <trkpt lat="48.05786" lon="-4.2336">
        <ele>39</ele>
        <time>2013-03-17T08:22:50Z</time>
      </trkpt>
      <trkpt lat="48.05789" lon="-4.23367">
        <ele>39</ele>
        <time>2013-03-17T08:22:51Z</time>
      </trkpt>
      <trkpt lat="48.05796" lon="-4.23382">
        <ele>37</ele>
        <time>2013-03-17T08:22:53Z</time>
      </trkpt>
      <trkpt lat="48.05804" lon="-4.23395">
        <ele>36</ele>
        <time>2013-03-17T08:22:55Z</time>
      </trkpt>
      <trkpt lat="48.05809" lon="-4.23407">
        <ele>34</ele>
        <time>2013-03-17T08:22:57Z</time>
      </trkpt>
      <trkpt lat="48.05814" lon="-4.23421">
        <ele>33</ele>
        <time>2013-03-17T08:22:59Z</time>
      </trkpt>
      <trkpt lat="48.05819" lon="-4.23437">
        <ele>31</ele>
        <time>2013-03-17T08:23:01Z</time>
      </trkpt>
      <trkpt lat="48.05822" lon="-4.23452">
        <ele>29</ele>
        <time>2013-03-17T08:23:03Z</time>
      </trkpt>
      <trkpt lat="48.05826" lon="-4.23468">
        <ele>29</ele>
        <time>2013-03-17T08:23:05Z</time>
      </trkpt>
      <trkpt lat="48.05828" lon="-4.23485">
        <ele>29</ele>
        <time>2013-03-17T08:23:07Z</time>
      </trkpt>
      <trkpt lat="48.05832" lon="-4.23505">
        <ele>30</ele>
        <time>2013-03-17T08:23:09Z</time>
      </trkpt>
      <trkpt lat="48.05836" lon="-4.23524">
        <ele>31</ele>
        <time>2013-03-17T08:23:11Z</time>
      </trkpt>
      <trkpt lat="48.05836" lon="-4.23534">
        <ele>32</ele>
        <time>2013-03-17T08:23:12Z</time>
      </trkpt>
      <trkpt lat="48.05836" lon="-4.23545">
        <ele>33</ele>
        <time>2013-03-17T08:23:13Z</time>
      </trkpt>
      <trkpt lat="48.05837" lon="-4.23556">
        <ele>34</ele>
        <time>2013-03-17T08:23:14Z</time>
      </trkpt>
      <trkpt lat="48.05837" lon="-4.23566">
        <ele>35</ele>
        <time>2013-03-17T08:23:15Z</time>
      </trkpt>
      <trkpt lat="48.05837" lon="-4.23586">
        <ele>38</ele>
        <time>2013-03-17T08:23:17Z</time>
      </trkpt>
      <trkpt lat="48.05837" lon="-4.23596">
        <ele>38</ele>
        <time>2013-03-17T08:23:18Z</time>
      </trkpt>
      <trkpt lat="48.05837" lon="-4.23605">
        <ele>39</ele>
        <time>2013-03-17T08:23:19Z</time>
      </trkpt>
      <trkpt lat="48.05837" lon="-4.23615">
        <ele>40</ele>
        <time>2013-03-17T08:23:20Z</time>
      </trkpt>
      <trkpt lat="48.05837" lon="-4.23625">
        <ele>40</ele>
        <time>2013-03-17T08:23:21Z</time>
      </trkpt>
      <trkpt lat="48.05836" lon="-4.23635">
        <ele>40</ele>
        <time>2013-03-17T08:23:22Z</time>
      </trkpt>
      <trkpt lat="48.05837" lon="-4.23644">
        <ele>41</ele>
        <time>2013-03-17T08:23:23Z</time>
      </trkpt>
      <trkpt lat="48.05837" lon="-4.23653">
        <ele>41</ele>
        <time>2013-03-17T08:23:24Z</time>
      </trkpt>
      <trkpt lat="48.05837" lon="-4.23663">
        <ele>41</ele>
        <time>2013-03-17T08:23:25Z</time>
      </trkpt>
      <trkpt lat="48.05838" lon="-4.23672">
        <ele>41</ele>
        <time>2013-03-17T08:23:26Z</time>
      </trkpt>
      <trkpt lat="48.05838" lon="-4.23681">
        <ele>42</ele>
        <time>2013-03-17T08:23:27Z</time>
      </trkpt>
      <trkpt lat="48.05838" lon="-4.23695">
        <ele>42</ele>
        <time>2013-03-17T08:23:29Z</time>
      </trkpt>
      <trkpt lat="48.05838" lon="-4.23705">
        <ele>42</ele>
        <time>2013-03-17T08:23:30Z</time>
      </trkpt>
      <trkpt lat="48.05839" lon="-4.23715">
        <ele>41</ele>
        <time>2013-03-17T08:23:31Z</time>
      </trkpt>
      <trkpt lat="48.05839" lon="-4.23725">
        <ele>41</ele>
        <time>2013-03-17T08:23:32Z</time>
      </trkpt>
      <trkpt lat="48.0584" lon="-4.23734">
        <ele>41</ele>
        <time>2013-03-17T08:23:33Z</time>
      </trkpt>
      <trkpt lat="48.0584" lon="-4.23742">
        <ele>41</ele>
        <time>2013-03-17T08:23:34Z</time>
      </trkpt>
      <trkpt lat="48.05841" lon="-4.2375">
        <ele>40</ele>
        <time>2013-03-17T08:23:35Z</time>
      </trkpt>
      <trkpt lat="48.05841" lon="-4.23758">
        <ele>40</ele>
        <time>2013-03-17T08:23:36Z</time>
      </trkpt>
      <trkpt lat="48.05842" lon="-4.23767">
        <ele>40</ele>
        <time>2013-03-17T08:23:37Z</time>
      </trkpt>
      <trkpt lat="48.05843" lon="-4.23774">
        <ele>39</ele>
        <time>2013-03-17T08:23:38Z</time>
      </trkpt>
      <trkpt lat="48.05846" lon="-4.23789">
        <ele>39</ele>
        <time>2013-03-17T08:23:40Z</time>
      </trkpt>
      <trkpt lat="48.0585" lon="-4.23804">
        <ele>39</ele>
        <time>2013-03-17T08:23:42Z</time>
      </trkpt>
      <trkpt lat="48.05851" lon="-4.23811">
        <ele>39</ele>
        <time>2013-03-17T08:23:43Z</time>
      </trkpt>
      <trkpt lat="48.05852" lon="-4.23825">
        <ele>39</ele>
        <time>2013-03-17T08:23:45Z</time>
      </trkpt>
      <trkpt lat="48.05853" lon="-4.23833">
        <ele>38</ele>
        <time>2013-03-17T08:23:46Z</time>
      </trkpt>
      <trkpt lat="48.05854" lon="-4.23841">
        <ele>38</ele>
        <time>2013-03-17T08:23:47Z</time>
      </trkpt>
      <trkpt lat="48.05855" lon="-4.23849">
        <ele>38</ele>
        <time>2013-03-17T08:23:48Z</time>
      </trkpt>
      <trkpt lat="48.05861" lon="-4.23863">
        <ele>37</ele>
        <time>2013-03-17T08:23:50Z</time>
      </trkpt>
      <trkpt lat="48.05864" lon="-4.23871">
        <ele>37</ele>
        <time>2013-03-17T08:23:51Z</time>
      </trkpt>
      <trkpt lat="48.05866" lon="-4.2388">
        <ele>37</ele>
        <time>2013-03-17T08:23:52Z</time>
      </trkpt>
      <trkpt lat="48.05869" lon="-4.23888">
        <ele>37</ele>
        <time>2013-03-17T08:23:53Z</time>
      </trkpt>
      <trkpt lat="48.05872" lon="-4.23896">
        <ele>36</ele>
        <time>2013-03-17T08:23:54Z</time>
      </trkpt>
      <trkpt lat="48.05878" lon="-4.2391">
        <ele>36</ele>
        <time>2013-03-17T08:23:56Z</time>
      </trkpt>
      <trkpt lat="48.05886" lon="-4.23921">
        <ele>36</ele>
        <time>2013-03-17T08:23:58Z</time>
      </trkpt>
      <trkpt lat="48.05893" lon="-4.23939">
        <ele>35</ele>
        <time>2013-03-17T08:24:00Z</time>
      </trkpt>
      <trkpt lat="48.05895" lon="-4.23949">
        <ele>35</ele>
        <time>2013-03-17T08:24:01Z</time>
      </trkpt>
      <trkpt lat="48.05898" lon="-4.23956">
        <ele>35</ele>
        <time>2013-03-17T08:24:02Z</time>
      </trkpt>
      <trkpt lat="48.05901" lon="-4.23963">
        <ele>34</ele>
        <time>2013-03-17T08:24:03Z</time>
      </trkpt>
      <trkpt lat="48.05903" lon="-4.2397">
        <ele>34</ele>
        <time>2013-03-17T08:24:04Z</time>
      </trkpt>
      <trkpt lat="48.05906" lon="-4.23977">
        <ele>34</ele>
        <time>2013-03-17T08:24:05Z</time>
      </trkpt>
      <trkpt lat="48.05908" lon="-4.23983">
        <ele>33</ele>
        <time>2013-03-17T08:24:06Z</time>
      </trkpt>
      <trkpt lat="48.05916" lon="-4.24001">
        <ele>33</ele>
        <time>2013-03-17T08:24:08Z</time>
      </trkpt>
      <trkpt lat="48.05919" lon="-4.2401">
        <ele>33</ele>
        <time>2013-03-17T08:24:09Z</time>
      </trkpt>
      <trkpt lat="48.05923" lon="-4.24019">
        <ele>33</ele>
        <time>2013-03-17T08:24:10Z</time>
      </trkpt>
      <trkpt lat="48.05926" lon="-4.24027">
        <ele>33</ele>
        <time>2013-03-17T08:24:11Z</time>
      </trkpt>
      <trkpt lat="48.05929" lon="-4.24035">
        <ele>33</ele>
        <time>2013-03-17T08:24:12Z</time>
      </trkpt>
      <trkpt lat="48.05932" lon="-4.24041">
        <ele>33</ele>
        <time>2013-03-17T08:24:13Z</time>
      </trkpt>
      <trkpt lat="48.05938" lon="-4.24051">
        <ele>32</ele>
        <time>2013-03-17T08:24:15Z</time>
      </trkpt>
      <trkpt lat="48.05942" lon="-4.24056">
        <ele>32</ele>
        <time>2013-03-17T08:24:16Z</time>
      </trkpt>
      <trkpt lat="48.05948" lon="-4.24063">
        <ele>32</ele>
        <time>2013-03-17T08:24:17Z</time>
      </trkpt>
      <trkpt lat="48.05953" lon="-4.24069">
        <ele>31</ele>
        <time>2013-03-17T08:24:18Z</time>
      </trkpt>
      <trkpt lat="48.05958" lon="-4.24075">
        <ele>31</ele>
        <time>2013-03-17T08:24:19Z</time>
      </trkpt>
      <trkpt lat="48.05963" lon="-4.24081">
        <ele>31</ele>
        <time>2013-03-17T08:24:20Z</time>
      </trkpt>
      <trkpt lat="48.05968" lon="-4.24087">
        <ele>30</ele>
        <time>2013-03-17T08:24:21Z</time>
      </trkpt>
      <trkpt lat="48.05973" lon="-4.24093">
        <ele>30</ele>
        <time>2013-03-17T08:24:22Z</time>
      </trkpt>
      <trkpt lat="48.05977" lon="-4.24098">
        <ele>29</ele>
        <time>2013-03-17T08:24:23Z</time>
      </trkpt>
      <trkpt lat="48.05982" lon="-4.24103">
        <ele>29</ele>
        <time>2013-03-17T08:24:24Z</time>
      </trkpt>
      <trkpt lat="48.05987" lon="-4.24108">
        <ele>28</ele>
        <time>2013-03-17T08:24:25Z</time>
      </trkpt>
      <trkpt lat="48.05991" lon="-4.24114">
        <ele>28</ele>
        <time>2013-03-17T08:24:26Z</time>
      </trkpt>
      <trkpt lat="48.05997" lon="-4.2412">
        <ele>27</ele>
        <time>2013-03-17T08:24:27Z</time>
      </trkpt>
      <trkpt lat="48.06001" lon="-4.24125">
        <ele>27</ele>
        <time>2013-03-17T08:24:28Z</time>
      </trkpt>
      <trkpt lat="48.06006" lon="-4.2413">
        <ele>27</ele>
        <time>2013-03-17T08:24:29Z</time>
      </trkpt>
      <trkpt lat="48.06011" lon="-4.24135">
        <ele>27</ele>
        <time>2013-03-17T08:24:30Z</time>
      </trkpt>
      <trkpt lat="48.06016" lon="-4.24139">
        <ele>28</ele>
        <time>2013-03-17T08:24:31Z</time>
      </trkpt>
      <trkpt lat="48.06022" lon="-4.24144">
        <ele>28</ele>
        <time>2013-03-17T08:24:32Z</time>
      </trkpt>
      <trkpt lat="48.06028" lon="-4.2415">
        <ele>28</ele>
        <time>2013-03-17T08:24:33Z</time>
      </trkpt>
      <trkpt lat="48.06034" lon="-4.24156">
        <ele>28</ele>
        <time>2013-03-17T08:24:34Z</time>
      </trkpt>
      <trkpt lat="48.06039" lon="-4.24162">
        <ele>28</ele>
        <time>2013-03-17T08:24:35Z</time>
      </trkpt>
      <trkpt lat="48.06044" lon="-4.24167">
        <ele>28</ele>
        <time>2013-03-17T08:24:36Z</time>
      </trkpt>
      <trkpt lat="48.06049" lon="-4.24172">
        <ele>28</ele>
        <time>2013-03-17T08:24:37Z</time>
      </trkpt>
      <trkpt lat="48.06055" lon="-4.24177">
        <ele>28</ele>
        <time>2013-03-17T08:24:38Z</time>
      </trkpt>
      <trkpt lat="48.0606" lon="-4.24182">
        <ele>28</ele>
        <time>2013-03-17T08:24:39Z</time>
      </trkpt>
      <trkpt lat="48.06064" lon="-4.24187">
        <ele>27</ele>
        <time>2013-03-17T08:24:40Z</time>
      </trkpt>
      <trkpt lat="48.0607" lon="-4.24192">
        <ele>27</ele>
        <time>2013-03-17T08:24:41Z</time>
      </trkpt>
      <trkpt lat="48.06075" lon="-4.24198">
        <ele>27</ele>
        <time>2013-03-17T08:24:42Z</time>
      </trkpt>
      <trkpt lat="48.0608" lon="-4.24202">
        <ele>27</ele>
        <time>2013-03-17T08:24:43Z</time>
      </trkpt>
      <trkpt lat="48.0609" lon="-4.24211">
        <ele>28</ele>
        <time>2013-03-17T08:24:45Z</time>
      </trkpt>
      <trkpt lat="48.06095" lon="-4.24218">
        <ele>28</ele>
        <time>2013-03-17T08:24:46Z</time>
      </trkpt>
      <trkpt lat="48.061" lon="-4.24221">
        <ele>28</ele>
        <time>2013-03-17T08:24:47Z</time>
      </trkpt>
      <trkpt lat="48.06105" lon="-4.24226">
        <ele>27</ele>
        <time>2013-03-17T08:24:48Z</time>
      </trkpt>
      <trkpt lat="48.0611" lon="-4.24232">
        <ele>27</ele>
        <time>2013-03-17T08:24:49Z</time>
      </trkpt>
      <trkpt lat="48.06121" lon="-4.24245">
        <ele>27</ele>
        <time>2013-03-17T08:24:51Z</time>
      </trkpt>
      <trkpt lat="48.06131" lon="-4.24259">
        <ele>26</ele>
        <time>2013-03-17T08:24:53Z</time>
      </trkpt>
      <trkpt lat="48.06135" lon="-4.24265">
        <ele>26</ele>
        <time>2013-03-17T08:24:54Z</time>
      </trkpt>
      <trkpt lat="48.06139" lon="-4.24271">
        <ele>26</ele>
        <time>2013-03-17T08:24:55Z</time>
      </trkpt>
      <trkpt lat="48.06143" lon="-4.24277">
        <ele>26</ele>
        <time>2013-03-17T08:24:56Z</time>
      </trkpt>
      <trkpt lat="48.06147" lon="-4.24284">
        <ele>25</ele>
        <time>2013-03-17T08:24:57Z</time>
      </trkpt>
      <trkpt lat="48.06152" lon="-4.2429">
        <ele>25</ele>
        <time>2013-03-17T08:24:58Z</time>
      </trkpt>
      <trkpt lat="48.06156" lon="-4.24296">
        <ele>25</ele>
        <time>2013-03-17T08:24:59Z</time>
      </trkpt>
      <trkpt lat="48.06159" lon="-4.24301">
        <ele>26</ele>
        <time>2013-03-17T08:25:00Z</time>
      </trkpt>
      <trkpt lat="48.06163" lon="-4.24307">
        <ele>26</ele>
        <time>2013-03-17T08:25:01Z</time>
      </trkpt>
      <trkpt lat="48.06166" lon="-4.24313">
        <ele>26</ele>
        <time>2013-03-17T08:25:02Z</time>
      </trkpt>
      <trkpt lat="48.0617" lon="-4.2432">
        <ele>26</ele>
        <time>2013-03-17T08:25:03Z</time>
      </trkpt>
      <trkpt lat="48.06172" lon="-4.24325">
        <ele>26</ele>
        <time>2013-03-17T08:25:04Z</time>
      </trkpt>
      <trkpt lat="48.06175" lon="-4.24333">
        <ele>26</ele>
        <time>2013-03-17T08:25:05Z</time>
      </trkpt>
      <trkpt lat="48.06178" lon="-4.24339">
        <ele>26</ele>
        <time>2013-03-17T08:25:06Z</time>
      </trkpt>
      <trkpt lat="48.06182" lon="-4.24347">
        <ele>26</ele>
        <time>2013-03-17T08:25:07Z</time>
      </trkpt>
      <trkpt lat="48.06185" lon="-4.24354">
        <ele>26</ele>
        <time>2013-03-17T08:25:08Z</time>
      </trkpt>
      <trkpt lat="48.06189" lon="-4.24362">
        <ele>26</ele>
        <time>2013-03-17T08:25:09Z</time>
      </trkpt>
      <trkpt lat="48.06193" lon="-4.2437">
        <ele>26</ele>
        <time>2013-03-17T08:25:10Z</time>
      </trkpt>
      <trkpt lat="48.06196" lon="-4.24378">
        <ele>26</ele>
        <time>2013-03-17T08:25:11Z</time>
      </trkpt>
      <trkpt lat="48.06199" lon="-4.24385">
        <ele>25</ele>
        <time>2013-03-17T08:25:12Z</time>
      </trkpt>
      <trkpt lat="48.06203" lon="-4.24392">
        <ele>25</ele>
        <time>2013-03-17T08:25:13Z</time>
      </trkpt>
      <trkpt lat="48.06206" lon="-4.244">
        <ele>25</ele>
        <time>2013-03-17T08:25:14Z</time>
      </trkpt>
      <trkpt lat="48.06212" lon="-4.24417">
        <ele>24</ele>
        <time>2013-03-17T08:25:16Z</time>
      </trkpt>
      <trkpt lat="48.06215" lon="-4.24428">
        <ele>23</ele>
        <time>2013-03-17T08:25:17Z</time>
      </trkpt>
      <trkpt lat="48.06219" lon="-4.24437">
        <ele>23</ele>
        <time>2013-03-17T08:25:18Z</time>
      </trkpt>
      <trkpt lat="48.06222" lon="-4.24445">
        <ele>23</ele>
        <time>2013-03-17T08:25:19Z</time>
      </trkpt>
      <trkpt lat="48.06224" lon="-4.24453">
        <ele>23</ele>
        <time>2013-03-17T08:25:20Z</time>
      </trkpt>
      <trkpt lat="48.06227" lon="-4.24462">
        <ele>22</ele>
        <time>2013-03-17T08:25:21Z</time>
      </trkpt>
      <trkpt lat="48.06229" lon="-4.24471">
        <ele>22</ele>
        <time>2013-03-17T08:25:22Z</time>
      </trkpt>
      <trkpt lat="48.06231" lon="-4.24479">
        <ele>23</ele>
        <time>2013-03-17T08:25:23Z</time>
      </trkpt>
      <trkpt lat="48.06232" lon="-4.24488">
        <ele>23</ele>
        <time>2013-03-17T08:25:24Z</time>
      </trkpt>
      <trkpt lat="48.06233" lon="-4.24496">
        <ele>23</ele>
        <time>2013-03-17T08:25:25Z</time>
      </trkpt>
      <trkpt lat="48.06235" lon="-4.24504">
        <ele>24</ele>
        <time>2013-03-17T08:25:26Z</time>
      </trkpt>
      <trkpt lat="48.06237" lon="-4.24513">
        <ele>24</ele>
        <time>2013-03-17T08:25:27Z</time>
      </trkpt>
      <trkpt lat="48.06238" lon="-4.24521">
        <ele>24</ele>
        <time>2013-03-17T08:25:28Z</time>
      </trkpt>
      <trkpt lat="48.0624" lon="-4.24528">
        <ele>24</ele>
        <time>2013-03-17T08:25:29Z</time>
      </trkpt>
      <trkpt lat="48.06241" lon="-4.24537">
        <ele>24</ele>
        <time>2013-03-17T08:25:30Z</time>
      </trkpt>
      <trkpt lat="48.06243" lon="-4.24548">
        <ele>24</ele>
        <time>2013-03-17T08:25:31Z</time>
      </trkpt>
      <trkpt lat="48.06244" lon="-4.24558">
        <ele>24</ele>
        <time>2013-03-17T08:25:32Z</time>
      </trkpt>
      <trkpt lat="48.06247" lon="-4.24567">
        <ele>24</ele>
        <time>2013-03-17T08:25:33Z</time>
      </trkpt>
      <trkpt lat="48.0625" lon="-4.24575">
        <ele>24</ele>
        <time>2013-03-17T08:25:34Z</time>
      </trkpt>
      <trkpt lat="48.06251" lon="-4.24585">
        <ele>25</ele>
        <time>2013-03-17T08:25:35Z</time>
      </trkpt>
      <trkpt lat="48.06251" lon="-4.24594">
        <ele>25</ele>
        <time>2013-03-17T08:25:36Z</time>
      </trkpt>
      <trkpt lat="48.06253" lon="-4.24604">
        <ele>25</ele>
        <time>2013-03-17T08:25:37Z</time>
      </trkpt>
      <trkpt lat="48.06255" lon="-4.24613">
        <ele>25</ele>
        <time>2013-03-17T08:25:38Z</time>
      </trkpt>
      <trkpt lat="48.06257" lon="-4.24624">
        <ele>25</ele>
        <time>2013-03-17T08:25:39Z</time>
      </trkpt>
      <trkpt lat="48.06262" lon="-4.24644">
        <ele>25</ele>
        <time>2013-03-17T08:25:41Z</time>
      </trkpt>
      <trkpt lat="48.06264" lon="-4.24652">
        <ele>25</ele>
        <time>2013-03-17T08:25:42Z</time>
      </trkpt>
      <trkpt lat="48.06266" lon="-4.24659">
        <ele>25</ele>
        <time>2013-03-17T08:25:43Z</time>
      </trkpt>
      <trkpt lat="48.06269" lon="-4.24669">
        <ele>25</ele>
        <time>2013-03-17T08:25:44Z</time>
      </trkpt>
      <trkpt lat="48.0627" lon="-4.24679">
        <ele>25</ele>
        <time>2013-03-17T08:25:45Z</time>
      </trkpt>
      <trkpt lat="48.06272" lon="-4.24689">
        <ele>25</ele>
        <time>2013-03-17T08:25:46Z</time>
      </trkpt>
      <trkpt lat="48.06273" lon="-4.24697">
        <ele>25</ele>
        <time>2013-03-17T08:25:47Z</time>
      </trkpt>
      <trkpt lat="48.06276" lon="-4.24705">
        <ele>25</ele>
        <time>2013-03-17T08:25:48Z</time>
      </trkpt>
      <trkpt lat="48.06278" lon="-4.24721">
        <ele>25</ele>
        <time>2013-03-17T08:25:50Z</time>
      </trkpt>
      <trkpt lat="48.0628" lon="-4.24729">
        <ele>25</ele>
        <time>2013-03-17T08:25:51Z</time>
      </trkpt>
      <trkpt lat="48.06282" lon="-4.2474">
        <ele>25</ele>
        <time>2013-03-17T08:25:52Z</time>
      </trkpt>
      <trkpt lat="48.06285" lon="-4.2475">
        <ele>25</ele>
        <time>2013-03-17T08:25:53Z</time>
      </trkpt>
      <trkpt lat="48.06288" lon="-4.24761">
        <ele>25</ele>
        <time>2013-03-17T08:25:54Z</time>
      </trkpt>
      <trkpt lat="48.06291" lon="-4.24771">
        <ele>25</ele>
        <time>2013-03-17T08:25:55Z</time>
      </trkpt>
      <trkpt lat="48.06294" lon="-4.24779">
        <ele>25</ele>
        <time>2013-03-17T08:25:56Z</time>
      </trkpt>
      <trkpt lat="48.06297" lon="-4.24787">
        <ele>26</ele>
        <time>2013-03-17T08:25:57Z</time>
      </trkpt>
      <trkpt lat="48.063" lon="-4.24794">
        <ele>26</ele>
        <time>2013-03-17T08:25:58Z</time>
      </trkpt>
      <trkpt lat="48.06304" lon="-4.24802">
        <ele>26</ele>
        <time>2013-03-17T08:25:59Z</time>
      </trkpt>
      <trkpt lat="48.06308" lon="-4.24811">
        <ele>26</ele>
        <time>2013-03-17T08:26:00Z</time>
      </trkpt>
      <trkpt lat="48.06312" lon="-4.24818">
        <ele>27</ele>
        <time>2013-03-17T08:26:01Z</time>
      </trkpt>
      <trkpt lat="48.06315" lon="-4.24825">
        <ele>27</ele>
        <time>2013-03-17T08:26:02Z</time>
      </trkpt>
      <trkpt lat="48.06319" lon="-4.24832">
        <ele>27</ele>
        <time>2013-03-17T08:26:03Z</time>
      </trkpt>
      <trkpt lat="48.06323" lon="-4.24839">
        <ele>27</ele>
        <time>2013-03-17T08:26:04Z</time>
      </trkpt>
      <trkpt lat="48.06326" lon="-4.24847">
        <ele>27</ele>
        <time>2013-03-17T08:26:05Z</time>
      </trkpt>
      <trkpt lat="48.0633" lon="-4.24854">
        <ele>27</ele>
        <time>2013-03-17T08:26:06Z</time>
      </trkpt>
      <trkpt lat="48.06333" lon="-4.24862">
        <ele>27</ele>
        <time>2013-03-17T08:26:07Z</time>
      </trkpt>
      <trkpt lat="48.06336" lon="-4.24869">
        <ele>27</ele>
        <time>2013-03-17T08:26:08Z</time>
      </trkpt>
      <trkpt lat="48.0634" lon="-4.24876">
        <ele>27</ele>
        <time>2013-03-17T08:26:09Z</time>
      </trkpt>
      <trkpt lat="48.06344" lon="-4.24884">
        <ele>27</ele>
        <time>2013-03-17T08:26:10Z</time>
      </trkpt>
      <trkpt lat="48.06348" lon="-4.24892">
        <ele>27</ele>
        <time>2013-03-17T08:26:11Z</time>
      </trkpt>
      <trkpt lat="48.06352" lon="-4.24899">
        <ele>27</ele>
        <time>2013-03-17T08:26:12Z</time>
      </trkpt>
      <trkpt lat="48.06356" lon="-4.24906">
        <ele>27</ele>
        <time>2013-03-17T08:26:13Z</time>
      </trkpt>
      <trkpt lat="48.0636" lon="-4.24913">
        <ele>27</ele>
        <time>2013-03-17T08:26:14Z</time>
      </trkpt>
      <trkpt lat="48.06364" lon="-4.2492">
        <ele>26</ele>
        <time>2013-03-17T08:26:15Z</time>
      </trkpt>
      <trkpt lat="48.06369" lon="-4.24927">
        <ele>26</ele>
        <time>2013-03-17T08:26:16Z</time>
      </trkpt>
      <trkpt lat="48.06373" lon="-4.24934">
        <ele>25</ele>
        <time>2013-03-17T08:26:17Z</time>
      </trkpt>
      <trkpt lat="48.06377" lon="-4.2494">
        <ele>24</ele>
        <time>2013-03-17T08:26:18Z</time>
      </trkpt>
      <trkpt lat="48.06381" lon="-4.24946">
        <ele>24</ele>
        <time>2013-03-17T08:26:19Z</time>
      </trkpt>
      <trkpt lat="48.06386" lon="-4.24953">
        <ele>23</ele>
        <time>2013-03-17T08:26:20Z</time>
      </trkpt>
      <trkpt lat="48.0639" lon="-4.24959">
        <ele>23</ele>
        <time>2013-03-17T08:26:21Z</time>
      </trkpt>
      <trkpt lat="48.06395" lon="-4.24965">
        <ele>22</ele>
        <time>2013-03-17T08:26:22Z</time>
      </trkpt>
      <trkpt lat="48.064" lon="-4.2497">
        <ele>22</ele>
        <time>2013-03-17T08:26:23Z</time>
      </trkpt>
      <trkpt lat="48.06405" lon="-4.24976">
        <ele>21</ele>
        <time>2013-03-17T08:26:24Z</time>
      </trkpt>
      <trkpt lat="48.0641" lon="-4.24981">
        <ele>21</ele>
        <time>2013-03-17T08:26:25Z</time>
      </trkpt>
      <trkpt lat="48.06415" lon="-4.24987">
        <ele>21</ele>
        <time>2013-03-17T08:26:26Z</time>
      </trkpt>
      <trkpt lat="48.06421" lon="-4.24992">
        <ele>20</ele>
        <time>2013-03-17T08:26:27Z</time>
      </trkpt>
      <trkpt lat="48.06426" lon="-4.24997">
        <ele>20</ele>
        <time>2013-03-17T08:26:28Z</time>
      </trkpt>
      <trkpt lat="48.06431" lon="-4.25002">
        <ele>20</ele>
        <time>2013-03-17T08:26:29Z</time>
      </trkpt>
      <trkpt lat="48.06436" lon="-4.25007">
        <ele>20</ele>
        <time>2013-03-17T08:26:30Z</time>
      </trkpt>
      <trkpt lat="48.06441" lon="-4.25011">
        <ele>20</ele>
        <time>2013-03-17T08:26:31Z</time>
      </trkpt>
      <trkpt lat="48.06448" lon="-4.25016">
        <ele>20</ele>
        <time>2013-03-17T08:26:32Z</time>
      </trkpt>
      <trkpt lat="48.06454" lon="-4.25021">
        <ele>20</ele>
        <time>2013-03-17T08:26:33Z</time>
      </trkpt>
      <trkpt lat="48.06458" lon="-4.25024">
        <ele>19</ele>
        <time>2013-03-17T08:26:34Z</time>
      </trkpt>
      <trkpt lat="48.06463" lon="-4.25028">
        <ele>19</ele>
        <time>2013-03-17T08:26:35Z</time>
      </trkpt>
      <trkpt lat="48.06469" lon="-4.25032">
        <ele>18</ele>
        <time>2013-03-17T08:26:36Z</time>
      </trkpt>
      <trkpt lat="48.06474" lon="-4.25035">
        <ele>18</ele>
        <time>2013-03-17T08:26:37Z</time>
      </trkpt>
      <trkpt lat="48.06486" lon="-4.25043">
        <ele>17</ele>
        <time>2013-03-17T08:26:39Z</time>
      </trkpt>
      <trkpt lat="48.06498" lon="-4.25051">
        <ele>16</ele>
        <time>2013-03-17T08:26:41Z</time>
      </trkpt>
      <trkpt lat="48.06504" lon="-4.25055">
        <ele>15</ele>
        <time>2013-03-17T08:26:42Z</time>
      </trkpt>
      <trkpt lat="48.06511" lon="-4.25059">
        <ele>15</ele>
        <time>2013-03-17T08:26:43Z</time>
      </trkpt>
      <trkpt lat="48.06517" lon="-4.25062">
        <ele>15</ele>
        <time>2013-03-17T08:26:44Z</time>
      </trkpt>
      <trkpt lat="48.06523" lon="-4.25066">
        <ele>15</ele>
        <time>2013-03-17T08:26:45Z</time>
      </trkpt>
      <trkpt lat="48.0653" lon="-4.25069">
        <ele>15</ele>
        <time>2013-03-17T08:26:46Z</time>
      </trkpt>
      <trkpt lat="48.06535" lon="-4.25073">
        <ele>15</ele>
        <time>2013-03-17T08:26:47Z</time>
      </trkpt>
      <trkpt lat="48.0654" lon="-4.25076">
        <ele>15</ele>
        <time>2013-03-17T08:26:48Z</time>
      </trkpt>
      <trkpt lat="48.06546" lon="-4.2508">
        <ele>15</ele>
        <time>2013-03-17T08:26:49Z</time>
      </trkpt>
      <trkpt lat="48.06556" lon="-4.25086">
        <ele>14</ele>
        <time>2013-03-17T08:26:51Z</time>
      </trkpt>
      <trkpt lat="48.06568" lon="-4.25092">
        <ele>14</ele>
        <time>2013-03-17T08:26:53Z</time>
      </trkpt>
      <trkpt lat="48.06575" lon="-4.25097">
        <ele>14</ele>
        <time>2013-03-17T08:26:55Z</time>
      </trkpt>
      <trkpt lat="48.06579" lon="-4.25102">
        <ele>14</ele>
        <time>2013-03-17T08:26:57Z</time>
      </trkpt>
      <trkpt lat="48.06586" lon="-4.25104">
        <ele>14</ele>
        <time>2013-03-17T08:27:00Z</time>
      </trkpt>
      <trkpt lat="48.06594" lon="-4.25109">
        <ele>14</ele>
        <time>2013-03-17T08:27:02Z</time>
      </trkpt>
      <trkpt lat="48.06605" lon="-4.25115">
        <ele>14</ele>
        <time>2013-03-17T08:27:04Z</time>
      </trkpt>
      <trkpt lat="48.06613" lon="-4.25121">
        <ele>13</ele>
        <time>2013-03-17T08:27:06Z</time>
      </trkpt>
      <trkpt lat="48.06626" lon="-4.25129">
        <ele>13</ele>
        <time>2013-03-17T08:27:08Z</time>
      </trkpt>
      <trkpt lat="48.06638" lon="-4.25135">
        <ele>13</ele>
        <time>2013-03-17T08:27:10Z</time>
      </trkpt>
      <trkpt lat="48.0665" lon="-4.25139">
        <ele>13</ele>
        <time>2013-03-17T08:27:12Z</time>
      </trkpt>
      <trkpt lat="48.06655" lon="-4.25141">
        <ele>13</ele>
        <time>2013-03-17T08:27:13Z</time>
      </trkpt>
      <trkpt lat="48.06661" lon="-4.25146">
        <ele>13</ele>
        <time>2013-03-17T08:27:14Z</time>
      </trkpt>
      <trkpt lat="48.06666" lon="-4.2515">
        <ele>14</ele>
        <time>2013-03-17T08:27:15Z</time>
      </trkpt>
      <trkpt lat="48.06676" lon="-4.25157">
        <ele>14</ele>
        <time>2013-03-17T08:27:17Z</time>
      </trkpt>
      <trkpt lat="48.0668" lon="-4.25161">
        <ele>13</ele>
        <time>2013-03-17T08:27:18Z</time>
      </trkpt>
      <trkpt lat="48.06685" lon="-4.25165">
        <ele>13</ele>
        <time>2013-03-17T08:27:19Z</time>
      </trkpt>
      <trkpt lat="48.06691" lon="-4.2517">
        <ele>13</ele>
        <time>2013-03-17T08:27:20Z</time>
      </trkpt>
      <trkpt lat="48.06697" lon="-4.25174">
        <ele>13</ele>
        <time>2013-03-17T08:27:21Z</time>
      </trkpt>
      <trkpt lat="48.06708" lon="-4.25184">
        <ele>13</ele>
        <time>2013-03-17T08:27:23Z</time>
      </trkpt>
      <trkpt lat="48.06712" lon="-4.25189">
        <ele>13</ele>
        <time>2013-03-17T08:27:24Z</time>
      </trkpt>
      <trkpt lat="48.06717" lon="-4.25195">
        <ele>13</ele>
        <time>2013-03-17T08:27:25Z</time>
      </trkpt>
      <trkpt lat="48.06722" lon="-4.252">
        <ele>13</ele>
        <time>2013-03-17T08:27:26Z</time>
      </trkpt>
      <trkpt lat="48.06732" lon="-4.2521">
        <ele>12</ele>
        <time>2013-03-17T08:27:28Z</time>
      </trkpt>
      <trkpt lat="48.06742" lon="-4.25222">
        <ele>12</ele>
        <time>2013-03-17T08:27:30Z</time>
      </trkpt>
      <trkpt lat="48.06752" lon="-4.25232">
        <ele>11</ele>
        <time>2013-03-17T08:27:32Z</time>
      </trkpt>
      <trkpt lat="48.06757" lon="-4.25238">
        <ele>11</ele>
        <time>2013-03-17T08:27:33Z</time>
      </trkpt>
      <trkpt lat="48.06762" lon="-4.25244">
        <ele>11</ele>
        <time>2013-03-17T08:27:34Z</time>
      </trkpt>
      <trkpt lat="48.06766" lon="-4.2525">
        <ele>11</ele>
        <time>2013-03-17T08:27:35Z</time>
      </trkpt>
      <trkpt lat="48.0677" lon="-4.25257">
        <ele>11</ele>
        <time>2013-03-17T08:27:36Z</time>
      </trkpt>
      <trkpt lat="48.06774" lon="-4.25263">
        <ele>11</ele>
        <time>2013-03-17T08:27:37Z</time>
      </trkpt>
      <trkpt lat="48.06778" lon="-4.2527">
        <ele>11</ele>
        <time>2013-03-17T08:27:38Z</time>
      </trkpt>
      <trkpt lat="48.06782" lon="-4.25276">
        <ele>11</ele>
        <time>2013-03-17T08:27:39Z</time>
      </trkpt>
      <trkpt lat="48.06786" lon="-4.25282">
        <ele>11</ele>
        <time>2013-03-17T08:27:40Z</time>
      </trkpt>
      <trkpt lat="48.0679" lon="-4.25288">
        <ele>11</ele>
        <time>2013-03-17T08:27:41Z</time>
      </trkpt>
      <trkpt lat="48.06794" lon="-4.25295">
        <ele>12</ele>
        <time>2013-03-17T08:27:42Z</time>
      </trkpt>
      <trkpt lat="48.06798" lon="-4.25302">
        <ele>12</ele>
        <time>2013-03-17T08:27:43Z</time>
      </trkpt>
      <trkpt lat="48.06801" lon="-4.25309">
        <ele>12</ele>
        <time>2013-03-17T08:27:44Z</time>
      </trkpt>
      <trkpt lat="48.06805" lon="-4.25316">
        <ele>12</ele>
        <time>2013-03-17T08:27:45Z</time>
      </trkpt>
      <trkpt lat="48.06809" lon="-4.25323">
        <ele>12</ele>
        <time>2013-03-17T08:27:46Z</time>
      </trkpt>
      <trkpt lat="48.06813" lon="-4.25331">
        <ele>12</ele>
        <time>2013-03-17T08:27:47Z</time>
      </trkpt>
      <trkpt lat="48.06816" lon="-4.25337">
        <ele>12</ele>
        <time>2013-03-17T08:27:48Z</time>
      </trkpt>
      <trkpt lat="48.06823" lon="-4.25351">
        <ele>12</ele>
        <time>2013-03-17T08:27:50Z</time>
      </trkpt>
      <trkpt lat="48.06829" lon="-4.25363">
        <ele>12</ele>
        <time>2013-03-17T08:27:52Z</time>
      </trkpt>
      <trkpt lat="48.06836" lon="-4.2538">
        <ele>12</ele>
        <time>2013-03-17T08:27:54Z</time>
      </trkpt>
      <trkpt lat="48.06842" lon="-4.25399">
        <ele>13</ele>
        <time>2013-03-17T08:27:56Z</time>
      </trkpt>
      <trkpt lat="48.06845" lon="-4.25409">
        <ele>14</ele>
        <time>2013-03-17T08:27:57Z</time>
      </trkpt>
      <trkpt lat="48.06847" lon="-4.25418">
        <ele>15</ele>
        <time>2013-03-17T08:27:58Z</time>
      </trkpt>
      <trkpt lat="48.06849" lon="-4.25425">
        <ele>16</ele>
        <time>2013-03-17T08:27:59Z</time>
      </trkpt>
      <trkpt lat="48.0685" lon="-4.25433">
        <ele>16</ele>
        <time>2013-03-17T08:28:00Z</time>
      </trkpt>
      <trkpt lat="48.06852" lon="-4.2544">
        <ele>16</ele>
        <time>2013-03-17T08:28:01Z</time>
      </trkpt>
      <trkpt lat="48.06853" lon="-4.25449">
        <ele>16</ele>
        <time>2013-03-17T08:28:02Z</time>
      </trkpt>
      <trkpt lat="48.06855" lon="-4.25458">
        <ele>17</ele>
        <time>2013-03-17T08:28:03Z</time>
      </trkpt>
      <trkpt lat="48.06857" lon="-4.25466">
        <ele>17</ele>
        <time>2013-03-17T08:28:04Z</time>
      </trkpt>
      <trkpt lat="48.0686" lon="-4.25479">
        <ele>17</ele>
        <time>2013-03-17T08:28:06Z</time>
      </trkpt>
      <trkpt lat="48.06862" lon="-4.25485">
        <ele>16</ele>
        <time>2013-03-17T08:28:07Z</time>
      </trkpt>
      <trkpt lat="48.06863" lon="-4.25492">
        <ele>16</ele>
        <time>2013-03-17T08:28:08Z</time>
      </trkpt>
      <trkpt lat="48.06866" lon="-4.25499">
        <ele>15</ele>
        <time>2013-03-17T08:28:09Z</time>
      </trkpt>
      <trkpt lat="48.06869" lon="-4.25507">
        <ele>14</ele>
        <time>2013-03-17T08:28:10Z</time>
      </trkpt>
      <trkpt lat="48.06874" lon="-4.25522">
        <ele>14</ele>
        <time>2013-03-17T08:28:12Z</time>
      </trkpt>
      <trkpt lat="48.06875" lon="-4.25528">
        <ele>14</ele>
        <time>2013-03-17T08:28:13Z</time>
      </trkpt>
      <trkpt lat="48.06878" lon="-4.25541">
        <ele>14</ele>
        <time>2013-03-17T08:28:15Z</time>
      </trkpt>
      <trkpt lat="48.06879" lon="-4.25548">
        <ele>14</ele>
        <time>2013-03-17T08:28:16Z</time>
      </trkpt>
      <trkpt lat="48.06881" lon="-4.25555">
        <ele>14</ele>
        <time>2013-03-17T08:28:17Z</time>
      </trkpt>
      <trkpt lat="48.06884" lon="-4.25567">
        <ele>15</ele>
        <time>2013-03-17T08:28:19Z</time>
      </trkpt>
      <trkpt lat="48.06886" lon="-4.25577">
        <ele>15</ele>
        <time>2013-03-17T08:28:21Z</time>
      </trkpt>
      <trkpt lat="48.06888" lon="-4.25585">
        <ele>15</ele>
        <time>2013-03-17T08:28:23Z</time>
      </trkpt>
      <trkpt lat="48.0689" lon="-4.25592">
        <ele>15</ele>
        <time>2013-03-17T08:28:25Z</time>
      </trkpt>
      <trkpt lat="48.06894" lon="-4.256">
        <ele>15</ele>
        <time>2013-03-17T08:28:29Z</time>
      </trkpt>
      <trkpt lat="48.06904" lon="-4.25596">
        <ele>15</ele>
        <time>2013-03-17T08:28:32Z</time>
      </trkpt>
      <trkpt lat="48.06909" lon="-4.25593">
        <ele>14</ele>
        <time>2013-03-17T08:28:33Z</time>
      </trkpt>
      <trkpt lat="48.06918" lon="-4.25589">
        <ele>13</ele>
        <time>2013-03-17T08:28:35Z</time>
      </trkpt>
      <trkpt lat="48.06922" lon="-4.25588">
        <ele>13</ele>
        <time>2013-03-17T08:28:36Z</time>
      </trkpt>
      <trkpt lat="48.06928" lon="-4.25588">
        <ele>13</ele>
        <time>2013-03-17T08:28:37Z</time>
      </trkpt>
      <trkpt lat="48.06933" lon="-4.25587">
        <ele>13</ele>
        <time>2013-03-17T08:28:38Z</time>
      </trkpt>
      <trkpt lat="48.06938" lon="-4.25587">
        <ele>13</ele>
        <time>2013-03-17T08:28:39Z</time>
      </trkpt>
      <trkpt lat="48.06943" lon="-4.25589">
        <ele>13</ele>
        <time>2013-03-17T08:28:40Z</time>
      </trkpt>
      <trkpt lat="48.06949" lon="-4.25591">
        <ele>13</ele>
        <time>2013-03-17T08:28:41Z</time>
      </trkpt>
      <trkpt lat="48.06954" lon="-4.25593">
        <ele>13</ele>
        <time>2013-03-17T08:28:42Z</time>
      </trkpt>
      <trkpt lat="48.06958" lon="-4.25594">
        <ele>13</ele>
        <time>2013-03-17T08:28:43Z</time>
      </trkpt>
      <trkpt lat="48.06963" lon="-4.25596">
        <ele>13</ele>
        <time>2013-03-17T08:28:44Z</time>
      </trkpt>
      <trkpt lat="48.06968" lon="-4.25598">
        <ele>13</ele>
        <time>2013-03-17T08:28:45Z</time>
      </trkpt>
      <trkpt lat="48.06973" lon="-4.25599">
        <ele>13</ele>
        <time>2013-03-17T08:28:46Z</time>
      </trkpt>
      <trkpt lat="48.06978" lon="-4.256">
        <ele>13</ele>
        <time>2013-03-17T08:28:47Z</time>
      </trkpt>
      <trkpt lat="48.06983" lon="-4.25602">
        <ele>13</ele>
        <time>2013-03-17T08:28:48Z</time>
      </trkpt>
      <trkpt lat="48.06988" lon="-4.25604">
        <ele>13</ele>
        <time>2013-03-17T08:28:49Z</time>
      </trkpt>
      <trkpt lat="48.06993" lon="-4.25605">
        <ele>13</ele>
        <time>2013-03-17T08:28:50Z</time>
      </trkpt>
      <trkpt lat="48.07002" lon="-4.25607">
        <ele>12</ele>
        <time>2013-03-17T08:28:52Z</time>
      </trkpt>
      <trkpt lat="48.0701" lon="-4.25606">
        <ele>12</ele>
        <time>2013-03-17T08:28:54Z</time>
      </trkpt>
      <trkpt lat="48.07015" lon="-4.25606">
        <ele>12</ele>
        <time>2013-03-17T08:28:55Z</time>
      </trkpt>
      <trkpt lat="48.0702" lon="-4.25606">
        <ele>12</ele>
        <time>2013-03-17T08:28:56Z</time>
      </trkpt>
      <trkpt lat="48.07027" lon="-4.25605">
        <ele>12</ele>
        <time>2013-03-17T08:28:57Z</time>
      </trkpt>
      <trkpt lat="48.07034" lon="-4.25604">
        <ele>13</ele>
        <time>2013-03-17T08:28:58Z</time>
      </trkpt>
      <trkpt lat="48.07041" lon="-4.25604">
        <ele>13</ele>
        <time>2013-03-17T08:28:59Z</time>
      </trkpt>
      <trkpt lat="48.07046" lon="-4.25604">
        <ele>13</ele>
        <time>2013-03-17T08:29:00Z</time>
      </trkpt>
      <trkpt lat="48.07052" lon="-4.25605">
        <ele>14</ele>
        <time>2013-03-17T08:29:01Z</time>
      </trkpt>
      <trkpt lat="48.07057" lon="-4.25606">
        <ele>13</ele>
        <time>2013-03-17T08:29:02Z</time>
      </trkpt>
      <trkpt lat="48.07062" lon="-4.25606">
        <ele>13</ele>
        <time>2013-03-17T08:29:03Z</time>
      </trkpt>
      <trkpt lat="48.07068" lon="-4.25607">
        <ele>13</ele>
        <time>2013-03-17T08:29:04Z</time>
      </trkpt>
      <trkpt lat="48.07074" lon="-4.25608">
        <ele>13</ele>
        <time>2013-03-17T08:29:05Z</time>
      </trkpt>
      <trkpt lat="48.07079" lon="-4.25609">
        <ele>13</ele>
        <time>2013-03-17T08:29:06Z</time>
      </trkpt>
      <trkpt lat="48.07085" lon="-4.25611">
        <ele>14</ele>
        <time>2013-03-17T08:29:07Z</time>
      </trkpt>
      <trkpt lat="48.07091" lon="-4.25612">
        <ele>13</ele>
        <time>2013-03-17T08:29:08Z</time>
      </trkpt>
      <trkpt lat="48.07098" lon="-4.25614">
        <ele>13</ele>
        <time>2013-03-17T08:29:09Z</time>
      </trkpt>
      <trkpt lat="48.07105" lon="-4.25616">
        <ele>14</ele>
        <time>2013-03-17T08:29:10Z</time>
      </trkpt>
      <trkpt lat="48.0711" lon="-4.25619">
        <ele>13</ele>
        <time>2013-03-17T08:29:11Z</time>
      </trkpt>
      <trkpt lat="48.07116" lon="-4.25621">
        <ele>13</ele>
        <time>2013-03-17T08:29:12Z</time>
      </trkpt>
      <trkpt lat="48.07122" lon="-4.25623">
        <ele>13</ele>
        <time>2013-03-17T08:29:13Z</time>
      </trkpt>
      <trkpt lat="48.07128" lon="-4.25625">
        <ele>12</ele>
        <time>2013-03-17T08:29:14Z</time>
      </trkpt>
      <trkpt lat="48.07133" lon="-4.25626">
        <ele>12</ele>
        <time>2013-03-17T08:29:15Z</time>
      </trkpt>
      <trkpt lat="48.07139" lon="-4.25626">
        <ele>12</ele>
        <time>2013-03-17T08:29:16Z</time>
      </trkpt>
      <trkpt lat="48.07144" lon="-4.25625">
        <ele>12</ele>
        <time>2013-03-17T08:29:17Z</time>
      </trkpt>
      <trkpt lat="48.07149" lon="-4.25624">
        <ele>13</ele>
        <time>2013-03-17T08:29:18Z</time>
      </trkpt>
      <trkpt lat="48.07156" lon="-4.25619">
        <ele>13</ele>
        <time>2013-03-17T08:29:19Z</time>
      </trkpt>
      <trkpt lat="48.07163" lon="-4.25614">
        <ele>12</ele>
        <time>2013-03-17T08:29:20Z</time>
      </trkpt>
      <trkpt lat="48.07168" lon="-4.25608">
        <ele>11</ele>
        <time>2013-03-17T08:29:21Z</time>
      </trkpt>
      <trkpt lat="48.07172" lon="-4.25604">
        <ele>10</ele>
        <time>2013-03-17T08:29:22Z</time>
      </trkpt>
      <trkpt lat="48.07176" lon="-4.25598">
        <ele>9</ele>
        <time>2013-03-17T08:29:23Z</time>
      </trkpt>
      <trkpt lat="48.0718" lon="-4.25592">
        <ele>9</ele>
        <time>2013-03-17T08:29:24Z</time>
      </trkpt>
      <trkpt lat="48.07184" lon="-4.25584">
        <ele>8</ele>
        <time>2013-03-17T08:29:25Z</time>
      </trkpt>
      <trkpt lat="48.07188" lon="-4.25578">
        <ele>7</ele>
        <time>2013-03-17T08:29:26Z</time>
      </trkpt>
      <trkpt lat="48.07191" lon="-4.25571">
        <ele>7</ele>
        <time>2013-03-17T08:29:27Z</time>
      </trkpt>
      <trkpt lat="48.07196" lon="-4.25561">
        <ele>6</ele>
        <time>2013-03-17T08:29:29Z</time>
      </trkpt>
      <trkpt lat="48.072" lon="-4.25553">
        <ele>5</ele>
        <time>2013-03-17T08:29:30Z</time>
      </trkpt>
      <trkpt lat="48.07202" lon="-4.25545">
        <ele>5</ele>
        <time>2013-03-17T08:29:31Z</time>
      </trkpt>
      <trkpt lat="48.07204" lon="-4.25537">
        <ele>5</ele>
        <time>2013-03-17T08:29:32Z</time>
      </trkpt>
      <trkpt lat="48.07203" lon="-4.25522">
        <ele>5</ele>
        <time>2013-03-17T08:29:34Z</time>
      </trkpt>
      <trkpt lat="48.07202" lon="-4.25514">
        <ele>5</ele>
        <time>2013-03-17T08:29:35Z</time>
      </trkpt>
      <trkpt lat="48.072" lon="-4.25504">
        <ele>5</ele>
        <time>2013-03-17T08:29:36Z</time>
      </trkpt>
      <trkpt lat="48.07199" lon="-4.25496">
        <ele>6</ele>
        <time>2013-03-17T08:29:37Z</time>
      </trkpt>
      <trkpt lat="48.07197" lon="-4.25479">
        <ele>6</ele>
        <time>2013-03-17T08:29:39Z</time>
      </trkpt>
      <trkpt lat="48.07197" lon="-4.2547">
        <ele>6</ele>
        <time>2013-03-17T08:29:40Z</time>
      </trkpt>
      <trkpt lat="48.07198" lon="-4.25462">
        <ele>7</ele>
        <time>2013-03-17T08:29:41Z</time>
      </trkpt>
      <trkpt lat="48.07198" lon="-4.25453">
        <ele>7</ele>
        <time>2013-03-17T08:29:42Z</time>
      </trkpt>
      <trkpt lat="48.07199" lon="-4.25446">
        <ele>7</ele>
        <time>2013-03-17T08:29:43Z</time>
      </trkpt>
      <trkpt lat="48.07201" lon="-4.25429">
        <ele>7</ele>
        <time>2013-03-17T08:29:45Z</time>
      </trkpt>
      <trkpt lat="48.07202" lon="-4.25421">
        <ele>7</ele>
        <time>2013-03-17T08:29:46Z</time>
      </trkpt>
      <trkpt lat="48.07203" lon="-4.25414">
        <ele>8</ele>
        <time>2013-03-17T08:29:47Z</time>
      </trkpt>
      <trkpt lat="48.07204" lon="-4.25406">
        <ele>8</ele>
        <time>2013-03-17T08:29:48Z</time>
      </trkpt>
      <trkpt lat="48.07206" lon="-4.25397">
        <ele>9</ele>
        <time>2013-03-17T08:29:49Z</time>
      </trkpt>
      <trkpt lat="48.07208" lon="-4.25388">
        <ele>9</ele>
        <time>2013-03-17T08:29:50Z</time>
      </trkpt>
      <trkpt lat="48.0721" lon="-4.25375">
        <ele>10</ele>
        <time>2013-03-17T08:29:52Z</time>
      </trkpt>
      <trkpt lat="48.07211" lon="-4.25367">
        <ele>10</ele>
        <time>2013-03-17T08:29:53Z</time>
      </trkpt>
      <trkpt lat="48.07213" lon="-4.25357">
        <ele>10</ele>
        <time>2013-03-17T08:29:54Z</time>
      </trkpt>
      <trkpt lat="48.07215" lon="-4.2534">
        <ele>11</ele>
        <time>2013-03-17T08:29:56Z</time>
      </trkpt>
      <trkpt lat="48.07216" lon="-4.2532">
        <ele>11</ele>
        <time>2013-03-17T08:29:58Z</time>
      </trkpt>
      <trkpt lat="48.07216" lon="-4.25312">
        <ele>12</ele>
        <time>2013-03-17T08:29:59Z</time>
      </trkpt>
      <trkpt lat="48.07217" lon="-4.25304">
        <ele>12</ele>
        <time>2013-03-17T08:30:00Z</time>
      </trkpt>
      <trkpt lat="48.07217" lon="-4.25297">
        <ele>13</ele>
        <time>2013-03-17T08:30:01Z</time>
      </trkpt>
      <trkpt lat="48.07217" lon="-4.25288">
        <ele>13</ele>
        <time>2013-03-17T08:30:02Z</time>
      </trkpt>
      <trkpt lat="48.07218" lon="-4.25279">
        <ele>13</ele>
        <time>2013-03-17T08:30:03Z</time>
      </trkpt>
      <trkpt lat="48.07218" lon="-4.25264">
        <ele>13</ele>
        <time>2013-03-17T08:30:05Z</time>
      </trkpt>
      <trkpt lat="48.07218" lon="-4.25255">
        <ele>14</ele>
        <time>2013-03-17T08:30:06Z</time>
      </trkpt>
      <trkpt lat="48.07218" lon="-4.25246">
        <ele>14</ele>
        <time>2013-03-17T08:30:07Z</time>
      </trkpt>
      <trkpt lat="48.07217" lon="-4.25239">
        <ele>14</ele>
        <time>2013-03-17T08:30:08Z</time>
      </trkpt>
      <trkpt lat="48.07215" lon="-4.25225">
        <ele>14</ele>
        <time>2013-03-17T08:30:10Z</time>
      </trkpt>
      <trkpt lat="48.07212" lon="-4.25215">
        <ele>14</ele>
        <time>2013-03-17T08:30:11Z</time>
      </trkpt>
      <trkpt lat="48.07209" lon="-4.25207">
        <ele>14</ele>
        <time>2013-03-17T08:30:12Z</time>
      </trkpt>
      <trkpt lat="48.07207" lon="-4.25199">
        <ele>14</ele>
        <time>2013-03-17T08:30:13Z</time>
      </trkpt>
      <trkpt lat="48.07204" lon="-4.25192">
        <ele>14</ele>
        <time>2013-03-17T08:30:14Z</time>
      </trkpt>
      <trkpt lat="48.07201" lon="-4.25184">
        <ele>14</ele>
        <time>2013-03-17T08:30:15Z</time>
      </trkpt>
      <trkpt lat="48.07199" lon="-4.25177">
        <ele>14</ele>
        <time>2013-03-17T08:30:16Z</time>
      </trkpt>
      <trkpt lat="48.07196" lon="-4.25169">
        <ele>13</ele>
        <time>2013-03-17T08:30:17Z</time>
      </trkpt>
      <trkpt lat="48.07193" lon="-4.2516">
        <ele>14</ele>
        <time>2013-03-17T08:30:18Z</time>
      </trkpt>
      <trkpt lat="48.07189" lon="-4.25145">
        <ele>14</ele>
        <time>2013-03-17T08:30:20Z</time>
      </trkpt>
      <trkpt lat="48.07186" lon="-4.25136">
        <ele>14</ele>
        <time>2013-03-17T08:30:21Z</time>
      </trkpt>
      <trkpt lat="48.07183" lon="-4.25128">
        <ele>13</ele>
        <time>2013-03-17T08:30:22Z</time>
      </trkpt>
      <trkpt lat="48.07181" lon="-4.2512">
        <ele>13</ele>
        <time>2013-03-17T08:30:23Z</time>
      </trkpt>
      <trkpt lat="48.07178" lon="-4.25112">
        <ele>14</ele>
        <time>2013-03-17T08:30:24Z</time>
      </trkpt>
      <trkpt lat="48.07175" lon="-4.25101">
        <ele>14</ele>
        <time>2013-03-17T08:30:25Z</time>
      </trkpt>
      <trkpt lat="48.07172" lon="-4.25092">
        <ele>14</ele>
        <time>2013-03-17T08:30:26Z</time>
      </trkpt>
      <trkpt lat="48.07169" lon="-4.25084">
        <ele>14</ele>
        <time>2013-03-17T08:30:27Z</time>
      </trkpt>
      <trkpt lat="48.07165" lon="-4.25075">
        <ele>14</ele>
        <time>2013-03-17T08:30:28Z</time>
      </trkpt>
      <trkpt lat="48.07159" lon="-4.25059">
        <ele>14</ele>
        <time>2013-03-17T08:30:30Z</time>
      </trkpt>
      <trkpt lat="48.07156" lon="-4.25053">
        <ele>14</ele>
        <time>2013-03-17T08:30:31Z</time>
      </trkpt>
      <trkpt lat="48.0715" lon="-4.25039">
        <ele>14</ele>
        <time>2013-03-17T08:30:33Z</time>
      </trkpt>
      <trkpt lat="48.07146" lon="-4.25026">
        <ele>13</ele>
        <time>2013-03-17T08:30:35Z</time>
      </trkpt>
      <trkpt lat="48.0714" lon="-4.25012">
        <ele>13</ele>
        <time>2013-03-17T08:30:37Z</time>
      </trkpt>
      <trkpt lat="48.07136" lon="-4.24997">
        <ele>13</ele>
        <time>2013-03-17T08:30:39Z</time>
      </trkpt>
      <trkpt lat="48.07135" lon="-4.24981">
        <ele>12</ele>
        <time>2013-03-17T08:30:41Z</time>
      </trkpt>
      <trkpt lat="48.07134" lon="-4.24969">
        <ele>12</ele>
        <time>2013-03-17T08:30:42Z</time>
      </trkpt>
      <trkpt lat="48.07134" lon="-4.24959">
        <ele>12</ele>
        <time>2013-03-17T08:30:43Z</time>
      </trkpt>
      <trkpt lat="48.07134" lon="-4.24952">
        <ele>11</ele>
        <time>2013-03-17T08:30:44Z</time>
      </trkpt>
      <trkpt lat="48.07134" lon="-4.24936">
        <ele>10</ele>
        <time>2013-03-17T08:30:46Z</time>
      </trkpt>
      <trkpt lat="48.07133" lon="-4.24919">
        <ele>9</ele>
        <time>2013-03-17T08:30:48Z</time>
      </trkpt>
      <trkpt lat="48.07134" lon="-4.24911">
        <ele>8</ele>
        <time>2013-03-17T08:30:49Z</time>
      </trkpt>
      <trkpt lat="48.07135" lon="-4.24893">
        <ele>8</ele>
        <time>2013-03-17T08:30:51Z</time>
      </trkpt>
      <trkpt lat="48.07137" lon="-4.24877">
        <ele>9</ele>
        <time>2013-03-17T08:30:53Z</time>
      </trkpt>
      <trkpt lat="48.07138" lon="-4.24869">
        <ele>9</ele>
        <time>2013-03-17T08:30:54Z</time>
      </trkpt>
      <trkpt lat="48.07139" lon="-4.2486">
        <ele>9</ele>
        <time>2013-03-17T08:30:55Z</time>
      </trkpt>
      <trkpt lat="48.07139" lon="-4.24851">
        <ele>9</ele>
        <time>2013-03-17T08:30:56Z</time>
      </trkpt>
      <trkpt lat="48.0714" lon="-4.24843">
        <ele>8</ele>
        <time>2013-03-17T08:30:57Z</time>
      </trkpt>
      <trkpt lat="48.07141" lon="-4.24827">
        <ele>8</ele>
        <time>2013-03-17T08:30:59Z</time>
      </trkpt>
      <trkpt lat="48.07141" lon="-4.24811">
        <ele>8</ele>
        <time>2013-03-17T08:31:01Z</time>
      </trkpt>
      <trkpt lat="48.07142" lon="-4.24803">
        <ele>8</ele>
        <time>2013-03-17T08:31:02Z</time>
      </trkpt>
      <trkpt lat="48.07143" lon="-4.24795">
        <ele>8</ele>
        <time>2013-03-17T08:31:03Z</time>
      </trkpt>
      <trkpt lat="48.07144" lon="-4.24787">
        <ele>7</ele>
        <time>2013-03-17T08:31:04Z</time>
      </trkpt>
      <trkpt lat="48.07145" lon="-4.24778">
        <ele>7</ele>
        <time>2013-03-17T08:31:05Z</time>
      </trkpt>
      <trkpt lat="48.07145" lon="-4.2477">
        <ele>7</ele>
        <time>2013-03-17T08:31:06Z</time>
      </trkpt>
      <trkpt lat="48.07145" lon="-4.24762">
        <ele>7</ele>
        <time>2013-03-17T08:31:07Z</time>
      </trkpt>
      <trkpt lat="48.07146" lon="-4.24753">
        <ele>8</ele>
        <time>2013-03-17T08:31:08Z</time>
      </trkpt>
      <trkpt lat="48.07148" lon="-4.24745">
        <ele>9</ele>
        <time>2013-03-17T08:31:09Z</time>
      </trkpt>
      <trkpt lat="48.0715" lon="-4.24737">
        <ele>9</ele>
        <time>2013-03-17T08:31:10Z</time>
      </trkpt>
      <trkpt lat="48.07153" lon="-4.24729">
        <ele>10</ele>
        <time>2013-03-17T08:31:11Z</time>
      </trkpt>
      <trkpt lat="48.07158" lon="-4.24723">
        <ele>11</ele>
        <time>2013-03-17T08:31:12Z</time>
      </trkpt>
      <trkpt lat="48.07163" lon="-4.24716">
        <ele>11</ele>
        <time>2013-03-17T08:31:13Z</time>
      </trkpt>
      <trkpt lat="48.07167" lon="-4.24709">
        <ele>12</ele>
        <time>2013-03-17T08:31:14Z</time>
      </trkpt>
      <trkpt lat="48.07171" lon="-4.24704">
        <ele>12</ele>
        <time>2013-03-17T08:31:15Z</time>
      </trkpt>
      <trkpt lat="48.07174" lon="-4.24699">
        <ele>13</ele>
        <time>2013-03-17T08:31:16Z</time>
      </trkpt>
      <trkpt lat="48.07178" lon="-4.24694">
        <ele>13</ele>
        <time>2013-03-17T08:31:17Z</time>
      </trkpt>
      <trkpt lat="48.07181" lon="-4.24689">
        <ele>14</ele>
        <time>2013-03-17T08:31:18Z</time>
      </trkpt>
      <trkpt lat="48.07187" lon="-4.24683">
        <ele>15</ele>
        <time>2013-03-17T08:31:20Z</time>
      </trkpt>
      <trkpt lat="48.07193" lon="-4.24681">
        <ele>16</ele>
        <time>2013-03-17T08:31:22Z</time>
      </trkpt>
      <trkpt lat="48.07199" lon="-4.24682">
        <ele>16</ele>
        <time>2013-03-17T08:31:24Z</time>
      </trkpt>
      <trkpt lat="48.07205" lon="-4.24682">
        <ele>17</ele>
        <time>2013-03-17T08:31:26Z</time>
      </trkpt>
      <trkpt lat="48.07211" lon="-4.2468">
        <ele>17</ele>
        <time>2013-03-17T08:31:28Z</time>
      </trkpt>
      <trkpt lat="48.07216" lon="-4.24678">
        <ele>18</ele>
        <time>2013-03-17T08:31:30Z</time>
      </trkpt>
      <trkpt lat="48.07221" lon="-4.24674">
        <ele>19</ele>
        <time>2013-03-17T08:31:33Z</time>
      </trkpt>
      <trkpt lat="48.07225" lon="-4.2467">
        <ele>18</ele>
        <time>2013-03-17T08:31:36Z</time>
      </trkpt>
      <trkpt lat="48.07229" lon="-4.24668">
        <ele>16</ele>
        <time>2013-03-17T08:31:40Z</time>
      </trkpt>
      <trkpt lat="48.07234" lon="-4.2467">
        <ele>15</ele>
        <time>2013-03-17T08:31:42Z</time>
      </trkpt>
      <trkpt lat="48.07239" lon="-4.24673">
        <ele>15</ele>
        <time>2013-03-17T08:31:45Z</time>
      </trkpt>
      <trkpt lat="48.0725" lon="-4.24666">
        <ele>15</ele>
        <time>2013-03-17T08:31:48Z</time>
      </trkpt>
      <trkpt lat="48.07254" lon="-4.24662">
        <ele>15</ele>
        <time>2013-03-17T08:31:50Z</time>
      </trkpt>
      <trkpt lat="48.0726" lon="-4.24657">
        <ele>15</ele>
        <time>2013-03-17T08:31:52Z</time>
      </trkpt>
      <trkpt lat="48.07265" lon="-4.24651">
        <ele>16</ele>
        <time>2013-03-17T08:31:54Z</time>
      </trkpt>
      <trkpt lat="48.07269" lon="-4.24645">
        <ele>16</ele>
        <time>2013-03-17T08:31:56Z</time>
      </trkpt>
      <trkpt lat="48.07274" lon="-4.24635">
        <ele>15</ele>
        <time>2013-03-17T08:31:58Z</time>
      </trkpt>
      <trkpt lat="48.07276" lon="-4.24625">
        <ele>16</ele>
        <time>2013-03-17T08:32:00Z</time>
      </trkpt>
      <trkpt lat="48.07277" lon="-4.24613">
        <ele>16</ele>
        <time>2013-03-17T08:32:02Z</time>
      </trkpt>
      <trkpt lat="48.07278" lon="-4.246">
        <ele>16</ele>
        <time>2013-03-17T08:32:04Z</time>
      </trkpt>
      <trkpt lat="48.07281" lon="-4.24593">
        <ele>16</ele>
        <time>2013-03-17T08:32:05Z</time>
      </trkpt>
      <trkpt lat="48.07284" lon="-4.24583">
        <ele>16</ele>
        <time>2013-03-17T08:32:07Z</time>
      </trkpt>
      <trkpt lat="48.07288" lon="-4.24577">
        <ele>16</ele>
        <time>2013-03-17T08:32:09Z</time>
      </trkpt>
      <trkpt lat="48.07292" lon="-4.24573">
        <ele>16</ele>
        <time>2013-03-17T08:32:11Z</time>
      </trkpt>
      <trkpt lat="48.07296" lon="-4.24568">
        <ele>16</ele>
        <time>2013-03-17T08:32:13Z</time>
      </trkpt>
      <trkpt lat="48.07302" lon="-4.24562">
        <ele>17</ele>
        <time>2013-03-17T08:32:15Z</time>
      </trkpt>
      <trkpt lat="48.07306" lon="-4.24557">
        <ele>17</ele>
        <time>2013-03-17T08:32:16Z</time>
      </trkpt>
      <trkpt lat="48.07312" lon="-4.2455">
        <ele>18</ele>
        <time>2013-03-17T08:32:18Z</time>
      </trkpt>
      <trkpt lat="48.0732" lon="-4.24539">
        <ele>19</ele>
        <time>2013-03-17T08:32:21Z</time>
      </trkpt>
      <trkpt lat="48.07323" lon="-4.24529">
        <ele>18</ele>
        <time>2013-03-17T08:32:23Z</time>
      </trkpt>
      <trkpt lat="48.07324" lon="-4.24522">
        <ele>18</ele>
        <time>2013-03-17T08:32:24Z</time>
      </trkpt>
      <trkpt lat="48.07328" lon="-4.24508">
        <ele>16</ele>
        <time>2013-03-17T08:32:27Z</time>
      </trkpt>
      <trkpt lat="48.07334" lon="-4.24509">
        <ele>17</ele>
        <time>2013-03-17T08:32:30Z</time>
      </trkpt>
      <trkpt lat="48.07339" lon="-4.24508">
        <ele>17</ele>
        <time>2013-03-17T08:32:32Z</time>
      </trkpt>
      <trkpt lat="48.07344" lon="-4.24502">
        <ele>17</ele>
        <time>2013-03-17T08:32:42Z</time>
      </trkpt>
      <trkpt lat="48.07348" lon="-4.24498">
        <ele>17</ele>
        <time>2013-03-17T08:32:49Z</time>
      </trkpt>
      <trkpt lat="48.07347" lon="-4.24483">
        <ele>17</ele>
        <time>2013-03-17T08:33:48Z</time>
      </trkpt>
      <trkpt lat="48.07347" lon="-4.24466">
        <ele>18</ele>
        <time>2013-03-17T08:33:53Z</time>
      </trkpt>
      <trkpt lat="48.07348" lon="-4.2445">
        <ele>21</ele>
        <time>2013-03-17T08:33:57Z</time>
      </trkpt>
      <trkpt lat="48.07351" lon="-4.24435">
        <ele>23</ele>
        <time>2013-03-17T08:34:00Z</time>
      </trkpt>
      <trkpt lat="48.07353" lon="-4.24427">
        <ele>25</ele>
        <time>2013-03-17T08:34:02Z</time>
      </trkpt>
      <trkpt lat="48.07353" lon="-4.24418">
        <ele>26</ele>
        <time>2013-03-17T08:34:04Z</time>
      </trkpt>
      <trkpt lat="48.07355" lon="-4.24401">
        <ele>26</ele>
        <time>2013-03-17T08:34:07Z</time>
      </trkpt>
      <trkpt lat="48.07359" lon="-4.24385">
        <ele>26</ele>
        <time>2013-03-17T08:34:10Z</time>
      </trkpt>
      <trkpt lat="48.07362" lon="-4.24369">
        <ele>26</ele>
        <time>2013-03-17T08:34:13Z</time>
      </trkpt>
      <trkpt lat="48.07365" lon="-4.24362">
        <ele>25</ele>
        <time>2013-03-17T08:34:15Z</time>
      </trkpt>
      <trkpt lat="48.07369" lon="-4.24357">
        <ele>25</ele>
        <time>2013-03-17T08:34:17Z</time>
      </trkpt>
      <trkpt lat="48.07373" lon="-4.24346">
        <ele>25</ele>
        <time>2013-03-17T08:34:19Z</time>
      </trkpt>
      <trkpt lat="48.07377" lon="-4.24338">
        <ele>24</ele>
        <time>2013-03-17T08:34:21Z</time>
      </trkpt>
      <trkpt lat="48.07379" lon="-4.24327">
        <ele>24</ele>
        <time>2013-03-17T08:34:23Z</time>
      </trkpt>
      <trkpt lat="48.07381" lon="-4.24318">
        <ele>24</ele>
        <time>2013-03-17T08:34:25Z</time>
      </trkpt>
      <trkpt lat="48.07383" lon="-4.2431">
        <ele>24</ele>
        <time>2013-03-17T08:34:27Z</time>
      </trkpt>
      <trkpt lat="48.07385" lon="-4.24298">
        <ele>23</ele>
        <time>2013-03-17T08:34:29Z</time>
      </trkpt>
      <trkpt lat="48.07387" lon="-4.24288">
        <ele>22</ele>
        <time>2013-03-17T08:34:31Z</time>
      </trkpt>
      <trkpt lat="48.07388" lon="-4.24281">
        <ele>22</ele>
        <time>2013-03-17T08:34:32Z</time>
      </trkpt>
      <trkpt lat="48.07389" lon="-4.2427">
        <ele>21</ele>
        <time>2013-03-17T08:34:34Z</time>
      </trkpt>
      <trkpt lat="48.07391" lon="-4.2426">
        <ele>21</ele>
        <time>2013-03-17T08:34:36Z</time>
      </trkpt>
      <trkpt lat="48.07392" lon="-4.24252">
        <ele>21</ele>
        <time>2013-03-17T08:34:38Z</time>
      </trkpt>
      <trkpt lat="48.07393" lon="-4.24241">
        <ele>22</ele>
        <time>2013-03-17T08:34:40Z</time>
      </trkpt>
      <trkpt lat="48.07395" lon="-4.2423">
        <ele>23</ele>
        <time>2013-03-17T08:34:42Z</time>
      </trkpt>
      <trkpt lat="48.07396" lon="-4.24219">
        <ele>24</ele>
        <time>2013-03-17T08:34:44Z</time>
      </trkpt>
      <trkpt lat="48.07397" lon="-4.24208">
        <ele>24</ele>
        <time>2013-03-17T08:34:46Z</time>
      </trkpt>
      <trkpt lat="48.07399" lon="-4.24197">
        <ele>24</ele>
        <time>2013-03-17T08:34:48Z</time>
      </trkpt>
      <trkpt lat="48.074" lon="-4.24187">
        <ele>24</ele>
        <time>2013-03-17T08:34:50Z</time>
      </trkpt>
      <trkpt lat="48.07403" lon="-4.24177">
        <ele>24</ele>
        <time>2013-03-17T08:34:52Z</time>
      </trkpt>
      <trkpt lat="48.07409" lon="-4.24161">
        <ele>24</ele>
        <time>2013-03-17T08:34:56Z</time>
      </trkpt>
      <trkpt lat="48.07412" lon="-4.24156">
        <ele>23</ele>
        <time>2013-03-17T08:34:57Z</time>
      </trkpt>
      <trkpt lat="48.07417" lon="-4.24148">
        <ele>23</ele>
        <time>2013-03-17T08:34:59Z</time>
      </trkpt>
      <trkpt lat="48.0742" lon="-4.24142">
        <ele>23</ele>
        <time>2013-03-17T08:35:01Z</time>
      </trkpt>
      <trkpt lat="48.07428" lon="-4.24129">
        <ele>23</ele>
        <time>2013-03-17T08:35:04Z</time>
      </trkpt>
      <trkpt lat="48.07433" lon="-4.24118">
        <ele>23</ele>
        <time>2013-03-17T08:35:08Z</time>
      </trkpt>
      <trkpt lat="48.07438" lon="-4.24108">
        <ele>23</ele>
        <time>2013-03-17T08:35:11Z</time>
      </trkpt>
      <trkpt lat="48.07443" lon="-4.24099">
        <ele>24</ele>
        <time>2013-03-17T08:35:13Z</time>
      </trkpt>
      <trkpt lat="48.07447" lon="-4.24087">
        <ele>25</ele>
        <time>2013-03-17T08:35:15Z</time>
      </trkpt>
      <trkpt lat="48.07449" lon="-4.2408">
        <ele>25</ele>
        <time>2013-03-17T08:35:16Z</time>
      </trkpt>
      <trkpt lat="48.07451" lon="-4.24073">
        <ele>26</ele>
        <time>2013-03-17T08:35:17Z</time>
      </trkpt>
      <trkpt lat="48.07454" lon="-4.24063">
        <ele>26</ele>
        <time>2013-03-17T08:35:19Z</time>
      </trkpt>
      <trkpt lat="48.07458" lon="-4.24054">
        <ele>26</ele>
        <time>2013-03-17T08:35:21Z</time>
      </trkpt>
      <trkpt lat="48.07461" lon="-4.24046">
        <ele>27</ele>
        <time>2013-03-17T08:35:23Z</time>
      </trkpt>
      <trkpt lat="48.07463" lon="-4.24038">
        <ele>27</ele>
        <time>2013-03-17T08:35:25Z</time>
      </trkpt>
      <trkpt lat="48.07469" lon="-4.24028">
        <ele>28</ele>
        <time>2013-03-17T08:35:27Z</time>
      </trkpt>
      <trkpt lat="48.07474" lon="-4.24018">
        <ele>29</ele>
        <time>2013-03-17T08:35:29Z</time>
      </trkpt>
      <trkpt lat="48.07479" lon="-4.24011">
        <ele>29</ele>
        <time>2013-03-17T08:35:31Z</time>
      </trkpt>
      <trkpt lat="48.07482" lon="-4.24003">
        <ele>28</ele>
        <time>2013-03-17T08:35:33Z</time>
      </trkpt>
      <trkpt lat="48.07485" lon="-4.23989">
        <ele>27</ele>
        <time>2013-03-17T08:35:36Z</time>
      </trkpt>
      <trkpt lat="48.07493" lon="-4.23978">
        <ele>27</ele>
        <time>2013-03-17T08:35:39Z</time>
      </trkpt>
      <trkpt lat="48.07499" lon="-4.23967">
        <ele>27</ele>
        <time>2013-03-17T08:35:42Z</time>
      </trkpt>
      <trkpt lat="48.07503" lon="-4.23954">
        <ele>27</ele>
        <time>2013-03-17T08:35:44Z</time>
      </trkpt>
      <trkpt lat="48.07506" lon="-4.23943">
        <ele>27</ele>
        <time>2013-03-17T08:35:46Z</time>
      </trkpt>
      <trkpt lat="48.0751" lon="-4.23933">
        <ele>27</ele>
        <time>2013-03-17T08:35:48Z</time>
      </trkpt>
      <trkpt lat="48.07516" lon="-4.23924">
        <ele>27</ele>
        <time>2013-03-17T08:35:51Z</time>
      </trkpt>
      <trkpt lat="48.0752" lon="-4.23919">
        <ele>26</ele>
        <time>2013-03-17T08:35:53Z</time>
      </trkpt>
      <trkpt lat="48.07523" lon="-4.23913">
        <ele>24</ele>
        <time>2013-03-17T08:35:55Z</time>
      </trkpt>
      <trkpt lat="48.07527" lon="-4.23905">
        <ele>23</ele>
        <time>2013-03-17T08:35:57Z</time>
      </trkpt>
      <trkpt lat="48.07532" lon="-4.23898">
        <ele>21</ele>
        <time>2013-03-17T08:35:59Z</time>
      </trkpt>
      <trkpt lat="48.0754" lon="-4.23889">
        <ele>21</ele>
        <time>2013-03-17T08:36:02Z</time>
      </trkpt>
      <trkpt lat="48.07547" lon="-4.23885">
        <ele>21</ele>
        <time>2013-03-17T08:36:05Z</time>
      </trkpt>
      <trkpt lat="48.07552" lon="-4.2388">
        <ele>21</ele>
        <time>2013-03-17T08:36:07Z</time>
      </trkpt>
      <trkpt lat="48.07565" lon="-4.23872">
        <ele>23</ele>
        <time>2013-03-17T08:36:11Z</time>
      </trkpt>
      <trkpt lat="48.07572" lon="-4.23867">
        <ele>23</ele>
        <time>2013-03-17T08:36:13Z</time>
      </trkpt>
      <trkpt lat="48.07581" lon="-4.23859">
        <ele>21</ele>
        <time>2013-03-17T08:36:16Z</time>
      </trkpt>
      <trkpt lat="48.07589" lon="-4.23855">
        <ele>21</ele>
        <time>2013-03-17T08:36:19Z</time>
      </trkpt>
      <trkpt lat="48.07595" lon="-4.23851">
        <ele>22</ele>
        <time>2013-03-17T08:36:21Z</time>
      </trkpt>
      <trkpt lat="48.07601" lon="-4.23846">
        <ele>23</ele>
        <time>2013-03-17T08:36:23Z</time>
      </trkpt>
      <trkpt lat="48.07607" lon="-4.23841">
        <ele>23</ele>
        <time>2013-03-17T08:36:25Z</time>
      </trkpt>
      <trkpt lat="48.07616" lon="-4.23829">
        <ele>24</ele>
        <time>2013-03-17T08:36:29Z</time>
      </trkpt>
      <trkpt lat="48.0762" lon="-4.23825">
        <ele>24</ele>
        <time>2013-03-17T08:36:31Z</time>
      </trkpt>
      <trkpt lat="48.07628" lon="-4.23817">
        <ele>24</ele>
        <time>2013-03-17T08:36:34Z</time>
      </trkpt>
      <trkpt lat="48.07636" lon="-4.2381">
        <ele>23</ele>
        <time>2013-03-17T08:36:38Z</time>
      </trkpt>
      <trkpt lat="48.07643" lon="-4.23801">
        <ele>22</ele>
        <time>2013-03-17T08:36:41Z</time>
      </trkpt>
      <trkpt lat="48.07651" lon="-4.23789">
        <ele>19</ele>
        <time>2013-03-17T08:36:45Z</time>
      </trkpt>
      <trkpt lat="48.07661" lon="-4.23781">
        <ele>17</ele>
        <time>2013-03-17T08:36:48Z</time>
      </trkpt>
      <trkpt lat="48.07669" lon="-4.23774">
        <ele>14</ele>
        <time>2013-03-17T08:36:51Z</time>
      </trkpt>
      <trkpt lat="48.0768" lon="-4.23768">
        <ele>13</ele>
        <time>2013-03-17T08:36:55Z</time>
      </trkpt>
      <trkpt lat="48.07689" lon="-4.23762">
        <ele>12</ele>
        <time>2013-03-17T08:36:58Z</time>
      </trkpt>
      <trkpt lat="48.077" lon="-4.23751">
        <ele>16</ele>
        <time>2013-03-17T08:37:01Z</time>
      </trkpt>
      <trkpt lat="48.07707" lon="-4.2374">
        <ele>18</ele>
        <time>2013-03-17T08:37:03Z</time>
      </trkpt>
      <trkpt lat="48.07715" lon="-4.23729">
        <ele>19</ele>
        <time>2013-03-17T08:37:05Z</time>
      </trkpt>
      <trkpt lat="48.0772" lon="-4.23722">
        <ele>20</ele>
        <time>2013-03-17T08:37:07Z</time>
      </trkpt>
      <trkpt lat="48.07724" lon="-4.23716">
        <ele>21</ele>
        <time>2013-03-17T08:37:09Z</time>
      </trkpt>
      <trkpt lat="48.07732" lon="-4.23706">
        <ele>25</ele>
        <time>2013-03-17T08:37:13Z</time>
      </trkpt>
      <trkpt lat="48.07748" lon="-4.23678">
        <ele>35</ele>
        <time>2013-03-17T08:37:21Z</time>
      </trkpt>
      <trkpt lat="48.07754" lon="-4.23669">
        <ele>37</ele>
        <time>2013-03-17T08:37:23Z</time>
      </trkpt>
      <trkpt lat="48.0776" lon="-4.23659">
        <ele>38</ele>
        <time>2013-03-17T08:37:26Z</time>
      </trkpt>
      <trkpt lat="48.07763" lon="-4.23652">
        <ele>39</ele>
        <time>2013-03-17T08:37:28Z</time>
      </trkpt>
      <trkpt lat="48.07765" lon="-4.23646">
        <ele>39</ele>
        <time>2013-03-17T08:37:30Z</time>
      </trkpt>
      <trkpt lat="48.07768" lon="-4.23638">
        <ele>40</ele>
        <time>2013-03-17T08:37:32Z</time>
      </trkpt>
      <trkpt lat="48.07771" lon="-4.23632">
        <ele>40</ele>
        <time>2013-03-17T08:37:34Z</time>
      </trkpt>
      <trkpt lat="48.07774" lon="-4.23625">
        <ele>41</ele>
        <time>2013-03-17T08:37:36Z</time>
      </trkpt>
      <trkpt lat="48.07778" lon="-4.23617">
        <ele>41</ele>
        <time>2013-03-17T08:37:38Z</time>
      </trkpt>
      <trkpt lat="48.07783" lon="-4.2361">
        <ele>40</ele>
        <time>2013-03-17T08:37:40Z</time>
      </trkpt>
      <trkpt lat="48.07786" lon="-4.23605">
        <ele>40</ele>
        <time>2013-03-17T08:37:42Z</time>
      </trkpt>
      <trkpt lat="48.07794" lon="-4.23599">
        <ele>41</ele>
        <time>2013-03-17T08:37:47Z</time>
      </trkpt>
      <trkpt lat="48.078" lon="-4.23597">
        <ele>42</ele>
        <time>2013-03-17T08:37:51Z</time>
      </trkpt>
      <trkpt lat="48.07806" lon="-4.23597">
        <ele>43</ele>
        <time>2013-03-17T08:37:54Z</time>
      </trkpt>
      <trkpt lat="48.07811" lon="-4.23599">
        <ele>45</ele>
        <time>2013-03-17T08:37:57Z</time>
      </trkpt>
      <trkpt lat="48.0782" lon="-4.23604">
        <ele>47</ele>
        <time>2013-03-17T08:38:02Z</time>
      </trkpt>
      <trkpt lat="48.07826" lon="-4.23607">
        <ele>48</ele>
        <time>2013-03-17T08:38:05Z</time>
      </trkpt>
      <trkpt lat="48.07835" lon="-4.23612">
        <ele>48</ele>
        <time>2013-03-17T08:38:10Z</time>
      </trkpt>
      <trkpt lat="48.07839" lon="-4.23616">
        <ele>49</ele>
        <time>2013-03-17T08:38:14Z</time>
      </trkpt>
      <trkpt lat="48.07844" lon="-4.23618">
        <ele>52</ele>
        <time>2013-03-17T08:38:19Z</time>
      </trkpt>
      <trkpt lat="48.0785" lon="-4.23621">
        <ele>54</ele>
        <time>2013-03-17T08:38:24Z</time>
      </trkpt>
      <trkpt lat="48.07855" lon="-4.23622">
        <ele>56</ele>
        <time>2013-03-17T08:38:28Z</time>
      </trkpt>
      <trkpt lat="48.0786" lon="-4.23623">
        <ele>58</ele>
        <time>2013-03-17T08:38:32Z</time>
      </trkpt>
      <trkpt lat="48.07868" lon="-4.23622">
        <ele>58</ele>
        <time>2013-03-17T08:38:39Z</time>
      </trkpt>
      <trkpt lat="48.07873" lon="-4.23625">
        <ele>60</ele>
        <time>2013-03-17T08:38:44Z</time>
      </trkpt>
      <trkpt lat="48.07878" lon="-4.23627">
        <ele>60</ele>
        <time>2013-03-17T08:38:46Z</time>
      </trkpt>
      <trkpt lat="48.07883" lon="-4.23629">
        <ele>59</ele>
        <time>2013-03-17T08:38:50Z</time>
      </trkpt>
      <trkpt lat="48.0789" lon="-4.23631">
        <ele>60</ele>
        <time>2013-03-17T08:38:55Z</time>
      </trkpt>
      <trkpt lat="48.07894" lon="-4.23631">
        <ele>61</ele>
        <time>2013-03-17T08:38:57Z</time>
      </trkpt>
      <trkpt lat="48.07904" lon="-4.23638">
        <ele>63</ele>
        <time>2013-03-17T08:39:04Z</time>
      </trkpt>
      <trkpt lat="48.0791" lon="-4.23639">
        <ele>63</ele>
        <time>2013-03-17T08:39:07Z</time>
      </trkpt>
      <trkpt lat="48.07915" lon="-4.2364">
        <ele>64</ele>
        <time>2013-03-17T08:39:10Z</time>
      </trkpt>
      <trkpt lat="48.07919" lon="-4.23643">
        <ele>66</ele>
        <time>2013-03-17T08:39:17Z</time>
      </trkpt>
      <trkpt lat="48.07928" lon="-4.23644">
        <ele>67</ele>
        <time>2013-03-17T08:39:25Z</time>
      </trkpt>
      <trkpt lat="48.07938" lon="-4.23639">
        <ele>67</ele>
        <time>2013-03-17T08:39:29Z</time>
      </trkpt>
      <trkpt lat="48.07944" lon="-4.23634">
        <ele>66</ele>
        <time>2013-03-17T08:39:31Z</time>
      </trkpt>
      <trkpt lat="48.07953" lon="-4.23624">
        <ele>65</ele>
        <time>2013-03-17T08:39:33Z</time>
      </trkpt>
      <trkpt lat="48.07964" lon="-4.23611">
        <ele>65</ele>
        <time>2013-03-17T08:39:35Z</time>
      </trkpt>
      <trkpt lat="48.0797" lon="-4.236">
        <ele>66</ele>
        <time>2013-03-17T08:39:39Z</time>
      </trkpt>
      <trkpt lat="48.07975" lon="-4.23593">
        <ele>66</ele>
        <time>2013-03-17T08:39:42Z</time>
      </trkpt>
      <trkpt lat="48.07978" lon="-4.23585">
        <ele>66</ele>
        <time>2013-03-17T08:39:45Z</time>
      </trkpt>
      <trkpt lat="48.0798" lon="-4.23577">
        <ele>66</ele>
        <time>2013-03-17T08:39:49Z</time>
      </trkpt>
      <trkpt lat="48.07982" lon="-4.2357">
        <ele>67</ele>
        <time>2013-03-17T08:39:51Z</time>
      </trkpt>
      <trkpt lat="48.07985" lon="-4.2356">
        <ele>66</ele>
        <time>2013-03-17T08:39:53Z</time>
      </trkpt>
      <trkpt lat="48.07989" lon="-4.23551">
        <ele>66</ele>
        <time>2013-03-17T08:39:55Z</time>
      </trkpt>
      <trkpt lat="48.07993" lon="-4.23543">
        <ele>65</ele>
        <time>2013-03-17T08:39:57Z</time>
      </trkpt>
      <trkpt lat="48.07997" lon="-4.23535">
        <ele>64</ele>
        <time>2013-03-17T08:40:00Z</time>
      </trkpt>
      <trkpt lat="48.08001" lon="-4.23533">
        <ele>62</ele>
        <time>2013-03-17T08:40:05Z</time>
      </trkpt>
      <trkpt lat="48.0801" lon="-4.23535">
        <ele>62</ele>
        <time>2013-03-17T08:40:10Z</time>
      </trkpt>
      <trkpt lat="48.08016" lon="-4.23538">
        <ele>62</ele>
        <time>2013-03-17T08:40:14Z</time>
      </trkpt>
      <trkpt lat="48.08021" lon="-4.23541">
        <ele>63</ele>
        <time>2013-03-17T08:40:17Z</time>
      </trkpt>
      <trkpt lat="48.0803" lon="-4.23547">
        <ele>62</ele>
        <time>2013-03-17T08:40:21Z</time>
      </trkpt>
      <trkpt lat="48.08038" lon="-4.23554">
        <ele>63</ele>
        <time>2013-03-17T08:40:24Z</time>
      </trkpt>
      <trkpt lat="48.08042" lon="-4.2356">
        <ele>64</ele>
        <time>2013-03-17T08:40:27Z</time>
      </trkpt>
      <trkpt lat="48.08045" lon="-4.23567">
        <ele>67</ele>
        <time>2013-03-17T08:40:30Z</time>
      </trkpt>
      <trkpt lat="48.08049" lon="-4.23571">
        <ele>69</ele>
        <time>2013-03-17T08:40:35Z</time>
      </trkpt>
      <trkpt lat="48.08053" lon="-4.23576">
        <ele>69</ele>
        <time>2013-03-17T08:40:38Z</time>
      </trkpt>
      <trkpt lat="48.08057" lon="-4.2358">
        <ele>70</ele>
        <time>2013-03-17T08:40:42Z</time>
      </trkpt>
      <trkpt lat="48.08061" lon="-4.23584">
        <ele>71</ele>
        <time>2013-03-17T08:40:45Z</time>
      </trkpt>
      <trkpt lat="48.08066" lon="-4.23587">
        <ele>72</ele>
        <time>2013-03-17T08:40:48Z</time>
      </trkpt>
      <trkpt lat="48.08071" lon="-4.2359">
        <ele>72</ele>
        <time>2013-03-17T08:40:51Z</time>
      </trkpt>
      <trkpt lat="48.08078" lon="-4.23596">
        <ele>72</ele>
        <time>2013-03-17T08:40:55Z</time>
      </trkpt>
      <trkpt lat="48.08082" lon="-4.23599">
        <ele>72</ele>
        <time>2013-03-17T08:40:57Z</time>
      </trkpt>
      <trkpt lat="48.08088" lon="-4.23602">
        <ele>73</ele>
        <time>2013-03-17T08:41:00Z</time>
      </trkpt>
      <trkpt lat="48.08099" lon="-4.23608">
        <ele>74</ele>
        <time>2013-03-17T08:41:06Z</time>
      </trkpt>
      <trkpt lat="48.08104" lon="-4.23611">
        <ele>74</ele>
        <time>2013-03-17T08:41:09Z</time>
      </trkpt>
      <trkpt lat="48.0811" lon="-4.23612">
        <ele>74</ele>
        <time>2013-03-17T08:41:13Z</time>
      </trkpt>
      <trkpt lat="48.08115" lon="-4.23613">
        <ele>74</ele>
        <time>2013-03-17T08:41:16Z</time>
      </trkpt>
      <trkpt lat="48.0812" lon="-4.23612">
        <ele>74</ele>
        <time>2013-03-17T08:41:20Z</time>
      </trkpt>
      <trkpt lat="48.08127" lon="-4.23609">
        <ele>75</ele>
        <time>2013-03-17T08:41:25Z</time>
      </trkpt>
      <trkpt lat="48.08136" lon="-4.23602">
        <ele>73</ele>
        <time>2013-03-17T08:41:31Z</time>
      </trkpt>
      <trkpt lat="48.08147" lon="-4.23593">
        <ele>72</ele>
        <time>2013-03-17T08:41:36Z</time>
      </trkpt>
      <trkpt lat="48.08148" lon="-4.23576">
        <ele>72</ele>
        <time>2013-03-17T08:41:39Z</time>
      </trkpt>
      <trkpt lat="48.08149" lon="-4.23563">
        <ele>72</ele>
        <time>2013-03-17T08:41:44Z</time>
      </trkpt>
      <trkpt lat="48.08148" lon="-4.23552">
        <ele>74</ele>
        <time>2013-03-17T08:41:49Z</time>
      </trkpt>
      <trkpt lat="48.08147" lon="-4.23544">
        <ele>77</ele>
        <time>2013-03-17T08:41:53Z</time>
      </trkpt>
      <trkpt lat="48.08138" lon="-4.2354">
        <ele>79</ele>
        <time>2013-03-17T08:41:59Z</time>
      </trkpt>
      <trkpt lat="48.08126" lon="-4.23538">
        <ele>80</ele>
        <time>2013-03-17T08:42:02Z</time>
      </trkpt>
      <trkpt lat="48.08116" lon="-4.23536">
        <ele>80</ele>
        <time>2013-03-17T08:42:04Z</time>
      </trkpt>
      <trkpt lat="48.08105" lon="-4.23536">
        <ele>80</ele>
        <time>2013-03-17T08:42:06Z</time>
      </trkpt>
      <trkpt lat="48.08093" lon="-4.23528">
        <ele>80</ele>
        <time>2013-03-17T08:42:09Z</time>
      </trkpt>
      <trkpt lat="48.08086" lon="-4.23522">
        <ele>80</ele>
        <time>2013-03-17T08:42:11Z</time>
      </trkpt>
      <trkpt lat="48.0808" lon="-4.23514">
        <ele>79</ele>
        <time>2013-03-17T08:42:14Z</time>
      </trkpt>
      <trkpt lat="48.08072" lon="-4.23501">
        <ele>77</ele>
        <time>2013-03-17T08:42:18Z</time>
      </trkpt>
      <trkpt lat="48.08066" lon="-4.2349">
        <ele>76</ele>
        <time>2013-03-17T08:42:22Z</time>
      </trkpt>
      <trkpt lat="48.0806" lon="-4.23479">
        <ele>75</ele>
        <time>2013-03-17T08:42:25Z</time>
      </trkpt>
      <trkpt lat="48.08056" lon="-4.23473">
        <ele>74</ele>
        <time>2013-03-17T08:42:27Z</time>
      </trkpt>
      <trkpt lat="48.08053" lon="-4.23468">
        <ele>74</ele>
        <time>2013-03-17T08:42:29Z</time>
      </trkpt>
      <trkpt lat="48.0805" lon="-4.23462">
        <ele>74</ele>
        <time>2013-03-17T08:42:31Z</time>
      </trkpt>
      <trkpt lat="48.08045" lon="-4.23455">
        <ele>73</ele>
        <time>2013-03-17T08:42:34Z</time>
      </trkpt>
      <trkpt lat="48.08038" lon="-4.23442">
        <ele>73</ele>
        <time>2013-03-17T08:42:38Z</time>
      </trkpt>
      <trkpt lat="48.08034" lon="-4.23437">
        <ele>73</ele>
        <time>2013-03-17T08:42:40Z</time>
      </trkpt>
      <trkpt lat="48.08029" lon="-4.23428">
        <ele>72</ele>
        <time>2013-03-17T08:42:44Z</time>
      </trkpt>
      <trkpt lat="48.0802" lon="-4.2342">
        <ele>71</ele>
        <time>2013-03-17T08:42:49Z</time>
      </trkpt>
      <trkpt lat="48.08011" lon="-4.23418">
        <ele>71</ele>
        <time>2013-03-17T08:42:52Z</time>
      </trkpt>
      <trkpt lat="48.08003" lon="-4.23415">
        <ele>71</ele>
        <time>2013-03-17T08:42:55Z</time>
      </trkpt>
      <trkpt lat="48.07995" lon="-4.23408">
        <ele>72</ele>
        <time>2013-03-17T08:42:58Z</time>
      </trkpt>
      <trkpt lat="48.0799" lon="-4.23402">
        <ele>71</ele>
        <time>2013-03-17T08:43:00Z</time>
      </trkpt>
      <trkpt lat="48.07981" lon="-4.23397">
        <ele>70</ele>
        <time>2013-03-17T08:43:04Z</time>
      </trkpt>
      <trkpt lat="48.07973" lon="-4.23388">
        <ele>66</ele>
        <time>2013-03-17T08:43:07Z</time>
      </trkpt>
      <trkpt lat="48.0797" lon="-4.2337">
        <ele>64</ele>
        <time>2013-03-17T08:43:10Z</time>
      </trkpt>
      <trkpt lat="48.07971" lon="-4.23359">
        <ele>63</ele>
        <time>2013-03-17T08:43:12Z</time>
      </trkpt>
      <trkpt lat="48.07975" lon="-4.23349">
        <ele>62</ele>
        <time>2013-03-17T08:43:14Z</time>
      </trkpt>
      <trkpt lat="48.07977" lon="-4.23339">
        <ele>61</ele>
        <time>2013-03-17T08:43:16Z</time>
      </trkpt>
      <trkpt lat="48.07983" lon="-4.23325">
        <ele>60</ele>
        <time>2013-03-17T08:43:20Z</time>
      </trkpt>
      <trkpt lat="48.07984" lon="-4.23319">
        <ele>61</ele>
        <time>2013-03-17T08:43:22Z</time>
      </trkpt>
      <trkpt lat="48.07987" lon="-4.23312">
        <ele>62</ele>
        <time>2013-03-17T08:43:24Z</time>
      </trkpt>
      <trkpt lat="48.07989" lon="-4.23304">
        <ele>62</ele>
        <time>2013-03-17T08:43:26Z</time>
      </trkpt>
      <trkpt lat="48.07991" lon="-4.23296">
        <ele>61</ele>
        <time>2013-03-17T08:43:28Z</time>
      </trkpt>
      <trkpt lat="48.07994" lon="-4.23289">
        <ele>61</ele>
        <time>2013-03-17T08:43:31Z</time>
      </trkpt>
      <trkpt lat="48.07996" lon="-4.2328">
        <ele>62</ele>
        <time>2013-03-17T08:43:34Z</time>
      </trkpt>
      <trkpt lat="48.07999" lon="-4.23274">
        <ele>61</ele>
        <time>2013-03-17T08:43:37Z</time>
      </trkpt>
      <trkpt lat="48.08001" lon="-4.23267">
        <ele>62</ele>
        <time>2013-03-17T08:43:39Z</time>
      </trkpt>
      <trkpt lat="48.08004" lon="-4.23262">
        <ele>62</ele>
        <time>2013-03-17T08:43:41Z</time>
      </trkpt>
      <trkpt lat="48.08008" lon="-4.23255">
        <ele>60</ele>
        <time>2013-03-17T08:43:44Z</time>
      </trkpt>
      <trkpt lat="48.08015" lon="-4.23246">
        <ele>56</ele>
        <time>2013-03-17T08:43:49Z</time>
      </trkpt>
      <trkpt lat="48.0802" lon="-4.2324">
        <ele>53</ele>
        <time>2013-03-17T08:43:52Z</time>
      </trkpt>
      <trkpt lat="48.08024" lon="-4.23236">
        <ele>51</ele>
        <time>2013-03-17T08:43:54Z</time>
      </trkpt>
      <trkpt lat="48.08028" lon="-4.2323">
        <ele>51</ele>
        <time>2013-03-17T08:43:57Z</time>
      </trkpt>
      <trkpt lat="48.08033" lon="-4.23229">
        <ele>53</ele>
        <time>2013-03-17T08:44:01Z</time>
      </trkpt>
      <trkpt lat="48.08039" lon="-4.23233">
        <ele>55</ele>
        <time>2013-03-17T08:44:05Z</time>
      </trkpt>
      <trkpt lat="48.08046" lon="-4.23238">
        <ele>59</ele>
        <time>2013-03-17T08:44:09Z</time>
      </trkpt>
      <trkpt lat="48.08053" lon="-4.23243">
        <ele>60</ele>
        <time>2013-03-17T08:44:11Z</time>
      </trkpt>
      <trkpt lat="48.08057" lon="-4.23248">
        <ele>61</ele>
        <time>2013-03-17T08:44:13Z</time>
      </trkpt>
      <trkpt lat="48.08063" lon="-4.23253">
        <ele>62</ele>
        <time>2013-03-17T08:44:17Z</time>
      </trkpt>
      <trkpt lat="48.08072" lon="-4.23259">
        <ele>62</ele>
        <time>2013-03-17T08:44:24Z</time>
      </trkpt>
      <trkpt lat="48.08081" lon="-4.23265">
        <ele>64</ele>
        <time>2013-03-17T08:44:27Z</time>
      </trkpt>
      <trkpt lat="48.08088" lon="-4.2327">
        <ele>66</ele>
        <time>2013-03-17T08:44:30Z</time>
      </trkpt>
      <trkpt lat="48.08092" lon="-4.23273">
        <ele>67</ele>
        <time>2013-03-17T08:44:32Z</time>
      </trkpt>
      <trkpt lat="48.08098" lon="-4.23273">
        <ele>69</ele>
        <time>2013-03-17T08:44:36Z</time>
      </trkpt>
      <trkpt lat="48.08107" lon="-4.23261">
        <ele>68</ele>
        <time>2013-03-17T08:44:40Z</time>
      </trkpt>
      <trkpt lat="48.08111" lon="-4.2325">
        <ele>68</ele>
        <time>2013-03-17T08:44:42Z</time>
      </trkpt>
      <trkpt lat="48.08108" lon="-4.23236">
        <ele>66</ele>
        <time>2013-03-17T08:44:45Z</time>
      </trkpt>
      <trkpt lat="48.08102" lon="-4.23227">
        <ele>64</ele>
        <time>2013-03-17T08:44:50Z</time>
      </trkpt>
      <trkpt lat="48.08094" lon="-4.23217">
        <ele>64</ele>
        <time>2013-03-17T08:44:55Z</time>
      </trkpt>
      <trkpt lat="48.08087" lon="-4.23207">
        <ele>65</ele>
        <time>2013-03-17T08:44:59Z</time>
      </trkpt>
      <trkpt lat="48.08079" lon="-4.23197">
        <ele>66</ele>
        <time>2013-03-17T08:45:02Z</time>
      </trkpt>
      <trkpt lat="48.0807" lon="-4.23187">
        <ele>67</ele>
        <time>2013-03-17T08:45:05Z</time>
      </trkpt>
      <trkpt lat="48.08065" lon="-4.23174">
        <ele>66</ele>
        <time>2013-03-17T08:45:08Z</time>
      </trkpt>
      <trkpt lat="48.08067" lon="-4.23166">
        <ele>66</ele>
        <time>2013-03-17T08:45:10Z</time>
      </trkpt>
      <trkpt lat="48.08075" lon="-4.23155">
        <ele>65</ele>
        <time>2013-03-17T08:45:13Z</time>
      </trkpt>
      <trkpt lat="48.08078" lon="-4.23149">
        <ele>65</ele>
        <time>2013-03-17T08:45:15Z</time>
      </trkpt>
      <trkpt lat="48.08081" lon="-4.23144">
        <ele>63</ele>
        <time>2013-03-17T08:45:17Z</time>
      </trkpt>
      <trkpt lat="48.08084" lon="-4.23139">
        <ele>62</ele>
        <time>2013-03-17T08:45:19Z</time>
      </trkpt>
      <trkpt lat="48.08089" lon="-4.23134">
        <ele>60</ele>
        <time>2013-03-17T08:45:21Z</time>
      </trkpt>
      <trkpt lat="48.08094" lon="-4.23127">
        <ele>58</ele>
        <time>2013-03-17T08:45:23Z</time>
      </trkpt>
      <trkpt lat="48.08102" lon="-4.23113">
        <ele>57</ele>
        <time>2013-03-17T08:45:26Z</time>
      </trkpt>
      <trkpt lat="48.081" lon="-4.23099">
        <ele>58</ele>
        <time>2013-03-17T08:45:31Z</time>
      </trkpt>
      <trkpt lat="48.08093" lon="-4.23091">
        <ele>59</ele>
        <time>2013-03-17T08:45:35Z</time>
      </trkpt>
      <trkpt lat="48.08087" lon="-4.2309">
        <ele>61</ele>
        <time>2013-03-17T08:45:37Z</time>
      </trkpt>
      <trkpt lat="48.0808" lon="-4.2309">
        <ele>63</ele>
        <time>2013-03-17T08:45:39Z</time>
      </trkpt>
      <trkpt lat="48.08071" lon="-4.23089">
        <ele>65</ele>
        <time>2013-03-17T08:45:42Z</time>
      </trkpt>
      <trkpt lat="48.08066" lon="-4.23089">
        <ele>65</ele>
        <time>2013-03-17T08:45:44Z</time>
      </trkpt>
      <trkpt lat="48.0806" lon="-4.23086">
        <ele>65</ele>
        <time>2013-03-17T08:45:47Z</time>
      </trkpt>
      <trkpt lat="48.08048" lon="-4.23083">
        <ele>65</ele>
        <time>2013-03-17T08:45:51Z</time>
      </trkpt>
      <trkpt lat="48.08038" lon="-4.2308">
        <ele>64</ele>
        <time>2013-03-17T08:45:54Z</time>
      </trkpt>
      <trkpt lat="48.08026" lon="-4.23079">
        <ele>62</ele>
        <time>2013-03-17T08:45:58Z</time>
      </trkpt>
      <trkpt lat="48.08014" lon="-4.23075">
        <ele>60</ele>
        <time>2013-03-17T08:46:01Z</time>
      </trkpt>
      <trkpt lat="48.08005" lon="-4.23069">
        <ele>59</ele>
        <time>2013-03-17T08:46:04Z</time>
      </trkpt>
      <trkpt lat="48.07997" lon="-4.2306">
        <ele>57</ele>
        <time>2013-03-17T08:46:07Z</time>
      </trkpt>
      <trkpt lat="48.07989" lon="-4.23048">
        <ele>58</ele>
        <time>2013-03-17T08:46:10Z</time>
      </trkpt>
      <trkpt lat="48.07983" lon="-4.23038">
        <ele>58</ele>
        <time>2013-03-17T08:46:13Z</time>
      </trkpt>
      <trkpt lat="48.0798" lon="-4.23031">
        <ele>58</ele>
        <time>2013-03-17T08:46:16Z</time>
      </trkpt>
      <trkpt lat="48.07979" lon="-4.23024">
        <ele>57</ele>
        <time>2013-03-17T08:46:18Z</time>
      </trkpt>
      <trkpt lat="48.07978" lon="-4.23014">
        <ele>57</ele>
        <time>2013-03-17T08:46:21Z</time>
      </trkpt>
      <trkpt lat="48.07978" lon="-4.23006">
        <ele>57</ele>
        <time>2013-03-17T08:46:23Z</time>
      </trkpt>
      <trkpt lat="48.07977" lon="-4.22993">
        <ele>57</ele>
        <time>2013-03-17T08:46:26Z</time>
      </trkpt>
      <trkpt lat="48.07977" lon="-4.22987">
        <ele>57</ele>
        <time>2013-03-17T08:46:28Z</time>
      </trkpt>
      <trkpt lat="48.07976" lon="-4.22976">
        <ele>57</ele>
        <time>2013-03-17T08:46:31Z</time>
      </trkpt>
      <trkpt lat="48.07976" lon="-4.22966">
        <ele>56</ele>
        <time>2013-03-17T08:46:34Z</time>
      </trkpt>
      <trkpt lat="48.07974" lon="-4.22954">
        <ele>57</ele>
        <time>2013-03-17T08:46:37Z</time>
      </trkpt>
      <trkpt lat="48.07973" lon="-4.22945">
        <ele>58</ele>
        <time>2013-03-17T08:46:40Z</time>
      </trkpt>
      <trkpt lat="48.07971" lon="-4.22932">
        <ele>58</ele>
        <time>2013-03-17T08:46:44Z</time>
      </trkpt>
      <trkpt lat="48.07969" lon="-4.22918">
        <ele>59</ele>
        <time>2013-03-17T08:46:47Z</time>
      </trkpt>
      <trkpt lat="48.07968" lon="-4.22902">
        <ele>60</ele>
        <time>2013-03-17T08:46:53Z</time>
      </trkpt>
      <trkpt lat="48.07968" lon="-4.22893">
        <ele>61</ele>
        <time>2013-03-17T08:46:56Z</time>
      </trkpt>
      <trkpt lat="48.07967" lon="-4.22884">
        <ele>61</ele>
        <time>2013-03-17T08:46:59Z</time>
      </trkpt>
      <trkpt lat="48.07966" lon="-4.22877">
        <ele>61</ele>
        <time>2013-03-17T08:47:01Z</time>
      </trkpt>
      <trkpt lat="48.07966" lon="-4.22867">
        <ele>61</ele>
        <time>2013-03-17T08:47:03Z</time>
      </trkpt>
      <trkpt lat="48.07969" lon="-4.22857">
        <ele>61</ele>
        <time>2013-03-17T08:47:05Z</time>
      </trkpt>
      <trkpt lat="48.07969" lon="-4.22846">
        <ele>60</ele>
        <time>2013-03-17T08:47:07Z</time>
      </trkpt>
      <trkpt lat="48.07967" lon="-4.22837">
        <ele>58</ele>
        <time>2013-03-17T08:47:09Z</time>
      </trkpt>
      <trkpt lat="48.07967" lon="-4.2283">
        <ele>58</ele>
        <time>2013-03-17T08:47:11Z</time>
      </trkpt>
      <trkpt lat="48.07967" lon="-4.22814">
        <ele>57</ele>
        <time>2013-03-17T08:47:15Z</time>
      </trkpt>
      <trkpt lat="48.07967" lon="-4.22806">
        <ele>56</ele>
        <time>2013-03-17T08:47:17Z</time>
      </trkpt>
      <trkpt lat="48.07967" lon="-4.22797">
        <ele>56</ele>
        <time>2013-03-17T08:47:19Z</time>
      </trkpt>
      <trkpt lat="48.07966" lon="-4.22787">
        <ele>55</ele>
        <time>2013-03-17T08:47:21Z</time>
      </trkpt>
      <trkpt lat="48.07964" lon="-4.22776">
        <ele>55</ele>
        <time>2013-03-17T08:47:23Z</time>
      </trkpt>
      <trkpt lat="48.07962" lon="-4.22769">
        <ele>55</ele>
        <time>2013-03-17T08:47:24Z</time>
      </trkpt>
      <trkpt lat="48.07961" lon="-4.22758">
        <ele>55</ele>
        <time>2013-03-17T08:47:26Z</time>
      </trkpt>
      <trkpt lat="48.07961" lon="-4.22751">
        <ele>55</ele>
        <time>2013-03-17T08:47:27Z</time>
      </trkpt>
      <trkpt lat="48.07961" lon="-4.22743">
        <ele>55</ele>
        <time>2013-03-17T08:47:28Z</time>
      </trkpt>
      <trkpt lat="48.07962" lon="-4.22734">
        <ele>56</ele>
        <time>2013-03-17T08:47:29Z</time>
      </trkpt>
      <trkpt lat="48.07964" lon="-4.22727">
        <ele>56</ele>
        <time>2013-03-17T08:47:30Z</time>
      </trkpt>
      <trkpt lat="48.07968" lon="-4.22715">
        <ele>57</ele>
        <time>2013-03-17T08:47:32Z</time>
      </trkpt>
      <trkpt lat="48.07975" lon="-4.22706">
        <ele>56</ele>
        <time>2013-03-17T08:47:36Z</time>
      </trkpt>
      <trkpt lat="48.07978" lon="-4.227">
        <ele>55</ele>
        <time>2013-03-17T08:47:38Z</time>
      </trkpt>
      <trkpt lat="48.07983" lon="-4.22698">
        <ele>54</ele>
        <time>2013-03-17T08:47:41Z</time>
      </trkpt>
      <trkpt lat="48.0799" lon="-4.22698">
        <ele>53</ele>
        <time>2013-03-17T08:47:44Z</time>
      </trkpt>
      <trkpt lat="48.07996" lon="-4.22696">
        <ele>52</ele>
        <time>2013-03-17T08:47:47Z</time>
      </trkpt>
      <trkpt lat="48.08002" lon="-4.22694">
        <ele>52</ele>
        <time>2013-03-17T08:47:50Z</time>
      </trkpt>
      <trkpt lat="48.08007" lon="-4.22688">
        <ele>54</ele>
        <time>2013-03-17T08:47:53Z</time>
      </trkpt>
      <trkpt lat="48.08012" lon="-4.22684">
        <ele>56</ele>
        <time>2013-03-17T08:47:55Z</time>
      </trkpt>
      <trkpt lat="48.08016" lon="-4.22679">
        <ele>57</ele>
        <time>2013-03-17T08:47:58Z</time>
      </trkpt>
      <trkpt lat="48.08019" lon="-4.2267">
        <ele>56</ele>
        <time>2013-03-17T08:48:01Z</time>
      </trkpt>
      <trkpt lat="48.08023" lon="-4.22662">
        <ele>56</ele>
        <time>2013-03-17T08:48:03Z</time>
      </trkpt>
      <trkpt lat="48.08026" lon="-4.22656">
        <ele>56</ele>
        <time>2013-03-17T08:48:05Z</time>
      </trkpt>
      <trkpt lat="48.08029" lon="-4.22649">
        <ele>56</ele>
        <time>2013-03-17T08:48:08Z</time>
      </trkpt>
      <trkpt lat="48.08032" lon="-4.22642">
        <ele>57</ele>
        <time>2013-03-17T08:48:10Z</time>
      </trkpt>
      <trkpt lat="48.08036" lon="-4.22636">
        <ele>58</ele>
        <time>2013-03-17T08:48:12Z</time>
      </trkpt>
      <trkpt lat="48.0804" lon="-4.22628">
        <ele>58</ele>
        <time>2013-03-17T08:48:15Z</time>
      </trkpt>
      <trkpt lat="48.08043" lon="-4.22623">
        <ele>59</ele>
        <time>2013-03-17T08:48:17Z</time>
      </trkpt>
      <trkpt lat="48.08047" lon="-4.22614">
        <ele>60</ele>
        <time>2013-03-17T08:48:20Z</time>
      </trkpt>
      <trkpt lat="48.08049" lon="-4.22608">
        <ele>61</ele>
        <time>2013-03-17T08:48:22Z</time>
      </trkpt>
      <trkpt lat="48.08051" lon="-4.22602">
        <ele>62</ele>
        <time>2013-03-17T08:48:24Z</time>
      </trkpt>
      <trkpt lat="48.08053" lon="-4.22595">
        <ele>63</ele>
        <time>2013-03-17T08:48:26Z</time>
      </trkpt>
      <trkpt lat="48.08053" lon="-4.22588">
        <ele>63</ele>
        <time>2013-03-17T08:48:28Z</time>
      </trkpt>
      <trkpt lat="48.08053" lon="-4.22579">
        <ele>64</ele>
        <time>2013-03-17T08:48:32Z</time>
      </trkpt>
      <trkpt lat="48.0805" lon="-4.2257">
        <ele>64</ele>
        <time>2013-03-17T08:48:35Z</time>
      </trkpt>
      <trkpt lat="48.08046" lon="-4.22561">
        <ele>62</ele>
        <time>2013-03-17T08:48:38Z</time>
      </trkpt>
      <trkpt lat="48.08042" lon="-4.22555">
        <ele>62</ele>
        <time>2013-03-17T08:48:40Z</time>
      </trkpt>
      <trkpt lat="48.08039" lon="-4.22549">
        <ele>61</ele>
        <time>2013-03-17T08:48:42Z</time>
      </trkpt>
      <trkpt lat="48.08034" lon="-4.22543">
        <ele>59</ele>
        <time>2013-03-17T08:48:44Z</time>
      </trkpt>
      <trkpt lat="48.08029" lon="-4.22535">
        <ele>56</ele>
        <time>2013-03-17T08:48:47Z</time>
      </trkpt>
      <trkpt lat="48.08025" lon="-4.22528">
        <ele>54</ele>
        <time>2013-03-17T08:48:49Z</time>
      </trkpt>
      <trkpt lat="48.08022" lon="-4.2252">
        <ele>53</ele>
        <time>2013-03-17T08:48:51Z</time>
      </trkpt>
      <trkpt lat="48.08021" lon="-4.2251">
        <ele>52</ele>
        <time>2013-03-17T08:48:53Z</time>
      </trkpt>
      <trkpt lat="48.08022" lon="-4.22501">
        <ele>53</ele>
        <time>2013-03-17T08:48:56Z</time>
      </trkpt>
      <trkpt lat="48.08024" lon="-4.22494">
        <ele>54</ele>
        <time>2013-03-17T08:48:58Z</time>
      </trkpt>
      <trkpt lat="48.08027" lon="-4.22488">
        <ele>55</ele>
        <time>2013-03-17T08:49:00Z</time>
      </trkpt>
      <trkpt lat="48.08031" lon="-4.22481">
        <ele>55</ele>
        <time>2013-03-17T08:49:02Z</time>
      </trkpt>
      <trkpt lat="48.08038" lon="-4.22473">
        <ele>57</ele>
        <time>2013-03-17T08:49:06Z</time>
      </trkpt>
      <trkpt lat="48.08042" lon="-4.22468">
        <ele>59</ele>
        <time>2013-03-17T08:49:08Z</time>
      </trkpt>
      <trkpt lat="48.08045" lon="-4.22461">
        <ele>61</ele>
        <time>2013-03-17T08:49:11Z</time>
      </trkpt>
      <trkpt lat="48.08051" lon="-4.22455">
        <ele>63</ele>
        <time>2013-03-17T08:49:14Z</time>
      </trkpt>
      <trkpt lat="48.08054" lon="-4.22449">
        <ele>63</ele>
        <time>2013-03-17T08:49:16Z</time>
      </trkpt>
      <trkpt lat="48.08058" lon="-4.22443">
        <ele>64</ele>
        <time>2013-03-17T08:49:18Z</time>
      </trkpt>
      <trkpt lat="48.08062" lon="-4.22434">
        <ele>64</ele>
        <time>2013-03-17T08:49:22Z</time>
      </trkpt>
      <trkpt lat="48.08067" lon="-4.22424">
        <ele>64</ele>
        <time>2013-03-17T08:49:25Z</time>
      </trkpt>
      <trkpt lat="48.08071" lon="-4.22419">
        <ele>64</ele>
        <time>2013-03-17T08:49:27Z</time>
      </trkpt>
      <trkpt lat="48.08075" lon="-4.22412">
        <ele>65</ele>
        <time>2013-03-17T08:49:30Z</time>
      </trkpt>
      <trkpt lat="48.08078" lon="-4.22405">
        <ele>65</ele>
        <time>2013-03-17T08:49:33Z</time>
      </trkpt>
      <trkpt lat="48.08084" lon="-4.22397">
        <ele>66</ele>
        <time>2013-03-17T08:49:39Z</time>
      </trkpt>
      <trkpt lat="48.08089" lon="-4.22392">
        <ele>65</ele>
        <time>2013-03-17T08:49:41Z</time>
      </trkpt>
      <trkpt lat="48.08096" lon="-4.22383">
        <ele>65</ele>
        <time>2013-03-17T08:49:45Z</time>
      </trkpt>
      <trkpt lat="48.08103" lon="-4.22375">
        <ele>68</ele>
        <time>2013-03-17T08:49:51Z</time>
      </trkpt>
      <trkpt lat="48.08107" lon="-4.22371">
        <ele>70</ele>
        <time>2013-03-17T08:49:54Z</time>
      </trkpt>
      <trkpt lat="48.0811" lon="-4.22364">
        <ele>72</ele>
        <time>2013-03-17T08:49:59Z</time>
      </trkpt>
      <trkpt lat="48.08116" lon="-4.22362">
        <ele>70</ele>
        <time>2013-03-17T08:50:05Z</time>
      </trkpt>
      <trkpt lat="48.08122" lon="-4.22361">
        <ele>69</ele>
        <time>2013-03-17T08:50:10Z</time>
      </trkpt>
      <trkpt lat="48.08127" lon="-4.2236">
        <ele>70</ele>
        <time>2013-03-17T08:50:12Z</time>
      </trkpt>
      <trkpt lat="48.08132" lon="-4.22361">
        <ele>71</ele>
        <time>2013-03-17T08:50:20Z</time>
      </trkpt>
      <trkpt lat="48.08139" lon="-4.22361">
        <ele>71</ele>
        <time>2013-03-17T08:50:32Z</time>
      </trkpt>
      <trkpt lat="48.08144" lon="-4.22363">
        <ele>71</ele>
        <time>2013-03-17T08:50:36Z</time>
      </trkpt>
      <trkpt lat="48.08152" lon="-4.22364">
        <ele>72</ele>
        <time>2013-03-17T08:50:42Z</time>
      </trkpt>
      <trkpt lat="48.08156" lon="-4.22362">
        <ele>72</ele>
        <time>2013-03-17T08:50:46Z</time>
      </trkpt>
      <trkpt lat="48.0816" lon="-4.22359">
        <ele>73</ele>
        <time>2013-03-17T08:50:50Z</time>
      </trkpt>
      <trkpt lat="48.08168" lon="-4.22353">
        <ele>75</ele>
        <time>2013-03-17T08:50:58Z</time>
      </trkpt>
      <trkpt lat="48.08174" lon="-4.22351">
        <ele>74</ele>
        <time>2013-03-17T08:51:02Z</time>
      </trkpt>
      <trkpt lat="48.08184" lon="-4.22346">
        <ele>72</ele>
        <time>2013-03-17T08:51:09Z</time>
      </trkpt>
      <trkpt lat="48.08189" lon="-4.22342">
        <ele>75</ele>
        <time>2013-03-17T08:51:15Z</time>
      </trkpt>
      <trkpt lat="48.08196" lon="-4.22333">
        <ele>78</ele>
        <time>2013-03-17T08:51:23Z</time>
      </trkpt>
      <trkpt lat="48.08201" lon="-4.22327">
        <ele>80</ele>
        <time>2013-03-17T08:51:28Z</time>
      </trkpt>
      <trkpt lat="48.08208" lon="-4.2232">
        <ele>83</ele>
        <time>2013-03-17T08:51:35Z</time>
      </trkpt>
      <trkpt lat="48.08215" lon="-4.22314">
        <ele>87</ele>
        <time>2013-03-17T08:51:48Z</time>
      </trkpt>
      <trkpt lat="48.08225" lon="-4.22311">
        <ele>88</ele>
        <time>2013-03-17T08:51:53Z</time>
      </trkpt>
      <trkpt lat="48.0823" lon="-4.22312">
        <ele>88</ele>
        <time>2013-03-17T08:51:57Z</time>
      </trkpt>
      <trkpt lat="48.08235" lon="-4.22311">
        <ele>87</ele>
        <time>2013-03-17T08:52:01Z</time>
      </trkpt>
      <trkpt lat="48.08239" lon="-4.22309">
        <ele>86</ele>
        <time>2013-03-17T08:52:04Z</time>
      </trkpt>
      <trkpt lat="48.08245" lon="-4.22307">
        <ele>83</ele>
        <time>2013-03-17T08:52:08Z</time>
      </trkpt>
      <trkpt lat="48.0825" lon="-4.22306">
        <ele>83</ele>
        <time>2013-03-17T08:52:11Z</time>
      </trkpt>
      <trkpt lat="48.08255" lon="-4.22308">
        <ele>84</ele>
        <time>2013-03-17T08:52:14Z</time>
      </trkpt>
      <trkpt lat="48.0826" lon="-4.22308">
        <ele>85</ele>
        <time>2013-03-17T08:52:17Z</time>
      </trkpt>
      <trkpt lat="48.08265" lon="-4.22309">
        <ele>85</ele>
        <time>2013-03-17T08:52:20Z</time>
      </trkpt>
      <trkpt lat="48.08269" lon="-4.22308">
        <ele>85</ele>
        <time>2013-03-17T08:52:24Z</time>
      </trkpt>
      <trkpt lat="48.08275" lon="-4.22308">
        <ele>85</ele>
        <time>2013-03-17T08:52:27Z</time>
      </trkpt>
      <trkpt lat="48.08282" lon="-4.22307">
        <ele>84</ele>
        <time>2013-03-17T08:52:29Z</time>
      </trkpt>
      <trkpt lat="48.08287" lon="-4.22306">
        <ele>83</ele>
        <time>2013-03-17T08:52:32Z</time>
      </trkpt>
      <trkpt lat="48.08292" lon="-4.22305">
        <ele>82</ele>
        <time>2013-03-17T08:52:35Z</time>
      </trkpt>
      <trkpt lat="48.083" lon="-4.22307">
        <ele>81</ele>
        <time>2013-03-17T08:52:42Z</time>
      </trkpt>
      <trkpt lat="48.08304" lon="-4.22309">
        <ele>80</ele>
        <time>2013-03-17T08:52:44Z</time>
      </trkpt>
      <trkpt lat="48.08314" lon="-4.22311">
        <ele>80</ele>
        <time>2013-03-17T08:52:49Z</time>
      </trkpt>
      <trkpt lat="48.0832" lon="-4.22314">
        <ele>81</ele>
        <time>2013-03-17T08:52:51Z</time>
      </trkpt>
      <trkpt lat="48.08326" lon="-4.22314">
        <ele>82</ele>
        <time>2013-03-17T08:52:53Z</time>
      </trkpt>
      <trkpt lat="48.08337" lon="-4.22314">
        <ele>83</ele>
        <time>2013-03-17T08:52:58Z</time>
      </trkpt>
      <trkpt lat="48.08346" lon="-4.22311">
        <ele>83</ele>
        <time>2013-03-17T08:53:03Z</time>
      </trkpt>
      <trkpt lat="48.08351" lon="-4.22311">
        <ele>83</ele>
        <time>2013-03-17T08:53:05Z</time>
      </trkpt>
      <trkpt lat="48.08355" lon="-4.22311">
        <ele>84</ele>
        <time>2013-03-17T08:53:07Z</time>
      </trkpt>
      <trkpt lat="48.08361" lon="-4.22311">
        <ele>84</ele>
        <time>2013-03-17T08:53:10Z</time>
      </trkpt>
      <trkpt lat="48.08366" lon="-4.22312">
        <ele>84</ele>
        <time>2013-03-17T08:53:12Z</time>
      </trkpt>
      <trkpt lat="48.08372" lon="-4.22311">
        <ele>85</ele>
        <time>2013-03-17T08:53:14Z</time>
      </trkpt>
      <trkpt lat="48.08378" lon="-4.22311">
        <ele>84</ele>
        <time>2013-03-17T08:53:16Z</time>
      </trkpt>
      <trkpt lat="48.08384" lon="-4.22312">
        <ele>84</ele>
        <time>2013-03-17T08:53:18Z</time>
      </trkpt>
      <trkpt lat="48.08392" lon="-4.22313">
        <ele>84</ele>
        <time>2013-03-17T08:53:21Z</time>
      </trkpt>
      <trkpt lat="48.08398" lon="-4.22313">
        <ele>84</ele>
        <time>2013-03-17T08:53:24Z</time>
      </trkpt>
      <trkpt lat="48.08404" lon="-4.22313">
        <ele>84</ele>
        <time>2013-03-17T08:53:27Z</time>
      </trkpt>
      <trkpt lat="48.08411" lon="-4.22315">
        <ele>83</ele>
        <time>2013-03-17T08:53:30Z</time>
      </trkpt>
      <trkpt lat="48.08421" lon="-4.22314">
        <ele>80</ele>
        <time>2013-03-17T08:53:35Z</time>
      </trkpt>
      <trkpt lat="48.08427" lon="-4.22315">
        <ele>81</ele>
        <time>2013-03-17T08:53:37Z</time>
      </trkpt>
      <trkpt lat="48.08433" lon="-4.22315">
        <ele>81</ele>
        <time>2013-03-17T08:53:39Z</time>
      </trkpt>
      <trkpt lat="48.08439" lon="-4.22313">
        <ele>82</ele>
        <time>2013-03-17T08:53:41Z</time>
      </trkpt>
      <trkpt lat="48.08449" lon="-4.22309">
        <ele>81</ele>
        <time>2013-03-17T08:53:45Z</time>
      </trkpt>
      <trkpt lat="48.08454" lon="-4.22305">
        <ele>80</ele>
        <time>2013-03-17T08:53:47Z</time>
      </trkpt>
      <trkpt lat="48.08465" lon="-4.22302">
        <ele>80</ele>
        <time>2013-03-17T08:53:51Z</time>
      </trkpt>
      <trkpt lat="48.08473" lon="-4.22302">
        <ele>81</ele>
        <time>2013-03-17T08:53:54Z</time>
      </trkpt>
      <trkpt lat="48.08477" lon="-4.22304">
        <ele>82</ele>
        <time>2013-03-17T08:53:56Z</time>
      </trkpt>
      <trkpt lat="48.08483" lon="-4.22308">
        <ele>85</ele>
        <time>2013-03-17T08:53:59Z</time>
      </trkpt>
      <trkpt lat="48.08487" lon="-4.2231">
        <ele>87</ele>
        <time>2013-03-17T08:54:01Z</time>
      </trkpt>
      <trkpt lat="48.08493" lon="-4.22311">
        <ele>89</ele>
        <time>2013-03-17T08:54:03Z</time>
      </trkpt>
      <trkpt lat="48.08503" lon="-4.22311">
        <ele>91</ele>
        <time>2013-03-17T08:54:07Z</time>
      </trkpt>
      <trkpt lat="48.08508" lon="-4.22305">
        <ele>91</ele>
        <time>2013-03-17T08:54:10Z</time>
      </trkpt>
      <trkpt lat="48.08512" lon="-4.22301">
        <ele>91</ele>
        <time>2013-03-17T08:54:13Z</time>
      </trkpt>
      <trkpt lat="48.08518" lon="-4.22294">
        <ele>93</ele>
        <time>2013-03-17T08:54:18Z</time>
      </trkpt>
      <trkpt lat="48.08521" lon="-4.22288">
        <ele>94</ele>
        <time>2013-03-17T08:54:21Z</time>
      </trkpt>
      <trkpt lat="48.08524" lon="-4.22283">
        <ele>94</ele>
        <time>2013-03-17T08:54:24Z</time>
      </trkpt>
      <trkpt lat="48.08529" lon="-4.22278">
        <ele>93</ele>
        <time>2013-03-17T08:54:28Z</time>
      </trkpt>
      <trkpt lat="48.08533" lon="-4.22274">
        <ele>94</ele>
        <time>2013-03-17T08:54:31Z</time>
      </trkpt>
      <trkpt lat="48.08541" lon="-4.22271">
        <ele>94</ele>
        <time>2013-03-17T08:54:33Z</time>
      </trkpt>
      <trkpt lat="48.08553" lon="-4.22262">
        <ele>93</ele>
        <time>2013-03-17T08:54:36Z</time>
      </trkpt>
      <trkpt lat="48.0856" lon="-4.22258">
        <ele>92</ele>
        <time>2013-03-17T08:54:38Z</time>
      </trkpt>
      <trkpt lat="48.08564" lon="-4.2225">
        <ele>92</ele>
        <time>2013-03-17T08:54:43Z</time>
      </trkpt>
      <trkpt lat="48.08569" lon="-4.22248">
        <ele>94</ele>
        <time>2013-03-17T08:54:47Z</time>
      </trkpt>
      <trkpt lat="48.08575" lon="-4.22248">
        <ele>96</ele>
        <time>2013-03-17T08:54:51Z</time>
      </trkpt>
      <trkpt lat="48.08581" lon="-4.22247">
        <ele>98</ele>
        <time>2013-03-17T08:54:55Z</time>
      </trkpt>
      <trkpt lat="48.08586" lon="-4.22249">
        <ele>99</ele>
        <time>2013-03-17T08:54:59Z</time>
      </trkpt>
      <trkpt lat="48.0859" lon="-4.22249">
        <ele>99</ele>
        <time>2013-03-17T08:55:03Z</time>
      </trkpt>
      <trkpt lat="48.08596" lon="-4.2225">
        <ele>101</ele>
        <time>2013-03-17T08:55:07Z</time>
      </trkpt>
      <trkpt lat="48.08602" lon="-4.22253">
        <ele>102</ele>
        <time>2013-03-17T08:55:11Z</time>
      </trkpt>
      <trkpt lat="48.08609" lon="-4.22253">
        <ele>104</ele>
        <time>2013-03-17T08:55:16Z</time>
      </trkpt>
      <trkpt lat="48.08619" lon="-4.22253">
        <ele>106</ele>
        <time>2013-03-17T08:55:21Z</time>
      </trkpt>
      <trkpt lat="48.08624" lon="-4.22251">
        <ele>106</ele>
        <time>2013-03-17T08:55:24Z</time>
      </trkpt>
      <trkpt lat="48.08629" lon="-4.22252">
        <ele>105</ele>
        <time>2013-03-17T08:55:28Z</time>
      </trkpt>
      <trkpt lat="48.08635" lon="-4.22252">
        <ele>105</ele>
        <time>2013-03-17T08:55:31Z</time>
      </trkpt>
      <trkpt lat="48.0864" lon="-4.22251">
        <ele>106</ele>
        <time>2013-03-17T08:55:34Z</time>
      </trkpt>
      <trkpt lat="48.0865" lon="-4.2225">
        <ele>105</ele>
        <time>2013-03-17T08:55:39Z</time>
      </trkpt>
      <trkpt lat="48.08655" lon="-4.2225">
        <ele>104</ele>
        <time>2013-03-17T08:55:41Z</time>
      </trkpt>
      <trkpt lat="48.08661" lon="-4.22249">
        <ele>103</ele>
        <time>2013-03-17T08:55:44Z</time>
      </trkpt>
      <trkpt lat="48.08668" lon="-4.22248">
        <ele>103</ele>
        <time>2013-03-17T08:55:47Z</time>
      </trkpt>
      <trkpt lat="48.08673" lon="-4.22248">
        <ele>103</ele>
        <time>2013-03-17T08:55:50Z</time>
      </trkpt>
      <trkpt lat="48.08679" lon="-4.22248">
        <ele>103</ele>
        <time>2013-03-17T08:55:53Z</time>
      </trkpt>
      <trkpt lat="48.08683" lon="-4.22247">
        <ele>103</ele>
        <time>2013-03-17T08:55:56Z</time>
      </trkpt>
      <trkpt lat="48.0869" lon="-4.22246">
        <ele>103</ele>
        <time>2013-03-17T08:55:59Z</time>
      </trkpt>
      <trkpt lat="48.08695" lon="-4.22244">
        <ele>102</ele>
        <time>2013-03-17T08:56:02Z</time>
      </trkpt>
      <trkpt lat="48.087" lon="-4.22243">
        <ele>101</ele>
        <time>2013-03-17T08:56:04Z</time>
      </trkpt>
      <trkpt lat="48.08711" lon="-4.2224">
        <ele>101</ele>
        <time>2013-03-17T08:56:10Z</time>
      </trkpt>
      <trkpt lat="48.08716" lon="-4.22238">
        <ele>102</ele>
        <time>2013-03-17T08:56:13Z</time>
      </trkpt>
      <trkpt lat="48.08721" lon="-4.22235">
        <ele>103</ele>
        <time>2013-03-17T08:56:16Z</time>
      </trkpt>
      <trkpt lat="48.08726" lon="-4.22233">
        <ele>106</ele>
        <time>2013-03-17T08:56:19Z</time>
      </trkpt>
      <trkpt lat="48.08731" lon="-4.2223">
        <ele>106</ele>
        <time>2013-03-17T08:56:22Z</time>
      </trkpt>
      <trkpt lat="48.0874" lon="-4.22231">
        <ele>107</ele>
        <time>2013-03-17T08:56:25Z</time>
      </trkpt>
      <trkpt lat="48.08746" lon="-4.22229">
        <ele>106</ele>
        <time>2013-03-17T08:56:27Z</time>
      </trkpt>
      <trkpt lat="48.08753" lon="-4.22225">
        <ele>105</ele>
        <time>2013-03-17T08:56:31Z</time>
      </trkpt>
      <trkpt lat="48.08758" lon="-4.22221">
        <ele>105</ele>
        <time>2013-03-17T08:56:34Z</time>
      </trkpt>
      <trkpt lat="48.08762" lon="-4.22217">
        <ele>107</ele>
        <time>2013-03-17T08:56:37Z</time>
      </trkpt>
      <trkpt lat="48.08769" lon="-4.22212">
        <ele>108</ele>
        <time>2013-03-17T08:56:40Z</time>
      </trkpt>
      <trkpt lat="48.08777" lon="-4.22209">
        <ele>109</ele>
        <time>2013-03-17T08:56:43Z</time>
      </trkpt>
      <trkpt lat="48.08783" lon="-4.22207">
        <ele>110</ele>
        <time>2013-03-17T08:56:46Z</time>
      </trkpt>
      <trkpt lat="48.08788" lon="-4.22205">
        <ele>112</ele>
        <time>2013-03-17T08:56:49Z</time>
      </trkpt>
      <trkpt lat="48.08794" lon="-4.22202">
        <ele>114</ele>
        <time>2013-03-17T08:56:53Z</time>
      </trkpt>
      <trkpt lat="48.08799" lon="-4.22198">
        <ele>114</ele>
        <time>2013-03-17T08:56:56Z</time>
      </trkpt>
      <trkpt lat="48.0881" lon="-4.22196">
        <ele>113</ele>
        <time>2013-03-17T08:57:01Z</time>
      </trkpt>
      <trkpt lat="48.08817" lon="-4.22193">
        <ele>112</ele>
        <time>2013-03-17T08:57:03Z</time>
      </trkpt>
      <trkpt lat="48.08824" lon="-4.22191">
        <ele>110</ele>
        <time>2013-03-17T08:57:07Z</time>
      </trkpt>
      <trkpt lat="48.08829" lon="-4.2219">
        <ele>111</ele>
        <time>2013-03-17T08:57:09Z</time>
      </trkpt>
      <trkpt lat="48.08838" lon="-4.22185">
        <ele>111</ele>
        <time>2013-03-17T08:57:14Z</time>
      </trkpt>
      <trkpt lat="48.08846" lon="-4.22178">
        <ele>110</ele>
        <time>2013-03-17T08:57:20Z</time>
      </trkpt>
      <trkpt lat="48.0885" lon="-4.22172">
        <ele>111</ele>
        <time>2013-03-17T08:57:23Z</time>
      </trkpt>
      <trkpt lat="48.08856" lon="-4.22172">
        <ele>112</ele>
        <time>2013-03-17T08:57:26Z</time>
      </trkpt>
      <trkpt lat="48.08861" lon="-4.2217">
        <ele>113</ele>
        <time>2013-03-17T08:57:28Z</time>
      </trkpt>
      <trkpt lat="48.08866" lon="-4.22168">
        <ele>114</ele>
        <time>2013-03-17T08:57:30Z</time>
      </trkpt>
      <trkpt lat="48.08873" lon="-4.22165">
        <ele>115</ele>
        <time>2013-03-17T08:57:33Z</time>
      </trkpt>
      <trkpt lat="48.08877" lon="-4.22162">
        <ele>117</ele>
        <time>2013-03-17T08:57:35Z</time>
      </trkpt>
      <trkpt lat="48.08882" lon="-4.22161">
        <ele>118</ele>
        <time>2013-03-17T08:57:38Z</time>
      </trkpt>
      <trkpt lat="48.08887" lon="-4.2216">
        <ele>119</ele>
        <time>2013-03-17T08:57:41Z</time>
      </trkpt>
      <trkpt lat="48.08894" lon="-4.22157">
        <ele>120</ele>
        <time>2013-03-17T08:57:45Z</time>
      </trkpt>
      <trkpt lat="48.08903" lon="-4.2216">
        <ele>120</ele>
        <time>2013-03-17T08:57:51Z</time>
      </trkpt>
      <trkpt lat="48.08909" lon="-4.22159">
        <ele>119</ele>
        <time>2013-03-17T08:57:53Z</time>
      </trkpt>
      <trkpt lat="48.08915" lon="-4.22162">
        <ele>118</ele>
        <time>2013-03-17T08:57:55Z</time>
      </trkpt>
      <trkpt lat="48.0892" lon="-4.22165">
        <ele>118</ele>
        <time>2013-03-17T08:57:57Z</time>
      </trkpt>
      <trkpt lat="48.08926" lon="-4.22167">
        <ele>118</ele>
        <time>2013-03-17T08:58:00Z</time>
      </trkpt>
      <trkpt lat="48.0893" lon="-4.22169">
        <ele>118</ele>
        <time>2013-03-17T08:58:02Z</time>
      </trkpt>
      <trkpt lat="48.08935" lon="-4.2217">
        <ele>119</ele>
        <time>2013-03-17T08:58:04Z</time>
      </trkpt>
      <trkpt lat="48.08939" lon="-4.22171">
        <ele>121</ele>
        <time>2013-03-17T08:58:07Z</time>
      </trkpt>
      <trkpt lat="48.08945" lon="-4.22174">
        <ele>122</ele>
        <time>2013-03-17T08:58:10Z</time>
      </trkpt>
      <trkpt lat="48.08955" lon="-4.22181">
        <ele>124</ele>
        <time>2013-03-17T08:58:15Z</time>
      </trkpt>
      <trkpt lat="48.08962" lon="-4.22189">
        <ele>128</ele>
        <time>2013-03-17T08:58:20Z</time>
      </trkpt>
      <trkpt lat="48.08972" lon="-4.22217">
        <ele>140</ele>
        <time>2013-03-17T08:58:36Z</time>
      </trkpt>
      <trkpt lat="48.08978" lon="-4.22229">
        <ele>141</ele>
        <time>2013-03-17T08:58:44Z</time>
      </trkpt>
      <trkpt lat="48.0898" lon="-4.22236">
        <ele>141</ele>
        <time>2013-03-17T08:58:48Z</time>
      </trkpt>
      <trkpt lat="48.08982" lon="-4.22243">
        <ele>142</ele>
        <time>2013-03-17T08:58:52Z</time>
      </trkpt>
      <trkpt lat="48.08986" lon="-4.22255">
        <ele>142</ele>
        <time>2013-03-17T08:58:58Z</time>
      </trkpt>
      <trkpt lat="48.08988" lon="-4.22263">
        <ele>144</ele>
        <time>2013-03-17T08:59:02Z</time>
      </trkpt>
      <trkpt lat="48.0899" lon="-4.22273">
        <ele>145</ele>
        <time>2013-03-17T08:59:06Z</time>
      </trkpt>
      <trkpt lat="48.08997" lon="-4.22282">
        <ele>147</ele>
        <time>2013-03-17T08:59:12Z</time>
      </trkpt>
      <trkpt lat="48.08999" lon="-4.22288">
        <ele>148</ele>
        <time>2013-03-17T08:59:16Z</time>
      </trkpt>
      <trkpt lat="48.09001" lon="-4.22296">
        <ele>148</ele>
        <time>2013-03-17T08:59:21Z</time>
      </trkpt>
      <trkpt lat="48.09007" lon="-4.22306">
        <ele>150</ele>
        <time>2013-03-17T08:59:27Z</time>
      </trkpt>
      <trkpt lat="48.0901" lon="-4.22311">
        <ele>151</ele>
        <time>2013-03-17T08:59:30Z</time>
      </trkpt>
      <trkpt lat="48.09011" lon="-4.22318">
        <ele>151</ele>
        <time>2013-03-17T08:59:33Z</time>
      </trkpt>
      <trkpt lat="48.09014" lon="-4.22325">
        <ele>152</ele>
        <time>2013-03-17T08:59:36Z</time>
      </trkpt>
      <trkpt lat="48.09017" lon="-4.22332">
        <ele>153</ele>
        <time>2013-03-17T08:59:40Z</time>
      </trkpt>
      <trkpt lat="48.09022" lon="-4.2234">
        <ele>155</ele>
        <time>2013-03-17T08:59:44Z</time>
      </trkpt>
      <trkpt lat="48.09026" lon="-4.22347">
        <ele>157</ele>
        <time>2013-03-17T08:59:48Z</time>
      </trkpt>
      <trkpt lat="48.09028" lon="-4.22354">
        <ele>158</ele>
        <time>2013-03-17T08:59:52Z</time>
      </trkpt>
      <trkpt lat="48.09029" lon="-4.22361">
        <ele>157</ele>
        <time>2013-03-17T08:59:55Z</time>
      </trkpt>
      <trkpt lat="48.0903" lon="-4.22368">
        <ele>157</ele>
        <time>2013-03-17T08:59:59Z</time>
      </trkpt>
      <trkpt lat="48.09032" lon="-4.22376">
        <ele>157</ele>
        <time>2013-03-17T09:00:03Z</time>
      </trkpt>
      <trkpt lat="48.09033" lon="-4.22382">
        <ele>155</ele>
        <time>2013-03-17T09:00:06Z</time>
      </trkpt>
      <trkpt lat="48.09034" lon="-4.2239">
        <ele>154</ele>
        <time>2013-03-17T09:00:09Z</time>
      </trkpt>
      <trkpt lat="48.09033" lon="-4.22398">
        <ele>153</ele>
        <time>2013-03-17T09:00:12Z</time>
      </trkpt>
      <trkpt lat="48.09032" lon="-4.22406">
        <ele>151</ele>
        <time>2013-03-17T09:00:15Z</time>
      </trkpt>
      <trkpt lat="48.09031" lon="-4.22413">
        <ele>150</ele>
        <time>2013-03-17T09:00:18Z</time>
      </trkpt>
      <trkpt lat="48.09027" lon="-4.22421">
        <ele>148</ele>
        <time>2013-03-17T09:00:22Z</time>
      </trkpt>
      <trkpt lat="48.09025" lon="-4.22429">
        <ele>147</ele>
        <time>2013-03-17T09:00:26Z</time>
      </trkpt>
      <trkpt lat="48.09021" lon="-4.22434">
        <ele>145</ele>
        <time>2013-03-17T09:00:30Z</time>
      </trkpt>
      <trkpt lat="48.09018" lon="-4.2244">
        <ele>145</ele>
        <time>2013-03-17T09:00:34Z</time>
      </trkpt>
      <trkpt lat="48.09016" lon="-4.22447">
        <ele>145</ele>
        <time>2013-03-17T09:00:39Z</time>
      </trkpt>
      <trkpt lat="48.09013" lon="-4.22453">
        <ele>145</ele>
        <time>2013-03-17T09:00:44Z</time>
      </trkpt>
      <trkpt lat="48.09011" lon="-4.2246">
        <ele>146</ele>
        <time>2013-03-17T09:00:47Z</time>
      </trkpt>
      <trkpt lat="48.09007" lon="-4.22466">
        <ele>147</ele>
        <time>2013-03-17T09:00:51Z</time>
      </trkpt>
      <trkpt lat="48.09005" lon="-4.22472">
        <ele>147</ele>
        <time>2013-03-17T09:00:54Z</time>
      </trkpt>
      <trkpt lat="48.09002" lon="-4.22479">
        <ele>148</ele>
        <time>2013-03-17T09:00:58Z</time>
      </trkpt>
      <trkpt lat="48.09" lon="-4.22486">
        <ele>148</ele>
        <time>2013-03-17T09:01:02Z</time>
      </trkpt>
      <trkpt lat="48.08997" lon="-4.22492">
        <ele>148</ele>
        <time>2013-03-17T09:01:05Z</time>
      </trkpt>
      <trkpt lat="48.08994" lon="-4.22499">
        <ele>148</ele>
        <time>2013-03-17T09:01:10Z</time>
      </trkpt>
      <trkpt lat="48.08992" lon="-4.22506">
        <ele>147</ele>
        <time>2013-03-17T09:01:14Z</time>
      </trkpt>
      <trkpt lat="48.0899" lon="-4.22514">
        <ele>147</ele>
        <time>2013-03-17T09:01:17Z</time>
      </trkpt>
      <trkpt lat="48.08988" lon="-4.2252">
        <ele>147</ele>
        <time>2013-03-17T09:01:20Z</time>
      </trkpt>
      <trkpt lat="48.08986" lon="-4.22529">
        <ele>146</ele>
        <time>2013-03-17T09:01:25Z</time>
      </trkpt>
      <trkpt lat="48.08983" lon="-4.22536">
        <ele>145</ele>
        <time>2013-03-17T09:01:28Z</time>
      </trkpt>
      <trkpt lat="48.08977" lon="-4.22546">
        <ele>144</ele>
        <time>2013-03-17T09:01:33Z</time>
      </trkpt>
      <trkpt lat="48.08974" lon="-4.22554">
        <ele>143</ele>
        <time>2013-03-17T09:01:37Z</time>
      </trkpt>
      <trkpt lat="48.0897" lon="-4.22565">
        <ele>144</ele>
        <time>2013-03-17T09:01:42Z</time>
      </trkpt>
      <trkpt lat="48.08967" lon="-4.22572">
        <ele>145</ele>
        <time>2013-03-17T09:01:45Z</time>
      </trkpt>
      <trkpt lat="48.08961" lon="-4.22585">
        <ele>146</ele>
        <time>2013-03-17T09:01:50Z</time>
      </trkpt>
      <trkpt lat="48.08958" lon="-4.22595">
        <ele>146</ele>
        <time>2013-03-17T09:01:52Z</time>
      </trkpt>
      <trkpt lat="48.08956" lon="-4.22601">
        <ele>146</ele>
        <time>2013-03-17T09:01:54Z</time>
      </trkpt>
      <trkpt lat="48.08954" lon="-4.22608">
        <ele>145</ele>
        <time>2013-03-17T09:01:56Z</time>
      </trkpt>
      <trkpt lat="48.08951" lon="-4.22616">
        <ele>145</ele>
        <time>2013-03-17T09:01:58Z</time>
      </trkpt>
      <trkpt lat="48.0895" lon="-4.22622">
        <ele>144</ele>
        <time>2013-03-17T09:01:59Z</time>
      </trkpt>
      <trkpt lat="48.08946" lon="-4.22635">
        <ele>144</ele>
        <time>2013-03-17T09:02:01Z</time>
      </trkpt>
      <trkpt lat="48.08942" lon="-4.22646">
        <ele>143</ele>
        <time>2013-03-17T09:02:03Z</time>
      </trkpt>
      <trkpt lat="48.0894" lon="-4.22652">
        <ele>143</ele>
        <time>2013-03-17T09:02:05Z</time>
      </trkpt>
      <trkpt lat="48.08934" lon="-4.22665">
        <ele>140</ele>
        <time>2013-03-17T09:05:40Z</time>
      </trkpt>
      <trkpt lat="48.08926" lon="-4.22681">
        <ele>139</ele>
        <time>2013-03-17T09:05:43Z</time>
      </trkpt>
      <trkpt lat="48.08919" lon="-4.227">
        <ele>139</ele>
        <time>2013-03-17T09:05:46Z</time>
      </trkpt>
      <trkpt lat="48.08916" lon="-4.22707">
        <ele>139</ele>
        <time>2013-03-17T09:05:47Z</time>
      </trkpt>
      <trkpt lat="48.08913" lon="-4.22714">
        <ele>139</ele>
        <time>2013-03-17T09:05:48Z</time>
      </trkpt>
      <trkpt lat="48.08912" lon="-4.22721">
        <ele>138</ele>
        <time>2013-03-17T09:05:49Z</time>
      </trkpt>
      <trkpt lat="48.08907" lon="-4.22731">
        <ele>138</ele>
        <time>2013-03-17T09:05:51Z</time>
      </trkpt>
      <trkpt lat="48.08904" lon="-4.22743">
        <ele>138</ele>
        <time>2013-03-17T09:05:53Z</time>
      </trkpt>
      <trkpt lat="48.08902" lon="-4.22754">
        <ele>138</ele>
        <time>2013-03-17T09:05:55Z</time>
      </trkpt>
      <trkpt lat="48.08904" lon="-4.22763">
        <ele>138</ele>
        <time>2013-03-17T09:05:58Z</time>
      </trkpt>
      <trkpt lat="48.08908" lon="-4.22768">
        <ele>138</ele>
        <time>2013-03-17T09:06:00Z</time>
      </trkpt>
      <trkpt lat="48.08913" lon="-4.22766">
        <ele>138</ele>
        <time>2013-03-17T09:06:02Z</time>
      </trkpt>
      <trkpt lat="48.08916" lon="-4.22759">
        <ele>138</ele>
        <time>2013-03-17T09:06:04Z</time>
      </trkpt>
      <trkpt lat="48.08918" lon="-4.22751">
        <ele>137</ele>
        <time>2013-03-17T09:06:06Z</time>
      </trkpt>
      <trkpt lat="48.08919" lon="-4.22744">
        <ele>138</ele>
        <time>2013-03-17T09:06:09Z</time>
      </trkpt>
      <trkpt lat="48.08922" lon="-4.22735">
        <ele>138</ele>
        <time>2013-03-17T09:06:23Z</time>
      </trkpt>
      <trkpt lat="48.08926" lon="-4.22724">
        <ele>139</ele>
        <time>2013-03-17T09:06:26Z</time>
      </trkpt>
      <trkpt lat="48.08929" lon="-4.22717">
        <ele>140</ele>
        <time>2013-03-17T09:06:28Z</time>
      </trkpt>
      <trkpt lat="48.08933" lon="-4.22712">
        <ele>140</ele>
        <time>2013-03-17T09:06:31Z</time>
      </trkpt>
      <trkpt lat="48.08936" lon="-4.22704">
        <ele>141</ele>
        <time>2013-03-17T09:06:34Z</time>
      </trkpt>
      <trkpt lat="48.08938" lon="-4.22698">
        <ele>140</ele>
        <time>2013-03-17T09:06:36Z</time>
      </trkpt>
      <trkpt lat="48.08941" lon="-4.2269">
        <ele>140</ele>
        <time>2013-03-17T09:06:39Z</time>
      </trkpt>
      <trkpt lat="48.08943" lon="-4.22682">
        <ele>139</ele>
        <time>2013-03-17T09:06:42Z</time>
      </trkpt>
      <trkpt lat="48.08946" lon="-4.22672">
        <ele>139</ele>
        <time>2013-03-17T09:06:45Z</time>
      </trkpt>
      <trkpt lat="48.08948" lon="-4.22665">
        <ele>139</ele>
        <time>2013-03-17T09:06:47Z</time>
      </trkpt>
      <trkpt lat="48.0895" lon="-4.22659">
        <ele>140</ele>
        <time>2013-03-17T09:06:49Z</time>
      </trkpt>
      <trkpt lat="48.08954" lon="-4.2265">
        <ele>141</ele>
        <time>2013-03-17T09:06:52Z</time>
      </trkpt>
      <trkpt lat="48.08956" lon="-4.22644">
        <ele>141</ele>
        <time>2013-03-17T09:06:54Z</time>
      </trkpt>
      <trkpt lat="48.08958" lon="-4.22637">
        <ele>141</ele>
        <time>2013-03-17T09:06:56Z</time>
      </trkpt>
      <trkpt lat="48.08961" lon="-4.2263">
        <ele>142</ele>
        <time>2013-03-17T09:06:58Z</time>
      </trkpt>
      <trkpt lat="48.08964" lon="-4.22623">
        <ele>142</ele>
        <time>2013-03-17T09:07:00Z</time>
      </trkpt>
      <trkpt lat="48.08966" lon="-4.22616">
        <ele>143</ele>
        <time>2013-03-17T09:07:02Z</time>
      </trkpt>
      <trkpt lat="48.08968" lon="-4.2261">
        <ele>143</ele>
        <time>2013-03-17T09:07:04Z</time>
      </trkpt>
      <trkpt lat="48.0897" lon="-4.22603">
        <ele>143</ele>
        <time>2013-03-17T09:07:06Z</time>
      </trkpt>
      <trkpt lat="48.08974" lon="-4.22595">
        <ele>144</ele>
        <time>2013-03-17T09:07:09Z</time>
      </trkpt>
      <trkpt lat="48.08975" lon="-4.22588">
        <ele>145</ele>
        <time>2013-03-17T09:07:11Z</time>
      </trkpt>
      <trkpt lat="48.08978" lon="-4.22582">
        <ele>145</ele>
        <time>2013-03-17T09:07:13Z</time>
      </trkpt>
      <trkpt lat="48.08982" lon="-4.22575">
        <ele>146</ele>
        <time>2013-03-17T09:07:16Z</time>
      </trkpt>
      <trkpt lat="48.08984" lon="-4.22568">
        <ele>146</ele>
        <time>2013-03-17T09:07:18Z</time>
      </trkpt>
      <trkpt lat="48.08986" lon="-4.22561">
        <ele>147</ele>
        <time>2013-03-17T09:07:20Z</time>
      </trkpt>
      <trkpt lat="48.08989" lon="-4.22554">
        <ele>147</ele>
        <time>2013-03-17T09:07:22Z</time>
      </trkpt>
      <trkpt lat="48.0899" lon="-4.22546">
        <ele>147</ele>
        <time>2013-03-17T09:07:24Z</time>
      </trkpt>
      <trkpt lat="48.08992" lon="-4.22539">
        <ele>147</ele>
        <time>2013-03-17T09:07:26Z</time>
      </trkpt>
      <trkpt lat="48.08995" lon="-4.22529">
        <ele>148</ele>
        <time>2013-03-17T09:07:30Z</time>
      </trkpt>
      <trkpt lat="48.08999" lon="-4.22521">
        <ele>149</ele>
        <time>2013-03-17T09:07:32Z</time>
      </trkpt>
      <trkpt lat="48.09002" lon="-4.22511">
        <ele>149</ele>
        <time>2013-03-17T09:07:35Z</time>
      </trkpt>
      <trkpt lat="48.09004" lon="-4.22497">
        <ele>149</ele>
        <time>2013-03-17T09:07:39Z</time>
      </trkpt>
      <trkpt lat="48.09006" lon="-4.22482">
        <ele>146</ele>
        <time>2013-03-17T09:07:43Z</time>
      </trkpt>
      <trkpt lat="48.09007" lon="-4.22467">
        <ele>143</ele>
        <time>2013-03-17T09:07:47Z</time>
      </trkpt>
      <trkpt lat="48.09009" lon="-4.22452">
        <ele>141</ele>
        <time>2013-03-17T09:07:51Z</time>
      </trkpt>
      <trkpt lat="48.09014" lon="-4.22439">
        <ele>137</ele>
        <time>2013-03-17T09:07:54Z</time>
      </trkpt>
      <trkpt lat="48.0902" lon="-4.22429">
        <ele>135</ele>
        <time>2013-03-17T09:07:56Z</time>
      </trkpt>
      <trkpt lat="48.09028" lon="-4.22419">
        <ele>133</ele>
        <time>2013-03-17T09:07:58Z</time>
      </trkpt>
      <trkpt lat="48.09038" lon="-4.22408">
        <ele>132</ele>
        <time>2013-03-17T09:08:00Z</time>
      </trkpt>
      <trkpt lat="48.09042" lon="-4.22404">
        <ele>131</ele>
        <time>2013-03-17T09:08:01Z</time>
      </trkpt>
      <trkpt lat="48.09046" lon="-4.224">
        <ele>131</ele>
        <time>2013-03-17T09:08:02Z</time>
      </trkpt>
      <trkpt lat="48.0905" lon="-4.22395">
        <ele>131</ele>
        <time>2013-03-17T09:08:03Z</time>
      </trkpt>
      <trkpt lat="48.09056" lon="-4.22389">
        <ele>132</ele>
        <time>2013-03-17T09:08:05Z</time>
      </trkpt>
      <trkpt lat="48.09063" lon="-4.22383">
        <ele>134</ele>
        <time>2013-03-17T09:08:07Z</time>
      </trkpt>
      <trkpt lat="48.09071" lon="-4.22377">
        <ele>136</ele>
        <time>2013-03-17T09:08:09Z</time>
      </trkpt>
      <trkpt lat="48.09077" lon="-4.22373">
        <ele>138</ele>
        <time>2013-03-17T09:08:11Z</time>
      </trkpt>
      <trkpt lat="48.09082" lon="-4.22369">
        <ele>140</ele>
        <time>2013-03-17T09:08:13Z</time>
      </trkpt>
      <trkpt lat="48.09087" lon="-4.22363">
        <ele>141</ele>
        <time>2013-03-17T09:08:15Z</time>
      </trkpt>
      <trkpt lat="48.09092" lon="-4.22358">
        <ele>142</ele>
        <time>2013-03-17T09:08:17Z</time>
      </trkpt>
      <trkpt lat="48.09098" lon="-4.22353">
        <ele>143</ele>
        <time>2013-03-17T09:08:19Z</time>
      </trkpt>
      <trkpt lat="48.09103" lon="-4.22347">
        <ele>145</ele>
        <time>2013-03-17T09:08:21Z</time>
      </trkpt>
      <trkpt lat="48.09107" lon="-4.22342">
        <ele>146</ele>
        <time>2013-03-17T09:08:23Z</time>
      </trkpt>
      <trkpt lat="48.09112" lon="-4.22336">
        <ele>147</ele>
        <time>2013-03-17T09:08:25Z</time>
      </trkpt>
      <trkpt lat="48.09117" lon="-4.22331">
        <ele>147</ele>
        <time>2013-03-17T09:08:27Z</time>
      </trkpt>
      <trkpt lat="48.09121" lon="-4.22326">
        <ele>148</ele>
        <time>2013-03-17T09:08:29Z</time>
      </trkpt>
      <trkpt lat="48.09126" lon="-4.22319">
        <ele>149</ele>
        <time>2013-03-17T09:08:31Z</time>
      </trkpt>
      <trkpt lat="48.09131" lon="-4.22314">
        <ele>149</ele>
        <time>2013-03-17T09:08:33Z</time>
      </trkpt>
      <trkpt lat="48.09137" lon="-4.22307">
        <ele>150</ele>
        <time>2013-03-17T09:08:35Z</time>
      </trkpt>
      <trkpt lat="48.09142" lon="-4.22301">
        <ele>150</ele>
        <time>2013-03-17T09:08:37Z</time>
      </trkpt>
      <trkpt lat="48.09146" lon="-4.22295">
        <ele>151</ele>
        <time>2013-03-17T09:08:39Z</time>
      </trkpt>
      <trkpt lat="48.09151" lon="-4.2229">
        <ele>151</ele>
        <time>2013-03-17T09:08:41Z</time>
      </trkpt>
      <trkpt lat="48.09155" lon="-4.22284">
        <ele>152</ele>
        <time>2013-03-17T09:08:43Z</time>
      </trkpt>
      <trkpt lat="48.0916" lon="-4.22278">
        <ele>152</ele>
        <time>2013-03-17T09:08:45Z</time>
      </trkpt>
      <trkpt lat="48.09165" lon="-4.22272">
        <ele>152</ele>
        <time>2013-03-17T09:08:47Z</time>
      </trkpt>
      <trkpt lat="48.0917" lon="-4.22266">
        <ele>153</ele>
        <time>2013-03-17T09:08:49Z</time>
      </trkpt>
      <trkpt lat="48.09174" lon="-4.2226">
        <ele>153</ele>
        <time>2013-03-17T09:08:51Z</time>
      </trkpt>
      <trkpt lat="48.09178" lon="-4.22253">
        <ele>152</ele>
        <time>2013-03-17T09:08:53Z</time>
      </trkpt>
      <trkpt lat="48.09182" lon="-4.22246">
        <ele>152</ele>
        <time>2013-03-17T09:08:55Z</time>
      </trkpt>
      <trkpt lat="48.09186" lon="-4.22238">
        <ele>152</ele>
        <time>2013-03-17T09:08:57Z</time>
      </trkpt>
      <trkpt lat="48.09191" lon="-4.22231">
        <ele>152</ele>
        <time>2013-03-17T09:08:59Z</time>
      </trkpt>
      <trkpt lat="48.09196" lon="-4.22226">
        <ele>152</ele>
        <time>2013-03-17T09:09:01Z</time>
      </trkpt>
      <trkpt lat="48.09201" lon="-4.22219">
        <ele>153</ele>
        <time>2013-03-17T09:09:03Z</time>
      </trkpt>
      <trkpt lat="48.09206" lon="-4.22213">
        <ele>153</ele>
        <time>2013-03-17T09:09:05Z</time>
      </trkpt>
      <trkpt lat="48.09211" lon="-4.22206">
        <ele>153</ele>
        <time>2013-03-17T09:09:07Z</time>
      </trkpt>
      <trkpt lat="48.09216" lon="-4.222">
        <ele>153</ele>
        <time>2013-03-17T09:09:09Z</time>
      </trkpt>
      <trkpt lat="48.09221" lon="-4.22193">
        <ele>153</ele>
        <time>2013-03-17T09:09:11Z</time>
      </trkpt>
      <trkpt lat="48.09226" lon="-4.22185">
        <ele>153</ele>
        <time>2013-03-17T09:09:13Z</time>
      </trkpt>
      <trkpt lat="48.09232" lon="-4.22177">
        <ele>153</ele>
        <time>2013-03-17T09:09:15Z</time>
      </trkpt>
      <trkpt lat="48.09237" lon="-4.22169">
        <ele>153</ele>
        <time>2013-03-17T09:09:17Z</time>
      </trkpt>
      <trkpt lat="48.09243" lon="-4.22162">
        <ele>154</ele>
        <time>2013-03-17T09:09:19Z</time>
      </trkpt>
      <trkpt lat="48.09247" lon="-4.22154">
        <ele>154</ele>
        <time>2013-03-17T09:09:21Z</time>
      </trkpt>
      <trkpt lat="48.09252" lon="-4.22145">
        <ele>154</ele>
        <time>2013-03-17T09:09:23Z</time>
      </trkpt>
      <trkpt lat="48.09257" lon="-4.22137">
        <ele>154</ele>
        <time>2013-03-17T09:09:25Z</time>
      </trkpt>
      <trkpt lat="48.09263" lon="-4.22128">
        <ele>155</ele>
        <time>2013-03-17T09:09:27Z</time>
      </trkpt>
      <trkpt lat="48.09268" lon="-4.2212">
        <ele>155</ele>
        <time>2013-03-17T09:09:29Z</time>
      </trkpt>
      <trkpt lat="48.09273" lon="-4.22112">
        <ele>155</ele>
        <time>2013-03-17T09:09:31Z</time>
      </trkpt>
      <trkpt lat="48.09278" lon="-4.22104">
        <ele>155</ele>
        <time>2013-03-17T09:09:33Z</time>
      </trkpt>
      <trkpt lat="48.09282" lon="-4.22095">
        <ele>155</ele>
        <time>2013-03-17T09:09:35Z</time>
      </trkpt>
      <trkpt lat="48.09287" lon="-4.22086">
        <ele>155</ele>
        <time>2013-03-17T09:09:37Z</time>
      </trkpt>
      <trkpt lat="48.09292" lon="-4.22077">
        <ele>155</ele>
        <time>2013-03-17T09:09:39Z</time>
      </trkpt>
      <trkpt lat="48.09295" lon="-4.22069">
        <ele>155</ele>
        <time>2013-03-17T09:09:41Z</time>
      </trkpt>
      <trkpt lat="48.09299" lon="-4.22062">
        <ele>155</ele>
        <time>2013-03-17T09:09:43Z</time>
      </trkpt>
      <trkpt lat="48.09304" lon="-4.22053">
        <ele>155</ele>
        <time>2013-03-17T09:09:45Z</time>
      </trkpt>
      <trkpt lat="48.09309" lon="-4.22045">
        <ele>156</ele>
        <time>2013-03-17T09:09:47Z</time>
      </trkpt>
      <trkpt lat="48.09313" lon="-4.22037">
        <ele>156</ele>
        <time>2013-03-17T09:09:49Z</time>
      </trkpt>
      <trkpt lat="48.09316" lon="-4.22029">
        <ele>156</ele>
        <time>2013-03-17T09:09:51Z</time>
      </trkpt>
      <trkpt lat="48.09321" lon="-4.22021">
        <ele>156</ele>
        <time>2013-03-17T09:09:53Z</time>
      </trkpt>
      <trkpt lat="48.09324" lon="-4.22014">
        <ele>156</ele>
        <time>2013-03-17T09:09:55Z</time>
      </trkpt>
      <trkpt lat="48.09328" lon="-4.22006">
        <ele>156</ele>
        <time>2013-03-17T09:09:57Z</time>
      </trkpt>
      <trkpt lat="48.09332" lon="-4.21998">
        <ele>156</ele>
        <time>2013-03-17T09:09:59Z</time>
      </trkpt>
      <trkpt lat="48.09336" lon="-4.2199">
        <ele>156</ele>
        <time>2013-03-17T09:10:01Z</time>
      </trkpt>
      <trkpt lat="48.0934" lon="-4.21981">
        <ele>156</ele>
        <time>2013-03-17T09:10:03Z</time>
      </trkpt>
      <trkpt lat="48.09345" lon="-4.21972">
        <ele>156</ele>
        <time>2013-03-17T09:10:05Z</time>
      </trkpt>
      <trkpt lat="48.09347" lon="-4.21962">
        <ele>156</ele>
        <time>2013-03-17T09:10:07Z</time>
      </trkpt>
      <trkpt lat="48.09346" lon="-4.21952">
        <ele>156</ele>
        <time>2013-03-17T09:10:09Z</time>
      </trkpt>
      <trkpt lat="48.09343" lon="-4.2194">
        <ele>156</ele>
        <time>2013-03-17T09:10:11Z</time>
      </trkpt>
      <trkpt lat="48.09342" lon="-4.21929">
        <ele>155</ele>
        <time>2013-03-17T09:10:13Z</time>
      </trkpt>
      <trkpt lat="48.09339" lon="-4.21919">
        <ele>155</ele>
        <time>2013-03-17T09:10:15Z</time>
      </trkpt>
      <trkpt lat="48.09336" lon="-4.21908">
        <ele>155</ele>
        <time>2013-03-17T09:10:17Z</time>
      </trkpt>
      <trkpt lat="48.09333" lon="-4.21898">
        <ele>156</ele>
        <time>2013-03-17T09:10:19Z</time>
      </trkpt>
      <trkpt lat="48.09331" lon="-4.21887">
        <ele>156</ele>
        <time>2013-03-17T09:10:21Z</time>
      </trkpt>
      <trkpt lat="48.09329" lon="-4.21877">
        <ele>156</ele>
        <time>2013-03-17T09:10:23Z</time>
      </trkpt>
      <trkpt lat="48.09329" lon="-4.21867">
        <ele>157</ele>
        <time>2013-03-17T09:10:25Z</time>
      </trkpt>
      <trkpt lat="48.09329" lon="-4.21857">
        <ele>157</ele>
        <time>2013-03-17T09:10:27Z</time>
      </trkpt>
      <trkpt lat="48.09327" lon="-4.21842">
        <ele>158</ele>
        <time>2013-03-17T09:10:30Z</time>
      </trkpt>
      <trkpt lat="48.09325" lon="-4.21833">
        <ele>158</ele>
        <time>2013-03-17T09:10:32Z</time>
      </trkpt>
      <trkpt lat="48.09324" lon="-4.21821">
        <ele>158</ele>
        <time>2013-03-17T09:10:34Z</time>
      </trkpt>
      <trkpt lat="48.09323" lon="-4.21805">
        <ele>158</ele>
        <time>2013-03-17T09:10:37Z</time>
      </trkpt>
      <trkpt lat="48.09323" lon="-4.21795">
        <ele>158</ele>
        <time>2013-03-17T09:10:39Z</time>
      </trkpt>
      <trkpt lat="48.09323" lon="-4.21784">
        <ele>159</ele>
        <time>2013-03-17T09:10:41Z</time>
      </trkpt>
      <trkpt lat="48.09323" lon="-4.21774">
        <ele>158</ele>
        <time>2013-03-17T09:10:43Z</time>
      </trkpt>
      <trkpt lat="48.09323" lon="-4.21767">
        <ele>158</ele>
        <time>2013-03-17T09:10:45Z</time>
      </trkpt>
      <trkpt lat="48.09321" lon="-4.21758">
        <ele>158</ele>
        <time>2013-03-17T09:10:47Z</time>
      </trkpt>
      <trkpt lat="48.09317" lon="-4.21748">
        <ele>157</ele>
        <time>2013-03-17T09:10:49Z</time>
      </trkpt>
      <trkpt lat="48.09312" lon="-4.21731">
        <ele>157</ele>
        <time>2013-03-17T09:10:52Z</time>
      </trkpt>
      <trkpt lat="48.09306" lon="-4.21717">
        <ele>156</ele>
        <time>2013-03-17T09:10:54Z</time>
      </trkpt>
      <trkpt lat="48.09304" lon="-4.2171">
        <ele>156</ele>
        <time>2013-03-17T09:10:55Z</time>
      </trkpt>
      <trkpt lat="48.09301" lon="-4.21699">
        <ele>157</ele>
        <time>2013-03-17T09:10:57Z</time>
      </trkpt>
      <trkpt lat="48.09299" lon="-4.21688">
        <ele>158</ele>
        <time>2013-03-17T09:10:59Z</time>
      </trkpt>
      <trkpt lat="48.09297" lon="-4.21672">
        <ele>158</ele>
        <time>2013-03-17T09:11:01Z</time>
      </trkpt>
      <trkpt lat="48.09295" lon="-4.21664">
        <ele>158</ele>
        <time>2013-03-17T09:11:02Z</time>
      </trkpt>
      <trkpt lat="48.09295" lon="-4.21656">
        <ele>157</ele>
        <time>2013-03-17T09:11:03Z</time>
      </trkpt>
      <trkpt lat="48.09296" lon="-4.21644">
        <ele>157</ele>
        <time>2013-03-17T09:11:05Z</time>
      </trkpt>
      <trkpt lat="48.09298" lon="-4.21634">
        <ele>156</ele>
        <time>2013-03-17T09:11:07Z</time>
      </trkpt>
      <trkpt lat="48.09302" lon="-4.21621">
        <ele>156</ele>
        <time>2013-03-17T09:11:09Z</time>
      </trkpt>
      <trkpt lat="48.09304" lon="-4.2161">
        <ele>156</ele>
        <time>2013-03-17T09:11:11Z</time>
      </trkpt>
      <trkpt lat="48.09308" lon="-4.21597">
        <ele>156</ele>
        <time>2013-03-17T09:11:13Z</time>
      </trkpt>
      <trkpt lat="48.09311" lon="-4.21586">
        <ele>156</ele>
        <time>2013-03-17T09:11:15Z</time>
      </trkpt>
      <trkpt lat="48.09312" lon="-4.21574">
        <ele>156</ele>
        <time>2013-03-17T09:11:17Z</time>
      </trkpt>
      <trkpt lat="48.09313" lon="-4.2156">
        <ele>156</ele>
        <time>2013-03-17T09:11:20Z</time>
      </trkpt>
      <trkpt lat="48.09314" lon="-4.21552">
        <ele>156</ele>
        <time>2013-03-17T09:11:22Z</time>
      </trkpt>
      <trkpt lat="48.09314" lon="-4.2154">
        <ele>156</ele>
        <time>2013-03-17T09:11:24Z</time>
      </trkpt>
      <trkpt lat="48.09316" lon="-4.21528">
        <ele>157</ele>
        <time>2013-03-17T09:11:26Z</time>
      </trkpt>
      <trkpt lat="48.09318" lon="-4.21519">
        <ele>158</ele>
        <time>2013-03-17T09:11:28Z</time>
      </trkpt>
      <trkpt lat="48.09318" lon="-4.21508">
        <ele>158</ele>
        <time>2013-03-17T09:11:30Z</time>
      </trkpt>
      <trkpt lat="48.09319" lon="-4.21497">
        <ele>158</ele>
        <time>2013-03-17T09:11:32Z</time>
      </trkpt>
      <trkpt lat="48.09319" lon="-4.21487">
        <ele>159</ele>
        <time>2013-03-17T09:11:34Z</time>
      </trkpt>
      <trkpt lat="48.09319" lon="-4.21477">
        <ele>159</ele>
        <time>2013-03-17T09:11:36Z</time>
      </trkpt>
      <trkpt lat="48.09318" lon="-4.21466">
        <ele>160</ele>
        <time>2013-03-17T09:11:38Z</time>
      </trkpt>
      <trkpt lat="48.09316" lon="-4.2145">
        <ele>160</ele>
        <time>2013-03-17T09:11:41Z</time>
      </trkpt>
      <trkpt lat="48.09315" lon="-4.21436">
        <ele>160</ele>
        <time>2013-03-17T09:11:44Z</time>
      </trkpt>
      <trkpt lat="48.09315" lon="-4.21429">
        <ele>160</ele>
        <time>2013-03-17T09:11:46Z</time>
      </trkpt>
      <trkpt lat="48.09316" lon="-4.21412">
        <ele>160</ele>
        <time>2013-03-17T09:11:49Z</time>
      </trkpt>
      <trkpt lat="48.09315" lon="-4.21398">
        <ele>160</ele>
        <time>2013-03-17T09:11:51Z</time>
      </trkpt>
      <trkpt lat="48.09313" lon="-4.21387">
        <ele>160</ele>
        <time>2013-03-17T09:11:53Z</time>
      </trkpt>
      <trkpt lat="48.09309" lon="-4.21379">
        <ele>161</ele>
        <time>2013-03-17T09:11:55Z</time>
      </trkpt>
      <trkpt lat="48.09306" lon="-4.21368">
        <ele>161</ele>
        <time>2013-03-17T09:11:57Z</time>
      </trkpt>
      <trkpt lat="48.09303" lon="-4.21357">
        <ele>162</ele>
        <time>2013-03-17T09:11:59Z</time>
      </trkpt>
      <trkpt lat="48.09301" lon="-4.2135">
        <ele>162</ele>
        <time>2013-03-17T09:12:01Z</time>
      </trkpt>
      <trkpt lat="48.09302" lon="-4.21341">
        <ele>163</ele>
        <time>2013-03-17T09:12:03Z</time>
      </trkpt>
      <trkpt lat="48.09305" lon="-4.21334">
        <ele>164</ele>
        <time>2013-03-17T09:12:05Z</time>
      </trkpt>
      <trkpt lat="48.09314" lon="-4.21329">
        <ele>163</ele>
        <time>2013-03-17T09:12:08Z</time>
      </trkpt>
      <trkpt lat="48.09321" lon="-4.21324">
        <ele>163</ele>
        <time>2013-03-17T09:12:10Z</time>
      </trkpt>
      <trkpt lat="48.09328" lon="-4.21321">
        <ele>162</ele>
        <time>2013-03-17T09:12:12Z</time>
      </trkpt>
      <trkpt lat="48.09336" lon="-4.21317">
        <ele>162</ele>
        <time>2013-03-17T09:12:14Z</time>
      </trkpt>
      <trkpt lat="48.0934" lon="-4.21316">
        <ele>161</ele>
        <time>2013-03-17T09:12:15Z</time>
      </trkpt>
      <trkpt lat="48.09349" lon="-4.21314">
        <ele>161</ele>
        <time>2013-03-17T09:12:17Z</time>
      </trkpt>
      <trkpt lat="48.09356" lon="-4.21313">
        <ele>161</ele>
        <time>2013-03-17T09:12:19Z</time>
      </trkpt>
      <trkpt lat="48.09363" lon="-4.21311">
        <ele>161</ele>
        <time>2013-03-17T09:12:21Z</time>
      </trkpt>
      <trkpt lat="48.09371" lon="-4.21309">
        <ele>160</ele>
        <time>2013-03-17T09:12:23Z</time>
      </trkpt>
      <trkpt lat="48.09379" lon="-4.21306">
        <ele>160</ele>
        <time>2013-03-17T09:12:25Z</time>
      </trkpt>
      <trkpt lat="48.09384" lon="-4.21302">
        <ele>161</ele>
        <time>2013-03-17T09:12:27Z</time>
      </trkpt>
      <trkpt lat="48.09387" lon="-4.21296">
        <ele>160</ele>
        <time>2013-03-17T09:12:29Z</time>
      </trkpt>
      <trkpt lat="48.09388" lon="-4.21289">
        <ele>160</ele>
        <time>2013-03-17T09:12:32Z</time>
      </trkpt>
      <trkpt lat="48.0939" lon="-4.21283">
        <ele>158</ele>
        <time>2013-03-17T09:12:42Z</time>
      </trkpt>
      <trkpt lat="48.09398" lon="-4.21275">
        <ele>160</ele>
        <time>2013-03-17T09:12:48Z</time>
      </trkpt>
      <trkpt lat="48.09402" lon="-4.21272">
        <ele>160</ele>
        <time>2013-03-17T09:12:50Z</time>
      </trkpt>
      <trkpt lat="48.09408" lon="-4.2127">
        <ele>160</ele>
        <time>2013-03-17T09:12:52Z</time>
      </trkpt>
      <trkpt lat="48.09415" lon="-4.21268">
        <ele>160</ele>
        <time>2013-03-17T09:12:54Z</time>
      </trkpt>
      <trkpt lat="48.09422" lon="-4.21268">
        <ele>160</ele>
        <time>2013-03-17T09:12:56Z</time>
      </trkpt>
      <trkpt lat="48.09428" lon="-4.21267">
        <ele>160</ele>
        <time>2013-03-17T09:12:58Z</time>
      </trkpt>
      <trkpt lat="48.09434" lon="-4.21266">
        <ele>160</ele>
        <time>2013-03-17T09:13:00Z</time>
      </trkpt>
      <trkpt lat="48.09439" lon="-4.21266">
        <ele>160</ele>
        <time>2013-03-17T09:13:02Z</time>
      </trkpt>
      <trkpt lat="48.09448" lon="-4.21265">
        <ele>160</ele>
        <time>2013-03-17T09:13:04Z</time>
      </trkpt>
      <trkpt lat="48.09456" lon="-4.21264">
        <ele>160</ele>
        <time>2013-03-17T09:13:06Z</time>
      </trkpt>
      <trkpt lat="48.09462" lon="-4.21261">
        <ele>160</ele>
        <time>2013-03-17T09:13:08Z</time>
      </trkpt>
      <trkpt lat="48.09468" lon="-4.21259">
        <ele>160</ele>
        <time>2013-03-17T09:13:10Z</time>
      </trkpt>
      <trkpt lat="48.09475" lon="-4.21255">
        <ele>159</ele>
        <time>2013-03-17T09:13:12Z</time>
      </trkpt>
      <trkpt lat="48.09482" lon="-4.21253">
        <ele>159</ele>
        <time>2013-03-17T09:13:14Z</time>
      </trkpt>
      <trkpt lat="48.09488" lon="-4.21252">
        <ele>157</ele>
        <time>2013-03-17T09:13:16Z</time>
      </trkpt>
      <trkpt lat="48.09496" lon="-4.21251">
        <ele>157</ele>
        <time>2013-03-17T09:13:18Z</time>
      </trkpt>
      <trkpt lat="48.09503" lon="-4.21251">
        <ele>157</ele>
        <time>2013-03-17T09:13:20Z</time>
      </trkpt>
      <trkpt lat="48.09509" lon="-4.2125">
        <ele>158</ele>
        <time>2013-03-17T09:13:22Z</time>
      </trkpt>
      <trkpt lat="48.09517" lon="-4.21251">
        <ele>159</ele>
        <time>2013-03-17T09:13:24Z</time>
      </trkpt>
      <trkpt lat="48.09526" lon="-4.21251">
        <ele>160</ele>
        <time>2013-03-17T09:13:26Z</time>
      </trkpt>
      <trkpt lat="48.09531" lon="-4.2125">
        <ele>160</ele>
        <time>2013-03-17T09:13:27Z</time>
      </trkpt>
      <trkpt lat="48.09539" lon="-4.21249">
        <ele>161</ele>
        <time>2013-03-17T09:13:29Z</time>
      </trkpt>
      <trkpt lat="48.09548" lon="-4.21248">
        <ele>161</ele>
        <time>2013-03-17T09:13:31Z</time>
      </trkpt>
      <trkpt lat="48.09556" lon="-4.21247">
        <ele>162</ele>
        <time>2013-03-17T09:13:33Z</time>
      </trkpt>
      <trkpt lat="48.09563" lon="-4.21245">
        <ele>162</ele>
        <time>2013-03-17T09:13:35Z</time>
      </trkpt>
      <trkpt lat="48.09571" lon="-4.21245">
        <ele>162</ele>
        <time>2013-03-17T09:13:37Z</time>
      </trkpt>
      <trkpt lat="48.09579" lon="-4.21244">
        <ele>162</ele>
        <time>2013-03-17T09:13:39Z</time>
      </trkpt>
      <trkpt lat="48.09586" lon="-4.21244">
        <ele>163</ele>
        <time>2013-03-17T09:13:41Z</time>
      </trkpt>
      <trkpt lat="48.09594" lon="-4.21243">
        <ele>163</ele>
        <time>2013-03-17T09:13:43Z</time>
      </trkpt>
      <trkpt lat="48.09601" lon="-4.21242">
        <ele>164</ele>
        <time>2013-03-17T09:13:45Z</time>
      </trkpt>
      <trkpt lat="48.09608" lon="-4.2124">
        <ele>164</ele>
        <time>2013-03-17T09:13:47Z</time>
      </trkpt>
      <trkpt lat="48.09616" lon="-4.21237">
        <ele>163</ele>
        <time>2013-03-17T09:13:49Z</time>
      </trkpt>
      <trkpt lat="48.09625" lon="-4.21235">
        <ele>163</ele>
        <time>2013-03-17T09:13:51Z</time>
      </trkpt>
      <trkpt lat="48.09633" lon="-4.21233">
        <ele>163</ele>
        <time>2013-03-17T09:13:53Z</time>
      </trkpt>
      <trkpt lat="48.09641" lon="-4.21231">
        <ele>162</ele>
        <time>2013-03-17T09:13:55Z</time>
      </trkpt>
      <trkpt lat="48.09651" lon="-4.21229">
        <ele>161</ele>
        <time>2013-03-17T09:13:57Z</time>
      </trkpt>
      <trkpt lat="48.09656" lon="-4.21227">
        <ele>161</ele>
        <time>2013-03-17T09:13:58Z</time>
      </trkpt>
      <trkpt lat="48.09661" lon="-4.21225">
        <ele>160</ele>
        <time>2013-03-17T09:13:59Z</time>
      </trkpt>
      <trkpt lat="48.09666" lon="-4.21223">
        <ele>160</ele>
        <time>2013-03-17T09:14:00Z</time>
      </trkpt>
      <trkpt lat="48.09672" lon="-4.2122">
        <ele>160</ele>
        <time>2013-03-17T09:14:01Z</time>
      </trkpt>
      <trkpt lat="48.09677" lon="-4.21218">
        <ele>160</ele>
        <time>2013-03-17T09:14:02Z</time>
      </trkpt>
      <trkpt lat="48.09683" lon="-4.21217">
        <ele>160</ele>
        <time>2013-03-17T09:14:03Z</time>
      </trkpt>
      <trkpt lat="48.09689" lon="-4.21214">
        <ele>160</ele>
        <time>2013-03-17T09:14:04Z</time>
      </trkpt>
      <trkpt lat="48.09696" lon="-4.21213">
        <ele>160</ele>
        <time>2013-03-17T09:14:05Z</time>
      </trkpt>
      <trkpt lat="48.09702" lon="-4.2121">
        <ele>160</ele>
        <time>2013-03-17T09:14:06Z</time>
      </trkpt>
      <trkpt lat="48.09707" lon="-4.21209">
        <ele>160</ele>
        <time>2013-03-17T09:14:07Z</time>
      </trkpt>
      <trkpt lat="48.09712" lon="-4.21208">
        <ele>160</ele>
        <time>2013-03-17T09:14:08Z</time>
      </trkpt>
      <trkpt lat="48.09717" lon="-4.21207">
        <ele>159</ele>
        <time>2013-03-17T09:14:09Z</time>
      </trkpt>
      <trkpt lat="48.09722" lon="-4.21206">
        <ele>159</ele>
        <time>2013-03-17T09:14:10Z</time>
      </trkpt>
      <trkpt lat="48.09727" lon="-4.21204">
        <ele>159</ele>
        <time>2013-03-17T09:14:11Z</time>
      </trkpt>
      <trkpt lat="48.09734" lon="-4.21202">
        <ele>159</ele>
        <time>2013-03-17T09:14:13Z</time>
      </trkpt>
      <trkpt lat="48.09739" lon="-4.21199">
        <ele>158</ele>
        <time>2013-03-17T09:14:15Z</time>
      </trkpt>
      <trkpt lat="48.09745" lon="-4.21196">
        <ele>158</ele>
        <time>2013-03-17T09:14:17Z</time>
      </trkpt>
      <trkpt lat="48.0975" lon="-4.21192">
        <ele>158</ele>
        <time>2013-03-17T09:14:19Z</time>
      </trkpt>
      <trkpt lat="48.09756" lon="-4.21187">
        <ele>157</ele>
        <time>2013-03-17T09:14:21Z</time>
      </trkpt>
      <trkpt lat="48.09763" lon="-4.21182">
        <ele>156</ele>
        <time>2013-03-17T09:14:23Z</time>
      </trkpt>
      <trkpt lat="48.09767" lon="-4.21178">
        <ele>156</ele>
        <time>2013-03-17T09:14:24Z</time>
      </trkpt>
      <trkpt lat="48.09772" lon="-4.21173">
        <ele>156</ele>
        <time>2013-03-17T09:14:26Z</time>
      </trkpt>
      <trkpt lat="48.09777" lon="-4.21165">
        <ele>155</ele>
        <time>2013-03-17T09:14:28Z</time>
      </trkpt>
      <trkpt lat="48.0978" lon="-4.21154">
        <ele>155</ele>
        <time>2013-03-17T09:14:30Z</time>
      </trkpt>
      <trkpt lat="48.09781" lon="-4.21146">
        <ele>155</ele>
        <time>2013-03-17T09:14:31Z</time>
      </trkpt>
      <trkpt lat="48.09783" lon="-4.21133">
        <ele>154</ele>
        <time>2013-03-17T09:14:33Z</time>
      </trkpt>
      <trkpt lat="48.09785" lon="-4.21121">
        <ele>154</ele>
        <time>2013-03-17T09:14:35Z</time>
      </trkpt>
      <trkpt lat="48.09786" lon="-4.21114">
        <ele>154</ele>
        <time>2013-03-17T09:14:36Z</time>
      </trkpt>
      <trkpt lat="48.09786" lon="-4.21106">
        <ele>154</ele>
        <time>2013-03-17T09:14:37Z</time>
      </trkpt>
      <trkpt lat="48.09788" lon="-4.211">
        <ele>154</ele>
        <time>2013-03-17T09:14:38Z</time>
      </trkpt>
      <trkpt lat="48.0979" lon="-4.21089">
        <ele>154</ele>
        <time>2013-03-17T09:14:40Z</time>
      </trkpt>
      <trkpt lat="48.09791" lon="-4.21077">
        <ele>154</ele>
        <time>2013-03-17T09:14:42Z</time>
      </trkpt>
      <trkpt lat="48.09791" lon="-4.21067">
        <ele>153</ele>
        <time>2013-03-17T09:14:44Z</time>
      </trkpt>
      <trkpt lat="48.09792" lon="-4.21057">
        <ele>153</ele>
        <time>2013-03-17T09:14:46Z</time>
      </trkpt>
      <trkpt lat="48.09792" lon="-4.21048">
        <ele>153</ele>
        <time>2013-03-17T09:14:48Z</time>
      </trkpt>
      <trkpt lat="48.09794" lon="-4.21037">
        <ele>153</ele>
        <time>2013-03-17T09:14:50Z</time>
      </trkpt>
      <trkpt lat="48.09796" lon="-4.21028">
        <ele>153</ele>
        <time>2013-03-17T09:14:52Z</time>
      </trkpt>
      <trkpt lat="48.09797" lon="-4.21018">
        <ele>153</ele>
        <time>2013-03-17T09:14:54Z</time>
      </trkpt>
      <trkpt lat="48.09798" lon="-4.21007">
        <ele>153</ele>
        <time>2013-03-17T09:14:56Z</time>
      </trkpt>
      <trkpt lat="48.098" lon="-4.20997">
        <ele>153</ele>
        <time>2013-03-17T09:14:58Z</time>
      </trkpt>
      <trkpt lat="48.09803" lon="-4.20985">
        <ele>154</ele>
        <time>2013-03-17T09:15:00Z</time>
      </trkpt>
      <trkpt lat="48.09804" lon="-4.20972">
        <ele>154</ele>
        <time>2013-03-17T09:15:02Z</time>
      </trkpt>
      <trkpt lat="48.09805" lon="-4.2096">
        <ele>154</ele>
        <time>2013-03-17T09:15:04Z</time>
      </trkpt>
      <trkpt lat="48.09805" lon="-4.20949">
        <ele>153</ele>
        <time>2013-03-17T09:15:06Z</time>
      </trkpt>
      <trkpt lat="48.09806" lon="-4.20936">
        <ele>153</ele>
        <time>2013-03-17T09:15:08Z</time>
      </trkpt>
      <trkpt lat="48.09808" lon="-4.20924">
        <ele>152</ele>
        <time>2013-03-17T09:15:10Z</time>
      </trkpt>
      <trkpt lat="48.0981" lon="-4.20913">
        <ele>152</ele>
        <time>2013-03-17T09:15:12Z</time>
      </trkpt>
      <trkpt lat="48.09811" lon="-4.209">
        <ele>152</ele>
        <time>2013-03-17T09:15:14Z</time>
      </trkpt>
      <trkpt lat="48.09813" lon="-4.20888">
        <ele>152</ele>
        <time>2013-03-17T09:15:16Z</time>
      </trkpt>
      <trkpt lat="48.09815" lon="-4.20878">
        <ele>152</ele>
        <time>2013-03-17T09:15:18Z</time>
      </trkpt>
      <trkpt lat="48.09817" lon="-4.20867">
        <ele>152</ele>
        <time>2013-03-17T09:15:20Z</time>
      </trkpt>
      <trkpt lat="48.09818" lon="-4.20856">
        <ele>152</ele>
        <time>2013-03-17T09:15:22Z</time>
      </trkpt>
      <trkpt lat="48.09818" lon="-4.20847">
        <ele>152</ele>
        <time>2013-03-17T09:15:24Z</time>
      </trkpt>
      <trkpt lat="48.09815" lon="-4.20838">
        <ele>152</ele>
        <time>2013-03-17T09:15:26Z</time>
      </trkpt>
      <trkpt lat="48.09808" lon="-4.20827">
        <ele>153</ele>
        <time>2013-03-17T09:15:30Z</time>
      </trkpt>
      <trkpt lat="48.09803" lon="-4.20824">
        <ele>153</ele>
        <time>2013-03-17T09:15:32Z</time>
      </trkpt>
      <trkpt lat="48.09792" lon="-4.20822">
        <ele>154</ele>
        <time>2013-03-17T09:15:36Z</time>
      </trkpt>
      <trkpt lat="48.09783" lon="-4.20822">
        <ele>155</ele>
        <time>2013-03-17T09:15:40Z</time>
      </trkpt>
      <trkpt lat="48.09778" lon="-4.20822">
        <ele>156</ele>
        <time>2013-03-17T09:15:42Z</time>
      </trkpt>
      <trkpt lat="48.09767" lon="-4.2082">
        <ele>156</ele>
        <time>2013-03-17T09:15:46Z</time>
      </trkpt>
      <trkpt lat="48.09761" lon="-4.20819">
        <ele>157</ele>
        <time>2013-03-17T09:15:49Z</time>
      </trkpt>
      <trkpt lat="48.09757" lon="-4.20817">
        <ele>157</ele>
        <time>2013-03-17T09:15:51Z</time>
      </trkpt>
      <trkpt lat="48.09752" lon="-4.20817">
        <ele>157</ele>
        <time>2013-03-17T09:15:53Z</time>
      </trkpt>
      <trkpt lat="48.09747" lon="-4.20816">
        <ele>158</ele>
        <time>2013-03-17T09:15:55Z</time>
      </trkpt>
      <trkpt lat="48.09742" lon="-4.20816">
        <ele>158</ele>
        <time>2013-03-17T09:15:57Z</time>
      </trkpt>
      <trkpt lat="48.09734" lon="-4.20816">
        <ele>159</ele>
        <time>2013-03-17T09:16:00Z</time>
      </trkpt>
      <trkpt lat="48.09728" lon="-4.20817">
        <ele>159</ele>
        <time>2013-03-17T09:16:03Z</time>
      </trkpt>
      <trkpt lat="48.09723" lon="-4.20817">
        <ele>160</ele>
        <time>2013-03-17T09:16:05Z</time>
      </trkpt>
      <trkpt lat="48.09718" lon="-4.20817">
        <ele>160</ele>
        <time>2013-03-17T09:16:07Z</time>
      </trkpt>
      <trkpt lat="48.09713" lon="-4.20817">
        <ele>161</ele>
        <time>2013-03-17T09:16:09Z</time>
      </trkpt>
      <trkpt lat="48.09702" lon="-4.20817">
        <ele>162</ele>
        <time>2013-03-17T09:16:14Z</time>
      </trkpt>
      <trkpt lat="48.09697" lon="-4.20817">
        <ele>162</ele>
        <time>2013-03-17T09:16:16Z</time>
      </trkpt>
      <trkpt lat="48.09692" lon="-4.20817">
        <ele>163</ele>
        <time>2013-03-17T09:16:19Z</time>
      </trkpt>
      <trkpt lat="48.09687" lon="-4.20817">
        <ele>164</ele>
        <time>2013-03-17T09:16:21Z</time>
      </trkpt>
      <trkpt lat="48.09682" lon="-4.20817">
        <ele>165</ele>
        <time>2013-03-17T09:16:23Z</time>
      </trkpt>
      <trkpt lat="48.09675" lon="-4.20817">
        <ele>165</ele>
        <time>2013-03-17T09:16:26Z</time>
      </trkpt>
      <trkpt lat="48.09669" lon="-4.20816">
        <ele>165</ele>
        <time>2013-03-17T09:16:29Z</time>
      </trkpt>
      <trkpt lat="48.09662" lon="-4.20816">
        <ele>166</ele>
        <time>2013-03-17T09:16:32Z</time>
      </trkpt>
      <trkpt lat="48.09657" lon="-4.20818">
        <ele>167</ele>
        <time>2013-03-17T09:16:36Z</time>
      </trkpt>
      <trkpt lat="48.09653" lon="-4.20818">
        <ele>167</ele>
        <time>2013-03-17T09:16:39Z</time>
      </trkpt>
      <trkpt lat="48.09648" lon="-4.20821">
        <ele>167</ele>
        <time>2013-03-17T09:16:42Z</time>
      </trkpt>
      <trkpt lat="48.09643" lon="-4.20823">
        <ele>168</ele>
        <time>2013-03-17T09:16:45Z</time>
      </trkpt>
      <trkpt lat="48.09638" lon="-4.20824">
        <ele>169</ele>
        <time>2013-03-17T09:16:48Z</time>
      </trkpt>
      <trkpt lat="48.09633" lon="-4.20825">
        <ele>170</ele>
        <time>2013-03-17T09:16:52Z</time>
      </trkpt>
      <trkpt lat="48.09628" lon="-4.20826">
        <ele>172</ele>
        <time>2013-03-17T09:16:55Z</time>
      </trkpt>
      <trkpt lat="48.09623" lon="-4.20826">
        <ele>173</ele>
        <time>2013-03-17T09:16:58Z</time>
      </trkpt>
      <trkpt lat="48.09618" lon="-4.20827">
        <ele>174</ele>
        <time>2013-03-17T09:17:01Z</time>
      </trkpt>
      <trkpt lat="48.09613" lon="-4.20827">
        <ele>175</ele>
        <time>2013-03-17T09:17:04Z</time>
      </trkpt>
      <trkpt lat="48.09608" lon="-4.20827">
        <ele>176</ele>
        <time>2013-03-17T09:17:07Z</time>
      </trkpt>
      <trkpt lat="48.09603" lon="-4.20828">
        <ele>177</ele>
        <time>2013-03-17T09:17:11Z</time>
      </trkpt>
      <trkpt lat="48.09597" lon="-4.20829">
        <ele>178</ele>
        <time>2013-03-17T09:17:14Z</time>
      </trkpt>
      <trkpt lat="48.09592" lon="-4.2083">
        <ele>178</ele>
        <time>2013-03-17T09:17:18Z</time>
      </trkpt>
      <trkpt lat="48.09587" lon="-4.2083">
        <ele>179</ele>
        <time>2013-03-17T09:17:21Z</time>
      </trkpt>
      <trkpt lat="48.09582" lon="-4.20831">
        <ele>179</ele>
        <time>2013-03-17T09:17:24Z</time>
      </trkpt>
      <trkpt lat="48.09577" lon="-4.20831">
        <ele>180</ele>
        <time>2013-03-17T09:17:27Z</time>
      </trkpt>
      <trkpt lat="48.09571" lon="-4.20831">
        <ele>181</ele>
        <time>2013-03-17T09:17:30Z</time>
      </trkpt>
      <trkpt lat="48.09564" lon="-4.20832">
        <ele>181</ele>
        <time>2013-03-17T09:17:35Z</time>
      </trkpt>
      <trkpt lat="48.09559" lon="-4.20832">
        <ele>182</ele>
        <time>2013-03-17T09:17:38Z</time>
      </trkpt>
      <trkpt lat="48.09553" lon="-4.20835">
        <ele>183</ele>
        <time>2013-03-17T09:17:43Z</time>
      </trkpt>
      <trkpt lat="48.09547" lon="-4.20834">
        <ele>184</ele>
        <time>2013-03-17T09:17:47Z</time>
      </trkpt>
      <trkpt lat="48.09541" lon="-4.20834">
        <ele>185</ele>
        <time>2013-03-17T09:17:50Z</time>
      </trkpt>
      <trkpt lat="48.09536" lon="-4.20834">
        <ele>186</ele>
        <time>2013-03-17T09:17:53Z</time>
      </trkpt>
      <trkpt lat="48.09526" lon="-4.20832">
        <ele>188</ele>
        <time>2013-03-17T09:17:59Z</time>
      </trkpt>
      <trkpt lat="48.09522" lon="-4.2083">
        <ele>188</ele>
        <time>2013-03-17T09:18:02Z</time>
      </trkpt>
      <trkpt lat="48.09516" lon="-4.2083">
        <ele>188</ele>
        <time>2013-03-17T09:18:05Z</time>
      </trkpt>
      <trkpt lat="48.09509" lon="-4.20828">
        <ele>188</ele>
        <time>2013-03-17T09:18:08Z</time>
      </trkpt>
      <trkpt lat="48.09504" lon="-4.20827">
        <ele>188</ele>
        <time>2013-03-17T09:18:10Z</time>
      </trkpt>
      <trkpt lat="48.09499" lon="-4.20826">
        <ele>188</ele>
        <time>2013-03-17T09:18:12Z</time>
      </trkpt>
      <trkpt lat="48.09494" lon="-4.20825">
        <ele>189</ele>
        <time>2013-03-17T09:18:15Z</time>
      </trkpt>
      <trkpt lat="48.09487" lon="-4.20826">
        <ele>190</ele>
        <time>2013-03-17T09:18:18Z</time>
      </trkpt>
      <trkpt lat="48.09481" lon="-4.20824">
        <ele>191</ele>
        <time>2013-03-17T09:18:21Z</time>
      </trkpt>
      <trkpt lat="48.09475" lon="-4.20822">
        <ele>190</ele>
        <time>2013-03-17T09:18:24Z</time>
      </trkpt>
      <trkpt lat="48.09464" lon="-4.20818">
        <ele>190</ele>
        <time>2013-03-17T09:18:29Z</time>
      </trkpt>
      <trkpt lat="48.09459" lon="-4.20817">
        <ele>190</ele>
        <time>2013-03-17T09:18:31Z</time>
      </trkpt>
      <trkpt lat="48.09452" lon="-4.20813">
        <ele>191</ele>
        <time>2013-03-17T09:18:34Z</time>
      </trkpt>
      <trkpt lat="48.09447" lon="-4.20809">
        <ele>192</ele>
        <time>2013-03-17T09:18:36Z</time>
      </trkpt>
      <trkpt lat="48.09442" lon="-4.20806">
        <ele>192</ele>
        <time>2013-03-17T09:18:38Z</time>
      </trkpt>
      <trkpt lat="48.09438" lon="-4.20802">
        <ele>193</ele>
        <time>2013-03-17T09:18:41Z</time>
      </trkpt>
      <trkpt lat="48.09429" lon="-4.20797">
        <ele>193</ele>
        <time>2013-03-17T09:18:44Z</time>
      </trkpt>
      <trkpt lat="48.09421" lon="-4.20791">
        <ele>192</ele>
        <time>2013-03-17T09:18:46Z</time>
      </trkpt>
      <trkpt lat="48.09416" lon="-4.20784">
        <ele>191</ele>
        <time>2013-03-17T09:18:48Z</time>
      </trkpt>
      <trkpt lat="48.09408" lon="-4.20774">
        <ele>191</ele>
        <time>2013-03-17T09:18:51Z</time>
      </trkpt>
      <trkpt lat="48.09398" lon="-4.20761">
        <ele>190</ele>
        <time>2013-03-17T09:18:54Z</time>
      </trkpt>
      <trkpt lat="48.09392" lon="-4.20755">
        <ele>190</ele>
        <time>2013-03-17T09:18:56Z</time>
      </trkpt>
      <trkpt lat="48.09386" lon="-4.20748">
        <ele>190</ele>
        <time>2013-03-17T09:18:58Z</time>
      </trkpt>
      <trkpt lat="48.0938" lon="-4.2074">
        <ele>190</ele>
        <time>2013-03-17T09:19:00Z</time>
      </trkpt>
      <trkpt lat="48.09374" lon="-4.20734">
        <ele>191</ele>
        <time>2013-03-17T09:19:02Z</time>
      </trkpt>
      <trkpt lat="48.09371" lon="-4.20729">
        <ele>191</ele>
        <time>2013-03-17T09:19:04Z</time>
      </trkpt>
      <trkpt lat="48.09367" lon="-4.20722">
        <ele>192</ele>
        <time>2013-03-17T09:19:07Z</time>
      </trkpt>
      <trkpt lat="48.09364" lon="-4.20717">
        <ele>192</ele>
        <time>2013-03-17T09:19:09Z</time>
      </trkpt>
      <trkpt lat="48.0936" lon="-4.20712">
        <ele>193</ele>
        <time>2013-03-17T09:19:11Z</time>
      </trkpt>
      <trkpt lat="48.09356" lon="-4.20706">
        <ele>193</ele>
        <time>2013-03-17T09:19:13Z</time>
      </trkpt>
      <trkpt lat="48.09351" lon="-4.207">
        <ele>193</ele>
        <time>2013-03-17T09:19:16Z</time>
      </trkpt>
      <trkpt lat="48.09347" lon="-4.20695">
        <ele>193</ele>
        <time>2013-03-17T09:19:18Z</time>
      </trkpt>
      <trkpt lat="48.09342" lon="-4.20691">
        <ele>193</ele>
        <time>2013-03-17T09:19:20Z</time>
      </trkpt>
      <trkpt lat="48.09338" lon="-4.20686">
        <ele>194</ele>
        <time>2013-03-17T09:19:23Z</time>
      </trkpt>
      <trkpt lat="48.09334" lon="-4.20681">
        <ele>194</ele>
        <time>2013-03-17T09:19:25Z</time>
      </trkpt>
      <trkpt lat="48.0933" lon="-4.20676">
        <ele>194</ele>
        <time>2013-03-17T09:19:27Z</time>
      </trkpt>
      <trkpt lat="48.09326" lon="-4.20671">
        <ele>195</ele>
        <time>2013-03-17T09:19:29Z</time>
      </trkpt>
      <trkpt lat="48.09322" lon="-4.20667">
        <ele>195</ele>
        <time>2013-03-17T09:19:31Z</time>
      </trkpt>
      <trkpt lat="48.09318" lon="-4.20662">
        <ele>195</ele>
        <time>2013-03-17T09:19:33Z</time>
      </trkpt>
      <trkpt lat="48.09314" lon="-4.20657">
        <ele>195</ele>
        <time>2013-03-17T09:19:35Z</time>
      </trkpt>
      <trkpt lat="48.0931" lon="-4.20652">
        <ele>195</ele>
        <time>2013-03-17T09:19:37Z</time>
      </trkpt>
      <trkpt lat="48.09305" lon="-4.20647">
        <ele>195</ele>
        <time>2013-03-17T09:19:39Z</time>
      </trkpt>
      <trkpt lat="48.09302" lon="-4.20641">
        <ele>196</ele>
        <time>2013-03-17T09:19:41Z</time>
      </trkpt>
      <trkpt lat="48.09298" lon="-4.20637">
        <ele>196</ele>
        <time>2013-03-17T09:19:43Z</time>
      </trkpt>
      <trkpt lat="48.09294" lon="-4.20633">
        <ele>196</ele>
        <time>2013-03-17T09:19:45Z</time>
      </trkpt>
      <trkpt lat="48.09289" lon="-4.20628">
        <ele>197</ele>
        <time>2013-03-17T09:19:47Z</time>
      </trkpt>
      <trkpt lat="48.09284" lon="-4.20623">
        <ele>197</ele>
        <time>2013-03-17T09:19:49Z</time>
      </trkpt>
      <trkpt lat="48.0928" lon="-4.20619">
        <ele>197</ele>
        <time>2013-03-17T09:19:51Z</time>
      </trkpt>
      <trkpt lat="48.09275" lon="-4.20614">
        <ele>198</ele>
        <time>2013-03-17T09:19:53Z</time>
      </trkpt>
      <trkpt lat="48.09272" lon="-4.20609">
        <ele>198</ele>
        <time>2013-03-17T09:19:55Z</time>
      </trkpt>
      <trkpt lat="48.09268" lon="-4.20604">
        <ele>198</ele>
        <time>2013-03-17T09:19:57Z</time>
      </trkpt>
      <trkpt lat="48.09264" lon="-4.20597">
        <ele>199</ele>
        <time>2013-03-17T09:19:59Z</time>
      </trkpt>
      <trkpt lat="48.09259" lon="-4.20592">
        <ele>199</ele>
        <time>2013-03-17T09:20:01Z</time>
      </trkpt>
      <trkpt lat="48.09255" lon="-4.20587">
        <ele>200</ele>
        <time>2013-03-17T09:20:03Z</time>
      </trkpt>
      <trkpt lat="48.09251" lon="-4.20581">
        <ele>200</ele>
        <time>2013-03-17T09:20:05Z</time>
      </trkpt>
      <trkpt lat="48.09247" lon="-4.20576">
        <ele>200</ele>
        <time>2013-03-17T09:20:07Z</time>
      </trkpt>
      <trkpt lat="48.09241" lon="-4.20568">
        <ele>200</ele>
        <time>2013-03-17T09:20:10Z</time>
      </trkpt>
      <trkpt lat="48.09236" lon="-4.20562">
        <ele>200</ele>
        <time>2013-03-17T09:20:12Z</time>
      </trkpt>
      <trkpt lat="48.0923" lon="-4.20553">
        <ele>200</ele>
        <time>2013-03-17T09:20:15Z</time>
      </trkpt>
      <trkpt lat="48.09226" lon="-4.20548">
        <ele>200</ele>
        <time>2013-03-17T09:20:17Z</time>
      </trkpt>
      <trkpt lat="48.0922" lon="-4.20542">
        <ele>200</ele>
        <time>2013-03-17T09:20:19Z</time>
      </trkpt>
      <trkpt lat="48.09215" lon="-4.20536">
        <ele>200</ele>
        <time>2013-03-17T09:20:21Z</time>
      </trkpt>
      <trkpt lat="48.0921" lon="-4.2053">
        <ele>200</ele>
        <time>2013-03-17T09:20:23Z</time>
      </trkpt>
      <trkpt lat="48.09206" lon="-4.20524">
        <ele>200</ele>
        <time>2013-03-17T09:20:25Z</time>
      </trkpt>
      <trkpt lat="48.09201" lon="-4.20516">
        <ele>200</ele>
        <time>2013-03-17T09:20:27Z</time>
      </trkpt>
      <trkpt lat="48.09197" lon="-4.2051">
        <ele>200</ele>
        <time>2013-03-17T09:20:29Z</time>
      </trkpt>
      <trkpt lat="48.09193" lon="-4.20503">
        <ele>200</ele>
        <time>2013-03-17T09:20:31Z</time>
      </trkpt>
      <trkpt lat="48.09189" lon="-4.20497">
        <ele>200</ele>
        <time>2013-03-17T09:20:33Z</time>
      </trkpt>
      <trkpt lat="48.09185" lon="-4.2049">
        <ele>199</ele>
        <time>2013-03-17T09:20:35Z</time>
      </trkpt>
      <trkpt lat="48.09179" lon="-4.20483">
        <ele>199</ele>
        <time>2013-03-17T09:20:37Z</time>
      </trkpt>
      <trkpt lat="48.09172" lon="-4.20473">
        <ele>199</ele>
        <time>2013-03-17T09:20:40Z</time>
      </trkpt>
      <trkpt lat="48.09167" lon="-4.20467">
        <ele>199</ele>
        <time>2013-03-17T09:20:42Z</time>
      </trkpt>
      <trkpt lat="48.09161" lon="-4.20461">
        <ele>199</ele>
        <time>2013-03-17T09:20:44Z</time>
      </trkpt>
      <trkpt lat="48.09155" lon="-4.20452">
        <ele>199</ele>
        <time>2013-03-17T09:20:46Z</time>
      </trkpt>
      <trkpt lat="48.09149" lon="-4.20443">
        <ele>199</ele>
        <time>2013-03-17T09:20:48Z</time>
      </trkpt>
      <trkpt lat="48.09143" lon="-4.20434">
        <ele>199</ele>
        <time>2013-03-17T09:20:50Z</time>
      </trkpt>
      <trkpt lat="48.09138" lon="-4.20427">
        <ele>199</ele>
        <time>2013-03-17T09:20:52Z</time>
      </trkpt>
      <trkpt lat="48.09133" lon="-4.2042">
        <ele>199</ele>
        <time>2013-03-17T09:20:54Z</time>
      </trkpt>
      <trkpt lat="48.09128" lon="-4.20411">
        <ele>200</ele>
        <time>2013-03-17T09:20:56Z</time>
      </trkpt>
      <trkpt lat="48.09123" lon="-4.20403">
        <ele>200</ele>
        <time>2013-03-17T09:20:58Z</time>
      </trkpt>
      <trkpt lat="48.09118" lon="-4.20397">
        <ele>199</ele>
        <time>2013-03-17T09:21:00Z</time>
      </trkpt>
      <trkpt lat="48.09113" lon="-4.2039">
        <ele>199</ele>
        <time>2013-03-17T09:21:02Z</time>
      </trkpt>
      <trkpt lat="48.09108" lon="-4.20383">
        <ele>199</ele>
        <time>2013-03-17T09:21:04Z</time>
      </trkpt>
      <trkpt lat="48.09103" lon="-4.20375">
        <ele>199</ele>
        <time>2013-03-17T09:21:06Z</time>
      </trkpt>
      <trkpt lat="48.09098" lon="-4.20367">
        <ele>199</ele>
        <time>2013-03-17T09:21:08Z</time>
      </trkpt>
      <trkpt lat="48.09092" lon="-4.20361">
        <ele>199</ele>
        <time>2013-03-17T09:21:10Z</time>
      </trkpt>
      <trkpt lat="48.09087" lon="-4.20352">
        <ele>199</ele>
        <time>2013-03-17T09:21:12Z</time>
      </trkpt>
      <trkpt lat="48.09083" lon="-4.20344">
        <ele>199</ele>
        <time>2013-03-17T09:21:14Z</time>
      </trkpt>
      <trkpt lat="48.0908" lon="-4.20334">
        <ele>199</ele>
        <time>2013-03-17T09:21:16Z</time>
      </trkpt>
      <trkpt lat="48.09083" lon="-4.20326">
        <ele>199</ele>
        <time>2013-03-17T09:21:18Z</time>
      </trkpt>
      <trkpt lat="48.09087" lon="-4.20319">
        <ele>200</ele>
        <time>2013-03-17T09:21:20Z</time>
      </trkpt>
      <trkpt lat="48.09092" lon="-4.20314">
        <ele>201</ele>
        <time>2013-03-17T09:21:22Z</time>
      </trkpt>
      <trkpt lat="48.09102" lon="-4.20306">
        <ele>201</ele>
        <time>2013-03-17T09:21:25Z</time>
      </trkpt>
      <trkpt lat="48.0911" lon="-4.20301">
        <ele>202</ele>
        <time>2013-03-17T09:21:27Z</time>
      </trkpt>
      <trkpt lat="48.09114" lon="-4.20298">
        <ele>202</ele>
        <time>2013-03-17T09:21:28Z</time>
      </trkpt>
      <trkpt lat="48.0912" lon="-4.20292">
        <ele>202</ele>
        <time>2013-03-17T09:21:30Z</time>
      </trkpt>
      <trkpt lat="48.09126" lon="-4.20287">
        <ele>202</ele>
        <time>2013-03-17T09:21:32Z</time>
      </trkpt>
      <trkpt lat="48.09132" lon="-4.20282">
        <ele>202</ele>
        <time>2013-03-17T09:21:34Z</time>
      </trkpt>
      <trkpt lat="48.09138" lon="-4.20275">
        <ele>202</ele>
        <time>2013-03-17T09:21:36Z</time>
      </trkpt>
      <trkpt lat="48.09146" lon="-4.2027">
        <ele>202</ele>
        <time>2013-03-17T09:21:38Z</time>
      </trkpt>
      <trkpt lat="48.09152" lon="-4.20265">
        <ele>202</ele>
        <time>2013-03-17T09:21:40Z</time>
      </trkpt>
      <trkpt lat="48.09158" lon="-4.2026">
        <ele>203</ele>
        <time>2013-03-17T09:21:42Z</time>
      </trkpt>
      <trkpt lat="48.09163" lon="-4.20256">
        <ele>203</ele>
        <time>2013-03-17T09:21:44Z</time>
      </trkpt>
      <trkpt lat="48.09169" lon="-4.20247">
        <ele>204</ele>
        <time>2013-03-17T09:21:46Z</time>
      </trkpt>
      <trkpt lat="48.09174" lon="-4.20242">
        <ele>205</ele>
        <time>2013-03-17T09:21:48Z</time>
      </trkpt>
      <trkpt lat="48.0918" lon="-4.20236">
        <ele>205</ele>
        <time>2013-03-17T09:21:50Z</time>
      </trkpt>
      <trkpt lat="48.09185" lon="-4.20231">
        <ele>205</ele>
        <time>2013-03-17T09:21:52Z</time>
      </trkpt>
      <trkpt lat="48.09189" lon="-4.20225">
        <ele>206</ele>
        <time>2013-03-17T09:21:54Z</time>
      </trkpt>
      <trkpt lat="48.09194" lon="-4.2022">
        <ele>206</ele>
        <time>2013-03-17T09:21:56Z</time>
      </trkpt>
      <trkpt lat="48.09198" lon="-4.20217">
        <ele>205</ele>
        <time>2013-03-17T09:21:58Z</time>
      </trkpt>
      <trkpt lat="48.09202" lon="-4.20212">
        <ele>205</ele>
        <time>2013-03-17T09:22:01Z</time>
      </trkpt>
      <trkpt lat="48.09208" lon="-4.20206">
        <ele>205</ele>
        <time>2013-03-17T09:22:03Z</time>
      </trkpt>
      <trkpt lat="48.09214" lon="-4.20199">
        <ele>206</ele>
        <time>2013-03-17T09:22:05Z</time>
      </trkpt>
      <trkpt lat="48.09219" lon="-4.20192">
        <ele>207</ele>
        <time>2013-03-17T09:22:07Z</time>
      </trkpt>
      <trkpt lat="48.09225" lon="-4.20185">
        <ele>208</ele>
        <time>2013-03-17T09:22:09Z</time>
      </trkpt>
      <trkpt lat="48.0923" lon="-4.20178">
        <ele>209</ele>
        <time>2013-03-17T09:22:12Z</time>
      </trkpt>
      <trkpt lat="48.09234" lon="-4.20172">
        <ele>209</ele>
        <time>2013-03-17T09:22:14Z</time>
      </trkpt>
      <trkpt lat="48.09238" lon="-4.20167">
        <ele>209</ele>
        <time>2013-03-17T09:22:16Z</time>
      </trkpt>
      <trkpt lat="48.09242" lon="-4.20162">
        <ele>209</ele>
        <time>2013-03-17T09:22:18Z</time>
      </trkpt>
      <trkpt lat="48.09248" lon="-4.20155">
        <ele>209</ele>
        <time>2013-03-17T09:22:21Z</time>
      </trkpt>
      <trkpt lat="48.09251" lon="-4.2015">
        <ele>209</ele>
        <time>2013-03-17T09:22:23Z</time>
      </trkpt>
      <trkpt lat="48.09257" lon="-4.20142">
        <ele>210</ele>
        <time>2013-03-17T09:22:26Z</time>
      </trkpt>
      <trkpt lat="48.09264" lon="-4.2013">
        <ele>212</ele>
        <time>2013-03-17T09:22:30Z</time>
      </trkpt>
      <trkpt lat="48.09272" lon="-4.20119">
        <ele>214</ele>
        <time>2013-03-17T09:22:34Z</time>
      </trkpt>
      <trkpt lat="48.09276" lon="-4.20111">
        <ele>216</ele>
        <time>2013-03-17T09:22:37Z</time>
      </trkpt>
      <trkpt lat="48.09279" lon="-4.20105">
        <ele>217</ele>
        <time>2013-03-17T09:22:39Z</time>
      </trkpt>
      <trkpt lat="48.09282" lon="-4.20098">
        <ele>218</ele>
        <time>2013-03-17T09:22:41Z</time>
      </trkpt>
      <trkpt lat="48.09286" lon="-4.20089">
        <ele>219</ele>
        <time>2013-03-17T09:22:44Z</time>
      </trkpt>
      <trkpt lat="48.0929" lon="-4.20076">
        <ele>221</ele>
        <time>2013-03-17T09:22:49Z</time>
      </trkpt>
      <trkpt lat="48.09292" lon="-4.2007">
        <ele>222</ele>
        <time>2013-03-17T09:22:51Z</time>
      </trkpt>
      <trkpt lat="48.09296" lon="-4.20064">
        <ele>222</ele>
        <time>2013-03-17T09:22:53Z</time>
      </trkpt>
      <trkpt lat="48.09299" lon="-4.20055">
        <ele>224</ele>
        <time>2013-03-17T09:22:56Z</time>
      </trkpt>
      <trkpt lat="48.09302" lon="-4.20048">
        <ele>224</ele>
        <time>2013-03-17T09:22:58Z</time>
      </trkpt>
      <trkpt lat="48.09306" lon="-4.20034">
        <ele>225</ele>
        <time>2013-03-17T09:23:01Z</time>
      </trkpt>
      <trkpt lat="48.09311" lon="-4.20017">
        <ele>225</ele>
        <time>2013-03-17T09:23:04Z</time>
      </trkpt>
      <trkpt lat="48.09315" lon="-4.19999">
        <ele>225</ele>
        <time>2013-03-17T09:23:07Z</time>
      </trkpt>
      <trkpt lat="48.09316" lon="-4.19985">
        <ele>225</ele>
        <time>2013-03-17T09:23:09Z</time>
      </trkpt>
      <trkpt lat="48.09319" lon="-4.19966">
        <ele>225</ele>
        <time>2013-03-17T09:23:11Z</time>
      </trkpt>
      <trkpt lat="48.09324" lon="-4.19948">
        <ele>224</ele>
        <time>2013-03-17T09:23:13Z</time>
      </trkpt>
      <trkpt lat="48.09329" lon="-4.19927">
        <ele>223</ele>
        <time>2013-03-17T09:23:15Z</time>
      </trkpt>
      <trkpt lat="48.09333" lon="-4.19903">
        <ele>222</ele>
        <time>2013-03-17T09:23:17Z</time>
      </trkpt>
      <trkpt lat="48.09336" lon="-4.19882">
        <ele>221</ele>
        <time>2013-03-17T09:23:19Z</time>
      </trkpt>
      <trkpt lat="48.0934" lon="-4.19862">
        <ele>219</ele>
        <time>2013-03-17T09:23:21Z</time>
      </trkpt>
      <trkpt lat="48.09346" lon="-4.19838">
        <ele>218</ele>
        <time>2013-03-17T09:23:23Z</time>
      </trkpt>
      <trkpt lat="48.09352" lon="-4.19818">
        <ele>218</ele>
        <time>2013-03-17T09:23:25Z</time>
      </trkpt>
      <trkpt lat="48.09358" lon="-4.19798">
        <ele>217</ele>
        <time>2013-03-17T09:23:27Z</time>
      </trkpt>
      <trkpt lat="48.09362" lon="-4.19789">
        <ele>217</ele>
        <time>2013-03-17T09:23:28Z</time>
      </trkpt>
      <trkpt lat="48.09366" lon="-4.19779">
        <ele>218</ele>
        <time>2013-03-17T09:23:29Z</time>
      </trkpt>
      <trkpt lat="48.09369" lon="-4.19771">
        <ele>218</ele>
        <time>2013-03-17T09:23:30Z</time>
      </trkpt>
      <trkpt lat="48.09371" lon="-4.19763">
        <ele>218</ele>
        <time>2013-03-17T09:23:31Z</time>
      </trkpt>
      <trkpt lat="48.09373" lon="-4.19756">
        <ele>218</ele>
        <time>2013-03-17T09:23:32Z</time>
      </trkpt>
      <trkpt lat="48.09376" lon="-4.19746">
        <ele>218</ele>
        <time>2013-03-17T09:23:34Z</time>
      </trkpt>
      <trkpt lat="48.0938" lon="-4.19736">
        <ele>218</ele>
        <time>2013-03-17T09:23:36Z</time>
      </trkpt>
      <trkpt lat="48.09382" lon="-4.19728">
        <ele>218</ele>
        <time>2013-03-17T09:23:38Z</time>
      </trkpt>
      <trkpt lat="48.09384" lon="-4.19717">
        <ele>217</ele>
        <time>2013-03-17T09:23:40Z</time>
      </trkpt>
      <trkpt lat="48.09387" lon="-4.19708">
        <ele>217</ele>
        <time>2013-03-17T09:23:42Z</time>
      </trkpt>
      <trkpt lat="48.09393" lon="-4.19691">
        <ele>217</ele>
        <time>2013-03-17T09:23:45Z</time>
      </trkpt>
      <trkpt lat="48.09395" lon="-4.19684">
        <ele>217</ele>
        <time>2013-03-17T09:23:46Z</time>
      </trkpt>
      <trkpt lat="48.09399" lon="-4.19672">
        <ele>217</ele>
        <time>2013-03-17T09:23:48Z</time>
      </trkpt>
      <trkpt lat="48.09403" lon="-4.19662">
        <ele>217</ele>
        <time>2013-03-17T09:23:50Z</time>
      </trkpt>
      <trkpt lat="48.09406" lon="-4.19654">
        <ele>218</ele>
        <time>2013-03-17T09:23:52Z</time>
      </trkpt>
      <trkpt lat="48.0941" lon="-4.19644">
        <ele>219</ele>
        <time>2013-03-17T09:23:54Z</time>
      </trkpt>
      <trkpt lat="48.09413" lon="-4.19633">
        <ele>219</ele>
        <time>2013-03-17T09:23:56Z</time>
      </trkpt>
      <trkpt lat="48.09416" lon="-4.19626">
        <ele>219</ele>
        <time>2013-03-17T09:23:58Z</time>
      </trkpt>
      <trkpt lat="48.09419" lon="-4.19616">
        <ele>219</ele>
        <time>2013-03-17T09:24:00Z</time>
      </trkpt>
      <trkpt lat="48.09422" lon="-4.19605">
        <ele>219</ele>
        <time>2013-03-17T09:24:02Z</time>
      </trkpt>
      <trkpt lat="48.09425" lon="-4.19597">
        <ele>219</ele>
        <time>2013-03-17T09:24:04Z</time>
      </trkpt>
      <trkpt lat="48.09428" lon="-4.19588">
        <ele>220</ele>
        <time>2013-03-17T09:24:06Z</time>
      </trkpt>
      <trkpt lat="48.09431" lon="-4.19579">
        <ele>220</ele>
        <time>2013-03-17T09:24:08Z</time>
      </trkpt>
      <trkpt lat="48.09434" lon="-4.19571">
        <ele>219</ele>
        <time>2013-03-17T09:24:10Z</time>
      </trkpt>
      <trkpt lat="48.09437" lon="-4.19562">
        <ele>219</ele>
        <time>2013-03-17T09:24:12Z</time>
      </trkpt>
      <trkpt lat="48.09437" lon="-4.19552">
        <ele>220</ele>
        <time>2013-03-17T09:24:14Z</time>
      </trkpt>
      <trkpt lat="48.09439" lon="-4.19541">
        <ele>221</ele>
        <time>2013-03-17T09:24:16Z</time>
      </trkpt>
      <trkpt lat="48.09441" lon="-4.19527">
        <ele>222</ele>
        <time>2013-03-17T09:24:20Z</time>
      </trkpt>
      <trkpt lat="48.09444" lon="-4.19515">
        <ele>222</ele>
        <time>2013-03-17T09:24:22Z</time>
      </trkpt>
      <trkpt lat="48.09449" lon="-4.19504">
        <ele>223</ele>
        <time>2013-03-17T09:24:24Z</time>
      </trkpt>
      <trkpt lat="48.09452" lon="-4.19496">
        <ele>223</ele>
        <time>2013-03-17T09:24:26Z</time>
      </trkpt>
      <trkpt lat="48.09454" lon="-4.19485">
        <ele>223</ele>
        <time>2013-03-17T09:24:28Z</time>
      </trkpt>
      <trkpt lat="48.09456" lon="-4.19477">
        <ele>223</ele>
        <time>2013-03-17T09:24:30Z</time>
      </trkpt>
      <trkpt lat="48.09457" lon="-4.19466">
        <ele>223</ele>
        <time>2013-03-17T09:24:32Z</time>
      </trkpt>
      <trkpt lat="48.0946" lon="-4.19453">
        <ele>222</ele>
        <time>2013-03-17T09:24:35Z</time>
      </trkpt>
      <trkpt lat="48.09463" lon="-4.1944">
        <ele>221</ele>
        <time>2013-03-17T09:24:38Z</time>
      </trkpt>
      <trkpt lat="48.09467" lon="-4.1943">
        <ele>220</ele>
        <time>2013-03-17T09:24:40Z</time>
      </trkpt>
      <trkpt lat="48.09469" lon="-4.19421">
        <ele>219</ele>
        <time>2013-03-17T09:24:42Z</time>
      </trkpt>
      <trkpt lat="48.09471" lon="-4.1941">
        <ele>219</ele>
        <time>2013-03-17T09:24:44Z</time>
      </trkpt>
      <trkpt lat="48.09473" lon="-4.19394">
        <ele>219</ele>
        <time>2013-03-17T09:24:47Z</time>
      </trkpt>
      <trkpt lat="48.09476" lon="-4.19379">
        <ele>219</ele>
        <time>2013-03-17T09:24:49Z</time>
      </trkpt>
      <trkpt lat="48.0948" lon="-4.19365">
        <ele>219</ele>
        <time>2013-03-17T09:24:51Z</time>
      </trkpt>
      <trkpt lat="48.09483" lon="-4.19358">
        <ele>220</ele>
        <time>2013-03-17T09:24:52Z</time>
      </trkpt>
      <trkpt lat="48.09485" lon="-4.19352">
        <ele>220</ele>
        <time>2013-03-17T09:24:53Z</time>
      </trkpt>
      <trkpt lat="48.09487" lon="-4.19346">
        <ele>221</ele>
        <time>2013-03-17T09:24:54Z</time>
      </trkpt>
      <trkpt lat="48.09492" lon="-4.19334">
        <ele>221</ele>
        <time>2013-03-17T09:24:56Z</time>
      </trkpt>
      <trkpt lat="48.09495" lon="-4.19325">
        <ele>221</ele>
        <time>2013-03-17T09:24:58Z</time>
      </trkpt>
      <trkpt lat="48.09498" lon="-4.19315">
        <ele>222</ele>
        <time>2013-03-17T09:25:00Z</time>
      </trkpt>
      <trkpt lat="48.095" lon="-4.19305">
        <ele>222</ele>
        <time>2013-03-17T09:25:02Z</time>
      </trkpt>
      <trkpt lat="48.09503" lon="-4.19295">
        <ele>223</ele>
        <time>2013-03-17T09:25:04Z</time>
      </trkpt>
      <trkpt lat="48.09507" lon="-4.19285">
        <ele>223</ele>
        <time>2013-03-17T09:25:06Z</time>
      </trkpt>
      <trkpt lat="48.0951" lon="-4.19275">
        <ele>224</ele>
        <time>2013-03-17T09:25:08Z</time>
      </trkpt>
      <trkpt lat="48.09514" lon="-4.19266">
        <ele>224</ele>
        <time>2013-03-17T09:25:10Z</time>
      </trkpt>
      <trkpt lat="48.09518" lon="-4.19257">
        <ele>224</ele>
        <time>2013-03-17T09:25:12Z</time>
      </trkpt>
      <trkpt lat="48.09523" lon="-4.19246">
        <ele>224</ele>
        <time>2013-03-17T09:25:14Z</time>
      </trkpt>
      <trkpt lat="48.09526" lon="-4.19238">
        <ele>224</ele>
        <time>2013-03-17T09:25:16Z</time>
      </trkpt>
      <trkpt lat="48.0953" lon="-4.19228">
        <ele>225</ele>
        <time>2013-03-17T09:25:18Z</time>
      </trkpt>
      <trkpt lat="48.09533" lon="-4.19218">
        <ele>225</ele>
        <time>2013-03-17T09:25:20Z</time>
      </trkpt>
      <trkpt lat="48.09535" lon="-4.19207">
        <ele>226</ele>
        <time>2013-03-17T09:25:22Z</time>
      </trkpt>
      <trkpt lat="48.09537" lon="-4.192">
        <ele>227</ele>
        <time>2013-03-17T09:25:24Z</time>
      </trkpt>
      <trkpt lat="48.09539" lon="-4.19189">
        <ele>227</ele>
        <time>2013-03-17T09:25:26Z</time>
      </trkpt>
      <trkpt lat="48.09541" lon="-4.19177">
        <ele>227</ele>
        <time>2013-03-17T09:25:28Z</time>
      </trkpt>
      <trkpt lat="48.09542" lon="-4.19167">
        <ele>228</ele>
        <time>2013-03-17T09:25:30Z</time>
      </trkpt>
      <trkpt lat="48.09544" lon="-4.19159">
        <ele>228</ele>
        <time>2013-03-17T09:25:32Z</time>
      </trkpt>
      <trkpt lat="48.09545" lon="-4.1915">
        <ele>228</ele>
        <time>2013-03-17T09:25:34Z</time>
      </trkpt>
      <trkpt lat="48.09547" lon="-4.1914">
        <ele>228</ele>
        <time>2013-03-17T09:25:36Z</time>
      </trkpt>
      <trkpt lat="48.0955" lon="-4.19131">
        <ele>228</ele>
        <time>2013-03-17T09:25:38Z</time>
      </trkpt>
      <trkpt lat="48.09552" lon="-4.19122">
        <ele>228</ele>
        <time>2013-03-17T09:25:40Z</time>
      </trkpt>
      <trkpt lat="48.09553" lon="-4.19114">
        <ele>229</ele>
        <time>2013-03-17T09:25:42Z</time>
      </trkpt>
      <trkpt lat="48.09557" lon="-4.19103">
        <ele>230</ele>
        <time>2013-03-17T09:25:44Z</time>
      </trkpt>
      <trkpt lat="48.09559" lon="-4.19092">
        <ele>231</ele>
        <time>2013-03-17T09:25:47Z</time>
      </trkpt>
      <trkpt lat="48.0956" lon="-4.19084">
        <ele>231</ele>
        <time>2013-03-17T09:25:49Z</time>
      </trkpt>
      <trkpt lat="48.09563" lon="-4.19075">
        <ele>231</ele>
        <time>2013-03-17T09:25:51Z</time>
      </trkpt>
      <trkpt lat="48.09566" lon="-4.19068">
        <ele>232</ele>
        <time>2013-03-17T09:25:53Z</time>
      </trkpt>
      <trkpt lat="48.09569" lon="-4.19057">
        <ele>232</ele>
        <time>2013-03-17T09:25:55Z</time>
      </trkpt>
      <trkpt lat="48.09571" lon="-4.19049">
        <ele>233</ele>
        <time>2013-03-17T09:25:57Z</time>
      </trkpt>
      <trkpt lat="48.09572" lon="-4.19043">
        <ele>233</ele>
        <time>2013-03-17T09:25:59Z</time>
      </trkpt>
      <trkpt lat="48.09575" lon="-4.19034">
        <ele>234</ele>
        <time>2013-03-17T09:26:01Z</time>
      </trkpt>
      <trkpt lat="48.09578" lon="-4.19028">
        <ele>235</ele>
        <time>2013-03-17T09:26:03Z</time>
      </trkpt>
      <trkpt lat="48.09581" lon="-4.19019">
        <ele>236</ele>
        <time>2013-03-17T09:26:05Z</time>
      </trkpt>
      <trkpt lat="48.09583" lon="-4.1901">
        <ele>235</ele>
        <time>2013-03-17T09:26:07Z</time>
      </trkpt>
      <trkpt lat="48.09586" lon="-4.19002">
        <ele>235</ele>
        <time>2013-03-17T09:26:09Z</time>
      </trkpt>
      <trkpt lat="48.09588" lon="-4.18996">
        <ele>235</ele>
        <time>2013-03-17T09:26:11Z</time>
      </trkpt>
      <trkpt lat="48.0959" lon="-4.18987">
        <ele>235</ele>
        <time>2013-03-17T09:26:13Z</time>
      </trkpt>
      <trkpt lat="48.09593" lon="-4.18979">
        <ele>235</ele>
        <time>2013-03-17T09:26:15Z</time>
      </trkpt>
      <trkpt lat="48.09595" lon="-4.1897">
        <ele>235</ele>
        <time>2013-03-17T09:26:17Z</time>
      </trkpt>
      <trkpt lat="48.09598" lon="-4.18963">
        <ele>236</ele>
        <time>2013-03-17T09:26:19Z</time>
      </trkpt>
      <trkpt lat="48.096" lon="-4.18954">
        <ele>236</ele>
        <time>2013-03-17T09:26:21Z</time>
      </trkpt>
      <trkpt lat="48.09603" lon="-4.18942">
        <ele>236</ele>
        <time>2013-03-17T09:26:24Z</time>
      </trkpt>
      <trkpt lat="48.09605" lon="-4.18935">
        <ele>237</ele>
        <time>2013-03-17T09:26:26Z</time>
      </trkpt>
      <trkpt lat="48.09608" lon="-4.18925">
        <ele>237</ele>
        <time>2013-03-17T09:26:28Z</time>
      </trkpt>
      <trkpt lat="48.09611" lon="-4.18916">
        <ele>237</ele>
        <time>2013-03-17T09:26:30Z</time>
      </trkpt>
      <trkpt lat="48.09614" lon="-4.18909">
        <ele>238</ele>
        <time>2013-03-17T09:26:32Z</time>
      </trkpt>
      <trkpt lat="48.09616" lon="-4.18902">
        <ele>238</ele>
        <time>2013-03-17T09:26:34Z</time>
      </trkpt>
      <trkpt lat="48.09619" lon="-4.18897">
        <ele>239</ele>
        <time>2013-03-17T09:26:36Z</time>
      </trkpt>
      <trkpt lat="48.09622" lon="-4.1889">
        <ele>240</ele>
        <time>2013-03-17T09:26:38Z</time>
      </trkpt>
      <trkpt lat="48.09627" lon="-4.18881">
        <ele>240</ele>
        <time>2013-03-17T09:26:40Z</time>
      </trkpt>
      <trkpt lat="48.0963" lon="-4.18875">
        <ele>240</ele>
        <time>2013-03-17T09:26:42Z</time>
      </trkpt>
      <trkpt lat="48.09633" lon="-4.18868">
        <ele>240</ele>
        <time>2013-03-17T09:26:44Z</time>
      </trkpt>
      <trkpt lat="48.09637" lon="-4.18861">
        <ele>241</ele>
        <time>2013-03-17T09:26:46Z</time>
      </trkpt>
      <trkpt lat="48.09643" lon="-4.18848">
        <ele>242</ele>
        <time>2013-03-17T09:26:50Z</time>
      </trkpt>
      <trkpt lat="48.09645" lon="-4.18842">
        <ele>242</ele>
        <time>2013-03-17T09:26:52Z</time>
      </trkpt>
      <trkpt lat="48.09648" lon="-4.18836">
        <ele>243</ele>
        <time>2013-03-17T09:26:54Z</time>
      </trkpt>
      <trkpt lat="48.09651" lon="-4.1883">
        <ele>243</ele>
        <time>2013-03-17T09:26:56Z</time>
      </trkpt>
      <trkpt lat="48.09654" lon="-4.18823">
        <ele>243</ele>
        <time>2013-03-17T09:26:58Z</time>
      </trkpt>
      <trkpt lat="48.09658" lon="-4.18817">
        <ele>244</ele>
        <time>2013-03-17T09:27:00Z</time>
      </trkpt>
      <trkpt lat="48.09661" lon="-4.18811">
        <ele>244</ele>
        <time>2013-03-17T09:27:02Z</time>
      </trkpt>
      <trkpt lat="48.09665" lon="-4.18804">
        <ele>245</ele>
        <time>2013-03-17T09:27:04Z</time>
      </trkpt>
      <trkpt lat="48.09669" lon="-4.18799">
        <ele>245</ele>
        <time>2013-03-17T09:27:06Z</time>
      </trkpt>
      <trkpt lat="48.09672" lon="-4.18793">
        <ele>246</ele>
        <time>2013-03-17T09:27:08Z</time>
      </trkpt>
      <trkpt lat="48.09676" lon="-4.18787">
        <ele>246</ele>
        <time>2013-03-17T09:27:10Z</time>
      </trkpt>
      <trkpt lat="48.09681" lon="-4.18779">
        <ele>247</ele>
        <time>2013-03-17T09:27:12Z</time>
      </trkpt>
      <trkpt lat="48.09685" lon="-4.1877">
        <ele>247</ele>
        <time>2013-03-17T09:27:14Z</time>
      </trkpt>
      <trkpt lat="48.09689" lon="-4.18764">
        <ele>247</ele>
        <time>2013-03-17T09:27:16Z</time>
      </trkpt>
      <trkpt lat="48.09693" lon="-4.18758">
        <ele>247</ele>
        <time>2013-03-17T09:27:18Z</time>
      </trkpt>
      <trkpt lat="48.09698" lon="-4.18752">
        <ele>247</ele>
        <time>2013-03-17T09:27:20Z</time>
      </trkpt>
      <trkpt lat="48.09703" lon="-4.18746">
        <ele>247</ele>
        <time>2013-03-17T09:27:22Z</time>
      </trkpt>
      <trkpt lat="48.09705" lon="-4.18739">
        <ele>247</ele>
        <time>2013-03-17T09:27:24Z</time>
      </trkpt>
      <trkpt lat="48.09707" lon="-4.18732">
        <ele>247</ele>
        <time>2013-03-17T09:27:26Z</time>
      </trkpt>
      <trkpt lat="48.09709" lon="-4.18722">
        <ele>247</ele>
        <time>2013-03-17T09:27:29Z</time>
      </trkpt>
      <trkpt lat="48.0971" lon="-4.18716">
        <ele>247</ele>
        <time>2013-03-17T09:27:31Z</time>
      </trkpt>
      <trkpt lat="48.09709" lon="-4.18702">
        <ele>246</ele>
        <time>2013-03-17T09:27:35Z</time>
      </trkpt>
      <trkpt lat="48.09709" lon="-4.18692">
        <ele>246</ele>
        <time>2013-03-17T09:27:38Z</time>
      </trkpt>
      <trkpt lat="48.09712" lon="-4.18682">
        <ele>247</ele>
        <time>2013-03-17T09:27:41Z</time>
      </trkpt>
      <trkpt lat="48.09714" lon="-4.18668">
        <ele>246</ele>
        <time>2013-03-17T09:27:45Z</time>
      </trkpt>
      <trkpt lat="48.09716" lon="-4.18657">
        <ele>246</ele>
        <time>2013-03-17T09:27:48Z</time>
      </trkpt>
      <trkpt lat="48.09719" lon="-4.18642">
        <ele>247</ele>
        <time>2013-03-17T09:27:53Z</time>
      </trkpt>
      <trkpt lat="48.09722" lon="-4.1863">
        <ele>248</ele>
        <time>2013-03-17T09:27:57Z</time>
      </trkpt>
      <trkpt lat="48.09724" lon="-4.18623">
        <ele>249</ele>
        <time>2013-03-17T09:27:59Z</time>
      </trkpt>
      <trkpt lat="48.09728" lon="-4.18608">
        <ele>251</ele>
        <time>2013-03-17T09:28:04Z</time>
      </trkpt>
      <trkpt lat="48.09731" lon="-4.18596">
        <ele>252</ele>
        <time>2013-03-17T09:28:08Z</time>
      </trkpt>
      <trkpt lat="48.09733" lon="-4.18587">
        <ele>254</ele>
        <time>2013-03-17T09:28:11Z</time>
      </trkpt>
      <trkpt lat="48.09736" lon="-4.18574">
        <ele>255</ele>
        <time>2013-03-17T09:28:15Z</time>
      </trkpt>
      <trkpt lat="48.09739" lon="-4.18564">
        <ele>256</ele>
        <time>2013-03-17T09:28:19Z</time>
      </trkpt>
      <trkpt lat="48.09745" lon="-4.18552">
        <ele>256</ele>
        <time>2013-03-17T09:28:24Z</time>
      </trkpt>
      <trkpt lat="48.09748" lon="-4.18545">
        <ele>258</ele>
        <time>2013-03-17T09:28:27Z</time>
      </trkpt>
      <trkpt lat="48.09751" lon="-4.18539">
        <ele>258</ele>
        <time>2013-03-17T09:28:29Z</time>
      </trkpt>
      <trkpt lat="48.09755" lon="-4.18532">
        <ele>260</ele>
        <time>2013-03-17T09:28:32Z</time>
      </trkpt>
      <trkpt lat="48.09763" lon="-4.18523">
        <ele>260</ele>
        <time>2013-03-17T09:28:36Z</time>
      </trkpt>
      <trkpt lat="48.09768" lon="-4.18518">
        <ele>261</ele>
        <time>2013-03-17T09:28:39Z</time>
      </trkpt>
      <trkpt lat="48.09772" lon="-4.18511">
        <ele>262</ele>
        <time>2013-03-17T09:28:42Z</time>
      </trkpt>
      <trkpt lat="48.09776" lon="-4.18504">
        <ele>263</ele>
        <time>2013-03-17T09:28:45Z</time>
      </trkpt>
      <trkpt lat="48.09779" lon="-4.18499">
        <ele>263</ele>
        <time>2013-03-17T09:28:47Z</time>
      </trkpt>
      <trkpt lat="48.09783" lon="-4.18493">
        <ele>264</ele>
        <time>2013-03-17T09:28:50Z</time>
      </trkpt>
      <trkpt lat="48.09787" lon="-4.18486">
        <ele>265</ele>
        <time>2013-03-17T09:28:53Z</time>
      </trkpt>
      <trkpt lat="48.09792" lon="-4.1848">
        <ele>266</ele>
        <time>2013-03-17T09:28:56Z</time>
      </trkpt>
      <trkpt lat="48.09795" lon="-4.18473">
        <ele>267</ele>
        <time>2013-03-17T09:28:59Z</time>
      </trkpt>
      <trkpt lat="48.09799" lon="-4.18468">
        <ele>268</ele>
        <time>2013-03-17T09:29:02Z</time>
      </trkpt>
      <trkpt lat="48.09802" lon="-4.18461">
        <ele>269</ele>
        <time>2013-03-17T09:29:05Z</time>
      </trkpt>
      <trkpt lat="48.09806" lon="-4.18455">
        <ele>270</ele>
        <time>2013-03-17T09:29:08Z</time>
      </trkpt>
      <trkpt lat="48.0981" lon="-4.18448">
        <ele>271</ele>
        <time>2013-03-17T09:29:11Z</time>
      </trkpt>
      <trkpt lat="48.09813" lon="-4.18441">
        <ele>272</ele>
        <time>2013-03-17T09:29:13Z</time>
      </trkpt>
      <trkpt lat="48.09817" lon="-4.18435">
        <ele>273</ele>
        <time>2013-03-17T09:29:16Z</time>
      </trkpt>
      <trkpt lat="48.0982" lon="-4.1843">
        <ele>273</ele>
        <time>2013-03-17T09:29:18Z</time>
      </trkpt>
      <trkpt lat="48.09824" lon="-4.18423">
        <ele>274</ele>
        <time>2013-03-17T09:29:21Z</time>
      </trkpt>
      <trkpt lat="48.09827" lon="-4.18416">
        <ele>275</ele>
        <time>2013-03-17T09:29:25Z</time>
      </trkpt>
      <trkpt lat="48.0983" lon="-4.18408">
        <ele>276</ele>
        <time>2013-03-17T09:29:28Z</time>
      </trkpt>
      <trkpt lat="48.09832" lon="-4.18399">
        <ele>276</ele>
        <time>2013-03-17T09:29:31Z</time>
      </trkpt>
      <trkpt lat="48.09834" lon="-4.18392">
        <ele>277</ele>
        <time>2013-03-17T09:29:34Z</time>
      </trkpt>
      <trkpt lat="48.09838" lon="-4.18384">
        <ele>277</ele>
        <time>2013-03-17T09:29:37Z</time>
      </trkpt>
      <trkpt lat="48.09842" lon="-4.18377">
        <ele>277</ele>
        <time>2013-03-17T09:29:40Z</time>
      </trkpt>
      <trkpt lat="48.09845" lon="-4.18369">
        <ele>277</ele>
        <time>2013-03-17T09:29:43Z</time>
      </trkpt>
      <trkpt lat="48.09848" lon="-4.18361">
        <ele>277</ele>
        <time>2013-03-17T09:29:46Z</time>
      </trkpt>
      <trkpt lat="48.09851" lon="-4.18352">
        <ele>277</ele>
        <time>2013-03-17T09:29:49Z</time>
      </trkpt>
      <trkpt lat="48.09854" lon="-4.18344">
        <ele>278</ele>
        <time>2013-03-17T09:29:52Z</time>
      </trkpt>
      <trkpt lat="48.09858" lon="-4.18336">
        <ele>278</ele>
        <time>2013-03-17T09:29:55Z</time>
      </trkpt>
      <trkpt lat="48.09861" lon="-4.18328">
        <ele>278</ele>
        <time>2013-03-17T09:29:57Z</time>
      </trkpt>
      <trkpt lat="48.09865" lon="-4.18319">
        <ele>278</ele>
        <time>2013-03-17T09:29:59Z</time>
      </trkpt>
      <trkpt lat="48.09868" lon="-4.1831">
        <ele>278</ele>
        <time>2013-03-17T09:30:01Z</time>
      </trkpt>
      <trkpt lat="48.09871" lon="-4.18301">
        <ele>278</ele>
        <time>2013-03-17T09:30:03Z</time>
      </trkpt>
      <trkpt lat="48.09873" lon="-4.18291">
        <ele>278</ele>
        <time>2013-03-17T09:30:05Z</time>
      </trkpt>
      <trkpt lat="48.09875" lon="-4.18282">
        <ele>278</ele>
        <time>2013-03-17T09:30:07Z</time>
      </trkpt>
      <trkpt lat="48.09877" lon="-4.18273">
        <ele>278</ele>
        <time>2013-03-17T09:30:09Z</time>
      </trkpt>
      <trkpt lat="48.09879" lon="-4.18264">
        <ele>278</ele>
        <time>2013-03-17T09:30:11Z</time>
      </trkpt>
      <trkpt lat="48.0988" lon="-4.18255">
        <ele>278</ele>
        <time>2013-03-17T09:30:13Z</time>
      </trkpt>
      <trkpt lat="48.09882" lon="-4.18245">
        <ele>278</ele>
        <time>2013-03-17T09:30:15Z</time>
      </trkpt>
      <trkpt lat="48.09882" lon="-4.18234">
        <ele>278</ele>
        <time>2013-03-17T09:30:17Z</time>
      </trkpt>
      <trkpt lat="48.09883" lon="-4.18224">
        <ele>278</ele>
        <time>2013-03-17T09:30:19Z</time>
      </trkpt>
      <trkpt lat="48.09883" lon="-4.18213">
        <ele>278</ele>
        <time>2013-03-17T09:30:21Z</time>
      </trkpt>
      <trkpt lat="48.09883" lon="-4.18204">
        <ele>278</ele>
        <time>2013-03-17T09:30:23Z</time>
      </trkpt>
      <trkpt lat="48.09883" lon="-4.18196">
        <ele>278</ele>
        <time>2013-03-17T09:30:25Z</time>
      </trkpt>
      <trkpt lat="48.09883" lon="-4.18183">
        <ele>278</ele>
        <time>2013-03-17T09:30:29Z</time>
      </trkpt>
      <trkpt lat="48.09883" lon="-4.18176">
        <ele>278</ele>
        <time>2013-03-17T09:30:31Z</time>
      </trkpt>
      <trkpt lat="48.09883" lon="-4.18167">
        <ele>279</ele>
        <time>2013-03-17T09:30:34Z</time>
      </trkpt>
      <trkpt lat="48.09885" lon="-4.18159">
        <ele>279</ele>
        <time>2013-03-17T09:30:37Z</time>
      </trkpt>
      <trkpt lat="48.0989" lon="-4.18157">
        <ele>280</ele>
        <time>2013-03-17T09:30:40Z</time>
      </trkpt>
      <trkpt lat="48.09895" lon="-4.18162">
        <ele>280</ele>
        <time>2013-03-17T09:30:43Z</time>
      </trkpt>
      <trkpt lat="48.09898" lon="-4.18167">
        <ele>281</ele>
        <time>2013-03-17T09:30:46Z</time>
      </trkpt>
      <trkpt lat="48.09901" lon="-4.18175">
        <ele>281</ele>
        <time>2013-03-17T09:30:49Z</time>
      </trkpt>
      <trkpt lat="48.09908" lon="-4.18186">
        <ele>280</ele>
        <time>2013-03-17T09:30:56Z</time>
      </trkpt>
      <trkpt lat="48.09911" lon="-4.18191">
        <ele>280</ele>
        <time>2013-03-17T09:31:04Z</time>
      </trkpt>
      <trkpt lat="48.09908" lon="-4.18187">
        <ele>281</ele>
        <time>2013-03-17T09:34:29Z</time>
      </trkpt>
      <trkpt lat="48.09904" lon="-4.18183">
        <ele>281</ele>
        <time>2013-03-17T09:34:35Z</time>
      </trkpt>
      <trkpt lat="48.099" lon="-4.18176">
        <ele>281</ele>
        <time>2013-03-17T09:34:39Z</time>
      </trkpt>
      <trkpt lat="48.09897" lon="-4.18169">
        <ele>281</ele>
        <time>2013-03-17T09:34:42Z</time>
      </trkpt>
      <trkpt lat="48.09893" lon="-4.18164">
        <ele>281</ele>
        <time>2013-03-17T09:34:46Z</time>
      </trkpt>
      <trkpt lat="48.0989" lon="-4.18157">
        <ele>281</ele>
        <time>2013-03-17T09:34:50Z</time>
      </trkpt>
      <trkpt lat="48.09886" lon="-4.18158">
        <ele>282</ele>
        <time>2013-03-17T09:34:58Z</time>
      </trkpt>
      <trkpt lat="48.09883" lon="-4.1816">
        <ele>283</ele>
        <time>2013-03-17T09:35:36Z</time>
      </trkpt>
      <trkpt lat="48.0988" lon="-4.18155">
        <ele>283</ele>
        <time>2013-03-17T09:35:39Z</time>
      </trkpt>
      <trkpt lat="48.09879" lon="-4.18148">
        <ele>282</ele>
        <time>2013-03-17T09:35:42Z</time>
      </trkpt>
      <trkpt lat="48.09879" lon="-4.18139">
        <ele>281</ele>
        <time>2013-03-17T09:35:45Z</time>
      </trkpt>
      <trkpt lat="48.0988" lon="-4.18131">
        <ele>281</ele>
        <time>2013-03-17T09:35:47Z</time>
      </trkpt>
      <trkpt lat="48.09881" lon="-4.18122">
        <ele>281</ele>
        <time>2013-03-17T09:35:49Z</time>
      </trkpt>
      <trkpt lat="48.09882" lon="-4.18114">
        <ele>281</ele>
        <time>2013-03-17T09:35:51Z</time>
      </trkpt>
      <trkpt lat="48.09883" lon="-4.18105">
        <ele>281</ele>
        <time>2013-03-17T09:35:53Z</time>
      </trkpt>
      <trkpt lat="48.09884" lon="-4.18096">
        <ele>281</ele>
        <time>2013-03-17T09:35:55Z</time>
      </trkpt>
      <trkpt lat="48.09885" lon="-4.18087">
        <ele>281</ele>
        <time>2013-03-17T09:35:57Z</time>
      </trkpt>
      <trkpt lat="48.09886" lon="-4.18079">
        <ele>281</ele>
        <time>2013-03-17T09:35:59Z</time>
      </trkpt>
      <trkpt lat="48.09888" lon="-4.1807">
        <ele>281</ele>
        <time>2013-03-17T09:36:01Z</time>
      </trkpt>
      <trkpt lat="48.09889" lon="-4.18063">
        <ele>281</ele>
        <time>2013-03-17T09:36:03Z</time>
      </trkpt>
      <trkpt lat="48.09889" lon="-4.18055">
        <ele>280</ele>
        <time>2013-03-17T09:36:05Z</time>
      </trkpt>
      <trkpt lat="48.09888" lon="-4.18046">
        <ele>280</ele>
        <time>2013-03-17T09:36:08Z</time>
      </trkpt>
      <trkpt lat="48.09881" lon="-4.18045">
        <ele>280</ele>
        <time>2013-03-17T09:36:12Z</time>
      </trkpt>
      <trkpt lat="48.09875" lon="-4.18046">
        <ele>280</ele>
        <time>2013-03-17T09:36:15Z</time>
      </trkpt>
      <trkpt lat="48.09865" lon="-4.18045">
        <ele>280</ele>
        <time>2013-03-17T09:36:20Z</time>
      </trkpt>
      <trkpt lat="48.09855" lon="-4.18041">
        <ele>280</ele>
        <time>2013-03-17T09:36:25Z</time>
      </trkpt>
      <trkpt lat="48.0985" lon="-4.18039">
        <ele>280</ele>
        <time>2013-03-17T09:36:28Z</time>
      </trkpt>
      <trkpt lat="48.09842" lon="-4.18036">
        <ele>280</ele>
        <time>2013-03-17T09:36:32Z</time>
      </trkpt>
      <trkpt lat="48.09836" lon="-4.18035">
        <ele>280</ele>
        <time>2013-03-17T09:36:35Z</time>
      </trkpt>
      <trkpt lat="48.09829" lon="-4.18036">
        <ele>281</ele>
        <time>2013-03-17T09:36:38Z</time>
      </trkpt>
      <trkpt lat="48.09823" lon="-4.18035">
        <ele>282</ele>
        <time>2013-03-17T09:36:40Z</time>
      </trkpt>
      <trkpt lat="48.09817" lon="-4.18035">
        <ele>282</ele>
        <time>2013-03-17T09:36:42Z</time>
      </trkpt>
      <trkpt lat="48.09808" lon="-4.18035">
        <ele>281</ele>
        <time>2013-03-17T09:36:46Z</time>
      </trkpt>
      <trkpt lat="48.09802" lon="-4.18035">
        <ele>281</ele>
        <time>2013-03-17T09:36:48Z</time>
      </trkpt>
      <trkpt lat="48.09797" lon="-4.18034">
        <ele>281</ele>
        <time>2013-03-17T09:36:50Z</time>
      </trkpt>
      <trkpt lat="48.09791" lon="-4.18033">
        <ele>281</ele>
        <time>2013-03-17T09:36:52Z</time>
      </trkpt>
      <trkpt lat="48.09786" lon="-4.18032">
        <ele>280</ele>
        <time>2013-03-17T09:36:54Z</time>
      </trkpt>
      <trkpt lat="48.09782" lon="-4.18029">
        <ele>280</ele>
        <time>2013-03-17T09:36:56Z</time>
      </trkpt>
      <trkpt lat="48.09777" lon="-4.18026">
        <ele>280</ele>
        <time>2013-03-17T09:36:59Z</time>
      </trkpt>
      <trkpt lat="48.09768" lon="-4.18023">
        <ele>279</ele>
        <time>2013-03-17T09:37:02Z</time>
      </trkpt>
      <trkpt lat="48.09762" lon="-4.18021">
        <ele>278</ele>
        <time>2013-03-17T09:37:04Z</time>
      </trkpt>
      <trkpt lat="48.09756" lon="-4.18021">
        <ele>278</ele>
        <time>2013-03-17T09:37:07Z</time>
      </trkpt>
      <trkpt lat="48.09751" lon="-4.1802">
        <ele>278</ele>
        <time>2013-03-17T09:37:09Z</time>
      </trkpt>
      <trkpt lat="48.09746" lon="-4.18016">
        <ele>276</ele>
        <time>2013-03-17T09:37:11Z</time>
      </trkpt>
      <trkpt lat="48.09743" lon="-4.18008">
        <ele>276</ele>
        <time>2013-03-17T09:37:13Z</time>
      </trkpt>
      <trkpt lat="48.09742" lon="-4.17998">
        <ele>277</ele>
        <time>2013-03-17T09:37:15Z</time>
      </trkpt>
      <trkpt lat="48.09741" lon="-4.17985">
        <ele>276</ele>
        <time>2013-03-17T09:37:18Z</time>
      </trkpt>
      <trkpt lat="48.09735" lon="-4.17972">
        <ele>276</ele>
        <time>2013-03-17T09:37:22Z</time>
      </trkpt>
      <trkpt lat="48.09728" lon="-4.17964">
        <ele>275</ele>
        <time>2013-03-17T09:37:26Z</time>
      </trkpt>
      <trkpt lat="48.09721" lon="-4.17956">
        <ele>275</ele>
        <time>2013-03-17T09:37:30Z</time>
      </trkpt>
      <trkpt lat="48.09718" lon="-4.17941">
        <ele>274</ele>
        <time>2013-03-17T09:37:35Z</time>
      </trkpt>
      <trkpt lat="48.09712" lon="-4.17929">
        <ele>273</ele>
        <time>2013-03-17T09:37:38Z</time>
      </trkpt>
      <trkpt lat="48.09708" lon="-4.17914">
        <ele>273</ele>
        <time>2013-03-17T09:37:41Z</time>
      </trkpt>
      <trkpt lat="48.09702" lon="-4.17897">
        <ele>271</ele>
        <time>2013-03-17T09:37:44Z</time>
      </trkpt>
      <trkpt lat="48.09698" lon="-4.17884">
        <ele>271</ele>
        <time>2013-03-17T09:37:46Z</time>
      </trkpt>
      <trkpt lat="48.09695" lon="-4.1787">
        <ele>271</ele>
        <time>2013-03-17T09:37:49Z</time>
      </trkpt>
      <trkpt lat="48.09688" lon="-4.17861">
        <ele>271</ele>
        <time>2013-03-17T09:37:52Z</time>
      </trkpt>
      <trkpt lat="48.09678" lon="-4.17851">
        <ele>270</ele>
        <time>2013-03-17T09:37:56Z</time>
      </trkpt>
      <trkpt lat="48.09676" lon="-4.17845">
        <ele>270</ele>
        <time>2013-03-17T09:37:58Z</time>
      </trkpt>
      <trkpt lat="48.09676" lon="-4.17836">
        <ele>269</ele>
        <time>2013-03-17T09:38:00Z</time>
      </trkpt>
      <trkpt lat="48.09674" lon="-4.17823">
        <ele>265</ele>
        <time>2013-03-17T09:38:10Z</time>
      </trkpt>
      <trkpt lat="48.09667" lon="-4.1781">
        <ele>264</ele>
        <time>2013-03-17T09:38:16Z</time>
      </trkpt>
      <trkpt lat="48.0966" lon="-4.17802">
        <ele>263</ele>
        <time>2013-03-17T09:38:19Z</time>
      </trkpt>
      <trkpt lat="48.09656" lon="-4.17797">
        <ele>262</ele>
        <time>2013-03-17T09:38:22Z</time>
      </trkpt>
      <trkpt lat="48.09653" lon="-4.17791">
        <ele>261</ele>
        <time>2013-03-17T09:38:24Z</time>
      </trkpt>
      <trkpt lat="48.09648" lon="-4.17785">
        <ele>260</ele>
        <time>2013-03-17T09:38:26Z</time>
      </trkpt>
      <trkpt lat="48.09641" lon="-4.17777">
        <ele>258</ele>
        <time>2013-03-17T09:38:31Z</time>
      </trkpt>
      <trkpt lat="48.09636" lon="-4.17764">
        <ele>256</ele>
        <time>2013-03-17T09:38:35Z</time>
      </trkpt>
      <trkpt lat="48.09635" lon="-4.1775">
        <ele>255</ele>
        <time>2013-03-17T09:38:38Z</time>
      </trkpt>
      <trkpt lat="48.09631" lon="-4.17738">
        <ele>254</ele>
        <time>2013-03-17T09:38:42Z</time>
      </trkpt>
      <trkpt lat="48.09628" lon="-4.17731">
        <ele>253</ele>
        <time>2013-03-17T09:38:45Z</time>
      </trkpt>
      <trkpt lat="48.09622" lon="-4.1772">
        <ele>253</ele>
        <time>2013-03-17T09:38:51Z</time>
      </trkpt>
      <trkpt lat="48.09616" lon="-4.17708">
        <ele>252</ele>
        <time>2013-03-17T09:38:56Z</time>
      </trkpt>
      <trkpt lat="48.0961" lon="-4.17696">
        <ele>250</ele>
        <time>2013-03-17T09:39:01Z</time>
      </trkpt>
      <trkpt lat="48.09602" lon="-4.17687">
        <ele>248</ele>
        <time>2013-03-17T09:39:06Z</time>
      </trkpt>
      <trkpt lat="48.09599" lon="-4.1768">
        <ele>246</ele>
        <time>2013-03-17T09:39:09Z</time>
      </trkpt>
      <trkpt lat="48.09594" lon="-4.17666">
        <ele>243</ele>
        <time>2013-03-17T09:39:14Z</time>
      </trkpt>
      <trkpt lat="48.09589" lon="-4.1765">
        <ele>241</ele>
        <time>2013-03-17T09:39:17Z</time>
      </trkpt>
      <trkpt lat="48.09585" lon="-4.17642">
        <ele>241</ele>
        <time>2013-03-17T09:39:19Z</time>
      </trkpt>
      <trkpt lat="48.09581" lon="-4.17634">
        <ele>240</ele>
        <time>2013-03-17T09:39:21Z</time>
      </trkpt>
      <trkpt lat="48.09578" lon="-4.17627">
        <ele>238</ele>
        <time>2013-03-17T09:39:23Z</time>
      </trkpt>
      <trkpt lat="48.0957" lon="-4.1762">
        <ele>235</ele>
        <time>2013-03-17T09:39:26Z</time>
      </trkpt>
      <trkpt lat="48.09565" lon="-4.17615">
        <ele>234</ele>
        <time>2013-03-17T09:39:28Z</time>
      </trkpt>
      <trkpt lat="48.09559" lon="-4.1761">
        <ele>234</ele>
        <time>2013-03-17T09:39:30Z</time>
      </trkpt>
      <trkpt lat="48.09553" lon="-4.17605">
        <ele>233</ele>
        <time>2013-03-17T09:39:32Z</time>
      </trkpt>
      <trkpt lat="48.09547" lon="-4.17601">
        <ele>232</ele>
        <time>2013-03-17T09:39:34Z</time>
      </trkpt>
      <trkpt lat="48.09542" lon="-4.17598">
        <ele>232</ele>
        <time>2013-03-17T09:39:36Z</time>
      </trkpt>
      <trkpt lat="48.09538" lon="-4.17595">
        <ele>231</ele>
        <time>2013-03-17T09:39:38Z</time>
      </trkpt>
      <trkpt lat="48.09534" lon="-4.17586">
        <ele>231</ele>
        <time>2013-03-17T09:39:41Z</time>
      </trkpt>
      <trkpt lat="48.09533" lon="-4.17578">
        <ele>230</ele>
        <time>2013-03-17T09:39:43Z</time>
      </trkpt>
      <trkpt lat="48.09531" lon="-4.17571">
        <ele>228</ele>
        <time>2013-03-17T09:39:45Z</time>
      </trkpt>
      <trkpt lat="48.09529" lon="-4.17563">
        <ele>227</ele>
        <time>2013-03-17T09:39:47Z</time>
      </trkpt>
      <trkpt lat="48.09526" lon="-4.17556">
        <ele>225</ele>
        <time>2013-03-17T09:39:49Z</time>
      </trkpt>
      <trkpt lat="48.09521" lon="-4.17552">
        <ele>224</ele>
        <time>2013-03-17T09:39:51Z</time>
      </trkpt>
      <trkpt lat="48.09515" lon="-4.17548">
        <ele>223</ele>
        <time>2013-03-17T09:39:53Z</time>
      </trkpt>
      <trkpt lat="48.09508" lon="-4.17545">
        <ele>221</ele>
        <time>2013-03-17T09:39:55Z</time>
      </trkpt>
      <trkpt lat="48.09499" lon="-4.1754">
        <ele>220</ele>
        <time>2013-03-17T09:39:57Z</time>
      </trkpt>
      <trkpt lat="48.09492" lon="-4.17536">
        <ele>219</ele>
        <time>2013-03-17T09:39:59Z</time>
      </trkpt>
      <trkpt lat="48.09486" lon="-4.17533">
        <ele>218</ele>
        <time>2013-03-17T09:40:01Z</time>
      </trkpt>
      <trkpt lat="48.0948" lon="-4.17529">
        <ele>217</ele>
        <time>2013-03-17T09:40:03Z</time>
      </trkpt>
      <trkpt lat="48.09474" lon="-4.17523">
        <ele>216</ele>
        <time>2013-03-17T09:40:05Z</time>
      </trkpt>
      <trkpt lat="48.0947" lon="-4.17514">
        <ele>214</ele>
        <time>2013-03-17T09:40:07Z</time>
      </trkpt>
      <trkpt lat="48.09466" lon="-4.17504">
        <ele>213</ele>
        <time>2013-03-17T09:40:09Z</time>
      </trkpt>
      <trkpt lat="48.09464" lon="-4.17494">
        <ele>211</ele>
        <time>2013-03-17T09:40:11Z</time>
      </trkpt>
      <trkpt lat="48.0946" lon="-4.17484">
        <ele>210</ele>
        <time>2013-03-17T09:40:13Z</time>
      </trkpt>
      <trkpt lat="48.09456" lon="-4.17473">
        <ele>209</ele>
        <time>2013-03-17T09:40:15Z</time>
      </trkpt>
      <trkpt lat="48.09451" lon="-4.17462">
        <ele>207</ele>
        <time>2013-03-17T09:40:17Z</time>
      </trkpt>
      <trkpt lat="48.09447" lon="-4.17453">
        <ele>205</ele>
        <time>2013-03-17T09:40:19Z</time>
      </trkpt>
      <trkpt lat="48.09444" lon="-4.17448">
        <ele>205</ele>
        <time>2013-03-17T09:40:20Z</time>
      </trkpt>
      <trkpt lat="48.0944" lon="-4.17442">
        <ele>204</ele>
        <time>2013-03-17T09:40:21Z</time>
      </trkpt>
      <trkpt lat="48.09434" lon="-4.17434">
        <ele>203</ele>
        <time>2013-03-17T09:40:23Z</time>
      </trkpt>
      <trkpt lat="48.09429" lon="-4.17427">
        <ele>201</ele>
        <time>2013-03-17T09:40:25Z</time>
      </trkpt>
      <trkpt lat="48.09423" lon="-4.1742">
        <ele>200</ele>
        <time>2013-03-17T09:40:27Z</time>
      </trkpt>
      <trkpt lat="48.09419" lon="-4.17416">
        <ele>199</ele>
        <time>2013-03-17T09:40:29Z</time>
      </trkpt>
      <trkpt lat="48.09415" lon="-4.17413">
        <ele>198</ele>
        <time>2013-03-17T09:40:39Z</time>
      </trkpt>
      <trkpt lat="48.09425" lon="-4.17404">
        <ele>198</ele>
        <time>2013-03-17T09:41:29Z</time>
      </trkpt>
      <trkpt lat="48.0943" lon="-4.17398">
        <ele>197</ele>
        <time>2013-03-17T09:41:31Z</time>
      </trkpt>
      <trkpt lat="48.09439" lon="-4.17389">
        <ele>196</ele>
        <time>2013-03-17T09:41:34Z</time>
      </trkpt>
      <trkpt lat="48.09443" lon="-4.17385">
        <ele>196</ele>
        <time>2013-03-17T09:41:35Z</time>
      </trkpt>
      <trkpt lat="48.0945" lon="-4.17378">
        <ele>196</ele>
        <time>2013-03-17T09:41:37Z</time>
      </trkpt>
      <trkpt lat="48.09453" lon="-4.17371">
        <ele>195</ele>
        <time>2013-03-17T09:41:39Z</time>
      </trkpt>
      <trkpt lat="48.09452" lon="-4.17364">
        <ele>194</ele>
        <time>2013-03-17T09:41:41Z</time>
      </trkpt>
      <trkpt lat="48.09445" lon="-4.17357">
        <ele>193</ele>
        <time>2013-03-17T09:41:43Z</time>
      </trkpt>
      <trkpt lat="48.09439" lon="-4.17353">
        <ele>192</ele>
        <time>2013-03-17T09:41:45Z</time>
      </trkpt>
      <trkpt lat="48.09428" lon="-4.17344">
        <ele>191</ele>
        <time>2013-03-17T09:41:48Z</time>
      </trkpt>
      <trkpt lat="48.09423" lon="-4.17342">
        <ele>190</ele>
        <time>2013-03-17T09:41:49Z</time>
      </trkpt>
      <trkpt lat="48.09419" lon="-4.17339">
        <ele>190</ele>
        <time>2013-03-17T09:41:50Z</time>
      </trkpt>
      <trkpt lat="48.09413" lon="-4.17336">
        <ele>189</ele>
        <time>2013-03-17T09:41:51Z</time>
      </trkpt>
      <trkpt lat="48.09408" lon="-4.17333">
        <ele>189</ele>
        <time>2013-03-17T09:41:52Z</time>
      </trkpt>
      <trkpt lat="48.09403" lon="-4.1733">
        <ele>189</ele>
        <time>2013-03-17T09:41:53Z</time>
      </trkpt>
      <trkpt lat="48.09397" lon="-4.17326">
        <ele>188</ele>
        <time>2013-03-17T09:41:54Z</time>
      </trkpt>
      <trkpt lat="48.09391" lon="-4.17323">
        <ele>187</ele>
        <time>2013-03-17T09:41:55Z</time>
      </trkpt>
      <trkpt lat="48.09385" lon="-4.1732">
        <ele>187</ele>
        <time>2013-03-17T09:41:56Z</time>
      </trkpt>
      <trkpt lat="48.09379" lon="-4.17316">
        <ele>186</ele>
        <time>2013-03-17T09:41:57Z</time>
      </trkpt>
      <trkpt lat="48.09373" lon="-4.17313">
        <ele>186</ele>
        <time>2013-03-17T09:41:58Z</time>
      </trkpt>
      <trkpt lat="48.09367" lon="-4.1731">
        <ele>186</ele>
        <time>2013-03-17T09:41:59Z</time>
      </trkpt>
      <trkpt lat="48.09362" lon="-4.17309">
        <ele>185</ele>
        <time>2013-03-17T09:42:00Z</time>
      </trkpt>
      <trkpt lat="48.09357" lon="-4.17307">
        <ele>185</ele>
        <time>2013-03-17T09:42:01Z</time>
      </trkpt>
      <trkpt lat="48.09352" lon="-4.17305">
        <ele>184</ele>
        <time>2013-03-17T09:42:02Z</time>
      </trkpt>
      <trkpt lat="48.09347" lon="-4.17304">
        <ele>184</ele>
        <time>2013-03-17T09:42:03Z</time>
      </trkpt>
      <trkpt lat="48.09341" lon="-4.17302">
        <ele>183</ele>
        <time>2013-03-17T09:42:04Z</time>
      </trkpt>
      <trkpt lat="48.09336" lon="-4.17301">
        <ele>183</ele>
        <time>2013-03-17T09:42:05Z</time>
      </trkpt>
      <trkpt lat="48.0933" lon="-4.17299">
        <ele>183</ele>
        <time>2013-03-17T09:42:06Z</time>
      </trkpt>
      <trkpt lat="48.09325" lon="-4.17297">
        <ele>182</ele>
        <time>2013-03-17T09:42:07Z</time>
      </trkpt>
      <trkpt lat="48.0932" lon="-4.17296">
        <ele>182</ele>
        <time>2013-03-17T09:42:08Z</time>
      </trkpt>
      <trkpt lat="48.09314" lon="-4.17294">
        <ele>181</ele>
        <time>2013-03-17T09:42:10Z</time>
      </trkpt>
      <trkpt lat="48.09312" lon="-4.17293">
        <ele>179</ele>
        <time>2013-03-17T09:42:16Z</time>
      </trkpt>
      <trkpt lat="48.09313" lon="-4.17285">
        <ele>176</ele>
        <time>2013-03-17T09:42:53Z</time>
      </trkpt>
      <trkpt lat="48.09316" lon="-4.17277">
        <ele>177</ele>
        <time>2013-03-17T09:42:57Z</time>
      </trkpt>
      <trkpt lat="48.09319" lon="-4.1727">
        <ele>177</ele>
        <time>2013-03-17T09:43:00Z</time>
      </trkpt>
      <trkpt lat="48.09322" lon="-4.17261">
        <ele>178</ele>
        <time>2013-03-17T09:43:03Z</time>
      </trkpt>
      <trkpt lat="48.09325" lon="-4.17255">
        <ele>178</ele>
        <time>2013-03-17T09:43:05Z</time>
      </trkpt>
      <trkpt lat="48.09327" lon="-4.17247">
        <ele>177</ele>
        <time>2013-03-17T09:43:07Z</time>
      </trkpt>
      <trkpt lat="48.0933" lon="-4.1724">
        <ele>177</ele>
        <time>2013-03-17T09:43:09Z</time>
      </trkpt>
      <trkpt lat="48.09332" lon="-4.17232">
        <ele>177</ele>
        <time>2013-03-17T09:43:11Z</time>
      </trkpt>
      <trkpt lat="48.09331" lon="-4.17222">
        <ele>177</ele>
        <time>2013-03-17T09:43:13Z</time>
      </trkpt>
      <trkpt lat="48.09327" lon="-4.17211">
        <ele>176</ele>
        <time>2013-03-17T09:43:15Z</time>
      </trkpt>
      <trkpt lat="48.09321" lon="-4.17202">
        <ele>176</ele>
        <time>2013-03-17T09:43:17Z</time>
      </trkpt>
      <trkpt lat="48.09316" lon="-4.17198">
        <ele>176</ele>
        <time>2013-03-17T09:43:18Z</time>
      </trkpt>
      <trkpt lat="48.09312" lon="-4.17194">
        <ele>176</ele>
        <time>2013-03-17T09:43:19Z</time>
      </trkpt>
      <trkpt lat="48.09307" lon="-4.17189">
        <ele>176</ele>
        <time>2013-03-17T09:43:20Z</time>
      </trkpt>
      <trkpt lat="48.09303" lon="-4.17185">
        <ele>176</ele>
        <time>2013-03-17T09:43:21Z</time>
      </trkpt>
      <trkpt lat="48.09299" lon="-4.17182">
        <ele>175</ele>
        <time>2013-03-17T09:43:22Z</time>
      </trkpt>
      <trkpt lat="48.09292" lon="-4.17176">
        <ele>175</ele>
        <time>2013-03-17T09:43:24Z</time>
      </trkpt>
      <trkpt lat="48.09288" lon="-4.17171">
        <ele>174</ele>
        <time>2013-03-17T09:43:26Z</time>
      </trkpt>
      <trkpt lat="48.09285" lon="-4.17166">
        <ele>174</ele>
        <time>2013-03-17T09:43:28Z</time>
      </trkpt>
      <trkpt lat="48.09278" lon="-4.17159">
        <ele>174</ele>
        <time>2013-03-17T09:43:30Z</time>
      </trkpt>
      <trkpt lat="48.09272" lon="-4.17154">
        <ele>174</ele>
        <time>2013-03-17T09:43:32Z</time>
      </trkpt>
      <trkpt lat="48.09267" lon="-4.17151">
        <ele>173</ele>
        <time>2013-03-17T09:43:34Z</time>
      </trkpt>
      <trkpt lat="48.09262" lon="-4.17149">
        <ele>173</ele>
        <time>2013-03-17T09:43:35Z</time>
      </trkpt>
      <trkpt lat="48.09257" lon="-4.17146">
        <ele>173</ele>
        <time>2013-03-17T09:43:36Z</time>
      </trkpt>
      <trkpt lat="48.09248" lon="-4.17141">
        <ele>172</ele>
        <time>2013-03-17T09:43:38Z</time>
      </trkpt>
      <trkpt lat="48.09243" lon="-4.17139">
        <ele>171</ele>
        <time>2013-03-17T09:43:39Z</time>
      </trkpt>
      <trkpt lat="48.09237" lon="-4.17135">
        <ele>171</ele>
        <time>2013-03-17T09:43:40Z</time>
      </trkpt>
      <trkpt lat="48.0923" lon="-4.17131">
        <ele>170</ele>
        <time>2013-03-17T09:43:41Z</time>
      </trkpt>
      <trkpt lat="48.09223" lon="-4.17127">
        <ele>170</ele>
        <time>2013-03-17T09:43:42Z</time>
      </trkpt>
      <trkpt lat="48.09216" lon="-4.17122">
        <ele>169</ele>
        <time>2013-03-17T09:43:43Z</time>
      </trkpt>
      <trkpt lat="48.09208" lon="-4.17118">
        <ele>169</ele>
        <time>2013-03-17T09:43:44Z</time>
      </trkpt>
      <trkpt lat="48.09201" lon="-4.17114">
        <ele>168</ele>
        <time>2013-03-17T09:43:45Z</time>
      </trkpt>
      <trkpt lat="48.09194" lon="-4.17112">
        <ele>168</ele>
        <time>2013-03-17T09:43:46Z</time>
      </trkpt>
      <trkpt lat="48.09187" lon="-4.17109">
        <ele>167</ele>
        <time>2013-03-17T09:43:47Z</time>
      </trkpt>
      <trkpt lat="48.09181" lon="-4.17107">
        <ele>167</ele>
        <time>2013-03-17T09:43:48Z</time>
      </trkpt>
      <trkpt lat="48.09174" lon="-4.17105">
        <ele>166</ele>
        <time>2013-03-17T09:43:49Z</time>
      </trkpt>
      <trkpt lat="48.09168" lon="-4.17103">
        <ele>166</ele>
        <time>2013-03-17T09:43:50Z</time>
      </trkpt>
      <trkpt lat="48.09162" lon="-4.17101">
        <ele>166</ele>
        <time>2013-03-17T09:43:51Z</time>
      </trkpt>
      <trkpt lat="48.09157" lon="-4.171">
        <ele>165</ele>
        <time>2013-03-17T09:43:52Z</time>
      </trkpt>
      <trkpt lat="48.09153" lon="-4.17098">
        <ele>165</ele>
        <time>2013-03-17T09:43:53Z</time>
      </trkpt>
      <trkpt lat="48.09144" lon="-4.17096">
        <ele>165</ele>
        <time>2013-03-17T09:43:55Z</time>
      </trkpt>
      <trkpt lat="48.09139" lon="-4.17095">
        <ele>165</ele>
        <time>2013-03-17T09:43:56Z</time>
      </trkpt>
      <trkpt lat="48.09134" lon="-4.17094">
        <ele>164</ele>
        <time>2013-03-17T09:43:57Z</time>
      </trkpt>
      <trkpt lat="48.09128" lon="-4.17092">
        <ele>164</ele>
        <time>2013-03-17T09:43:58Z</time>
      </trkpt>
      <trkpt lat="48.09121" lon="-4.17089">
        <ele>164</ele>
        <time>2013-03-17T09:44:00Z</time>
      </trkpt>
      <trkpt lat="48.09116" lon="-4.17088">
        <ele>164</ele>
        <time>2013-03-17T09:44:01Z</time>
      </trkpt>
      <trkpt lat="48.09112" lon="-4.17087">
        <ele>164</ele>
        <time>2013-03-17T09:44:02Z</time>
      </trkpt>
      <trkpt lat="48.09104" lon="-4.17083">
        <ele>164</ele>
        <time>2013-03-17T09:44:04Z</time>
      </trkpt>
      <trkpt lat="48.09095" lon="-4.1708">
        <ele>164</ele>
        <time>2013-03-17T09:44:06Z</time>
      </trkpt>
      <trkpt lat="48.09088" lon="-4.17078">
        <ele>164</ele>
        <time>2013-03-17T09:44:08Z</time>
      </trkpt>
      <trkpt lat="48.09082" lon="-4.17076">
        <ele>164</ele>
        <time>2013-03-17T09:44:09Z</time>
      </trkpt>
      <trkpt lat="48.09077" lon="-4.17075">
        <ele>164</ele>
        <time>2013-03-17T09:44:10Z</time>
      </trkpt>
      <trkpt lat="48.09072" lon="-4.17074">
        <ele>164</ele>
        <time>2013-03-17T09:44:11Z</time>
      </trkpt>
      <trkpt lat="48.09068" lon="-4.17072">
        <ele>164</ele>
        <time>2013-03-17T09:44:12Z</time>
      </trkpt>
      <trkpt lat="48.0906" lon="-4.17069">
        <ele>164</ele>
        <time>2013-03-17T09:44:14Z</time>
      </trkpt>
      <trkpt lat="48.09053" lon="-4.17068">
        <ele>164</ele>
        <time>2013-03-17T09:44:16Z</time>
      </trkpt>
      <trkpt lat="48.09045" lon="-4.17065">
        <ele>164</ele>
        <time>2013-03-17T09:44:18Z</time>
      </trkpt>
      <trkpt lat="48.09038" lon="-4.17063">
        <ele>163</ele>
        <time>2013-03-17T09:44:20Z</time>
      </trkpt>
      <trkpt lat="48.09032" lon="-4.17062">
        <ele>164</ele>
        <time>2013-03-17T09:44:23Z</time>
      </trkpt>
      <trkpt lat="48.09026" lon="-4.17061">
        <ele>164</ele>
        <time>2013-03-17T09:44:26Z</time>
      </trkpt>
      <trkpt lat="48.09019" lon="-4.17061">
        <ele>164</ele>
        <time>2013-03-17T09:44:30Z</time>
      </trkpt>
      <trkpt lat="48.09012" lon="-4.17059">
        <ele>163</ele>
        <time>2013-03-17T09:44:38Z</time>
      </trkpt>
      <trkpt lat="48.09006" lon="-4.17058">
        <ele>162</ele>
        <time>2013-03-17T09:44:41Z</time>
      </trkpt>
      <trkpt lat="48.09001" lon="-4.17057">
        <ele>162</ele>
        <time>2013-03-17T09:44:44Z</time>
      </trkpt>
      <trkpt lat="48.08995" lon="-4.17056">
        <ele>162</ele>
        <time>2013-03-17T09:44:47Z</time>
      </trkpt>
      <trkpt lat="48.08989" lon="-4.17054">
        <ele>163</ele>
        <time>2013-03-17T09:44:50Z</time>
      </trkpt>
      <trkpt lat="48.08985" lon="-4.17053">
        <ele>162</ele>
        <time>2013-03-17T09:44:52Z</time>
      </trkpt>
      <trkpt lat="48.0898" lon="-4.17054">
        <ele>163</ele>
        <time>2013-03-17T09:44:55Z</time>
      </trkpt>
      <trkpt lat="48.08973" lon="-4.17052">
        <ele>163</ele>
        <time>2013-03-17T09:44:58Z</time>
      </trkpt>
      <trkpt lat="48.08967" lon="-4.1705">
        <ele>163</ele>
        <time>2013-03-17T09:45:00Z</time>
      </trkpt>
      <trkpt lat="48.0896" lon="-4.1705">
        <ele>162</ele>
        <time>2013-03-17T09:45:03Z</time>
      </trkpt>
      <trkpt lat="48.08954" lon="-4.17048">
        <ele>162</ele>
        <time>2013-03-17T09:45:05Z</time>
      </trkpt>
      <trkpt lat="48.08949" lon="-4.17049">
        <ele>162</ele>
        <time>2013-03-17T09:45:07Z</time>
      </trkpt>
      <trkpt lat="48.08943" lon="-4.17048">
        <ele>162</ele>
        <time>2013-03-17T09:45:09Z</time>
      </trkpt>
      <trkpt lat="48.08937" lon="-4.17047">
        <ele>162</ele>
        <time>2013-03-17T09:45:12Z</time>
      </trkpt>
      <trkpt lat="48.08932" lon="-4.17047">
        <ele>161</ele>
        <time>2013-03-17T09:45:15Z</time>
      </trkpt>
      <trkpt lat="48.08925" lon="-4.17046">
        <ele>160</ele>
        <time>2013-03-17T09:45:18Z</time>
      </trkpt>
      <trkpt lat="48.0892" lon="-4.17046">
        <ele>159</ele>
        <time>2013-03-17T09:45:20Z</time>
      </trkpt>
      <trkpt lat="48.08915" lon="-4.17046">
        <ele>159</ele>
        <time>2013-03-17T09:45:22Z</time>
      </trkpt>
      <trkpt lat="48.0891" lon="-4.17046">
        <ele>158</ele>
        <time>2013-03-17T09:45:24Z</time>
      </trkpt>
      <trkpt lat="48.08905" lon="-4.17046">
        <ele>159</ele>
        <time>2013-03-17T09:45:27Z</time>
      </trkpt>
      <trkpt lat="48.089" lon="-4.17047">
        <ele>159</ele>
        <time>2013-03-17T09:45:31Z</time>
      </trkpt>
      <trkpt lat="48.08894" lon="-4.17046">
        <ele>158</ele>
        <time>2013-03-17T09:45:39Z</time>
      </trkpt>
      <trkpt lat="48.08895" lon="-4.17045">
        <ele>154</ele>
        <time>2013-03-17T09:47:11Z</time>
      </trkpt>
      <trkpt lat="48.089" lon="-4.17045">
        <ele>154</ele>
        <time>2013-03-17T09:47:16Z</time>
      </trkpt>
      <trkpt lat="48.08907" lon="-4.17046">
        <ele>154</ele>
        <time>2013-03-17T09:47:22Z</time>
      </trkpt>
      <trkpt lat="48.08912" lon="-4.17046">
        <ele>154</ele>
        <time>2013-03-17T09:47:28Z</time>
      </trkpt>
      <trkpt lat="48.08917" lon="-4.17047">
        <ele>154</ele>
        <time>2013-03-17T09:47:32Z</time>
      </trkpt>
      <trkpt lat="48.08922" lon="-4.17047">
        <ele>156</ele>
        <time>2013-03-17T09:47:38Z</time>
      </trkpt>
      <trkpt lat="48.08928" lon="-4.17049">
        <ele>157</ele>
        <time>2013-03-17T09:47:45Z</time>
      </trkpt>
      <trkpt lat="48.08934" lon="-4.1705">
        <ele>158</ele>
        <time>2013-03-17T09:47:50Z</time>
      </trkpt>
      <trkpt lat="48.08937" lon="-4.1705">
        <ele>158</ele>
        <time>2013-03-17T09:47:57Z</time>
      </trkpt>
      <trkpt lat="48.08943" lon="-4.17051">
        <ele>158</ele>
        <time>2013-03-17T09:48:07Z</time>
      </trkpt>
      <trkpt lat="48.08948" lon="-4.17051">
        <ele>159</ele>
        <time>2013-03-17T09:48:10Z</time>
      </trkpt>
      <trkpt lat="48.08953" lon="-4.17052">
        <ele>159</ele>
        <time>2013-03-17T09:48:12Z</time>
      </trkpt>
      <trkpt lat="48.08959" lon="-4.17052">
        <ele>159</ele>
        <time>2013-03-17T09:48:14Z</time>
      </trkpt>
      <trkpt lat="48.08965" lon="-4.17053">
        <ele>160</ele>
        <time>2013-03-17T09:48:19Z</time>
      </trkpt>
      <trkpt lat="48.08971" lon="-4.17055">
        <ele>161</ele>
        <time>2013-03-17T09:48:22Z</time>
      </trkpt>
      <trkpt lat="48.08976" lon="-4.17055">
        <ele>161</ele>
        <time>2013-03-17T09:48:25Z</time>
      </trkpt>
      <trkpt lat="48.08982" lon="-4.17055">
        <ele>162</ele>
        <time>2013-03-17T09:48:29Z</time>
      </trkpt>
      <trkpt lat="48.08989" lon="-4.17055">
        <ele>162</ele>
        <time>2013-03-17T09:48:32Z</time>
      </trkpt>
      <trkpt lat="48.08995" lon="-4.17056">
        <ele>163</ele>
        <time>2013-03-17T09:48:35Z</time>
      </trkpt>
      <trkpt lat="48.09002" lon="-4.17056">
        <ele>162</ele>
        <time>2013-03-17T09:48:39Z</time>
      </trkpt>
      <trkpt lat="48.09007" lon="-4.17057">
        <ele>163</ele>
        <time>2013-03-17T09:48:43Z</time>
      </trkpt>
      <trkpt lat="48.09012" lon="-4.17059">
        <ele>163</ele>
        <time>2013-03-17T09:48:46Z</time>
      </trkpt>
      <trkpt lat="48.09018" lon="-4.1706">
        <ele>164</ele>
        <time>2013-03-17T09:48:50Z</time>
      </trkpt>
      <trkpt lat="48.09023" lon="-4.1706">
        <ele>163</ele>
        <time>2013-03-17T09:48:53Z</time>
      </trkpt>
      <trkpt lat="48.09028" lon="-4.17059">
        <ele>163</ele>
        <time>2013-03-17T09:48:56Z</time>
      </trkpt>
      <trkpt lat="48.09033" lon="-4.17058">
        <ele>162</ele>
        <time>2013-03-17T09:48:59Z</time>
      </trkpt>
      <trkpt lat="48.09039" lon="-4.17058">
        <ele>162</ele>
        <time>2013-03-17T09:49:02Z</time>
      </trkpt>
      <trkpt lat="48.09044" lon="-4.1706">
        <ele>162</ele>
        <time>2013-03-17T09:49:05Z</time>
      </trkpt>
      <trkpt lat="48.09049" lon="-4.17063">
        <ele>162</ele>
        <time>2013-03-17T09:49:08Z</time>
      </trkpt>
      <trkpt lat="48.09054" lon="-4.17065">
        <ele>162</ele>
        <time>2013-03-17T09:49:11Z</time>
      </trkpt>
      <trkpt lat="48.09059" lon="-4.17067">
        <ele>162</ele>
        <time>2013-03-17T09:49:14Z</time>
      </trkpt>
      <trkpt lat="48.09065" lon="-4.17068">
        <ele>162</ele>
        <time>2013-03-17T09:49:17Z</time>
      </trkpt>
      <trkpt lat="48.09071" lon="-4.1707">
        <ele>161</ele>
        <time>2013-03-17T09:49:20Z</time>
      </trkpt>
      <trkpt lat="48.09077" lon="-4.17072">
        <ele>161</ele>
        <time>2013-03-17T09:49:23Z</time>
      </trkpt>
      <trkpt lat="48.09083" lon="-4.17074">
        <ele>161</ele>
        <time>2013-03-17T09:49:26Z</time>
      </trkpt>
      <trkpt lat="48.0909" lon="-4.17076">
        <ele>161</ele>
        <time>2013-03-17T09:49:29Z</time>
      </trkpt>
      <trkpt lat="48.09096" lon="-4.17078">
        <ele>161</ele>
        <time>2013-03-17T09:49:32Z</time>
      </trkpt>
      <trkpt lat="48.09102" lon="-4.17081">
        <ele>160</ele>
        <time>2013-03-17T09:49:35Z</time>
      </trkpt>
      <trkpt lat="48.09108" lon="-4.17082">
        <ele>160</ele>
        <time>2013-03-17T09:49:38Z</time>
      </trkpt>
      <trkpt lat="48.09115" lon="-4.17084">
        <ele>160</ele>
        <time>2013-03-17T09:49:41Z</time>
      </trkpt>
      <trkpt lat="48.09119" lon="-4.17085">
        <ele>160</ele>
        <time>2013-03-17T09:49:43Z</time>
      </trkpt>
      <trkpt lat="48.09124" lon="-4.17086">
        <ele>160</ele>
        <time>2013-03-17T09:49:45Z</time>
      </trkpt>
      <trkpt lat="48.09128" lon="-4.17088">
        <ele>160</ele>
        <time>2013-03-17T09:49:47Z</time>
      </trkpt>
      <trkpt lat="48.09133" lon="-4.17089">
        <ele>160</ele>
        <time>2013-03-17T09:49:49Z</time>
      </trkpt>
      <trkpt lat="48.09137" lon="-4.1709">
        <ele>160</ele>
        <time>2013-03-17T09:49:51Z</time>
      </trkpt>
      <trkpt lat="48.09142" lon="-4.17092">
        <ele>160</ele>
        <time>2013-03-17T09:49:53Z</time>
      </trkpt>
      <trkpt lat="48.09149" lon="-4.17093">
        <ele>159</ele>
        <time>2013-03-17T09:49:56Z</time>
      </trkpt>
      <trkpt lat="48.09155" lon="-4.17096">
        <ele>160</ele>
        <time>2013-03-17T09:49:59Z</time>
      </trkpt>
      <trkpt lat="48.0916" lon="-4.17097">
        <ele>160</ele>
        <time>2013-03-17T09:50:01Z</time>
      </trkpt>
      <trkpt lat="48.09164" lon="-4.17099">
        <ele>160</ele>
        <time>2013-03-17T09:50:03Z</time>
      </trkpt>
      <trkpt lat="48.09169" lon="-4.171">
        <ele>160</ele>
        <time>2013-03-17T09:50:05Z</time>
      </trkpt>
      <trkpt lat="48.09173" lon="-4.17103">
        <ele>160</ele>
        <time>2013-03-17T09:50:07Z</time>
      </trkpt>
      <trkpt lat="48.09178" lon="-4.17104">
        <ele>160</ele>
        <time>2013-03-17T09:50:09Z</time>
      </trkpt>
      <trkpt lat="48.09183" lon="-4.17106">
        <ele>160</ele>
        <time>2013-03-17T09:50:11Z</time>
      </trkpt>
      <trkpt lat="48.09188" lon="-4.17107">
        <ele>160</ele>
        <time>2013-03-17T09:50:13Z</time>
      </trkpt>
      <trkpt lat="48.09193" lon="-4.17108">
        <ele>160</ele>
        <time>2013-03-17T09:50:15Z</time>
      </trkpt>
      <trkpt lat="48.09197" lon="-4.17109">
        <ele>160</ele>
        <time>2013-03-17T09:50:17Z</time>
      </trkpt>
      <trkpt lat="48.09202" lon="-4.17111">
        <ele>160</ele>
        <time>2013-03-17T09:50:19Z</time>
      </trkpt>
      <trkpt lat="48.09208" lon="-4.17113">
        <ele>160</ele>
        <time>2013-03-17T09:50:21Z</time>
      </trkpt>
      <trkpt lat="48.09213" lon="-4.17116">
        <ele>160</ele>
        <time>2013-03-17T09:50:23Z</time>
      </trkpt>
      <trkpt lat="48.09218" lon="-4.17119">
        <ele>161</ele>
        <time>2013-03-17T09:50:25Z</time>
      </trkpt>
      <trkpt lat="48.09222" lon="-4.17123">
        <ele>162</ele>
        <time>2013-03-17T09:50:27Z</time>
      </trkpt>
      <trkpt lat="48.09226" lon="-4.17126">
        <ele>162</ele>
        <time>2013-03-17T09:50:29Z</time>
      </trkpt>
      <trkpt lat="48.09232" lon="-4.1713">
        <ele>163</ele>
        <time>2013-03-17T09:50:32Z</time>
      </trkpt>
      <trkpt lat="48.09238" lon="-4.17134">
        <ele>164</ele>
        <time>2013-03-17T09:50:35Z</time>
      </trkpt>
      <trkpt lat="48.09244" lon="-4.17138">
        <ele>165</ele>
        <time>2013-03-17T09:50:38Z</time>
      </trkpt>
      <trkpt lat="48.0925" lon="-4.1714">
        <ele>165</ele>
        <time>2013-03-17T09:50:41Z</time>
      </trkpt>
      <trkpt lat="48.09255" lon="-4.17143">
        <ele>166</ele>
        <time>2013-03-17T09:50:44Z</time>
      </trkpt>
      <trkpt lat="48.0926" lon="-4.17147">
        <ele>166</ele>
        <time>2013-03-17T09:50:47Z</time>
      </trkpt>
      <trkpt lat="48.09266" lon="-4.1715">
        <ele>167</ele>
        <time>2013-03-17T09:50:50Z</time>
      </trkpt>
      <trkpt lat="48.09271" lon="-4.17153">
        <ele>168</ele>
        <time>2013-03-17T09:50:53Z</time>
      </trkpt>
      <trkpt lat="48.09275" lon="-4.17157">
        <ele>169</ele>
        <time>2013-03-17T09:50:56Z</time>
      </trkpt>
      <trkpt lat="48.09281" lon="-4.17159">
        <ele>170</ele>
        <time>2013-03-17T09:50:59Z</time>
      </trkpt>
      <trkpt lat="48.09287" lon="-4.17163">
        <ele>171</ele>
        <time>2013-03-17T09:51:02Z</time>
      </trkpt>
      <trkpt lat="48.09291" lon="-4.17167">
        <ele>172</ele>
        <time>2013-03-17T09:51:04Z</time>
      </trkpt>
      <trkpt lat="48.09296" lon="-4.17172">
        <ele>172</ele>
        <time>2013-03-17T09:51:07Z</time>
      </trkpt>
      <trkpt lat="48.09299" lon="-4.17177">
        <ele>173</ele>
        <time>2013-03-17T09:51:10Z</time>
      </trkpt>
      <trkpt lat="48.09304" lon="-4.17183">
        <ele>173</ele>
        <time>2013-03-17T09:51:13Z</time>
      </trkpt>
      <trkpt lat="48.09309" lon="-4.17189">
        <ele>174</ele>
        <time>2013-03-17T09:51:16Z</time>
      </trkpt>
      <trkpt lat="48.09314" lon="-4.17194">
        <ele>175</ele>
        <time>2013-03-17T09:51:19Z</time>
      </trkpt>
      <trkpt lat="48.09319" lon="-4.172">
        <ele>175</ele>
        <time>2013-03-17T09:51:22Z</time>
      </trkpt>
      <trkpt lat="48.09324" lon="-4.17205">
        <ele>175</ele>
        <time>2013-03-17T09:51:25Z</time>
      </trkpt>
      <trkpt lat="48.09328" lon="-4.17211">
        <ele>175</ele>
        <time>2013-03-17T09:51:28Z</time>
      </trkpt>
      <trkpt lat="48.09331" lon="-4.17217">
        <ele>175</ele>
        <time>2013-03-17T09:51:31Z</time>
      </trkpt>
      <trkpt lat="48.09333" lon="-4.17225">
        <ele>175</ele>
        <time>2013-03-17T09:51:34Z</time>
      </trkpt>
      <trkpt lat="48.09333" lon="-4.17234">
        <ele>175</ele>
        <time>2013-03-17T09:51:37Z</time>
      </trkpt>
      <trkpt lat="48.09331" lon="-4.17243">
        <ele>175</ele>
        <time>2013-03-17T09:51:40Z</time>
      </trkpt>
      <trkpt lat="48.09329" lon="-4.17251">
        <ele>175</ele>
        <time>2013-03-17T09:51:42Z</time>
      </trkpt>
      <trkpt lat="48.09326" lon="-4.17257">
        <ele>175</ele>
        <time>2013-03-17T09:51:44Z</time>
      </trkpt>
      <trkpt lat="48.09323" lon="-4.17264">
        <ele>175</ele>
        <time>2013-03-17T09:51:46Z</time>
      </trkpt>
      <trkpt lat="48.0932" lon="-4.1727">
        <ele>176</ele>
        <time>2013-03-17T09:51:48Z</time>
      </trkpt>
      <trkpt lat="48.09318" lon="-4.17276">
        <ele>176</ele>
        <time>2013-03-17T09:51:50Z</time>
      </trkpt>
      <trkpt lat="48.09315" lon="-4.17283">
        <ele>176</ele>
        <time>2013-03-17T09:51:52Z</time>
      </trkpt>
      <trkpt lat="48.09313" lon="-4.1729">
        <ele>176</ele>
        <time>2013-03-17T09:51:54Z</time>
      </trkpt>
      <trkpt lat="48.0931" lon="-4.17296">
        <ele>175</ele>
        <time>2013-03-17T09:51:56Z</time>
      </trkpt>
      <trkpt lat="48.09307" lon="-4.17302">
        <ele>175</ele>
        <time>2013-03-17T09:51:58Z</time>
      </trkpt>
      <trkpt lat="48.09303" lon="-4.17309">
        <ele>175</ele>
        <time>2013-03-17T09:52:00Z</time>
      </trkpt>
      <trkpt lat="48.093" lon="-4.17315">
        <ele>175</ele>
        <time>2013-03-17T09:52:02Z</time>
      </trkpt>
      <trkpt lat="48.09297" lon="-4.17322">
        <ele>175</ele>
        <time>2013-03-17T09:52:04Z</time>
      </trkpt>
      <trkpt lat="48.09294" lon="-4.17329">
        <ele>175</ele>
        <time>2013-03-17T09:52:06Z</time>
      </trkpt>
      <trkpt lat="48.0929" lon="-4.17336">
        <ele>175</ele>
        <time>2013-03-17T09:52:08Z</time>
      </trkpt>
      <trkpt lat="48.09286" lon="-4.17344">
        <ele>174</ele>
        <time>2013-03-17T09:52:10Z</time>
      </trkpt>
      <trkpt lat="48.09283" lon="-4.1735">
        <ele>174</ele>
        <time>2013-03-17T09:52:12Z</time>
      </trkpt>
      <trkpt lat="48.09278" lon="-4.17357">
        <ele>175</ele>
        <time>2013-03-17T09:52:14Z</time>
      </trkpt>
      <trkpt lat="48.09273" lon="-4.17364">
        <ele>175</ele>
        <time>2013-03-17T09:52:16Z</time>
      </trkpt>
      <trkpt lat="48.09269" lon="-4.17373">
        <ele>176</ele>
        <time>2013-03-17T09:52:18Z</time>
      </trkpt>
      <trkpt lat="48.09265" lon="-4.17381">
        <ele>177</ele>
        <time>2013-03-17T09:52:20Z</time>
      </trkpt>
      <trkpt lat="48.09261" lon="-4.17389">
        <ele>177</ele>
        <time>2013-03-17T09:52:22Z</time>
      </trkpt>
      <trkpt lat="48.09257" lon="-4.17398">
        <ele>178</ele>
        <time>2013-03-17T09:52:24Z</time>
      </trkpt>
      <trkpt lat="48.09253" lon="-4.17406">
        <ele>178</ele>
        <time>2013-03-17T09:52:26Z</time>
      </trkpt>
      <trkpt lat="48.09249" lon="-4.17415">
        <ele>178</ele>
        <time>2013-03-17T09:52:28Z</time>
      </trkpt>
      <trkpt lat="48.09244" lon="-4.17424">
        <ele>178</ele>
        <time>2013-03-17T09:52:30Z</time>
      </trkpt>
      <trkpt lat="48.09238" lon="-4.17433">
        <ele>178</ele>
        <time>2013-03-17T09:52:32Z</time>
      </trkpt>
      <trkpt lat="48.09232" lon="-4.17441">
        <ele>178</ele>
        <time>2013-03-17T09:52:34Z</time>
      </trkpt>
      <trkpt lat="48.09225" lon="-4.1745">
        <ele>177</ele>
        <time>2013-03-17T09:52:36Z</time>
      </trkpt>
      <trkpt lat="48.09221" lon="-4.17454">
        <ele>177</ele>
        <time>2013-03-17T09:52:37Z</time>
      </trkpt>
      <trkpt lat="48.09218" lon="-4.17459">
        <ele>177</ele>
        <time>2013-03-17T09:52:38Z</time>
      </trkpt>
      <trkpt lat="48.09214" lon="-4.17463">
        <ele>177</ele>
        <time>2013-03-17T09:52:39Z</time>
      </trkpt>
      <trkpt lat="48.09209" lon="-4.17467">
        <ele>176</ele>
        <time>2013-03-17T09:52:40Z</time>
      </trkpt>
      <trkpt lat="48.09205" lon="-4.17471">
        <ele>176</ele>
        <time>2013-03-17T09:52:41Z</time>
      </trkpt>
      <trkpt lat="48.092" lon="-4.17476">
        <ele>176</ele>
        <time>2013-03-17T09:52:42Z</time>
      </trkpt>
      <trkpt lat="48.09196" lon="-4.1748">
        <ele>176</ele>
        <time>2013-03-17T09:52:43Z</time>
      </trkpt>
      <trkpt lat="48.09191" lon="-4.17484">
        <ele>175</ele>
        <time>2013-03-17T09:52:44Z</time>
      </trkpt>
      <trkpt lat="48.09186" lon="-4.17488">
        <ele>175</ele>
        <time>2013-03-17T09:52:45Z</time>
      </trkpt>
      <trkpt lat="48.09182" lon="-4.17492">
        <ele>175</ele>
        <time>2013-03-17T09:52:46Z</time>
      </trkpt>
      <trkpt lat="48.09177" lon="-4.17496">
        <ele>175</ele>
        <time>2013-03-17T09:52:47Z</time>
      </trkpt>
      <trkpt lat="48.09173" lon="-4.17501">
        <ele>175</ele>
        <time>2013-03-17T09:52:48Z</time>
      </trkpt>
      <trkpt lat="48.09168" lon="-4.17506">
        <ele>174</ele>
        <time>2013-03-17T09:52:49Z</time>
      </trkpt>
      <trkpt lat="48.09163" lon="-4.17511">
        <ele>174</ele>
        <time>2013-03-17T09:52:50Z</time>
      </trkpt>
      <trkpt lat="48.09157" lon="-4.17516">
        <ele>174</ele>
        <time>2013-03-17T09:52:51Z</time>
      </trkpt>
      <trkpt lat="48.09152" lon="-4.17521">
        <ele>174</ele>
        <time>2013-03-17T09:52:52Z</time>
      </trkpt>
      <trkpt lat="48.09148" lon="-4.17526">
        <ele>174</ele>
        <time>2013-03-17T09:52:53Z</time>
      </trkpt>
      <trkpt lat="48.09143" lon="-4.17531">
        <ele>173</ele>
        <time>2013-03-17T09:52:54Z</time>
      </trkpt>
      <trkpt lat="48.09138" lon="-4.17536">
        <ele>173</ele>
        <time>2013-03-17T09:52:55Z</time>
      </trkpt>
      <trkpt lat="48.09133" lon="-4.17541">
        <ele>173</ele>
        <time>2013-03-17T09:52:56Z</time>
      </trkpt>
      <trkpt lat="48.09128" lon="-4.17545">
        <ele>173</ele>
        <time>2013-03-17T09:52:57Z</time>
      </trkpt>
      <trkpt lat="48.09125" lon="-4.1755">
        <ele>172</ele>
        <time>2013-03-17T09:52:58Z</time>
      </trkpt>
      <trkpt lat="48.09118" lon="-4.17558">
        <ele>172</ele>
        <time>2013-03-17T09:53:00Z</time>
      </trkpt>
      <trkpt lat="48.09112" lon="-4.17565">
        <ele>171</ele>
        <time>2013-03-17T09:53:02Z</time>
      </trkpt>
      <trkpt lat="48.09105" lon="-4.17571">
        <ele>171</ele>
        <time>2013-03-17T09:53:04Z</time>
      </trkpt>
      <trkpt lat="48.09098" lon="-4.17577">
        <ele>170</ele>
        <time>2013-03-17T09:53:06Z</time>
      </trkpt>
      <trkpt lat="48.09093" lon="-4.17583">
        <ele>170</ele>
        <time>2013-03-17T09:53:08Z</time>
      </trkpt>
      <trkpt lat="48.09087" lon="-4.17589">
        <ele>169</ele>
        <time>2013-03-17T09:53:10Z</time>
      </trkpt>
      <trkpt lat="48.09081" lon="-4.17596">
        <ele>169</ele>
        <time>2013-03-17T09:53:12Z</time>
      </trkpt>
      <trkpt lat="48.09074" lon="-4.17603">
        <ele>169</ele>
        <time>2013-03-17T09:53:14Z</time>
      </trkpt>
      <trkpt lat="48.09068" lon="-4.17609">
        <ele>169</ele>
        <time>2013-03-17T09:53:16Z</time>
      </trkpt>
      <trkpt lat="48.09061" lon="-4.17615">
        <ele>169</ele>
        <time>2013-03-17T09:53:18Z</time>
      </trkpt>
      <trkpt lat="48.09054" lon="-4.17622">
        <ele>170</ele>
        <time>2013-03-17T09:53:20Z</time>
      </trkpt>
      <trkpt lat="48.09048" lon="-4.17629">
        <ele>170</ele>
        <time>2013-03-17T09:53:22Z</time>
      </trkpt>
      <trkpt lat="48.09041" lon="-4.17637">
        <ele>170</ele>
        <time>2013-03-17T09:53:24Z</time>
      </trkpt>
      <trkpt lat="48.09037" lon="-4.17641">
        <ele>170</ele>
        <time>2013-03-17T09:53:25Z</time>
      </trkpt>
      <trkpt lat="48.09033" lon="-4.17645">
        <ele>170</ele>
        <time>2013-03-17T09:53:26Z</time>
      </trkpt>
      <trkpt lat="48.09029" lon="-4.17649">
        <ele>170</ele>
        <time>2013-03-17T09:53:27Z</time>
      </trkpt>
      <trkpt lat="48.09022" lon="-4.17656">
        <ele>169</ele>
        <time>2013-03-17T09:53:29Z</time>
      </trkpt>
      <trkpt lat="48.09018" lon="-4.17659">
        <ele>169</ele>
        <time>2013-03-17T09:53:30Z</time>
      </trkpt>
      <trkpt lat="48.09014" lon="-4.17664">
        <ele>169</ele>
        <time>2013-03-17T09:53:31Z</time>
      </trkpt>
      <trkpt lat="48.0901" lon="-4.17668">
        <ele>169</ele>
        <time>2013-03-17T09:53:32Z</time>
      </trkpt>
      <trkpt lat="48.09005" lon="-4.17672">
        <ele>168</ele>
        <time>2013-03-17T09:53:33Z</time>
      </trkpt>
      <trkpt lat="48.09001" lon="-4.17677">
        <ele>168</ele>
        <time>2013-03-17T09:53:34Z</time>
      </trkpt>
      <trkpt lat="48.08996" lon="-4.17682">
        <ele>168</ele>
        <time>2013-03-17T09:53:35Z</time>
      </trkpt>
      <trkpt lat="48.08991" lon="-4.17686">
        <ele>168</ele>
        <time>2013-03-17T09:53:36Z</time>
      </trkpt>
      <trkpt lat="48.08985" lon="-4.17691">
        <ele>168</ele>
        <time>2013-03-17T09:53:37Z</time>
      </trkpt>
      <trkpt lat="48.0898" lon="-4.17696">
        <ele>167</ele>
        <time>2013-03-17T09:53:38Z</time>
      </trkpt>
      <trkpt lat="48.08974" lon="-4.17701">
        <ele>167</ele>
        <time>2013-03-17T09:53:39Z</time>
      </trkpt>
      <trkpt lat="48.08969" lon="-4.17706">
        <ele>166</ele>
        <time>2013-03-17T09:53:40Z</time>
      </trkpt>
      <trkpt lat="48.08963" lon="-4.17712">
        <ele>166</ele>
        <time>2013-03-17T09:53:41Z</time>
      </trkpt>
      <trkpt lat="48.08958" lon="-4.17717">
        <ele>166</ele>
        <time>2013-03-17T09:53:42Z</time>
      </trkpt>
      <trkpt lat="48.08952" lon="-4.17723">
        <ele>166</ele>
        <time>2013-03-17T09:53:43Z</time>
      </trkpt>
      <trkpt lat="48.08947" lon="-4.17728">
        <ele>165</ele>
        <time>2013-03-17T09:53:44Z</time>
      </trkpt>
      <trkpt lat="48.08941" lon="-4.17734">
        <ele>165</ele>
        <time>2013-03-17T09:53:45Z</time>
      </trkpt>
      <trkpt lat="48.08936" lon="-4.17739">
        <ele>164</ele>
        <time>2013-03-17T09:53:46Z</time>
      </trkpt>
      <trkpt lat="48.0893" lon="-4.17744">
        <ele>164</ele>
        <time>2013-03-17T09:53:47Z</time>
      </trkpt>
      <trkpt lat="48.08925" lon="-4.17749">
        <ele>164</ele>
        <time>2013-03-17T09:53:48Z</time>
      </trkpt>
      <trkpt lat="48.08914" lon="-4.17758">
        <ele>163</ele>
        <time>2013-03-17T09:53:50Z</time>
      </trkpt>
      <trkpt lat="48.08904" lon="-4.17766">
        <ele>163</ele>
        <time>2013-03-17T09:53:52Z</time>
      </trkpt>
      <trkpt lat="48.08898" lon="-4.17771">
        <ele>163</ele>
        <time>2013-03-17T09:53:53Z</time>
      </trkpt>
      <trkpt lat="48.08892" lon="-4.17775">
        <ele>163</ele>
        <time>2013-03-17T09:53:54Z</time>
      </trkpt>
      <trkpt lat="48.08886" lon="-4.1778">
        <ele>163</ele>
        <time>2013-03-17T09:53:55Z</time>
      </trkpt>
      <trkpt lat="48.08881" lon="-4.17784">
        <ele>163</ele>
        <time>2013-03-17T09:53:56Z</time>
      </trkpt>
      <trkpt lat="48.08868" lon="-4.17793">
        <ele>163</ele>
        <time>2013-03-17T09:53:58Z</time>
      </trkpt>
      <trkpt lat="48.08862" lon="-4.17797">
        <ele>162</ele>
        <time>2013-03-17T09:53:59Z</time>
      </trkpt>
      <trkpt lat="48.0885" lon="-4.17802">
        <ele>162</ele>
        <time>2013-03-17T09:54:01Z</time>
      </trkpt>
      <trkpt lat="48.08843" lon="-4.17803">
        <ele>162</ele>
        <time>2013-03-17T09:54:02Z</time>
      </trkpt>
      <trkpt lat="48.08836" lon="-4.17803">
        <ele>161</ele>
        <time>2013-03-17T09:54:03Z</time>
      </trkpt>
      <trkpt lat="48.0883" lon="-4.17804">
        <ele>161</ele>
        <time>2013-03-17T09:54:04Z</time>
      </trkpt>
      <trkpt lat="48.08823" lon="-4.17805">
        <ele>161</ele>
        <time>2013-03-17T09:54:05Z</time>
      </trkpt>
      <trkpt lat="48.08816" lon="-4.17806">
        <ele>160</ele>
        <time>2013-03-17T09:54:06Z</time>
      </trkpt>
      <trkpt lat="48.08809" lon="-4.17807">
        <ele>160</ele>
        <time>2013-03-17T09:54:07Z</time>
      </trkpt>
      <trkpt lat="48.08794" lon="-4.1781">
        <ele>159</ele>
        <time>2013-03-17T09:54:09Z</time>
      </trkpt>
      <trkpt lat="48.08786" lon="-4.17811">
        <ele>159</ele>
        <time>2013-03-17T09:54:10Z</time>
      </trkpt>
      <trkpt lat="48.08779" lon="-4.17812">
        <ele>159</ele>
        <time>2013-03-17T09:54:11Z</time>
      </trkpt>
      <trkpt lat="48.08772" lon="-4.17813">
        <ele>159</ele>
        <time>2013-03-17T09:54:12Z</time>
      </trkpt>
      <trkpt lat="48.08765" lon="-4.17814">
        <ele>159</ele>
        <time>2013-03-17T09:54:13Z</time>
      </trkpt>
      <trkpt lat="48.08757" lon="-4.17814">
        <ele>159</ele>
        <time>2013-03-17T09:54:14Z</time>
      </trkpt>
      <trkpt lat="48.0875" lon="-4.17814">
        <ele>158</ele>
        <time>2013-03-17T09:54:15Z</time>
      </trkpt>
      <trkpt lat="48.08743" lon="-4.17814">
        <ele>158</ele>
        <time>2013-03-17T09:54:16Z</time>
      </trkpt>
      <trkpt lat="48.08733" lon="-4.17816">
        <ele>158</ele>
        <time>2013-03-17T09:54:18Z</time>
      </trkpt>
      <trkpt lat="48.08719" lon="-4.17819">
        <ele>157</ele>
        <time>2013-03-17T09:54:20Z</time>
      </trkpt>
      <trkpt lat="48.08704" lon="-4.17822">
        <ele>158</ele>
        <time>2013-03-17T09:54:22Z</time>
      </trkpt>
      <trkpt lat="48.08689" lon="-4.17824">
        <ele>158</ele>
        <time>2013-03-17T09:54:24Z</time>
      </trkpt>
      <trkpt lat="48.08672" lon="-4.17826">
        <ele>157</ele>
        <time>2013-03-17T09:54:26Z</time>
      </trkpt>
      <trkpt lat="48.08657" lon="-4.17829">
        <ele>158</ele>
        <time>2013-03-17T09:54:28Z</time>
      </trkpt>
      <trkpt lat="48.0864" lon="-4.17832">
        <ele>157</ele>
        <time>2013-03-17T09:54:30Z</time>
      </trkpt>
      <trkpt lat="48.08623" lon="-4.17834">
        <ele>157</ele>
        <time>2013-03-17T09:54:32Z</time>
      </trkpt>
      <trkpt lat="48.08606" lon="-4.17835">
        <ele>156</ele>
        <time>2013-03-17T09:54:34Z</time>
      </trkpt>
      <trkpt lat="48.08588" lon="-4.17833">
        <ele>155</ele>
        <time>2013-03-17T09:54:36Z</time>
      </trkpt>
      <trkpt lat="48.08579" lon="-4.17832">
        <ele>154</ele>
        <time>2013-03-17T09:54:37Z</time>
      </trkpt>
      <trkpt lat="48.08562" lon="-4.17829">
        <ele>152</ele>
        <time>2013-03-17T09:54:39Z</time>
      </trkpt>
      <trkpt lat="48.08555" lon="-4.17828">
        <ele>151</ele>
        <time>2013-03-17T09:54:40Z</time>
      </trkpt>
      <trkpt lat="48.08547" lon="-4.17827">
        <ele>150</ele>
        <time>2013-03-17T09:54:41Z</time>
      </trkpt>
      <trkpt lat="48.08537" lon="-4.17824">
        <ele>149</ele>
        <time>2013-03-17T09:54:43Z</time>
      </trkpt>
      <trkpt lat="48.08532" lon="-4.1782">
        <ele>146</ele>
        <time>2013-03-17T09:54:50Z</time>
      </trkpt>
      <trkpt lat="48.08531" lon="-4.17812">
        <ele>143</ele>
        <time>2013-03-17T09:57:21Z</time>
      </trkpt>
      <trkpt lat="48.08537" lon="-4.17813">
        <ele>143</ele>
        <time>2013-03-17T09:57:24Z</time>
      </trkpt>
      <trkpt lat="48.08542" lon="-4.17819">
        <ele>143</ele>
        <time>2013-03-17T09:57:33Z</time>
      </trkpt>
      <trkpt lat="48.0855" lon="-4.17821">
        <ele>143</ele>
        <time>2013-03-17T09:57:43Z</time>
      </trkpt>
      <trkpt lat="48.08554" lon="-4.17823">
        <ele>144</ele>
        <time>2013-03-17T09:57:45Z</time>
      </trkpt>
      <trkpt lat="48.0856" lon="-4.17823">
        <ele>144</ele>
        <time>2013-03-17T09:57:48Z</time>
      </trkpt>
      <trkpt lat="48.0857" lon="-4.17827">
        <ele>145</ele>
        <time>2013-03-17T09:57:52Z</time>
      </trkpt>
      <trkpt lat="48.0858" lon="-4.17829">
        <ele>145</ele>
        <time>2013-03-17T09:57:56Z</time>
      </trkpt>
      <trkpt lat="48.08587" lon="-4.1783">
        <ele>145</ele>
        <time>2013-03-17T09:57:59Z</time>
      </trkpt>
      <trkpt lat="48.08598" lon="-4.17831">
        <ele>144</ele>
        <time>2013-03-17T09:58:03Z</time>
      </trkpt>
      <trkpt lat="48.08608" lon="-4.17832">
        <ele>143</ele>
        <time>2013-03-17T09:58:07Z</time>
      </trkpt>
      <trkpt lat="48.0862" lon="-4.17833">
        <ele>143</ele>
        <time>2013-03-17T09:58:10Z</time>
      </trkpt>
      <trkpt lat="48.08632" lon="-4.17831">
        <ele>144</ele>
        <time>2013-03-17T09:58:14Z</time>
      </trkpt>
      <trkpt lat="48.08643" lon="-4.1783">
        <ele>146</ele>
        <time>2013-03-17T09:58:18Z</time>
      </trkpt>
      <trkpt lat="48.08652" lon="-4.17829">
        <ele>148</ele>
        <time>2013-03-17T09:58:22Z</time>
      </trkpt>
      <trkpt lat="48.08663" lon="-4.17826">
        <ele>150</ele>
        <time>2013-03-17T09:58:25Z</time>
      </trkpt>
      <trkpt lat="48.08673" lon="-4.17825">
        <ele>150</ele>
        <time>2013-03-17T09:58:28Z</time>
      </trkpt>
      <trkpt lat="48.08683" lon="-4.17825">
        <ele>151</ele>
        <time>2013-03-17T09:58:32Z</time>
      </trkpt>
      <trkpt lat="48.08695" lon="-4.17822">
        <ele>154</ele>
        <time>2013-03-17T09:58:39Z</time>
      </trkpt>
      <trkpt lat="48.08704" lon="-4.17821">
        <ele>155</ele>
        <time>2013-03-17T09:58:43Z</time>
      </trkpt>
      <trkpt lat="48.08713" lon="-4.1782">
        <ele>155</ele>
        <time>2013-03-17T09:58:46Z</time>
      </trkpt>
      <trkpt lat="48.08722" lon="-4.17819">
        <ele>157</ele>
        <time>2013-03-17T09:58:50Z</time>
      </trkpt>
      <trkpt lat="48.08727" lon="-4.17819">
        <ele>158</ele>
        <time>2013-03-17T09:58:52Z</time>
      </trkpt>
      <trkpt lat="48.08739" lon="-4.17816">
        <ele>160</ele>
        <time>2013-03-17T09:58:58Z</time>
      </trkpt>
      <trkpt lat="48.08746" lon="-4.17815">
        <ele>160</ele>
        <time>2013-03-17T09:59:00Z</time>
      </trkpt>
      <trkpt lat="48.08755" lon="-4.17814">
        <ele>162</ele>
        <time>2013-03-17T09:59:04Z</time>
      </trkpt>
      <trkpt lat="48.08761" lon="-4.17814">
        <ele>163</ele>
        <time>2013-03-17T09:59:07Z</time>
      </trkpt>
      <trkpt lat="48.08771" lon="-4.17812">
        <ele>162</ele>
        <time>2013-03-17T09:59:11Z</time>
      </trkpt>
      <trkpt lat="48.08779" lon="-4.1781">
        <ele>161</ele>
        <time>2013-03-17T09:59:14Z</time>
      </trkpt>
      <trkpt lat="48.08785" lon="-4.17809">
        <ele>161</ele>
        <time>2013-03-17T09:59:16Z</time>
      </trkpt>
      <trkpt lat="48.08791" lon="-4.17807">
        <ele>161</ele>
        <time>2013-03-17T09:59:19Z</time>
      </trkpt>
      <trkpt lat="48.08803" lon="-4.17806">
        <ele>161</ele>
        <time>2013-03-17T09:59:23Z</time>
      </trkpt>
      <trkpt lat="48.08808" lon="-4.17805">
        <ele>161</ele>
        <time>2013-03-17T09:59:25Z</time>
      </trkpt>
      <trkpt lat="48.08817" lon="-4.17803">
        <ele>161</ele>
        <time>2013-03-17T09:59:29Z</time>
      </trkpt>
      <trkpt lat="48.08822" lon="-4.17803">
        <ele>161</ele>
        <time>2013-03-17T09:59:31Z</time>
      </trkpt>
      <trkpt lat="48.08827" lon="-4.17802">
        <ele>161</ele>
        <time>2013-03-17T09:59:33Z</time>
      </trkpt>
      <trkpt lat="48.08834" lon="-4.17801">
        <ele>161</ele>
        <time>2013-03-17T09:59:35Z</time>
      </trkpt>
      <trkpt lat="48.0884" lon="-4.178">
        <ele>161</ele>
        <time>2013-03-17T09:59:38Z</time>
      </trkpt>
      <trkpt lat="48.08845" lon="-4.17799">
        <ele>162</ele>
        <time>2013-03-17T09:59:40Z</time>
      </trkpt>
      <trkpt lat="48.08852" lon="-4.17798">
        <ele>161</ele>
        <time>2013-03-17T09:59:43Z</time>
      </trkpt>
      <trkpt lat="48.08861" lon="-4.17799">
        <ele>159</ele>
        <time>2013-03-17T09:59:47Z</time>
      </trkpt>
      <trkpt lat="48.08868" lon="-4.178">
        <ele>159</ele>
        <time>2013-03-17T09:59:49Z</time>
      </trkpt>
      <trkpt lat="48.08869" lon="-4.17795">
        <ele>153</ele>
        <time>2013-03-17T10:00:30Z</time>
      </trkpt>
      <trkpt lat="48.08881" lon="-4.17801">
        <ele>155</ele>
        <time>2013-03-17T10:03:36Z</time>
      </trkpt>
      <trkpt lat="48.08885" lon="-4.17807">
        <ele>156</ele>
        <time>2013-03-17T10:03:38Z</time>
      </trkpt>
      <trkpt lat="48.08888" lon="-4.17813">
        <ele>156</ele>
        <time>2013-03-17T10:03:40Z</time>
      </trkpt>
      <trkpt lat="48.08893" lon="-4.17819">
        <ele>156</ele>
        <time>2013-03-17T10:03:42Z</time>
      </trkpt>
      <trkpt lat="48.08897" lon="-4.17825">
        <ele>157</ele>
        <time>2013-03-17T10:03:44Z</time>
      </trkpt>
      <trkpt lat="48.08901" lon="-4.17831">
        <ele>157</ele>
        <time>2013-03-17T10:03:46Z</time>
      </trkpt>
      <trkpt lat="48.08907" lon="-4.17839">
        <ele>156</ele>
        <time>2013-03-17T10:03:49Z</time>
      </trkpt>
      <trkpt lat="48.08912" lon="-4.17847">
        <ele>157</ele>
        <time>2013-03-17T10:03:52Z</time>
      </trkpt>
      <trkpt lat="48.08914" lon="-4.1785">
        <ele>158</ele>
        <time>2013-03-17T10:03:59Z</time>
      </trkpt>
      <trkpt lat="48.0892" lon="-4.17862">
        <ele>158</ele>
        <time>2013-03-17T10:04:28Z</time>
      </trkpt>
      <trkpt lat="48.08924" lon="-4.17866">
        <ele>157</ele>
        <time>2013-03-17T10:04:30Z</time>
      </trkpt>
      <trkpt lat="48.08929" lon="-4.17872">
        <ele>157</ele>
        <time>2013-03-17T10:04:32Z</time>
      </trkpt>
      <trkpt lat="48.08934" lon="-4.17878">
        <ele>157</ele>
        <time>2013-03-17T10:04:34Z</time>
      </trkpt>
      <trkpt lat="48.08938" lon="-4.17884">
        <ele>157</ele>
        <time>2013-03-17T10:04:36Z</time>
      </trkpt>
      <trkpt lat="48.08942" lon="-4.17891">
        <ele>157</ele>
        <time>2013-03-17T10:04:38Z</time>
      </trkpt>
      <trkpt lat="48.08945" lon="-4.17896">
        <ele>157</ele>
        <time>2013-03-17T10:04:40Z</time>
      </trkpt>
      <trkpt lat="48.08948" lon="-4.17902">
        <ele>158</ele>
        <time>2013-03-17T10:04:42Z</time>
      </trkpt>
      <trkpt lat="48.08952" lon="-4.17908">
        <ele>158</ele>
        <time>2013-03-17T10:04:44Z</time>
      </trkpt>
      <trkpt lat="48.08955" lon="-4.17912">
        <ele>159</ele>
        <time>2013-03-17T10:04:46Z</time>
      </trkpt>
      <trkpt lat="48.08963" lon="-4.17921">
        <ele>159</ele>
        <time>2013-03-17T10:04:50Z</time>
      </trkpt>
      <trkpt lat="48.08967" lon="-4.17925">
        <ele>160</ele>
        <time>2013-03-17T10:04:52Z</time>
      </trkpt>
      <trkpt lat="48.08973" lon="-4.17929">
        <ele>160</ele>
        <time>2013-03-17T10:04:55Z</time>
      </trkpt>
      <trkpt lat="48.08977" lon="-4.17931">
        <ele>160</ele>
        <time>2013-03-17T10:04:57Z</time>
      </trkpt>
      <trkpt lat="48.08982" lon="-4.17935">
        <ele>161</ele>
        <time>2013-03-17T10:04:59Z</time>
      </trkpt>
      <trkpt lat="48.08988" lon="-4.17938">
        <ele>161</ele>
        <time>2013-03-17T10:05:02Z</time>
      </trkpt>
      <trkpt lat="48.08992" lon="-4.1794">
        <ele>162</ele>
        <time>2013-03-17T10:05:04Z</time>
      </trkpt>
      <trkpt lat="48.08997" lon="-4.17943">
        <ele>162</ele>
        <time>2013-03-17T10:05:06Z</time>
      </trkpt>
      <trkpt lat="48.09001" lon="-4.17946">
        <ele>162</ele>
        <time>2013-03-17T10:05:08Z</time>
      </trkpt>
      <trkpt lat="48.09007" lon="-4.17949">
        <ele>163</ele>
        <time>2013-03-17T10:05:11Z</time>
      </trkpt>
      <trkpt lat="48.09012" lon="-4.17951">
        <ele>163</ele>
        <time>2013-03-17T10:05:13Z</time>
      </trkpt>
      <trkpt lat="48.09018" lon="-4.17953">
        <ele>163</ele>
        <time>2013-03-17T10:05:16Z</time>
      </trkpt>
      <trkpt lat="48.09023" lon="-4.17956">
        <ele>164</ele>
        <time>2013-03-17T10:05:18Z</time>
      </trkpt>
      <trkpt lat="48.09027" lon="-4.17958">
        <ele>164</ele>
        <time>2013-03-17T10:05:20Z</time>
      </trkpt>
      <trkpt lat="48.09032" lon="-4.17961">
        <ele>165</ele>
        <time>2013-03-17T10:05:23Z</time>
      </trkpt>
      <trkpt lat="48.09038" lon="-4.17964">
        <ele>166</ele>
        <time>2013-03-17T10:05:26Z</time>
      </trkpt>
      <trkpt lat="48.09044" lon="-4.17967">
        <ele>167</ele>
        <time>2013-03-17T10:05:29Z</time>
      </trkpt>
      <trkpt lat="48.0905" lon="-4.1797">
        <ele>167</ele>
        <time>2013-03-17T10:05:32Z</time>
      </trkpt>
      <trkpt lat="48.09056" lon="-4.17974">
        <ele>167</ele>
        <time>2013-03-17T10:05:35Z</time>
      </trkpt>
      <trkpt lat="48.09062" lon="-4.17977">
        <ele>168</ele>
        <time>2013-03-17T10:05:38Z</time>
      </trkpt>
      <trkpt lat="48.09068" lon="-4.17979">
        <ele>168</ele>
        <time>2013-03-17T10:05:41Z</time>
      </trkpt>
      <trkpt lat="48.09073" lon="-4.17981">
        <ele>168</ele>
        <time>2013-03-17T10:05:43Z</time>
      </trkpt>
      <trkpt lat="48.09079" lon="-4.17983">
        <ele>169</ele>
        <time>2013-03-17T10:05:46Z</time>
      </trkpt>
      <trkpt lat="48.09085" lon="-4.17986">
        <ele>170</ele>
        <time>2013-03-17T10:05:49Z</time>
      </trkpt>
      <trkpt lat="48.09091" lon="-4.17988">
        <ele>170</ele>
        <time>2013-03-17T10:05:52Z</time>
      </trkpt>
      <trkpt lat="48.09097" lon="-4.17991">
        <ele>171</ele>
        <time>2013-03-17T10:05:55Z</time>
      </trkpt>
      <trkpt lat="48.09103" lon="-4.17993">
        <ele>172</ele>
        <time>2013-03-17T10:05:58Z</time>
      </trkpt>
      <trkpt lat="48.09109" lon="-4.17994">
        <ele>173</ele>
        <time>2013-03-17T10:06:01Z</time>
      </trkpt>
      <trkpt lat="48.09115" lon="-4.17996">
        <ele>174</ele>
        <time>2013-03-17T10:06:04Z</time>
      </trkpt>
      <trkpt lat="48.0912" lon="-4.17997">
        <ele>174</ele>
        <time>2013-03-17T10:06:07Z</time>
      </trkpt>
      <trkpt lat="48.09126" lon="-4.17998">
        <ele>174</ele>
        <time>2013-03-17T10:06:10Z</time>
      </trkpt>
      <trkpt lat="48.09131" lon="-4.17997">
        <ele>175</ele>
        <time>2013-03-17T10:06:12Z</time>
      </trkpt>
      <trkpt lat="48.09141" lon="-4.17993">
        <ele>175</ele>
        <time>2013-03-17T10:06:17Z</time>
      </trkpt>
      <trkpt lat="48.09147" lon="-4.17991">
        <ele>176</ele>
        <time>2013-03-17T10:06:20Z</time>
      </trkpt>
      <trkpt lat="48.09153" lon="-4.17992">
        <ele>177</ele>
        <time>2013-03-17T10:06:23Z</time>
      </trkpt>
      <trkpt lat="48.09157" lon="-4.17996">
        <ele>177</ele>
        <time>2013-03-17T10:06:25Z</time>
      </trkpt>
      <trkpt lat="48.09159" lon="-4.18003">
        <ele>178</ele>
        <time>2013-03-17T10:06:28Z</time>
      </trkpt>
      <trkpt lat="48.09159" lon="-4.18012">
        <ele>179</ele>
        <time>2013-03-17T10:06:31Z</time>
      </trkpt>
      <trkpt lat="48.09157" lon="-4.18019">
        <ele>180</ele>
        <time>2013-03-17T10:06:33Z</time>
      </trkpt>
      <trkpt lat="48.09154" lon="-4.18027">
        <ele>181</ele>
        <time>2013-03-17T10:06:36Z</time>
      </trkpt>
      <trkpt lat="48.09152" lon="-4.18034">
        <ele>182</ele>
        <time>2013-03-17T10:06:39Z</time>
      </trkpt>
      <trkpt lat="48.09149" lon="-4.1804">
        <ele>183</ele>
        <time>2013-03-17T10:06:41Z</time>
      </trkpt>
      <trkpt lat="48.09146" lon="-4.18048">
        <ele>185</ele>
        <time>2013-03-17T10:06:44Z</time>
      </trkpt>
      <trkpt lat="48.09145" lon="-4.18058">
        <ele>186</ele>
        <time>2013-03-17T10:06:47Z</time>
      </trkpt>
      <trkpt lat="48.09146" lon="-4.18066">
        <ele>186</ele>
        <time>2013-03-17T10:06:49Z</time>
      </trkpt>
      <trkpt lat="48.09147" lon="-4.18075">
        <ele>185</ele>
        <time>2013-03-17T10:06:52Z</time>
      </trkpt>
      <trkpt lat="48.09149" lon="-4.18084">
        <ele>184</ele>
        <time>2013-03-17T10:06:55Z</time>
      </trkpt>
      <trkpt lat="48.0915" lon="-4.18091">
        <ele>184</ele>
        <time>2013-03-17T10:06:57Z</time>
      </trkpt>
      <trkpt lat="48.09151" lon="-4.18099">
        <ele>184</ele>
        <time>2013-03-17T10:06:59Z</time>
      </trkpt>
      <trkpt lat="48.09152" lon="-4.18107">
        <ele>184</ele>
        <time>2013-03-17T10:07:01Z</time>
      </trkpt>
      <trkpt lat="48.09152" lon="-4.18114">
        <ele>184</ele>
        <time>2013-03-17T10:07:03Z</time>
      </trkpt>
      <trkpt lat="48.09154" lon="-4.18122">
        <ele>184</ele>
        <time>2013-03-17T10:07:06Z</time>
      </trkpt>
      <trkpt lat="48.09155" lon="-4.18134">
        <ele>185</ele>
        <time>2013-03-17T10:07:10Z</time>
      </trkpt>
      <trkpt lat="48.09155" lon="-4.18143">
        <ele>185</ele>
        <time>2013-03-17T10:07:13Z</time>
      </trkpt>
      <trkpt lat="48.09157" lon="-4.18151">
        <ele>185</ele>
        <time>2013-03-17T10:07:16Z</time>
      </trkpt>
      <trkpt lat="48.09158" lon="-4.18161">
        <ele>185</ele>
        <time>2013-03-17T10:07:20Z</time>
      </trkpt>
      <trkpt lat="48.09157" lon="-4.18171">
        <ele>186</ele>
        <time>2013-03-17T10:07:23Z</time>
      </trkpt>
      <trkpt lat="48.09158" lon="-4.18178">
        <ele>187</ele>
        <time>2013-03-17T10:07:25Z</time>
      </trkpt>
      <trkpt lat="48.09159" lon="-4.18187">
        <ele>188</ele>
        <time>2013-03-17T10:07:27Z</time>
      </trkpt>
      <trkpt lat="48.0916" lon="-4.18197">
        <ele>189</ele>
        <time>2013-03-17T10:07:30Z</time>
      </trkpt>
      <trkpt lat="48.09161" lon="-4.18204">
        <ele>190</ele>
        <time>2013-03-17T10:07:32Z</time>
      </trkpt>
      <trkpt lat="48.09161" lon="-4.18213">
        <ele>191</ele>
        <time>2013-03-17T10:07:35Z</time>
      </trkpt>
      <trkpt lat="48.09162" lon="-4.18224">
        <ele>193</ele>
        <time>2013-03-17T10:07:39Z</time>
      </trkpt>
      <trkpt lat="48.09163" lon="-4.18233">
        <ele>193</ele>
        <time>2013-03-17T10:07:42Z</time>
      </trkpt>
      <trkpt lat="48.09164" lon="-4.18243">
        <ele>194</ele>
        <time>2013-03-17T10:07:45Z</time>
      </trkpt>
      <trkpt lat="48.09166" lon="-4.18252">
        <ele>194</ele>
        <time>2013-03-17T10:07:48Z</time>
      </trkpt>
      <trkpt lat="48.09166" lon="-4.18262">
        <ele>195</ele>
        <time>2013-03-17T10:07:51Z</time>
      </trkpt>
      <trkpt lat="48.09167" lon="-4.18269">
        <ele>196</ele>
        <time>2013-03-17T10:07:54Z</time>
      </trkpt>
      <trkpt lat="48.09169" lon="-4.18278">
        <ele>197</ele>
        <time>2013-03-17T10:07:57Z</time>
      </trkpt>
      <trkpt lat="48.09169" lon="-4.18288">
        <ele>197</ele>
        <time>2013-03-17T10:08:00Z</time>
      </trkpt>
      <trkpt lat="48.09171" lon="-4.18296">
        <ele>197</ele>
        <time>2013-03-17T10:08:03Z</time>
      </trkpt>
      <trkpt lat="48.09172" lon="-4.18305">
        <ele>197</ele>
        <time>2013-03-17T10:08:06Z</time>
      </trkpt>
      <trkpt lat="48.09173" lon="-4.18315">
        <ele>196</ele>
        <time>2013-03-17T10:08:09Z</time>
      </trkpt>
      <trkpt lat="48.09174" lon="-4.18324">
        <ele>196</ele>
        <time>2013-03-17T10:08:12Z</time>
      </trkpt>
      <trkpt lat="48.09176" lon="-4.18338">
        <ele>196</ele>
        <time>2013-03-17T10:08:17Z</time>
      </trkpt>
      <trkpt lat="48.09177" lon="-4.18347">
        <ele>196</ele>
        <time>2013-03-17T10:08:20Z</time>
      </trkpt>
      <trkpt lat="48.09178" lon="-4.18353">
        <ele>196</ele>
        <time>2013-03-17T10:08:22Z</time>
      </trkpt>
      <trkpt lat="48.09179" lon="-4.18363">
        <ele>197</ele>
        <time>2013-03-17T10:08:25Z</time>
      </trkpt>
      <trkpt lat="48.0918" lon="-4.18371">
        <ele>197</ele>
        <time>2013-03-17T10:08:28Z</time>
      </trkpt>
      <trkpt lat="48.09179" lon="-4.18379">
        <ele>198</ele>
        <time>2013-03-17T10:08:31Z</time>
      </trkpt>
      <trkpt lat="48.0918" lon="-4.18387">
        <ele>199</ele>
        <time>2013-03-17T10:08:34Z</time>
      </trkpt>
      <trkpt lat="48.0918" lon="-4.18395">
        <ele>201</ele>
        <time>2013-03-17T10:08:37Z</time>
      </trkpt>
      <trkpt lat="48.09181" lon="-4.18405">
        <ele>203</ele>
        <time>2013-03-17T10:08:40Z</time>
      </trkpt>
      <trkpt lat="48.09181" lon="-4.18413">
        <ele>205</ele>
        <time>2013-03-17T10:08:43Z</time>
      </trkpt>
      <trkpt lat="48.09181" lon="-4.18421">
        <ele>206</ele>
        <time>2013-03-17T10:08:46Z</time>
      </trkpt>
      <trkpt lat="48.09182" lon="-4.1843">
        <ele>207</ele>
        <time>2013-03-17T10:08:49Z</time>
      </trkpt>
      <trkpt lat="48.09182" lon="-4.18437">
        <ele>208</ele>
        <time>2013-03-17T10:08:52Z</time>
      </trkpt>
      <trkpt lat="48.09183" lon="-4.18445">
        <ele>210</ele>
        <time>2013-03-17T10:08:55Z</time>
      </trkpt>
      <trkpt lat="48.09184" lon="-4.18454">
        <ele>211</ele>
        <time>2013-03-17T10:08:58Z</time>
      </trkpt>
      <trkpt lat="48.09186" lon="-4.18464">
        <ele>212</ele>
        <time>2013-03-17T10:09:02Z</time>
      </trkpt>
      <trkpt lat="48.09188" lon="-4.18472">
        <ele>212</ele>
        <time>2013-03-17T10:09:05Z</time>
      </trkpt>
      <trkpt lat="48.09192" lon="-4.18487">
        <ele>213</ele>
        <time>2013-03-17T10:09:10Z</time>
      </trkpt>
      <trkpt lat="48.09194" lon="-4.18494">
        <ele>214</ele>
        <time>2013-03-17T10:09:12Z</time>
      </trkpt>
      <trkpt lat="48.09195" lon="-4.18501">
        <ele>214</ele>
        <time>2013-03-17T10:09:14Z</time>
      </trkpt>
      <trkpt lat="48.09196" lon="-4.18509">
        <ele>214</ele>
        <time>2013-03-17T10:09:16Z</time>
      </trkpt>
      <trkpt lat="48.09197" lon="-4.18516">
        <ele>214</ele>
        <time>2013-03-17T10:09:18Z</time>
      </trkpt>
      <trkpt lat="48.09199" lon="-4.18523">
        <ele>214</ele>
        <time>2013-03-17T10:09:20Z</time>
      </trkpt>
      <trkpt lat="48.09201" lon="-4.18532">
        <ele>215</ele>
        <time>2013-03-17T10:09:23Z</time>
      </trkpt>
      <trkpt lat="48.09203" lon="-4.18541">
        <ele>216</ele>
        <time>2013-03-17T10:09:26Z</time>
      </trkpt>
      <trkpt lat="48.09204" lon="-4.18551">
        <ele>216</ele>
        <time>2013-03-17T10:09:29Z</time>
      </trkpt>
      <trkpt lat="48.09205" lon="-4.18561">
        <ele>217</ele>
        <time>2013-03-17T10:09:32Z</time>
      </trkpt>
      <trkpt lat="48.09207" lon="-4.18569">
        <ele>218</ele>
        <time>2013-03-17T10:09:35Z</time>
      </trkpt>
      <trkpt lat="48.09209" lon="-4.18578">
        <ele>219</ele>
        <time>2013-03-17T10:09:38Z</time>
      </trkpt>
      <trkpt lat="48.0921" lon="-4.18585">
        <ele>220</ele>
        <time>2013-03-17T10:09:40Z</time>
      </trkpt>
      <trkpt lat="48.09212" lon="-4.18594">
        <ele>220</ele>
        <time>2013-03-17T10:09:43Z</time>
      </trkpt>
      <trkpt lat="48.09214" lon="-4.18601">
        <ele>221</ele>
        <time>2013-03-17T10:09:45Z</time>
      </trkpt>
      <trkpt lat="48.09217" lon="-4.1861">
        <ele>222</ele>
        <time>2013-03-17T10:09:47Z</time>
      </trkpt>
      <trkpt lat="48.09221" lon="-4.18619">
        <ele>221</ele>
        <time>2013-03-17T10:09:49Z</time>
      </trkpt>
      <trkpt lat="48.09226" lon="-4.18627">
        <ele>221</ele>
        <time>2013-03-17T10:09:51Z</time>
      </trkpt>
      <trkpt lat="48.0923" lon="-4.18634">
        <ele>220</ele>
        <time>2013-03-17T10:09:53Z</time>
      </trkpt>
      <trkpt lat="48.09234" lon="-4.18642">
        <ele>219</ele>
        <time>2013-03-17T10:09:55Z</time>
      </trkpt>
      <trkpt lat="48.09241" lon="-4.18652">
        <ele>218</ele>
        <time>2013-03-17T10:09:58Z</time>
      </trkpt>
      <trkpt lat="48.09247" lon="-4.1866">
        <ele>217</ele>
        <time>2013-03-17T10:10:00Z</time>
      </trkpt>
      <trkpt lat="48.0925" lon="-4.18665">
        <ele>217</ele>
        <time>2013-03-17T10:10:01Z</time>
      </trkpt>
      <trkpt lat="48.09255" lon="-4.18673">
        <ele>217</ele>
        <time>2013-03-17T10:10:03Z</time>
      </trkpt>
      <trkpt lat="48.09259" lon="-4.18678">
        <ele>216</ele>
        <time>2013-03-17T10:10:04Z</time>
      </trkpt>
      <trkpt lat="48.09263" lon="-4.18687">
        <ele>216</ele>
        <time>2013-03-17T10:10:06Z</time>
      </trkpt>
      <trkpt lat="48.09268" lon="-4.18693">
        <ele>216</ele>
        <time>2013-03-17T10:10:08Z</time>
      </trkpt>
      <trkpt lat="48.09272" lon="-4.187">
        <ele>217</ele>
        <time>2013-03-17T10:10:10Z</time>
      </trkpt>
      <trkpt lat="48.09277" lon="-4.18707">
        <ele>217</ele>
        <time>2013-03-17T10:10:12Z</time>
      </trkpt>
      <trkpt lat="48.09281" lon="-4.18712">
        <ele>217</ele>
        <time>2013-03-17T10:10:14Z</time>
      </trkpt>
      <trkpt lat="48.09284" lon="-4.18719">
        <ele>217</ele>
        <time>2013-03-17T10:10:16Z</time>
      </trkpt>
      <trkpt lat="48.09288" lon="-4.18726">
        <ele>217</ele>
        <time>2013-03-17T10:10:18Z</time>
      </trkpt>
      <trkpt lat="48.09292" lon="-4.18732">
        <ele>217</ele>
        <time>2013-03-17T10:10:20Z</time>
      </trkpt>
      <trkpt lat="48.09295" lon="-4.18738">
        <ele>216</ele>
        <time>2013-03-17T10:10:22Z</time>
      </trkpt>
      <trkpt lat="48.09298" lon="-4.18744">
        <ele>216</ele>
        <time>2013-03-17T10:10:24Z</time>
      </trkpt>
      <trkpt lat="48.09302" lon="-4.18752">
        <ele>216</ele>
        <time>2013-03-17T10:10:26Z</time>
      </trkpt>
      <trkpt lat="48.09306" lon="-4.1876">
        <ele>216</ele>
        <time>2013-03-17T10:10:28Z</time>
      </trkpt>
      <trkpt lat="48.09311" lon="-4.18767">
        <ele>216</ele>
        <time>2013-03-17T10:10:30Z</time>
      </trkpt>
      <trkpt lat="48.09315" lon="-4.18774">
        <ele>216</ele>
        <time>2013-03-17T10:10:32Z</time>
      </trkpt>
      <trkpt lat="48.0932" lon="-4.18782">
        <ele>216</ele>
        <time>2013-03-17T10:10:34Z</time>
      </trkpt>
      <trkpt lat="48.09325" lon="-4.1879">
        <ele>216</ele>
        <time>2013-03-17T10:10:36Z</time>
      </trkpt>
      <trkpt lat="48.0933" lon="-4.18799">
        <ele>216</ele>
        <time>2013-03-17T10:10:38Z</time>
      </trkpt>
      <trkpt lat="48.09334" lon="-4.18808">
        <ele>216</ele>
        <time>2013-03-17T10:10:40Z</time>
      </trkpt>
      <trkpt lat="48.09339" lon="-4.18816">
        <ele>216</ele>
        <time>2013-03-17T10:10:42Z</time>
      </trkpt>
      <trkpt lat="48.09343" lon="-4.18825">
        <ele>217</ele>
        <time>2013-03-17T10:10:44Z</time>
      </trkpt>
      <trkpt lat="48.09347" lon="-4.18833">
        <ele>217</ele>
        <time>2013-03-17T10:10:46Z</time>
      </trkpt>
      <trkpt lat="48.09351" lon="-4.18842">
        <ele>217</ele>
        <time>2013-03-17T10:10:48Z</time>
      </trkpt>
      <trkpt lat="48.09354" lon="-4.18852">
        <ele>218</ele>
        <time>2013-03-17T10:10:50Z</time>
      </trkpt>
      <trkpt lat="48.09356" lon="-4.1886">
        <ele>219</ele>
        <time>2013-03-17T10:10:52Z</time>
      </trkpt>
      <trkpt lat="48.09357" lon="-4.18868">
        <ele>219</ele>
        <time>2013-03-17T10:10:54Z</time>
      </trkpt>
      <trkpt lat="48.09359" lon="-4.18877">
        <ele>219</ele>
        <time>2013-03-17T10:10:57Z</time>
      </trkpt>
      <trkpt lat="48.09357" lon="-4.18884">
        <ele>221</ele>
        <time>2013-03-17T10:11:08Z</time>
      </trkpt>
      <trkpt lat="48.09353" lon="-4.1889">
        <ele>222</ele>
        <time>2013-03-17T10:11:11Z</time>
      </trkpt>
      <trkpt lat="48.0935" lon="-4.18897">
        <ele>223</ele>
        <time>2013-03-17T10:11:14Z</time>
      </trkpt>
      <trkpt lat="48.09346" lon="-4.18906">
        <ele>223</ele>
        <time>2013-03-17T10:11:17Z</time>
      </trkpt>
      <trkpt lat="48.09343" lon="-4.18913">
        <ele>223</ele>
        <time>2013-03-17T10:11:19Z</time>
      </trkpt>
      <trkpt lat="48.09339" lon="-4.18919">
        <ele>223</ele>
        <time>2013-03-17T10:11:21Z</time>
      </trkpt>
      <trkpt lat="48.09335" lon="-4.18926">
        <ele>223</ele>
        <time>2013-03-17T10:11:23Z</time>
      </trkpt>
      <trkpt lat="48.09331" lon="-4.18935">
        <ele>223</ele>
        <time>2013-03-17T10:11:25Z</time>
      </trkpt>
      <trkpt lat="48.09327" lon="-4.18944">
        <ele>223</ele>
        <time>2013-03-17T10:11:27Z</time>
      </trkpt>
      <trkpt lat="48.09323" lon="-4.18954">
        <ele>222</ele>
        <time>2013-03-17T10:11:29Z</time>
      </trkpt>
      <trkpt lat="48.0932" lon="-4.18966">
        <ele>222</ele>
        <time>2013-03-17T10:11:31Z</time>
      </trkpt>
      <trkpt lat="48.09318" lon="-4.18977">
        <ele>221</ele>
        <time>2013-03-17T10:11:33Z</time>
      </trkpt>
      <trkpt lat="48.09317" lon="-4.18987">
        <ele>221</ele>
        <time>2013-03-17T10:11:35Z</time>
      </trkpt>
      <trkpt lat="48.09315" lon="-4.18998">
        <ele>220</ele>
        <time>2013-03-17T10:11:37Z</time>
      </trkpt>
      <trkpt lat="48.09314" lon="-4.19008">
        <ele>219</ele>
        <time>2013-03-17T10:11:39Z</time>
      </trkpt>
      <trkpt lat="48.09314" lon="-4.19018">
        <ele>219</ele>
        <time>2013-03-17T10:11:41Z</time>
      </trkpt>
      <trkpt lat="48.09312" lon="-4.19027">
        <ele>218</ele>
        <time>2013-03-17T10:11:43Z</time>
      </trkpt>
      <trkpt lat="48.0931" lon="-4.19039">
        <ele>218</ele>
        <time>2013-03-17T10:11:45Z</time>
      </trkpt>
      <trkpt lat="48.09309" lon="-4.19046">
        <ele>217</ele>
        <time>2013-03-17T10:11:46Z</time>
      </trkpt>
      <trkpt lat="48.09307" lon="-4.19053">
        <ele>217</ele>
        <time>2013-03-17T10:11:47Z</time>
      </trkpt>
      <trkpt lat="48.09305" lon="-4.1906">
        <ele>217</ele>
        <time>2013-03-17T10:11:48Z</time>
      </trkpt>
      <trkpt lat="48.09303" lon="-4.19068">
        <ele>216</ele>
        <time>2013-03-17T10:11:49Z</time>
      </trkpt>
      <trkpt lat="48.09301" lon="-4.19075">
        <ele>216</ele>
        <time>2013-03-17T10:11:50Z</time>
      </trkpt>
      <trkpt lat="48.093" lon="-4.19082">
        <ele>215</ele>
        <time>2013-03-17T10:11:51Z</time>
      </trkpt>
      <trkpt lat="48.09299" lon="-4.1909">
        <ele>215</ele>
        <time>2013-03-17T10:11:52Z</time>
      </trkpt>
      <trkpt lat="48.09297" lon="-4.19097">
        <ele>214</ele>
        <time>2013-03-17T10:11:53Z</time>
      </trkpt>
      <trkpt lat="48.09296" lon="-4.19104">
        <ele>214</ele>
        <time>2013-03-17T10:11:54Z</time>
      </trkpt>
      <trkpt lat="48.09292" lon="-4.19122">
        <ele>212</ele>
        <time>2013-03-17T10:11:57Z</time>
      </trkpt>
      <trkpt lat="48.09291" lon="-4.19134">
        <ele>212</ele>
        <time>2013-03-17T10:11:59Z</time>
      </trkpt>
      <trkpt lat="48.0929" lon="-4.19142">
        <ele>212</ele>
        <time>2013-03-17T10:12:00Z</time>
      </trkpt>
      <trkpt lat="48.09289" lon="-4.1915">
        <ele>212</ele>
        <time>2013-03-17T10:12:01Z</time>
      </trkpt>
      <trkpt lat="48.09288" lon="-4.19157">
        <ele>212</ele>
        <time>2013-03-17T10:12:02Z</time>
      </trkpt>
      <trkpt lat="48.09286" lon="-4.19169">
        <ele>212</ele>
        <time>2013-03-17T10:12:04Z</time>
      </trkpt>
      <trkpt lat="48.09283" lon="-4.19182">
        <ele>211</ele>
        <time>2013-03-17T10:12:06Z</time>
      </trkpt>
      <trkpt lat="48.09281" lon="-4.19193">
        <ele>211</ele>
        <time>2013-03-17T10:12:08Z</time>
      </trkpt>
      <trkpt lat="48.0928" lon="-4.192">
        <ele>211</ele>
        <time>2013-03-17T10:12:09Z</time>
      </trkpt>
      <trkpt lat="48.09277" lon="-4.19212">
        <ele>210</ele>
        <time>2013-03-17T10:12:11Z</time>
      </trkpt>
      <trkpt lat="48.09275" lon="-4.19218">
        <ele>210</ele>
        <time>2013-03-17T10:12:12Z</time>
      </trkpt>
      <trkpt lat="48.09271" lon="-4.19227">
        <ele>210</ele>
        <time>2013-03-17T10:12:14Z</time>
      </trkpt>
      <trkpt lat="48.09266" lon="-4.19239">
        <ele>209</ele>
        <time>2013-03-17T10:12:16Z</time>
      </trkpt>
      <trkpt lat="48.09264" lon="-4.19246">
        <ele>209</ele>
        <time>2013-03-17T10:12:17Z</time>
      </trkpt>
      <trkpt lat="48.09261" lon="-4.19252">
        <ele>208</ele>
        <time>2013-03-17T10:12:18Z</time>
      </trkpt>
      <trkpt lat="48.09258" lon="-4.19259">
        <ele>208</ele>
        <time>2013-03-17T10:12:19Z</time>
      </trkpt>
      <trkpt lat="48.09255" lon="-4.19265">
        <ele>208</ele>
        <time>2013-03-17T10:12:20Z</time>
      </trkpt>
      <trkpt lat="48.09252" lon="-4.19273">
        <ele>207</ele>
        <time>2013-03-17T10:12:21Z</time>
      </trkpt>
      <trkpt lat="48.09248" lon="-4.1928">
        <ele>207</ele>
        <time>2013-03-17T10:12:22Z</time>
      </trkpt>
      <trkpt lat="48.09245" lon="-4.19287">
        <ele>206</ele>
        <time>2013-03-17T10:12:23Z</time>
      </trkpt>
      <trkpt lat="48.09242" lon="-4.19293">
        <ele>206</ele>
        <time>2013-03-17T10:12:24Z</time>
      </trkpt>
      <trkpt lat="48.09239" lon="-4.19299">
        <ele>206</ele>
        <time>2013-03-17T10:12:25Z</time>
      </trkpt>
      <trkpt lat="48.09236" lon="-4.19306">
        <ele>205</ele>
        <time>2013-03-17T10:12:26Z</time>
      </trkpt>
      <trkpt lat="48.09232" lon="-4.19312">
        <ele>205</ele>
        <time>2013-03-17T10:12:27Z</time>
      </trkpt>
      <trkpt lat="48.09227" lon="-4.19324">
        <ele>204</ele>
        <time>2013-03-17T10:12:29Z</time>
      </trkpt>
      <trkpt lat="48.09224" lon="-4.1933">
        <ele>203</ele>
        <time>2013-03-17T10:12:30Z</time>
      </trkpt>
      <trkpt lat="48.09221" lon="-4.19336">
        <ele>203</ele>
        <time>2013-03-17T10:12:31Z</time>
      </trkpt>
      <trkpt lat="48.09219" lon="-4.19342">
        <ele>202</ele>
        <time>2013-03-17T10:12:32Z</time>
      </trkpt>
      <trkpt lat="48.09215" lon="-4.19354">
        <ele>201</ele>
        <time>2013-03-17T10:12:34Z</time>
      </trkpt>
      <trkpt lat="48.09212" lon="-4.19363">
        <ele>200</ele>
        <time>2013-03-17T10:12:36Z</time>
      </trkpt>
      <trkpt lat="48.09211" lon="-4.19375">
        <ele>200</ele>
        <time>2013-03-17T10:12:39Z</time>
      </trkpt>
      <trkpt lat="48.09212" lon="-4.19388">
        <ele>199</ele>
        <time>2013-03-17T10:12:41Z</time>
      </trkpt>
      <trkpt lat="48.09219" lon="-4.19406">
        <ele>198</ele>
        <time>2013-03-17T10:12:44Z</time>
      </trkpt>
      <trkpt lat="48.09222" lon="-4.19411">
        <ele>197</ele>
        <time>2013-03-17T10:12:45Z</time>
      </trkpt>
      <trkpt lat="48.0923" lon="-4.19418">
        <ele>196</ele>
        <time>2013-03-17T10:12:47Z</time>
      </trkpt>
      <trkpt lat="48.09234" lon="-4.19422">
        <ele>195</ele>
        <time>2013-03-17T10:12:48Z</time>
      </trkpt>
      <trkpt lat="48.09239" lon="-4.19425">
        <ele>195</ele>
        <time>2013-03-17T10:12:49Z</time>
      </trkpt>
      <trkpt lat="48.09245" lon="-4.19429">
        <ele>194</ele>
        <time>2013-03-17T10:12:50Z</time>
      </trkpt>
      <trkpt lat="48.09256" lon="-4.19436">
        <ele>194</ele>
        <time>2013-03-17T10:12:52Z</time>
      </trkpt>
      <trkpt lat="48.09266" lon="-4.19443">
        <ele>194</ele>
        <time>2013-03-17T10:12:54Z</time>
      </trkpt>
      <trkpt lat="48.09276" lon="-4.19449">
        <ele>193</ele>
        <time>2013-03-17T10:12:56Z</time>
      </trkpt>
      <trkpt lat="48.09287" lon="-4.19456">
        <ele>190</ele>
        <time>2013-03-17T10:12:59Z</time>
      </trkpt>
      <trkpt lat="48.09292" lon="-4.1946">
        <ele>189</ele>
        <time>2013-03-17T10:13:01Z</time>
      </trkpt>
      <trkpt lat="48.09297" lon="-4.19465">
        <ele>187</ele>
        <time>2013-03-17T10:13:03Z</time>
      </trkpt>
      <trkpt lat="48.09301" lon="-4.19469">
        <ele>187</ele>
        <time>2013-03-17T10:13:05Z</time>
      </trkpt>
      <trkpt lat="48.09307" lon="-4.19474">
        <ele>187</ele>
        <time>2013-03-17T10:13:08Z</time>
      </trkpt>
      <trkpt lat="48.09315" lon="-4.19484">
        <ele>186</ele>
        <time>2013-03-17T10:13:13Z</time>
      </trkpt>
      <trkpt lat="48.09319" lon="-4.19493">
        <ele>187</ele>
        <time>2013-03-17T10:13:17Z</time>
      </trkpt>
      <trkpt lat="48.09318" lon="-4.19507">
        <ele>188</ele>
        <time>2013-03-17T10:13:22Z</time>
      </trkpt>
      <trkpt lat="48.09316" lon="-4.19514">
        <ele>189</ele>
        <time>2013-03-17T10:13:24Z</time>
      </trkpt>
      <trkpt lat="48.09313" lon="-4.1952">
        <ele>189</ele>
        <time>2013-03-17T10:13:26Z</time>
      </trkpt>
      <trkpt lat="48.09311" lon="-4.19526">
        <ele>189</ele>
        <time>2013-03-17T10:13:28Z</time>
      </trkpt>
      <trkpt lat="48.09308" lon="-4.19531">
        <ele>190</ele>
        <time>2013-03-17T10:13:30Z</time>
      </trkpt>
      <trkpt lat="48.09305" lon="-4.19537">
        <ele>190</ele>
        <time>2013-03-17T10:13:32Z</time>
      </trkpt>
      <trkpt lat="48.09302" lon="-4.19543">
        <ele>191</ele>
        <time>2013-03-17T10:13:34Z</time>
      </trkpt>
      <trkpt lat="48.09298" lon="-4.1955">
        <ele>192</ele>
        <time>2013-03-17T10:13:37Z</time>
      </trkpt>
      <trkpt lat="48.09294" lon="-4.19557">
        <ele>193</ele>
        <time>2013-03-17T10:13:40Z</time>
      </trkpt>
      <trkpt lat="48.09291" lon="-4.19565">
        <ele>194</ele>
        <time>2013-03-17T10:13:43Z</time>
      </trkpt>
      <trkpt lat="48.09285" lon="-4.19579">
        <ele>195</ele>
        <time>2013-03-17T10:13:49Z</time>
      </trkpt>
      <trkpt lat="48.09283" lon="-4.19586">
        <ele>196</ele>
        <time>2013-03-17T10:13:52Z</time>
      </trkpt>
      <trkpt lat="48.0928" lon="-4.19594">
        <ele>197</ele>
        <time>2013-03-17T10:13:55Z</time>
      </trkpt>
      <trkpt lat="48.09277" lon="-4.19602">
        <ele>197</ele>
        <time>2013-03-17T10:13:58Z</time>
      </trkpt>
      <trkpt lat="48.09275" lon="-4.1961">
        <ele>198</ele>
        <time>2013-03-17T10:14:01Z</time>
      </trkpt>
      <trkpt lat="48.09273" lon="-4.19618">
        <ele>198</ele>
        <time>2013-03-17T10:14:04Z</time>
      </trkpt>
      <trkpt lat="48.09271" lon="-4.19625">
        <ele>198</ele>
        <time>2013-03-17T10:14:07Z</time>
      </trkpt>
      <trkpt lat="48.09268" lon="-4.19632">
        <ele>199</ele>
        <time>2013-03-17T10:14:11Z</time>
      </trkpt>
      <trkpt lat="48.09267" lon="-4.19639">
        <ele>199</ele>
        <time>2013-03-17T10:14:14Z</time>
      </trkpt>
      <trkpt lat="48.09267" lon="-4.19647">
        <ele>199</ele>
        <time>2013-03-17T10:14:17Z</time>
      </trkpt>
      <trkpt lat="48.0927" lon="-4.19654">
        <ele>200</ele>
        <time>2013-03-17T10:14:22Z</time>
      </trkpt>
      <trkpt lat="48.09274" lon="-4.19661">
        <ele>201</ele>
        <time>2013-03-17T10:14:35Z</time>
      </trkpt>
      <trkpt lat="48.09277" lon="-4.19668">
        <ele>201</ele>
        <time>2013-03-17T10:14:41Z</time>
      </trkpt>
      <trkpt lat="48.09281" lon="-4.19672">
        <ele>202</ele>
        <time>2013-03-17T10:14:50Z</time>
      </trkpt>
      <trkpt lat="48.09284" lon="-4.19678">
        <ele>202</ele>
        <time>2013-03-17T10:14:56Z</time>
      </trkpt>
      <trkpt lat="48.09288" lon="-4.19683">
        <ele>203</ele>
        <time>2013-03-17T10:15:02Z</time>
      </trkpt>
      <trkpt lat="48.0929" lon="-4.19689">
        <ele>206</ele>
        <time>2013-03-17T10:15:09Z</time>
      </trkpt>
      <trkpt lat="48.09294" lon="-4.19693">
        <ele>207</ele>
        <time>2013-03-17T10:15:14Z</time>
      </trkpt>
      <trkpt lat="48.09298" lon="-4.19699">
        <ele>207</ele>
        <time>2013-03-17T10:15:19Z</time>
      </trkpt>
      <trkpt lat="48.09303" lon="-4.19704">
        <ele>206</ele>
        <time>2013-03-17T10:15:30Z</time>
      </trkpt>
      <trkpt lat="48.09307" lon="-4.19706">
        <ele>206</ele>
        <time>2013-03-17T10:15:34Z</time>
      </trkpt>
      <trkpt lat="48.09313" lon="-4.19709">
        <ele>206</ele>
        <time>2013-03-17T10:15:38Z</time>
      </trkpt>
      <trkpt lat="48.09318" lon="-4.19712">
        <ele>206</ele>
        <time>2013-03-17T10:15:41Z</time>
      </trkpt>
      <trkpt lat="48.09323" lon="-4.19716">
        <ele>207</ele>
        <time>2013-03-17T10:15:44Z</time>
      </trkpt>
      <trkpt lat="48.09328" lon="-4.19719">
        <ele>208</ele>
        <time>2013-03-17T10:15:48Z</time>
      </trkpt>
      <trkpt lat="48.09333" lon="-4.19721">
        <ele>208</ele>
        <time>2013-03-17T10:15:51Z</time>
      </trkpt>
      <trkpt lat="48.09339" lon="-4.19724">
        <ele>208</ele>
        <time>2013-03-17T10:15:54Z</time>
      </trkpt>
      <trkpt lat="48.09345" lon="-4.19727">
        <ele>208</ele>
        <time>2013-03-17T10:15:57Z</time>
      </trkpt>
      <trkpt lat="48.09349" lon="-4.1973">
        <ele>208</ele>
        <time>2013-03-17T10:15:59Z</time>
      </trkpt>
      <trkpt lat="48.09354" lon="-4.19734">
        <ele>208</ele>
        <time>2013-03-17T10:16:01Z</time>
      </trkpt>
      <trkpt lat="48.09359" lon="-4.19739">
        <ele>209</ele>
        <time>2013-03-17T10:16:04Z</time>
      </trkpt>
      <trkpt lat="48.09365" lon="-4.19743">
        <ele>210</ele>
        <time>2013-03-17T10:16:07Z</time>
      </trkpt>
      <trkpt lat="48.0937" lon="-4.19747">
        <ele>211</ele>
        <time>2013-03-17T10:16:10Z</time>
      </trkpt>
      <trkpt lat="48.09374" lon="-4.19752">
        <ele>211</ele>
        <time>2013-03-17T10:16:13Z</time>
      </trkpt>
      <trkpt lat="48.09376" lon="-4.19759">
        <ele>208</ele>
        <time>2013-03-17T10:16:55Z</time>
      </trkpt>
      <trkpt lat="48.0937" lon="-4.19766">
        <ele>217</ele>
        <time>2013-03-17T10:17:58Z</time>
      </trkpt>
      <trkpt lat="48.09367" lon="-4.19771">
        <ele>220</ele>
        <time>2013-03-17T10:18:01Z</time>
      </trkpt>
      <trkpt lat="48.09364" lon="-4.1978">
        <ele>221</ele>
        <time>2013-03-17T10:18:04Z</time>
      </trkpt>
      <trkpt lat="48.09362" lon="-4.19786">
        <ele>221</ele>
        <time>2013-03-17T10:18:06Z</time>
      </trkpt>
      <trkpt lat="48.0936" lon="-4.19793">
        <ele>221</ele>
        <time>2013-03-17T10:18:08Z</time>
      </trkpt>
      <trkpt lat="48.09358" lon="-4.19802">
        <ele>221</ele>
        <time>2013-03-17T10:18:10Z</time>
      </trkpt>
      <trkpt lat="48.09355" lon="-4.19809">
        <ele>221</ele>
        <time>2013-03-17T10:18:12Z</time>
      </trkpt>
      <trkpt lat="48.09352" lon="-4.19824">
        <ele>221</ele>
        <time>2013-03-17T10:18:16Z</time>
      </trkpt>
      <trkpt lat="48.0935" lon="-4.19841">
        <ele>220</ele>
        <time>2013-03-17T10:18:20Z</time>
      </trkpt>
      <trkpt lat="48.09348" lon="-4.19855">
        <ele>219</ele>
        <time>2013-03-17T10:18:23Z</time>
      </trkpt>
      <trkpt lat="48.09346" lon="-4.19872">
        <ele>217</ele>
        <time>2013-03-17T10:18:26Z</time>
      </trkpt>
      <trkpt lat="48.09341" lon="-4.19889">
        <ele>215</ele>
        <time>2013-03-17T10:18:29Z</time>
      </trkpt>
      <trkpt lat="48.09337" lon="-4.19904">
        <ele>215</ele>
        <time>2013-03-17T10:18:32Z</time>
      </trkpt>
      <trkpt lat="48.09334" lon="-4.19914">
        <ele>216</ele>
        <time>2013-03-17T10:18:34Z</time>
      </trkpt>
      <trkpt lat="48.09332" lon="-4.19923">
        <ele>216</ele>
        <time>2013-03-17T10:18:36Z</time>
      </trkpt>
      <trkpt lat="48.0933" lon="-4.19931">
        <ele>218</ele>
        <time>2013-03-17T10:18:38Z</time>
      </trkpt>
      <trkpt lat="48.09328" lon="-4.19938">
        <ele>219</ele>
        <time>2013-03-17T10:18:40Z</time>
      </trkpt>
      <trkpt lat="48.09323" lon="-4.1995">
        <ele>221</ele>
        <time>2013-03-17T10:18:44Z</time>
      </trkpt>
      <trkpt lat="48.09322" lon="-4.19957">
        <ele>223</ele>
        <time>2013-03-17T10:18:46Z</time>
      </trkpt>
      <trkpt lat="48.09319" lon="-4.19967">
        <ele>224</ele>
        <time>2013-03-17T10:18:48Z</time>
      </trkpt>
      <trkpt lat="48.09317" lon="-4.19976">
        <ele>225</ele>
        <time>2013-03-17T10:18:50Z</time>
      </trkpt>
      <trkpt lat="48.09314" lon="-4.19989">
        <ele>226</ele>
        <time>2013-03-17T10:18:54Z</time>
      </trkpt>
      <trkpt lat="48.0931" lon="-4.20004">
        <ele>224</ele>
        <time>2013-03-17T10:18:58Z</time>
      </trkpt>
      <trkpt lat="48.09309" lon="-4.20014">
        <ele>224</ele>
        <time>2013-03-17T10:19:00Z</time>
      </trkpt>
      <trkpt lat="48.09307" lon="-4.20031">
        <ele>222</ele>
        <time>2013-03-17T10:19:04Z</time>
      </trkpt>
      <trkpt lat="48.09305" lon="-4.20038">
        <ele>222</ele>
        <time>2013-03-17T10:19:06Z</time>
      </trkpt>
      <trkpt lat="48.09301" lon="-4.20051">
        <ele>222</ele>
        <time>2013-03-17T10:19:10Z</time>
      </trkpt>
      <trkpt lat="48.09299" lon="-4.20058">
        <ele>222</ele>
        <time>2013-03-17T10:19:12Z</time>
      </trkpt>
      <trkpt lat="48.09297" lon="-4.20065">
        <ele>222</ele>
        <time>2013-03-17T10:19:14Z</time>
      </trkpt>
      <trkpt lat="48.09295" lon="-4.20072">
        <ele>221</ele>
        <time>2013-03-17T10:19:16Z</time>
      </trkpt>
      <trkpt lat="48.09292" lon="-4.20081">
        <ele>220</ele>
        <time>2013-03-17T10:19:18Z</time>
      </trkpt>
      <trkpt lat="48.09288" lon="-4.20092">
        <ele>220</ele>
        <time>2013-03-17T10:19:20Z</time>
      </trkpt>
      <trkpt lat="48.09286" lon="-4.20098">
        <ele>220</ele>
        <time>2013-03-17T10:19:21Z</time>
      </trkpt>
      <trkpt lat="48.09279" lon="-4.20114">
        <ele>219</ele>
        <time>2013-03-17T10:19:24Z</time>
      </trkpt>
      <trkpt lat="48.09271" lon="-4.20127">
        <ele>219</ele>
        <time>2013-03-17T10:19:26Z</time>
      </trkpt>
      <trkpt lat="48.09261" lon="-4.20142">
        <ele>218</ele>
        <time>2013-03-17T10:19:28Z</time>
      </trkpt>
      <trkpt lat="48.09249" lon="-4.20157">
        <ele>218</ele>
        <time>2013-03-17T10:19:30Z</time>
      </trkpt>
      <trkpt lat="48.09237" lon="-4.20173">
        <ele>217</ele>
        <time>2013-03-17T10:19:32Z</time>
      </trkpt>
      <trkpt lat="48.09223" lon="-4.2019">
        <ele>215</ele>
        <time>2013-03-17T10:19:34Z</time>
      </trkpt>
      <trkpt lat="48.09215" lon="-4.202">
        <ele>215</ele>
        <time>2013-03-17T10:19:35Z</time>
      </trkpt>
      <trkpt lat="48.09207" lon="-4.2021">
        <ele>214</ele>
        <time>2013-03-17T10:19:36Z</time>
      </trkpt>
      <trkpt lat="48.09199" lon="-4.2022">
        <ele>213</ele>
        <time>2013-03-17T10:19:37Z</time>
      </trkpt>
      <trkpt lat="48.09191" lon="-4.2023">
        <ele>213</ele>
        <time>2013-03-17T10:19:38Z</time>
      </trkpt>
      <trkpt lat="48.09183" lon="-4.20239">
        <ele>212</ele>
        <time>2013-03-17T10:19:39Z</time>
      </trkpt>
      <trkpt lat="48.09175" lon="-4.20249">
        <ele>211</ele>
        <time>2013-03-17T10:19:40Z</time>
      </trkpt>
      <trkpt lat="48.09166" lon="-4.20258">
        <ele>211</ele>
        <time>2013-03-17T10:19:41Z</time>
      </trkpt>
      <trkpt lat="48.09157" lon="-4.20268">
        <ele>210</ele>
        <time>2013-03-17T10:19:42Z</time>
      </trkpt>
      <trkpt lat="48.09149" lon="-4.20277">
        <ele>209</ele>
        <time>2013-03-17T10:19:43Z</time>
      </trkpt>
      <trkpt lat="48.09141" lon="-4.20284">
        <ele>208</ele>
        <time>2013-03-17T10:19:44Z</time>
      </trkpt>
      <trkpt lat="48.09127" lon="-4.20296">
        <ele>207</ele>
        <time>2013-03-17T10:19:46Z</time>
      </trkpt>
      <trkpt lat="48.09111" lon="-4.20306">
        <ele>206</ele>
        <time>2013-03-17T10:19:48Z</time>
      </trkpt>
      <trkpt lat="48.091" lon="-4.20315">
        <ele>206</ele>
        <time>2013-03-17T10:19:50Z</time>
      </trkpt>
      <trkpt lat="48.0909" lon="-4.20323">
        <ele>205</ele>
        <time>2013-03-17T10:19:52Z</time>
      </trkpt>
      <trkpt lat="48.09083" lon="-4.20333">
        <ele>205</ele>
        <time>2013-03-17T10:19:54Z</time>
      </trkpt>
      <trkpt lat="48.09083" lon="-4.20343">
        <ele>205</ele>
        <time>2013-03-17T10:19:56Z</time>
      </trkpt>
      <trkpt lat="48.09087" lon="-4.20353">
        <ele>205</ele>
        <time>2013-03-17T10:19:58Z</time>
      </trkpt>
      <trkpt lat="48.09093" lon="-4.20362">
        <ele>204</ele>
        <time>2013-03-17T10:20:00Z</time>
      </trkpt>
      <trkpt lat="48.09099" lon="-4.20371">
        <ele>204</ele>
        <time>2013-03-17T10:20:02Z</time>
      </trkpt>
      <trkpt lat="48.09105" lon="-4.20378">
        <ele>203</ele>
        <time>2013-03-17T10:20:04Z</time>
      </trkpt>
      <trkpt lat="48.0911" lon="-4.20384">
        <ele>203</ele>
        <time>2013-03-17T10:20:06Z</time>
      </trkpt>
      <trkpt lat="48.09116" lon="-4.20393">
        <ele>202</ele>
        <time>2013-03-17T10:20:08Z</time>
      </trkpt>
      <trkpt lat="48.09122" lon="-4.20401">
        <ele>201</ele>
        <time>2013-03-17T10:20:10Z</time>
      </trkpt>
      <trkpt lat="48.09128" lon="-4.20412">
        <ele>201</ele>
        <time>2013-03-17T10:20:12Z</time>
      </trkpt>
      <trkpt lat="48.09133" lon="-4.20419">
        <ele>201</ele>
        <time>2013-03-17T10:20:14Z</time>
      </trkpt>
      <trkpt lat="48.09138" lon="-4.20427">
        <ele>201</ele>
        <time>2013-03-17T10:20:16Z</time>
      </trkpt>
      <trkpt lat="48.09144" lon="-4.20434">
        <ele>201</ele>
        <time>2013-03-17T10:20:18Z</time>
      </trkpt>
      <trkpt lat="48.09152" lon="-4.20443">
        <ele>201</ele>
        <time>2013-03-17T10:20:20Z</time>
      </trkpt>
      <trkpt lat="48.09156" lon="-4.20448">
        <ele>201</ele>
        <time>2013-03-17T10:20:21Z</time>
      </trkpt>
      <trkpt lat="48.0916" lon="-4.20452">
        <ele>201</ele>
        <time>2013-03-17T10:20:22Z</time>
      </trkpt>
      <trkpt lat="48.09163" lon="-4.20457">
        <ele>201</ele>
        <time>2013-03-17T10:20:23Z</time>
      </trkpt>
      <trkpt lat="48.09167" lon="-4.20461">
        <ele>201</ele>
        <time>2013-03-17T10:20:24Z</time>
      </trkpt>
      <trkpt lat="48.09171" lon="-4.20466">
        <ele>201</ele>
        <time>2013-03-17T10:20:25Z</time>
      </trkpt>
      <trkpt lat="48.09177" lon="-4.20474">
        <ele>201</ele>
        <time>2013-03-17T10:20:27Z</time>
      </trkpt>
      <trkpt lat="48.0918" lon="-4.20479">
        <ele>201</ele>
        <time>2013-03-17T10:20:28Z</time>
      </trkpt>
      <trkpt lat="48.09184" lon="-4.20484">
        <ele>200</ele>
        <time>2013-03-17T10:20:29Z</time>
      </trkpt>
      <trkpt lat="48.09187" lon="-4.20489">
        <ele>200</ele>
        <time>2013-03-17T10:20:30Z</time>
      </trkpt>
      <trkpt lat="48.0919" lon="-4.20494">
        <ele>200</ele>
        <time>2013-03-17T10:20:31Z</time>
      </trkpt>
      <trkpt lat="48.09194" lon="-4.20499">
        <ele>200</ele>
        <time>2013-03-17T10:20:32Z</time>
      </trkpt>
      <trkpt lat="48.09197" lon="-4.20504">
        <ele>200</ele>
        <time>2013-03-17T10:20:33Z</time>
      </trkpt>
      <trkpt lat="48.09205" lon="-4.20515">
        <ele>200</ele>
        <time>2013-03-17T10:20:35Z</time>
      </trkpt>
      <trkpt lat="48.09211" lon="-4.20526">
        <ele>200</ele>
        <time>2013-03-17T10:20:37Z</time>
      </trkpt>
      <trkpt lat="48.0922" lon="-4.20536">
        <ele>200</ele>
        <time>2013-03-17T10:20:39Z</time>
      </trkpt>
      <trkpt lat="48.09227" lon="-4.20545">
        <ele>200</ele>
        <time>2013-03-17T10:20:41Z</time>
      </trkpt>
      <trkpt lat="48.09231" lon="-4.2055">
        <ele>200</ele>
        <time>2013-03-17T10:20:42Z</time>
      </trkpt>
      <trkpt lat="48.09235" lon="-4.20555">
        <ele>199</ele>
        <time>2013-03-17T10:20:43Z</time>
      </trkpt>
      <trkpt lat="48.09239" lon="-4.2056">
        <ele>199</ele>
        <time>2013-03-17T10:20:44Z</time>
      </trkpt>
      <trkpt lat="48.09243" lon="-4.20565">
        <ele>199</ele>
        <time>2013-03-17T10:20:45Z</time>
      </trkpt>
      <trkpt lat="48.09246" lon="-4.20571">
        <ele>199</ele>
        <time>2013-03-17T10:20:46Z</time>
      </trkpt>
      <trkpt lat="48.0925" lon="-4.20576">
        <ele>199</ele>
        <time>2013-03-17T10:20:47Z</time>
      </trkpt>
      <trkpt lat="48.09254" lon="-4.20581">
        <ele>200</ele>
        <time>2013-03-17T10:20:48Z</time>
      </trkpt>
      <trkpt lat="48.09258" lon="-4.20586">
        <ele>200</ele>
        <time>2013-03-17T10:20:49Z</time>
      </trkpt>
      <trkpt lat="48.09262" lon="-4.20591">
        <ele>200</ele>
        <time>2013-03-17T10:20:50Z</time>
      </trkpt>
      <trkpt lat="48.09266" lon="-4.20596">
        <ele>200</ele>
        <time>2013-03-17T10:20:51Z</time>
      </trkpt>
      <trkpt lat="48.09271" lon="-4.20603">
        <ele>199</ele>
        <time>2013-03-17T10:20:52Z</time>
      </trkpt>
      <trkpt lat="48.09275" lon="-4.20608">
        <ele>199</ele>
        <time>2013-03-17T10:20:53Z</time>
      </trkpt>
      <trkpt lat="48.0928" lon="-4.20614">
        <ele>198</ele>
        <time>2013-03-17T10:20:54Z</time>
      </trkpt>
      <trkpt lat="48.09284" lon="-4.2062">
        <ele>198</ele>
        <time>2013-03-17T10:20:55Z</time>
      </trkpt>
      <trkpt lat="48.09293" lon="-4.20631">
        <ele>198</ele>
        <time>2013-03-17T10:20:57Z</time>
      </trkpt>
      <trkpt lat="48.09303" lon="-4.20644">
        <ele>197</ele>
        <time>2013-03-17T10:20:59Z</time>
      </trkpt>
      <trkpt lat="48.09314" lon="-4.20656">
        <ele>197</ele>
        <time>2013-03-17T10:21:01Z</time>
      </trkpt>
      <trkpt lat="48.09319" lon="-4.20662">
        <ele>198</ele>
        <time>2013-03-17T10:21:02Z</time>
      </trkpt>
      <trkpt lat="48.09327" lon="-4.20672">
        <ele>197</ele>
        <time>2013-03-17T10:21:04Z</time>
      </trkpt>
      <trkpt lat="48.0933" lon="-4.20677">
        <ele>197</ele>
        <time>2013-03-17T10:21:05Z</time>
      </trkpt>
      <trkpt lat="48.09341" lon="-4.2069">
        <ele>195</ele>
        <time>2013-03-17T10:21:07Z</time>
      </trkpt>
      <trkpt lat="48.09352" lon="-4.20702">
        <ele>194</ele>
        <time>2013-03-17T10:21:09Z</time>
      </trkpt>
      <trkpt lat="48.09362" lon="-4.20716">
        <ele>192</ele>
        <time>2013-03-17T10:21:11Z</time>
      </trkpt>
      <trkpt lat="48.09375" lon="-4.20731">
        <ele>192</ele>
        <time>2013-03-17T10:21:13Z</time>
      </trkpt>
      <trkpt lat="48.09379" lon="-4.20747">
        <ele>191</ele>
        <time>2013-03-17T10:21:15Z</time>
      </trkpt>
      <trkpt lat="48.0938" lon="-4.20763">
        <ele>190</ele>
        <time>2013-03-17T10:21:17Z</time>
      </trkpt>
      <trkpt lat="48.09377" lon="-4.20783">
        <ele>191</ele>
        <time>2013-03-17T10:21:19Z</time>
      </trkpt>
      <trkpt lat="48.09374" lon="-4.20807">
        <ele>191</ele>
        <time>2013-03-17T10:21:21Z</time>
      </trkpt>
      <trkpt lat="48.09371" lon="-4.2083">
        <ele>191</ele>
        <time>2013-03-17T10:21:23Z</time>
      </trkpt>
      <trkpt lat="48.09368" lon="-4.20851">
        <ele>191</ele>
        <time>2013-03-17T10:21:25Z</time>
      </trkpt>
      <trkpt lat="48.09366" lon="-4.20869">
        <ele>191</ele>
        <time>2013-03-17T10:21:27Z</time>
      </trkpt>
      <trkpt lat="48.09364" lon="-4.20889">
        <ele>190</ele>
        <time>2013-03-17T10:21:29Z</time>
      </trkpt>
      <trkpt lat="48.09363" lon="-4.20909">
        <ele>189</ele>
        <time>2013-03-17T10:21:31Z</time>
      </trkpt>
      <trkpt lat="48.09361" lon="-4.20928">
        <ele>189</ele>
        <time>2013-03-17T10:21:34Z</time>
      </trkpt>
      <trkpt lat="48.09361" lon="-4.20942">
        <ele>188</ele>
        <time>2013-03-17T10:21:36Z</time>
      </trkpt>
      <trkpt lat="48.09364" lon="-4.20958">
        <ele>186</ele>
        <time>2013-03-17T10:21:38Z</time>
      </trkpt>
      <trkpt lat="48.09369" lon="-4.20968">
        <ele>185</ele>
        <time>2013-03-17T10:21:40Z</time>
      </trkpt>
      <trkpt lat="48.09367" lon="-4.20975">
        <ele>183</ele>
        <time>2013-03-17T10:21:42Z</time>
      </trkpt>
      <trkpt lat="48.09362" lon="-4.2098">
        <ele>182</ele>
        <time>2013-03-17T10:21:44Z</time>
      </trkpt>
      <trkpt lat="48.09356" lon="-4.20981">
        <ele>181</ele>
        <time>2013-03-17T10:21:46Z</time>
      </trkpt>
      <trkpt lat="48.09349" lon="-4.20982">
        <ele>180</ele>
        <time>2013-03-17T10:21:48Z</time>
      </trkpt>
      <trkpt lat="48.09337" lon="-4.20987">
        <ele>179</ele>
        <time>2013-03-17T10:21:51Z</time>
      </trkpt>
      <trkpt lat="48.09329" lon="-4.20996">
        <ele>178</ele>
        <time>2013-03-17T10:21:53Z</time>
      </trkpt>
      <trkpt lat="48.09326" lon="-4.2101">
        <ele>178</ele>
        <time>2013-03-17T10:21:55Z</time>
      </trkpt>
      <trkpt lat="48.09326" lon="-4.21017">
        <ele>178</ele>
        <time>2013-03-17T10:21:56Z</time>
      </trkpt>
      <trkpt lat="48.09325" lon="-4.21024">
        <ele>177</ele>
        <time>2013-03-17T10:21:57Z</time>
      </trkpt>
      <trkpt lat="48.09324" lon="-4.21031">
        <ele>177</ele>
        <time>2013-03-17T10:21:58Z</time>
      </trkpt>
      <trkpt lat="48.09322" lon="-4.21047">
        <ele>176</ele>
        <time>2013-03-17T10:22:00Z</time>
      </trkpt>
      <trkpt lat="48.09319" lon="-4.21068">
        <ele>175</ele>
        <time>2013-03-17T10:22:02Z</time>
      </trkpt>
      <trkpt lat="48.09315" lon="-4.2109">
        <ele>174</ele>
        <time>2013-03-17T10:22:04Z</time>
      </trkpt>
      <trkpt lat="48.09311" lon="-4.2111">
        <ele>173</ele>
        <time>2013-03-17T10:22:06Z</time>
      </trkpt>
      <trkpt lat="48.09308" lon="-4.21131">
        <ele>172</ele>
        <time>2013-03-17T10:22:08Z</time>
      </trkpt>
      <trkpt lat="48.09305" lon="-4.21147">
        <ele>171</ele>
        <time>2013-03-17T10:22:10Z</time>
      </trkpt>
      <trkpt lat="48.09302" lon="-4.21164">
        <ele>169</ele>
        <time>2013-03-17T10:22:13Z</time>
      </trkpt>
      <trkpt lat="48.09299" lon="-4.21173">
        <ele>169</ele>
        <time>2013-03-17T10:22:15Z</time>
      </trkpt>
      <trkpt lat="48.09299" lon="-4.21183">
        <ele>166</ele>
        <time>2013-03-17T10:22:23Z</time>
      </trkpt>
      <trkpt lat="48.09304" lon="-4.2119">
        <ele>163</ele>
        <time>2013-03-17T10:22:26Z</time>
      </trkpt>
      <trkpt lat="48.09313" lon="-4.21197">
        <ele>161</ele>
        <time>2013-03-17T10:22:29Z</time>
      </trkpt>
      <trkpt lat="48.09326" lon="-4.21207">
        <ele>161</ele>
        <time>2013-03-17T10:22:32Z</time>
      </trkpt>
      <trkpt lat="48.0933" lon="-4.2121">
        <ele>161</ele>
        <time>2013-03-17T10:22:33Z</time>
      </trkpt>
      <trkpt lat="48.09334" lon="-4.21214">
        <ele>161</ele>
        <time>2013-03-17T10:22:34Z</time>
      </trkpt>
      <trkpt lat="48.09339" lon="-4.21218">
        <ele>161</ele>
        <time>2013-03-17T10:22:35Z</time>
      </trkpt>
      <trkpt lat="48.09343" lon="-4.21223">
        <ele>161</ele>
        <time>2013-03-17T10:22:36Z</time>
      </trkpt>
      <trkpt lat="48.09347" lon="-4.21227">
        <ele>161</ele>
        <time>2013-03-17T10:22:37Z</time>
      </trkpt>
      <trkpt lat="48.0935" lon="-4.21231">
        <ele>161</ele>
        <time>2013-03-17T10:22:38Z</time>
      </trkpt>
      <trkpt lat="48.09357" lon="-4.21238">
        <ele>161</ele>
        <time>2013-03-17T10:22:40Z</time>
      </trkpt>
      <trkpt lat="48.09364" lon="-4.21248">
        <ele>161</ele>
        <time>2013-03-17T10:22:42Z</time>
      </trkpt>
      <trkpt lat="48.0937" lon="-4.21257">
        <ele>161</ele>
        <time>2013-03-17T10:22:44Z</time>
      </trkpt>
      <trkpt lat="48.09375" lon="-4.21265">
        <ele>161</ele>
        <time>2013-03-17T10:22:46Z</time>
      </trkpt>
      <trkpt lat="48.09381" lon="-4.21273">
        <ele>161</ele>
        <time>2013-03-17T10:22:48Z</time>
      </trkpt>
      <trkpt lat="48.09385" lon="-4.21281">
        <ele>161</ele>
        <time>2013-03-17T10:22:50Z</time>
      </trkpt>
      <trkpt lat="48.09384" lon="-4.21293">
        <ele>161</ele>
        <time>2013-03-17T10:22:52Z</time>
      </trkpt>
      <trkpt lat="48.09379" lon="-4.21302">
        <ele>161</ele>
        <time>2013-03-17T10:22:54Z</time>
      </trkpt>
      <trkpt lat="48.09373" lon="-4.21308">
        <ele>161</ele>
        <time>2013-03-17T10:22:56Z</time>
      </trkpt>
      <trkpt lat="48.09367" lon="-4.21309">
        <ele>161</ele>
        <time>2013-03-17T10:22:58Z</time>
      </trkpt>
      <trkpt lat="48.0936" lon="-4.21311">
        <ele>162</ele>
        <time>2013-03-17T10:23:00Z</time>
      </trkpt>
      <trkpt lat="48.09355" lon="-4.21311">
        <ele>162</ele>
        <time>2013-03-17T10:23:02Z</time>
      </trkpt>
      <trkpt lat="48.0935" lon="-4.21312">
        <ele>162</ele>
        <time>2013-03-17T10:23:04Z</time>
      </trkpt>
      <trkpt lat="48.09344" lon="-4.21313">
        <ele>162</ele>
        <time>2013-03-17T10:23:06Z</time>
      </trkpt>
      <trkpt lat="48.09335" lon="-4.21316">
        <ele>162</ele>
        <time>2013-03-17T10:23:10Z</time>
      </trkpt>
      <trkpt lat="48.0933" lon="-4.21319">
        <ele>163</ele>
        <time>2013-03-17T10:23:12Z</time>
      </trkpt>
      <trkpt lat="48.09325" lon="-4.21321">
        <ele>162</ele>
        <time>2013-03-17T10:23:14Z</time>
      </trkpt>
      <trkpt lat="48.09319" lon="-4.21324">
        <ele>162</ele>
        <time>2013-03-17T10:23:16Z</time>
      </trkpt>
      <trkpt lat="48.09309" lon="-4.2133">
        <ele>161</ele>
        <time>2013-03-17T10:23:19Z</time>
      </trkpt>
      <trkpt lat="48.09302" lon="-4.21341">
        <ele>163</ele>
        <time>2013-03-17T10:23:22Z</time>
      </trkpt>
      <trkpt lat="48.09302" lon="-4.2135">
        <ele>163</ele>
        <time>2013-03-17T10:23:24Z</time>
      </trkpt>
      <trkpt lat="48.09304" lon="-4.21359">
        <ele>163</ele>
        <time>2013-03-17T10:23:26Z</time>
      </trkpt>
      <trkpt lat="48.09307" lon="-4.21369">
        <ele>163</ele>
        <time>2013-03-17T10:23:28Z</time>
      </trkpt>
      <trkpt lat="48.0931" lon="-4.21379">
        <ele>163</ele>
        <time>2013-03-17T10:23:30Z</time>
      </trkpt>
      <trkpt lat="48.09313" lon="-4.21394">
        <ele>162</ele>
        <time>2013-03-17T10:23:33Z</time>
      </trkpt>
      <trkpt lat="48.09314" lon="-4.21409">
        <ele>162</ele>
        <time>2013-03-17T10:23:36Z</time>
      </trkpt>
      <trkpt lat="48.09313" lon="-4.21426">
        <ele>163</ele>
        <time>2013-03-17T10:23:40Z</time>
      </trkpt>
      <trkpt lat="48.09315" lon="-4.21443">
        <ele>164</ele>
        <time>2013-03-17T10:23:43Z</time>
      </trkpt>
      <trkpt lat="48.09317" lon="-4.21461">
        <ele>165</ele>
        <time>2013-03-17T10:23:46Z</time>
      </trkpt>
      <trkpt lat="48.09318" lon="-4.21476">
        <ele>165</ele>
        <time>2013-03-17T10:23:49Z</time>
      </trkpt>
      <trkpt lat="48.09318" lon="-4.21486">
        <ele>165</ele>
        <time>2013-03-17T10:23:51Z</time>
      </trkpt>
      <trkpt lat="48.09317" lon="-4.21505">
        <ele>165</ele>
        <time>2013-03-17T10:23:54Z</time>
      </trkpt>
      <trkpt lat="48.09317" lon="-4.21514">
        <ele>165</ele>
        <time>2013-03-17T10:23:55Z</time>
      </trkpt>
      <trkpt lat="48.09316" lon="-4.21521">
        <ele>165</ele>
        <time>2013-03-17T10:23:56Z</time>
      </trkpt>
      <trkpt lat="48.09314" lon="-4.21531">
        <ele>165</ele>
        <time>2013-03-17T10:23:57Z</time>
      </trkpt>
      <trkpt lat="48.09313" lon="-4.21539">
        <ele>165</ele>
        <time>2013-03-17T10:23:58Z</time>
      </trkpt>
      <trkpt lat="48.09311" lon="-4.21556">
        <ele>166</ele>
        <time>2013-03-17T10:24:00Z</time>
      </trkpt>
      <trkpt lat="48.09309" lon="-4.21573">
        <ele>166</ele>
        <time>2013-03-17T10:24:02Z</time>
      </trkpt>
      <trkpt lat="48.09306" lon="-4.2159">
        <ele>167</ele>
        <time>2013-03-17T10:24:04Z</time>
      </trkpt>
      <trkpt lat="48.09304" lon="-4.21599">
        <ele>167</ele>
        <time>2013-03-17T10:24:05Z</time>
      </trkpt>
      <trkpt lat="48.09302" lon="-4.21606">
        <ele>167</ele>
        <time>2013-03-17T10:24:06Z</time>
      </trkpt>
      <trkpt lat="48.09301" lon="-4.21615">
        <ele>167</ele>
        <time>2013-03-17T10:24:07Z</time>
      </trkpt>
      <trkpt lat="48.09299" lon="-4.21624">
        <ele>167</ele>
        <time>2013-03-17T10:24:08Z</time>
      </trkpt>
      <trkpt lat="48.09297" lon="-4.21632">
        <ele>167</ele>
        <time>2013-03-17T10:24:09Z</time>
      </trkpt>
      <trkpt lat="48.09296" lon="-4.21639">
        <ele>167</ele>
        <time>2013-03-17T10:24:10Z</time>
      </trkpt>
      <trkpt lat="48.09296" lon="-4.2166">
        <ele>166</ele>
        <time>2013-03-17T10:24:13Z</time>
      </trkpt>
      <trkpt lat="48.09296" lon="-4.21677">
        <ele>166</ele>
        <time>2013-03-17T10:24:15Z</time>
      </trkpt>
      <trkpt lat="48.09298" lon="-4.21683">
        <ele>165</ele>
        <time>2013-03-17T10:24:16Z</time>
      </trkpt>
      <trkpt lat="48.09299" lon="-4.2169">
        <ele>165</ele>
        <time>2013-03-17T10:24:17Z</time>
      </trkpt>
      <trkpt lat="48.09301" lon="-4.21698">
        <ele>165</ele>
        <time>2013-03-17T10:24:18Z</time>
      </trkpt>
      <trkpt lat="48.09304" lon="-4.21713">
        <ele>164</ele>
        <time>2013-03-17T10:24:20Z</time>
      </trkpt>
      <trkpt lat="48.09306" lon="-4.2172">
        <ele>163</ele>
        <time>2013-03-17T10:24:21Z</time>
      </trkpt>
      <trkpt lat="48.09308" lon="-4.21726">
        <ele>163</ele>
        <time>2013-03-17T10:24:22Z</time>
      </trkpt>
      <trkpt lat="48.09313" lon="-4.21745">
        <ele>162</ele>
        <time>2013-03-17T10:24:25Z</time>
      </trkpt>
      <trkpt lat="48.09315" lon="-4.21754">
        <ele>162</ele>
        <time>2013-03-17T10:24:26Z</time>
      </trkpt>
      <trkpt lat="48.09316" lon="-4.21761">
        <ele>162</ele>
        <time>2013-03-17T10:24:27Z</time>
      </trkpt>
      <trkpt lat="48.09317" lon="-4.21768">
        <ele>162</ele>
        <time>2013-03-17T10:24:28Z</time>
      </trkpt>
      <trkpt lat="48.09319" lon="-4.21775">
        <ele>162</ele>
        <time>2013-03-17T10:24:29Z</time>
      </trkpt>
      <trkpt lat="48.09322" lon="-4.21789">
        <ele>162</ele>
        <time>2013-03-17T10:24:31Z</time>
      </trkpt>
      <trkpt lat="48.09325" lon="-4.21794">
        <ele>162</ele>
        <time>2013-03-17T10:24:32Z</time>
      </trkpt>
      <trkpt lat="48.09328" lon="-4.21807">
        <ele>162</ele>
        <time>2013-03-17T10:24:34Z</time>
      </trkpt>
      <trkpt lat="48.0933" lon="-4.21814">
        <ele>162</ele>
        <time>2013-03-17T10:24:35Z</time>
      </trkpt>
      <trkpt lat="48.09331" lon="-4.2183">
        <ele>162</ele>
        <time>2013-03-17T10:24:37Z</time>
      </trkpt>
      <trkpt lat="48.09333" lon="-4.21849">
        <ele>163</ele>
        <time>2013-03-17T10:24:39Z</time>
      </trkpt>
      <trkpt lat="48.09335" lon="-4.21858">
        <ele>163</ele>
        <time>2013-03-17T10:24:40Z</time>
      </trkpt>
      <trkpt lat="48.09336" lon="-4.21866">
        <ele>164</ele>
        <time>2013-03-17T10:24:41Z</time>
      </trkpt>
      <trkpt lat="48.09337" lon="-4.21875">
        <ele>164</ele>
        <time>2013-03-17T10:24:42Z</time>
      </trkpt>
      <trkpt lat="48.09338" lon="-4.21884">
        <ele>164</ele>
        <time>2013-03-17T10:24:43Z</time>
      </trkpt>
      <trkpt lat="48.09339" lon="-4.21893">
        <ele>163</ele>
        <time>2013-03-17T10:24:44Z</time>
      </trkpt>
      <trkpt lat="48.09339" lon="-4.21902">
        <ele>163</ele>
        <time>2013-03-17T10:24:45Z</time>
      </trkpt>
      <trkpt lat="48.0934" lon="-4.2191">
        <ele>163</ele>
        <time>2013-03-17T10:24:46Z</time>
      </trkpt>
      <trkpt lat="48.09344" lon="-4.2193">
        <ele>162</ele>
        <time>2013-03-17T10:24:49Z</time>
      </trkpt>
      <trkpt lat="48.09345" lon="-4.21938">
        <ele>162</ele>
        <time>2013-03-17T10:24:50Z</time>
      </trkpt>
      <trkpt lat="48.09347" lon="-4.21945">
        <ele>161</ele>
        <time>2013-03-17T10:24:51Z</time>
      </trkpt>
      <trkpt lat="48.09348" lon="-4.21958">
        <ele>161</ele>
        <time>2013-03-17T10:24:53Z</time>
      </trkpt>
      <trkpt lat="48.09348" lon="-4.2197">
        <ele>160</ele>
        <time>2013-03-17T10:24:55Z</time>
      </trkpt>
      <trkpt lat="48.09343" lon="-4.21982">
        <ele>159</ele>
        <time>2013-03-17T10:24:57Z</time>
      </trkpt>
      <trkpt lat="48.0934" lon="-4.21988">
        <ele>158</ele>
        <time>2013-03-17T10:24:59Z</time>
      </trkpt>
      <trkpt lat="48.09333" lon="-4.21998">
        <ele>159</ele>
        <time>2013-03-17T10:25:03Z</time>
      </trkpt>
      <trkpt lat="48.09328" lon="-4.22003">
        <ele>160</ele>
        <time>2013-03-17T10:25:06Z</time>
      </trkpt>
      <trkpt lat="48.09326" lon="-4.22009">
        <ele>160</ele>
        <time>2013-03-17T10:25:08Z</time>
      </trkpt>
      <trkpt lat="48.09323" lon="-4.22016">
        <ele>160</ele>
        <time>2013-03-17T10:25:10Z</time>
      </trkpt>
      <trkpt lat="48.0932" lon="-4.22025">
        <ele>160</ele>
        <time>2013-03-17T10:25:12Z</time>
      </trkpt>
      <trkpt lat="48.09317" lon="-4.22031">
        <ele>160</ele>
        <time>2013-03-17T10:25:14Z</time>
      </trkpt>
      <trkpt lat="48.09313" lon="-4.22036">
        <ele>160</ele>
        <time>2013-03-17T10:25:16Z</time>
      </trkpt>
      <trkpt lat="48.09309" lon="-4.22042">
        <ele>160</ele>
        <time>2013-03-17T10:25:18Z</time>
      </trkpt>
      <trkpt lat="48.09303" lon="-4.22051">
        <ele>159</ele>
        <time>2013-03-17T10:25:21Z</time>
      </trkpt>
      <trkpt lat="48.093" lon="-4.22058">
        <ele>159</ele>
        <time>2013-03-17T10:25:23Z</time>
      </trkpt>
      <trkpt lat="48.09292" lon="-4.22073">
        <ele>159</ele>
        <time>2013-03-17T10:25:26Z</time>
      </trkpt>
      <trkpt lat="48.09288" lon="-4.22085">
        <ele>159</ele>
        <time>2013-03-17T10:25:28Z</time>
      </trkpt>
      <trkpt lat="48.09285" lon="-4.2209">
        <ele>159</ele>
        <time>2013-03-17T10:25:29Z</time>
      </trkpt>
      <trkpt lat="48.09279" lon="-4.22102">
        <ele>159</ele>
        <time>2013-03-17T10:25:31Z</time>
      </trkpt>
      <trkpt lat="48.09276" lon="-4.22107">
        <ele>159</ele>
        <time>2013-03-17T10:25:32Z</time>
      </trkpt>
      <trkpt lat="48.09273" lon="-4.22113">
        <ele>159</ele>
        <time>2013-03-17T10:25:33Z</time>
      </trkpt>
      <trkpt lat="48.0927" lon="-4.22118">
        <ele>159</ele>
        <time>2013-03-17T10:25:34Z</time>
      </trkpt>
      <trkpt lat="48.09267" lon="-4.22125">
        <ele>159</ele>
        <time>2013-03-17T10:25:35Z</time>
      </trkpt>
      <trkpt lat="48.09264" lon="-4.2213">
        <ele>159</ele>
        <time>2013-03-17T10:25:36Z</time>
      </trkpt>
      <trkpt lat="48.09261" lon="-4.22136">
        <ele>159</ele>
        <time>2013-03-17T10:25:37Z</time>
      </trkpt>
      <trkpt lat="48.09258" lon="-4.22141">
        <ele>159</ele>
        <time>2013-03-17T10:25:38Z</time>
      </trkpt>
      <trkpt lat="48.09254" lon="-4.22146">
        <ele>158</ele>
        <time>2013-03-17T10:25:39Z</time>
      </trkpt>
      <trkpt lat="48.09251" lon="-4.22151">
        <ele>159</ele>
        <time>2013-03-17T10:25:40Z</time>
      </trkpt>
      <trkpt lat="48.09247" lon="-4.22157">
        <ele>159</ele>
        <time>2013-03-17T10:25:41Z</time>
      </trkpt>
      <trkpt lat="48.09243" lon="-4.22161">
        <ele>159</ele>
        <time>2013-03-17T10:25:42Z</time>
      </trkpt>
      <trkpt lat="48.0924" lon="-4.22166">
        <ele>159</ele>
        <time>2013-03-17T10:25:43Z</time>
      </trkpt>
      <trkpt lat="48.09233" lon="-4.22175">
        <ele>160</ele>
        <time>2013-03-17T10:25:45Z</time>
      </trkpt>
      <trkpt lat="48.09229" lon="-4.22181">
        <ele>160</ele>
        <time>2013-03-17T10:25:46Z</time>
      </trkpt>
      <trkpt lat="48.09221" lon="-4.22191">
        <ele>160</ele>
        <time>2013-03-17T10:25:48Z</time>
      </trkpt>
      <trkpt lat="48.09214" lon="-4.22201">
        <ele>160</ele>
        <time>2013-03-17T10:25:50Z</time>
      </trkpt>
      <trkpt lat="48.09204" lon="-4.22214">
        <ele>158</ele>
        <time>2013-03-17T10:25:53Z</time>
      </trkpt>
      <trkpt lat="48.09197" lon="-4.22224">
        <ele>156</ele>
        <time>2013-03-17T10:25:55Z</time>
      </trkpt>
      <trkpt lat="48.09189" lon="-4.22233">
        <ele>155</ele>
        <time>2013-03-17T10:25:57Z</time>
      </trkpt>
      <trkpt lat="48.09183" lon="-4.22242">
        <ele>154</ele>
        <time>2013-03-17T10:25:59Z</time>
      </trkpt>
      <trkpt lat="48.09179" lon="-4.22249">
        <ele>153</ele>
        <time>2013-03-17T10:26:00Z</time>
      </trkpt>
      <trkpt lat="48.09175" lon="-4.22254">
        <ele>153</ele>
        <time>2013-03-17T10:26:01Z</time>
      </trkpt>
      <trkpt lat="48.09172" lon="-4.22259">
        <ele>153</ele>
        <time>2013-03-17T10:26:02Z</time>
      </trkpt>
      <trkpt lat="48.09167" lon="-4.22266">
        <ele>153</ele>
        <time>2013-03-17T10:26:03Z</time>
      </trkpt>
      <trkpt lat="48.09164" lon="-4.22272">
        <ele>152</ele>
        <time>2013-03-17T10:26:04Z</time>
      </trkpt>
      <trkpt lat="48.09159" lon="-4.22278">
        <ele>152</ele>
        <time>2013-03-17T10:26:05Z</time>
      </trkpt>
      <trkpt lat="48.09156" lon="-4.22283">
        <ele>152</ele>
        <time>2013-03-17T10:26:06Z</time>
      </trkpt>
      <trkpt lat="48.09151" lon="-4.22289">
        <ele>152</ele>
        <time>2013-03-17T10:26:07Z</time>
      </trkpt>
      <trkpt lat="48.09147" lon="-4.22295">
        <ele>153</ele>
        <time>2013-03-17T10:26:08Z</time>
      </trkpt>
      <trkpt lat="48.09143" lon="-4.223">
        <ele>152</ele>
        <time>2013-03-17T10:26:09Z</time>
      </trkpt>
      <trkpt lat="48.0914" lon="-4.22305">
        <ele>152</ele>
        <time>2013-03-17T10:26:10Z</time>
      </trkpt>
      <trkpt lat="48.09135" lon="-4.22311">
        <ele>152</ele>
        <time>2013-03-17T10:26:11Z</time>
      </trkpt>
      <trkpt lat="48.09127" lon="-4.22321">
        <ele>151</ele>
        <time>2013-03-17T10:26:13Z</time>
      </trkpt>
      <trkpt lat="48.09122" lon="-4.22326">
        <ele>151</ele>
        <time>2013-03-17T10:26:14Z</time>
      </trkpt>
      <trkpt lat="48.09117" lon="-4.22332">
        <ele>150</ele>
        <time>2013-03-17T10:26:15Z</time>
      </trkpt>
      <trkpt lat="48.09112" lon="-4.22338">
        <ele>150</ele>
        <time>2013-03-17T10:26:16Z</time>
      </trkpt>
      <trkpt lat="48.09106" lon="-4.22344">
        <ele>149</ele>
        <time>2013-03-17T10:26:17Z</time>
      </trkpt>
      <trkpt lat="48.09101" lon="-4.22351">
        <ele>149</ele>
        <time>2013-03-17T10:26:18Z</time>
      </trkpt>
      <trkpt lat="48.09095" lon="-4.22358">
        <ele>149</ele>
        <time>2013-03-17T10:26:19Z</time>
      </trkpt>
      <trkpt lat="48.09087" lon="-4.22365">
        <ele>149</ele>
        <time>2013-03-17T10:26:20Z</time>
      </trkpt>
      <trkpt lat="48.0908" lon="-4.22372">
        <ele>149</ele>
        <time>2013-03-17T10:26:21Z</time>
      </trkpt>
      <trkpt lat="48.09068" lon="-4.22384">
        <ele>148</ele>
        <time>2013-03-17T10:26:23Z</time>
      </trkpt>
      <trkpt lat="48.09059" lon="-4.22395">
        <ele>147</ele>
        <time>2013-03-17T10:26:26Z</time>
      </trkpt>
      <trkpt lat="48.09052" lon="-4.22404">
        <ele>148</ele>
        <time>2013-03-17T10:26:28Z</time>
      </trkpt>
      <trkpt lat="48.09044" lon="-4.22415">
        <ele>149</ele>
        <time>2013-03-17T10:26:30Z</time>
      </trkpt>
      <trkpt lat="48.09036" lon="-4.22427">
        <ele>151</ele>
        <time>2013-03-17T10:26:33Z</time>
      </trkpt>
      <trkpt lat="48.09033" lon="-4.22434">
        <ele>152</ele>
        <time>2013-03-17T10:26:35Z</time>
      </trkpt>
      <trkpt lat="48.09026" lon="-4.22435">
        <ele>153</ele>
        <time>2013-03-17T10:26:38Z</time>
      </trkpt>
      <trkpt lat="48.09022" lon="-4.22431">
        <ele>152</ele>
        <time>2013-03-17T10:26:41Z</time>
      </trkpt>
      <trkpt lat="48.09024" lon="-4.22423">
        <ele>151</ele>
        <time>2013-03-17T10:26:44Z</time>
      </trkpt>
      <trkpt lat="48.09028" lon="-4.22415">
        <ele>150</ele>
        <time>2013-03-17T10:26:47Z</time>
      </trkpt>
      <trkpt lat="48.09031" lon="-4.2241">
        <ele>146</ele>
        <time>2013-03-17T10:27:58Z</time>
      </trkpt>
      <trkpt lat="48.09025" lon="-4.22406">
        <ele>146</ele>
        <time>2013-03-17T10:28:29Z</time>
      </trkpt>
      <trkpt lat="48.0902" lon="-4.22403">
        <ele>146</ele>
        <time>2013-03-17T10:28:31Z</time>
      </trkpt>
      <trkpt lat="48.09015" lon="-4.22401">
        <ele>146</ele>
        <time>2013-03-17T10:28:33Z</time>
      </trkpt>
      <trkpt lat="48.09006" lon="-4.22393">
        <ele>146</ele>
        <time>2013-03-17T10:28:38Z</time>
      </trkpt>
      <trkpt lat="48.09001" lon="-4.22389">
        <ele>146</ele>
        <time>2013-03-17T10:28:41Z</time>
      </trkpt>
      <trkpt lat="48.0899" lon="-4.22384">
        <ele>147</ele>
        <time>2013-03-17T10:28:48Z</time>
      </trkpt>
      <trkpt lat="48.08979" lon="-4.22384">
        <ele>147</ele>
        <time>2013-03-17T10:28:52Z</time>
      </trkpt>
      <trkpt lat="48.0897" lon="-4.22381">
        <ele>148</ele>
        <time>2013-03-17T10:28:55Z</time>
      </trkpt>
      <trkpt lat="48.08959" lon="-4.2238">
        <ele>147</ele>
        <time>2013-03-17T10:29:00Z</time>
      </trkpt>
      <trkpt lat="48.0895" lon="-4.22383">
        <ele>147</ele>
        <time>2013-03-17T10:29:03Z</time>
      </trkpt>
      <trkpt lat="48.08945" lon="-4.22385">
        <ele>147</ele>
        <time>2013-03-17T10:29:05Z</time>
      </trkpt>
      <trkpt lat="48.0894" lon="-4.22385">
        <ele>147</ele>
        <time>2013-03-17T10:29:07Z</time>
      </trkpt>
      <trkpt lat="48.08926" lon="-4.22382">
        <ele>145</ele>
        <time>2013-03-17T10:29:11Z</time>
      </trkpt>
      <trkpt lat="48.08916" lon="-4.22381">
        <ele>145</ele>
        <time>2013-03-17T10:29:15Z</time>
      </trkpt>
      <trkpt lat="48.08905" lon="-4.22378">
        <ele>145</ele>
        <time>2013-03-17T10:29:18Z</time>
      </trkpt>
      <trkpt lat="48.08897" lon="-4.22374">
        <ele>144</ele>
        <time>2013-03-17T10:29:20Z</time>
      </trkpt>
      <trkpt lat="48.0888" lon="-4.22363">
        <ele>144</ele>
        <time>2013-03-17T10:29:27Z</time>
      </trkpt>
      <trkpt lat="48.08877" lon="-4.22358">
        <ele>145</ele>
        <time>2013-03-17T10:29:30Z</time>
      </trkpt>
      <trkpt lat="48.08873" lon="-4.22354">
        <ele>145</ele>
        <time>2013-03-17T10:29:34Z</time>
      </trkpt>
      <trkpt lat="48.08877" lon="-4.22348">
        <ele>144</ele>
        <time>2013-03-17T10:29:42Z</time>
      </trkpt>
      <trkpt lat="48.08883" lon="-4.22352">
        <ele>144</ele>
        <time>2013-03-17T10:29:46Z</time>
      </trkpt>
      <trkpt lat="48.08883" lon="-4.2236">
        <ele>144</ele>
        <time>2013-03-17T10:29:49Z</time>
      </trkpt>
      <trkpt lat="48.08882" lon="-4.22367">
        <ele>145</ele>
        <time>2013-03-17T10:29:51Z</time>
      </trkpt>
      <trkpt lat="48.08883" lon="-4.22375">
        <ele>145</ele>
        <time>2013-03-17T10:29:53Z</time>
      </trkpt>
      <trkpt lat="48.08883" lon="-4.22382">
        <ele>145</ele>
        <time>2013-03-17T10:29:55Z</time>
      </trkpt>
      <trkpt lat="48.08885" lon="-4.224">
        <ele>146</ele>
        <time>2013-03-17T10:30:00Z</time>
      </trkpt>
      <trkpt lat="48.08882" lon="-4.22407">
        <ele>145</ele>
        <time>2013-03-17T10:30:03Z</time>
      </trkpt>
      <trkpt lat="48.08878" lon="-4.22413">
        <ele>146</ele>
        <time>2013-03-17T10:30:06Z</time>
      </trkpt>
      <trkpt lat="48.08871" lon="-4.22423">
        <ele>146</ele>
        <time>2013-03-17T10:30:09Z</time>
      </trkpt>
      <trkpt lat="48.08863" lon="-4.22437">
        <ele>146</ele>
        <time>2013-03-17T10:30:12Z</time>
      </trkpt>
      <trkpt lat="48.08855" lon="-4.22453">
        <ele>146</ele>
        <time>2013-03-17T10:30:15Z</time>
      </trkpt>
      <trkpt lat="48.08849" lon="-4.22465">
        <ele>146</ele>
        <time>2013-03-17T10:30:17Z</time>
      </trkpt>
      <trkpt lat="48.08842" lon="-4.22476">
        <ele>145</ele>
        <time>2013-03-17T10:30:19Z</time>
      </trkpt>
      <trkpt lat="48.08838" lon="-4.22482">
        <ele>145</ele>
        <time>2013-03-17T10:30:20Z</time>
      </trkpt>
      <trkpt lat="48.08833" lon="-4.22489">
        <ele>144</ele>
        <time>2013-03-17T10:30:21Z</time>
      </trkpt>
      <trkpt lat="48.08829" lon="-4.22495">
        <ele>144</ele>
        <time>2013-03-17T10:30:22Z</time>
      </trkpt>
      <trkpt lat="48.08825" lon="-4.22502">
        <ele>144</ele>
        <time>2013-03-17T10:30:23Z</time>
      </trkpt>
      <trkpt lat="48.08817" lon="-4.22515">
        <ele>143</ele>
        <time>2013-03-17T10:30:26Z</time>
      </trkpt>
      <trkpt lat="48.0881" lon="-4.22526">
        <ele>142</ele>
        <time>2013-03-17T10:30:28Z</time>
      </trkpt>
      <trkpt lat="48.08801" lon="-4.22548">
        <ele>141</ele>
        <time>2013-03-17T10:30:32Z</time>
      </trkpt>
      <trkpt lat="48.08792" lon="-4.22564">
        <ele>140</ele>
        <time>2013-03-17T10:30:34Z</time>
      </trkpt>
      <trkpt lat="48.08784" lon="-4.22578">
        <ele>139</ele>
        <time>2013-03-17T10:30:36Z</time>
      </trkpt>
      <trkpt lat="48.08778" lon="-4.22591">
        <ele>139</ele>
        <time>2013-03-17T10:30:38Z</time>
      </trkpt>
      <trkpt lat="48.08771" lon="-4.22605">
        <ele>140</ele>
        <time>2013-03-17T10:30:40Z</time>
      </trkpt>
      <trkpt lat="48.08764" lon="-4.22617">
        <ele>140</ele>
        <time>2013-03-17T10:30:42Z</time>
      </trkpt>
      <trkpt lat="48.08761" lon="-4.22623">
        <ele>140</ele>
        <time>2013-03-17T10:30:43Z</time>
      </trkpt>
      <trkpt lat="48.08757" lon="-4.22628">
        <ele>140</ele>
        <time>2013-03-17T10:30:44Z</time>
      </trkpt>
      <trkpt lat="48.08754" lon="-4.22634">
        <ele>140</ele>
        <time>2013-03-17T10:30:45Z</time>
      </trkpt>
      <trkpt lat="48.08748" lon="-4.22645">
        <ele>139</ele>
        <time>2013-03-17T10:30:47Z</time>
      </trkpt>
      <trkpt lat="48.08741" lon="-4.2266">
        <ele>138</ele>
        <time>2013-03-17T10:30:49Z</time>
      </trkpt>
      <trkpt lat="48.08733" lon="-4.22675">
        <ele>137</ele>
        <time>2013-03-17T10:30:51Z</time>
      </trkpt>
      <trkpt lat="48.08729" lon="-4.22683">
        <ele>136</ele>
        <time>2013-03-17T10:30:52Z</time>
      </trkpt>
      <trkpt lat="48.08724" lon="-4.22691">
        <ele>136</ele>
        <time>2013-03-17T10:30:53Z</time>
      </trkpt>
      <trkpt lat="48.08719" lon="-4.227">
        <ele>135</ele>
        <time>2013-03-17T10:30:54Z</time>
      </trkpt>
      <trkpt lat="48.08715" lon="-4.22708">
        <ele>134</ele>
        <time>2013-03-17T10:30:55Z</time>
      </trkpt>
      <trkpt lat="48.08708" lon="-4.22721">
        <ele>133</ele>
        <time>2013-03-17T10:30:57Z</time>
      </trkpt>
      <trkpt lat="48.08696" lon="-4.22746">
        <ele>132</ele>
        <time>2013-03-17T10:31:00Z</time>
      </trkpt>
      <trkpt lat="48.08689" lon="-4.22758">
        <ele>133</ele>
        <time>2013-03-17T10:31:04Z</time>
      </trkpt>
      <trkpt lat="48.08685" lon="-4.22763">
        <ele>133</ele>
        <time>2013-03-17T10:31:06Z</time>
      </trkpt>
      <trkpt lat="48.08682" lon="-4.22768">
        <ele>133</ele>
        <time>2013-03-17T10:31:08Z</time>
      </trkpt>
      <trkpt lat="48.08678" lon="-4.22775">
        <ele>133</ele>
        <time>2013-03-17T10:31:11Z</time>
      </trkpt>
      <trkpt lat="48.08673" lon="-4.22784">
        <ele>132</ele>
        <time>2013-03-17T10:31:13Z</time>
      </trkpt>
      <trkpt lat="48.08669" lon="-4.22792">
        <ele>132</ele>
        <time>2013-03-17T10:31:15Z</time>
      </trkpt>
      <trkpt lat="48.08665" lon="-4.228">
        <ele>132</ele>
        <time>2013-03-17T10:31:17Z</time>
      </trkpt>
      <trkpt lat="48.0866" lon="-4.22808">
        <ele>132</ele>
        <time>2013-03-17T10:31:19Z</time>
      </trkpt>
      <trkpt lat="48.08654" lon="-4.22818">
        <ele>131</ele>
        <time>2013-03-17T10:31:23Z</time>
      </trkpt>
      <trkpt lat="48.0865" lon="-4.22811">
        <ele>130</ele>
        <time>2013-03-17T10:31:26Z</time>
      </trkpt>
      <trkpt lat="48.08647" lon="-4.22803">
        <ele>129</ele>
        <time>2013-03-17T10:31:28Z</time>
      </trkpt>
      <trkpt lat="48.08646" lon="-4.22796">
        <ele>128</ele>
        <time>2013-03-17T10:31:29Z</time>
      </trkpt>
      <trkpt lat="48.08645" lon="-4.22789">
        <ele>127</ele>
        <time>2013-03-17T10:31:30Z</time>
      </trkpt>
      <trkpt lat="48.08644" lon="-4.22781">
        <ele>127</ele>
        <time>2013-03-17T10:31:31Z</time>
      </trkpt>
      <trkpt lat="48.08644" lon="-4.22773">
        <ele>126</ele>
        <time>2013-03-17T10:31:32Z</time>
      </trkpt>
      <trkpt lat="48.08643" lon="-4.22767">
        <ele>125</ele>
        <time>2013-03-17T10:31:33Z</time>
      </trkpt>
      <trkpt lat="48.08642" lon="-4.2276">
        <ele>124</ele>
        <time>2013-03-17T10:31:34Z</time>
      </trkpt>
      <trkpt lat="48.08639" lon="-4.22748">
        <ele>123</ele>
        <time>2013-03-17T10:31:36Z</time>
      </trkpt>
      <trkpt lat="48.08637" lon="-4.22741">
        <ele>122</ele>
        <time>2013-03-17T10:31:37Z</time>
      </trkpt>
      <trkpt lat="48.08635" lon="-4.22734">
        <ele>121</ele>
        <time>2013-03-17T10:31:38Z</time>
      </trkpt>
      <trkpt lat="48.08633" lon="-4.22725">
        <ele>121</ele>
        <time>2013-03-17T10:31:39Z</time>
      </trkpt>
      <trkpt lat="48.08631" lon="-4.22716">
        <ele>121</ele>
        <time>2013-03-17T10:31:40Z</time>
      </trkpt>
      <trkpt lat="48.08629" lon="-4.22708">
        <ele>121</ele>
        <time>2013-03-17T10:31:41Z</time>
      </trkpt>
      <trkpt lat="48.08627" lon="-4.22698">
        <ele>120</ele>
        <time>2013-03-17T10:31:42Z</time>
      </trkpt>
      <trkpt lat="48.08624" lon="-4.22685">
        <ele>120</ele>
        <time>2013-03-17T10:31:44Z</time>
      </trkpt>
      <trkpt lat="48.08622" lon="-4.22679">
        <ele>119</ele>
        <time>2013-03-17T10:31:45Z</time>
      </trkpt>
      <trkpt lat="48.08621" lon="-4.22672">
        <ele>119</ele>
        <time>2013-03-17T10:31:46Z</time>
      </trkpt>
      <trkpt lat="48.08619" lon="-4.22664">
        <ele>119</ele>
        <time>2013-03-17T10:31:47Z</time>
      </trkpt>
      <trkpt lat="48.08617" lon="-4.22656">
        <ele>118</ele>
        <time>2013-03-17T10:31:48Z</time>
      </trkpt>
      <trkpt lat="48.08615" lon="-4.22646">
        <ele>118</ele>
        <time>2013-03-17T10:31:50Z</time>
      </trkpt>
      <trkpt lat="48.08611" lon="-4.22634">
        <ele>117</ele>
        <time>2013-03-17T10:31:52Z</time>
      </trkpt>
      <trkpt lat="48.08609" lon="-4.22626">
        <ele>117</ele>
        <time>2013-03-17T10:31:53Z</time>
      </trkpt>
      <trkpt lat="48.08607" lon="-4.2262">
        <ele>117</ele>
        <time>2013-03-17T10:31:54Z</time>
      </trkpt>
      <trkpt lat="48.08604" lon="-4.22607">
        <ele>116</ele>
        <time>2013-03-17T10:31:56Z</time>
      </trkpt>
      <trkpt lat="48.08601" lon="-4.22595">
        <ele>116</ele>
        <time>2013-03-17T10:31:58Z</time>
      </trkpt>
      <trkpt lat="48.08599" lon="-4.22589">
        <ele>115</ele>
        <time>2013-03-17T10:31:59Z</time>
      </trkpt>
      <trkpt lat="48.08598" lon="-4.22582">
        <ele>115</ele>
        <time>2013-03-17T10:32:00Z</time>
      </trkpt>
      <trkpt lat="48.08597" lon="-4.22575">
        <ele>115</ele>
        <time>2013-03-17T10:32:01Z</time>
      </trkpt>
      <trkpt lat="48.08594" lon="-4.22563">
        <ele>115</ele>
        <time>2013-03-17T10:32:03Z</time>
      </trkpt>
      <trkpt lat="48.0859" lon="-4.2256">
        <ele>115</ele>
        <time>2013-03-17T10:32:25Z</time>
      </trkpt>
      <trkpt lat="48.08586" lon="-4.22573">
        <ele>115</ele>
        <time>2013-03-17T10:32:33Z</time>
      </trkpt>
      <trkpt lat="48.08576" lon="-4.22575">
        <ele>115</ele>
        <time>2013-03-17T10:32:36Z</time>
      </trkpt>
      <trkpt lat="48.08567" lon="-4.22574">
        <ele>115</ele>
        <time>2013-03-17T10:32:38Z</time>
      </trkpt>
      <trkpt lat="48.08557" lon="-4.22574">
        <ele>115</ele>
        <time>2013-03-17T10:32:40Z</time>
      </trkpt>
      <trkpt lat="48.08549" lon="-4.22574">
        <ele>115</ele>
        <time>2013-03-17T10:32:42Z</time>
      </trkpt>
      <trkpt lat="48.08541" lon="-4.22573">
        <ele>115</ele>
        <time>2013-03-17T10:32:44Z</time>
      </trkpt>
      <trkpt lat="48.08533" lon="-4.22572">
        <ele>115</ele>
        <time>2013-03-17T10:32:46Z</time>
      </trkpt>
      <trkpt lat="48.08527" lon="-4.22574">
        <ele>115</ele>
        <time>2013-03-17T10:32:47Z</time>
      </trkpt>
      <trkpt lat="48.08522" lon="-4.22576">
        <ele>115</ele>
        <time>2013-03-17T10:32:48Z</time>
      </trkpt>
      <trkpt lat="48.08512" lon="-4.2258">
        <ele>116</ele>
        <time>2013-03-17T10:32:51Z</time>
      </trkpt>
      <trkpt lat="48.08507" lon="-4.22582">
        <ele>116</ele>
        <time>2013-03-17T10:32:52Z</time>
      </trkpt>
      <trkpt lat="48.08503" lon="-4.22584">
        <ele>116</ele>
        <time>2013-03-17T10:32:53Z</time>
      </trkpt>
      <trkpt lat="48.08495" lon="-4.22587">
        <ele>116</ele>
        <time>2013-03-17T10:32:55Z</time>
      </trkpt>
      <trkpt lat="48.08491" lon="-4.22588">
        <ele>116</ele>
        <time>2013-03-17T10:32:56Z</time>
      </trkpt>
      <trkpt lat="48.08483" lon="-4.22589">
        <ele>116</ele>
        <time>2013-03-17T10:32:58Z</time>
      </trkpt>
      <trkpt lat="48.08473" lon="-4.22591">
        <ele>116</ele>
        <time>2013-03-17T10:33:00Z</time>
      </trkpt>
      <trkpt lat="48.08461" lon="-4.22592">
        <ele>116</ele>
        <time>2013-03-17T10:33:02Z</time>
      </trkpt>
      <trkpt lat="48.08455" lon="-4.22593">
        <ele>116</ele>
        <time>2013-03-17T10:33:03Z</time>
      </trkpt>
      <trkpt lat="48.08449" lon="-4.22593">
        <ele>116</ele>
        <time>2013-03-17T10:33:04Z</time>
      </trkpt>
      <trkpt lat="48.08444" lon="-4.22592">
        <ele>115</ele>
        <time>2013-03-17T10:33:05Z</time>
      </trkpt>
      <trkpt lat="48.08436" lon="-4.22591">
        <ele>114</ele>
        <time>2013-03-17T10:33:07Z</time>
      </trkpt>
      <trkpt lat="48.08432" lon="-4.2259">
        <ele>114</ele>
        <time>2013-03-17T10:33:08Z</time>
      </trkpt>
      <trkpt lat="48.08427" lon="-4.22589">
        <ele>114</ele>
        <time>2013-03-17T10:33:09Z</time>
      </trkpt>
      <trkpt lat="48.0842" lon="-4.22587">
        <ele>113</ele>
        <time>2013-03-17T10:33:11Z</time>
      </trkpt>
      <trkpt lat="48.08413" lon="-4.22586">
        <ele>112</ele>
        <time>2013-03-17T10:33:13Z</time>
      </trkpt>
      <trkpt lat="48.08408" lon="-4.22585">
        <ele>112</ele>
        <time>2013-03-17T10:33:14Z</time>
      </trkpt>
      <trkpt lat="48.08399" lon="-4.22581">
        <ele>111</ele>
        <time>2013-03-17T10:33:16Z</time>
      </trkpt>
      <trkpt lat="48.08388" lon="-4.22578">
        <ele>109</ele>
        <time>2013-03-17T10:33:19Z</time>
      </trkpt>
      <trkpt lat="48.08379" lon="-4.22577">
        <ele>108</ele>
        <time>2013-03-17T10:33:21Z</time>
      </trkpt>
      <trkpt lat="48.08373" lon="-4.22576">
        <ele>108</ele>
        <time>2013-03-17T10:33:23Z</time>
      </trkpt>
      <trkpt lat="48.08368" lon="-4.22574">
        <ele>107</ele>
        <time>2013-03-17T10:33:25Z</time>
      </trkpt>
      <trkpt lat="48.08361" lon="-4.22579">
        <ele>108</ele>
        <time>2013-03-17T10:33:32Z</time>
      </trkpt>
      <trkpt lat="48.08356" lon="-4.22583">
        <ele>108</ele>
        <time>2013-03-17T10:33:40Z</time>
      </trkpt>
      <trkpt lat="48.08351" lon="-4.22576">
        <ele>106</ele>
        <time>2013-03-17T10:34:00Z</time>
      </trkpt>
      <trkpt lat="48.08347" lon="-4.2257">
        <ele>107</ele>
        <time>2013-03-17T10:34:04Z</time>
      </trkpt>
      <trkpt lat="48.08341" lon="-4.22566">
        <ele>109</ele>
        <time>2013-03-17T10:34:07Z</time>
      </trkpt>
      <trkpt lat="48.08336" lon="-4.22568">
        <ele>110</ele>
        <time>2013-03-17T10:34:11Z</time>
      </trkpt>
      <trkpt lat="48.08333" lon="-4.22558">
        <ele>112</ele>
        <time>2013-03-17T10:34:59Z</time>
      </trkpt>
      <trkpt lat="48.08336" lon="-4.22552">
        <ele>110</ele>
        <time>2013-03-17T10:35:04Z</time>
      </trkpt>
      <trkpt lat="48.08334" lon="-4.22543">
        <ele>108</ele>
        <time>2013-03-17T10:35:08Z</time>
      </trkpt>
      <trkpt lat="48.08331" lon="-4.22534">
        <ele>107</ele>
        <time>2013-03-17T10:35:11Z</time>
      </trkpt>
      <trkpt lat="48.08329" lon="-4.22527">
        <ele>107</ele>
        <time>2013-03-17T10:35:13Z</time>
      </trkpt>
      <trkpt lat="48.08326" lon="-4.22518">
        <ele>107</ele>
        <time>2013-03-17T10:35:16Z</time>
      </trkpt>
      <trkpt lat="48.08324" lon="-4.22509">
        <ele>106</ele>
        <time>2013-03-17T10:35:19Z</time>
      </trkpt>
      <trkpt lat="48.08322" lon="-4.22501">
        <ele>105</ele>
        <time>2013-03-17T10:35:21Z</time>
      </trkpt>
      <trkpt lat="48.08321" lon="-4.22492">
        <ele>105</ele>
        <time>2013-03-17T10:35:23Z</time>
      </trkpt>
      <trkpt lat="48.0832" lon="-4.22482">
        <ele>105</ele>
        <time>2013-03-17T10:35:25Z</time>
      </trkpt>
      <trkpt lat="48.08319" lon="-4.22473">
        <ele>106</ele>
        <time>2013-03-17T10:35:27Z</time>
      </trkpt>
      <trkpt lat="48.08317" lon="-4.22464">
        <ele>106</ele>
        <time>2013-03-17T10:35:29Z</time>
      </trkpt>
      <trkpt lat="48.08316" lon="-4.22455">
        <ele>106</ele>
        <time>2013-03-17T10:35:31Z</time>
      </trkpt>
      <trkpt lat="48.08315" lon="-4.22447">
        <ele>106</ele>
        <time>2013-03-17T10:35:33Z</time>
      </trkpt>
      <trkpt lat="48.08314" lon="-4.22439">
        <ele>106</ele>
        <time>2013-03-17T10:35:35Z</time>
      </trkpt>
      <trkpt lat="48.08313" lon="-4.22429">
        <ele>106</ele>
        <time>2013-03-17T10:35:37Z</time>
      </trkpt>
      <trkpt lat="48.08312" lon="-4.22421">
        <ele>105</ele>
        <time>2013-03-17T10:35:39Z</time>
      </trkpt>
      <trkpt lat="48.0831" lon="-4.22408">
        <ele>105</ele>
        <time>2013-03-17T10:35:42Z</time>
      </trkpt>
      <trkpt lat="48.08309" lon="-4.22393">
        <ele>106</ele>
        <time>2013-03-17T10:35:46Z</time>
      </trkpt>
      <trkpt lat="48.08307" lon="-4.22385">
        <ele>106</ele>
        <time>2013-03-17T10:35:48Z</time>
      </trkpt>
      <trkpt lat="48.08302" lon="-4.22381">
        <ele>106</ele>
        <time>2013-03-17T10:35:50Z</time>
      </trkpt>
      <trkpt lat="48.08296" lon="-4.22377">
        <ele>106</ele>
        <time>2013-03-17T10:35:52Z</time>
      </trkpt>
      <trkpt lat="48.08289" lon="-4.22375">
        <ele>107</ele>
        <time>2013-03-17T10:35:54Z</time>
      </trkpt>
      <trkpt lat="48.08281" lon="-4.22372">
        <ele>107</ele>
        <time>2013-03-17T10:35:56Z</time>
      </trkpt>
      <trkpt lat="48.08272" lon="-4.22368">
        <ele>108</ele>
        <time>2013-03-17T10:35:59Z</time>
      </trkpt>
      <trkpt lat="48.0826" lon="-4.22363">
        <ele>108</ele>
        <time>2013-03-17T10:36:02Z</time>
      </trkpt>
      <trkpt lat="48.08249" lon="-4.22362">
        <ele>107</ele>
        <time>2013-03-17T10:36:05Z</time>
      </trkpt>
      <trkpt lat="48.08243" lon="-4.22367">
        <ele>107</ele>
        <time>2013-03-17T10:36:07Z</time>
      </trkpt>
      <trkpt lat="48.08237" lon="-4.22373">
        <ele>107</ele>
        <time>2013-03-17T10:36:09Z</time>
      </trkpt>
      <trkpt lat="48.08231" lon="-4.22377">
        <ele>107</ele>
        <time>2013-03-17T10:36:11Z</time>
      </trkpt>
      <trkpt lat="48.08226" lon="-4.22384">
        <ele>107</ele>
        <time>2013-03-17T10:36:13Z</time>
      </trkpt>
      <trkpt lat="48.0822" lon="-4.22392">
        <ele>107</ele>
        <time>2013-03-17T10:36:15Z</time>
      </trkpt>
      <trkpt lat="48.08216" lon="-4.22398">
        <ele>107</ele>
        <time>2013-03-17T10:36:17Z</time>
      </trkpt>
      <trkpt lat="48.0821" lon="-4.22406">
        <ele>106</ele>
        <time>2013-03-17T10:36:20Z</time>
      </trkpt>
      <trkpt lat="48.08206" lon="-4.22411">
        <ele>107</ele>
        <time>2013-03-17T10:36:22Z</time>
      </trkpt>
      <trkpt lat="48.08202" lon="-4.22417">
        <ele>107</ele>
        <time>2013-03-17T10:36:24Z</time>
      </trkpt>
      <trkpt lat="48.08199" lon="-4.22422">
        <ele>107</ele>
        <time>2013-03-17T10:36:26Z</time>
      </trkpt>
      <trkpt lat="48.08198" lon="-4.2243">
        <ele>107</ele>
        <time>2013-03-17T10:36:28Z</time>
      </trkpt>
      <trkpt lat="48.082" lon="-4.22438">
        <ele>107</ele>
        <time>2013-03-17T10:36:30Z</time>
      </trkpt>
      <trkpt lat="48.08205" lon="-4.22444">
        <ele>107</ele>
        <time>2013-03-17T10:36:33Z</time>
      </trkpt>
      <trkpt lat="48.08209" lon="-4.22449">
        <ele>106</ele>
        <time>2013-03-17T10:36:35Z</time>
      </trkpt>
      <trkpt lat="48.08212" lon="-4.22454">
        <ele>106</ele>
        <time>2013-03-17T10:36:37Z</time>
      </trkpt>
      <trkpt lat="48.08218" lon="-4.22468">
        <ele>104</ele>
        <time>2013-03-17T10:36:41Z</time>
      </trkpt>
      <trkpt lat="48.08222" lon="-4.22475">
        <ele>102</ele>
        <time>2013-03-17T10:36:43Z</time>
      </trkpt>
      <trkpt lat="48.08226" lon="-4.22482">
        <ele>101</ele>
        <time>2013-03-17T10:36:45Z</time>
      </trkpt>
      <trkpt lat="48.08231" lon="-4.22494">
        <ele>100</ele>
        <time>2013-03-17T10:36:49Z</time>
      </trkpt>
      <trkpt lat="48.08235" lon="-4.22503">
        <ele>99</ele>
        <time>2013-03-17T10:36:51Z</time>
      </trkpt>
      <trkpt lat="48.08239" lon="-4.2251">
        <ele>99</ele>
        <time>2013-03-17T10:36:53Z</time>
      </trkpt>
      <trkpt lat="48.08234" lon="-4.22512">
        <ele>98</ele>
        <time>2013-03-17T10:36:59Z</time>
      </trkpt>
      <trkpt lat="48.08228" lon="-4.22508">
        <ele>98</ele>
        <time>2013-03-17T10:37:02Z</time>
      </trkpt>
      <trkpt lat="48.08222" lon="-4.22505">
        <ele>99</ele>
        <time>2013-03-17T10:37:05Z</time>
      </trkpt>
      <trkpt lat="48.08216" lon="-4.22504">
        <ele>100</ele>
        <time>2013-03-17T10:37:07Z</time>
      </trkpt>
      <trkpt lat="48.08209" lon="-4.22502">
        <ele>99</ele>
        <time>2013-03-17T10:37:09Z</time>
      </trkpt>
      <trkpt lat="48.08204" lon="-4.225">
        <ele>99</ele>
        <time>2013-03-17T10:37:12Z</time>
      </trkpt>
      <trkpt lat="48.08199" lon="-4.22498">
        <ele>98</ele>
        <time>2013-03-17T10:37:14Z</time>
      </trkpt>
      <trkpt lat="48.08194" lon="-4.22498">
        <ele>97</ele>
        <time>2013-03-17T10:37:33Z</time>
      </trkpt>
      <trkpt lat="48.08184" lon="-4.22498">
        <ele>97</ele>
        <time>2013-03-17T10:37:36Z</time>
      </trkpt>
      <trkpt lat="48.08169" lon="-4.22494">
        <ele>96</ele>
        <time>2013-03-17T10:37:39Z</time>
      </trkpt>
      <trkpt lat="48.08164" lon="-4.22493">
        <ele>96</ele>
        <time>2013-03-17T10:37:40Z</time>
      </trkpt>
      <trkpt lat="48.08158" lon="-4.22491">
        <ele>95</ele>
        <time>2013-03-17T10:37:41Z</time>
      </trkpt>
      <trkpt lat="48.08146" lon="-4.22488">
        <ele>95</ele>
        <time>2013-03-17T10:37:43Z</time>
      </trkpt>
      <trkpt lat="48.08141" lon="-4.22486">
        <ele>96</ele>
        <time>2013-03-17T10:37:44Z</time>
      </trkpt>
      <trkpt lat="48.08136" lon="-4.22484">
        <ele>96</ele>
        <time>2013-03-17T10:37:45Z</time>
      </trkpt>
      <trkpt lat="48.0813" lon="-4.22484">
        <ele>95</ele>
        <time>2013-03-17T10:37:46Z</time>
      </trkpt>
      <trkpt lat="48.08122" lon="-4.22484">
        <ele>94</ele>
        <time>2013-03-17T10:37:48Z</time>
      </trkpt>
      <trkpt lat="48.08115" lon="-4.22485">
        <ele>92</ele>
        <time>2013-03-17T10:37:50Z</time>
      </trkpt>
      <trkpt lat="48.08108" lon="-4.22484">
        <ele>91</ele>
        <time>2013-03-17T10:37:52Z</time>
      </trkpt>
      <trkpt lat="48.08103" lon="-4.22482">
        <ele>89</ele>
        <time>2013-03-17T10:37:54Z</time>
      </trkpt>
      <trkpt lat="48.08096" lon="-4.22477">
        <ele>87</ele>
        <time>2013-03-17T10:37:57Z</time>
      </trkpt>
      <trkpt lat="48.08093" lon="-4.22473">
        <ele>85</ele>
        <time>2013-03-17T10:37:59Z</time>
      </trkpt>
      <trkpt lat="48.08088" lon="-4.22468">
        <ele>84</ele>
        <time>2013-03-17T10:38:01Z</time>
      </trkpt>
      <trkpt lat="48.08083" lon="-4.22465">
        <ele>82</ele>
        <time>2013-03-17T10:38:03Z</time>
      </trkpt>
      <trkpt lat="48.08078" lon="-4.22461">
        <ele>81</ele>
        <time>2013-03-17T10:38:05Z</time>
      </trkpt>
      <trkpt lat="48.08071" lon="-4.22463">
        <ele>79</ele>
        <time>2013-03-17T10:38:09Z</time>
      </trkpt>
      <trkpt lat="48.08065" lon="-4.2246">
        <ele>78</ele>
        <time>2013-03-17T10:38:11Z</time>
      </trkpt>
      <trkpt lat="48.08064" lon="-4.22452">
        <ele>76</ele>
        <time>2013-03-17T10:38:13Z</time>
      </trkpt>
      <trkpt lat="48.08065" lon="-4.22441">
        <ele>75</ele>
        <time>2013-03-17T10:38:15Z</time>
      </trkpt>
      <trkpt lat="48.08066" lon="-4.22433">
        <ele>73</ele>
        <time>2013-03-17T10:38:17Z</time>
      </trkpt>
      <trkpt lat="48.08065" lon="-4.22418">
        <ele>71</ele>
        <time>2013-03-17T10:38:21Z</time>
      </trkpt>
      <trkpt lat="48.08061" lon="-4.22408">
        <ele>72</ele>
        <time>2013-03-17T10:38:41Z</time>
      </trkpt>
      <trkpt lat="48.08052" lon="-4.224">
        <ele>71</ele>
        <time>2013-03-17T10:38:43Z</time>
      </trkpt>
      <trkpt lat="48.08042" lon="-4.22393">
        <ele>69</ele>
        <time>2013-03-17T10:38:45Z</time>
      </trkpt>
      <trkpt lat="48.08036" lon="-4.22391">
        <ele>69</ele>
        <time>2013-03-17T10:38:46Z</time>
      </trkpt>
      <trkpt lat="48.08028" lon="-4.22389">
        <ele>68</ele>
        <time>2013-03-17T10:38:48Z</time>
      </trkpt>
      <trkpt lat="48.08024" lon="-4.2239">
        <ele>67</ele>
        <time>2013-03-17T10:38:49Z</time>
      </trkpt>
      <trkpt lat="48.08014" lon="-4.22399">
        <ele>64</ele>
        <time>2013-03-17T10:38:52Z</time>
      </trkpt>
      <trkpt lat="48.08007" lon="-4.22412">
        <ele>63</ele>
        <time>2013-03-17T10:38:54Z</time>
      </trkpt>
      <trkpt lat="48.08001" lon="-4.22419">
        <ele>61</ele>
        <time>2013-03-17T10:38:56Z</time>
      </trkpt>
      <trkpt lat="48.07991" lon="-4.22419">
        <ele>59</ele>
        <time>2013-03-17T10:38:59Z</time>
      </trkpt>
      <trkpt lat="48.07987" lon="-4.22414">
        <ele>58</ele>
        <time>2013-03-17T10:39:02Z</time>
      </trkpt>
      <trkpt lat="48.07982" lon="-4.22409">
        <ele>57</ele>
        <time>2013-03-17T10:39:04Z</time>
      </trkpt>
      <trkpt lat="48.07975" lon="-4.22406">
        <ele>56</ele>
        <time>2013-03-17T10:39:06Z</time>
      </trkpt>
      <trkpt lat="48.07968" lon="-4.22414">
        <ele>55</ele>
        <time>2013-03-17T10:39:11Z</time>
      </trkpt>
      <trkpt lat="48.07965" lon="-4.2242">
        <ele>54</ele>
        <time>2013-03-17T10:39:13Z</time>
      </trkpt>
      <trkpt lat="48.07961" lon="-4.22426">
        <ele>55</ele>
        <time>2013-03-17T10:39:15Z</time>
      </trkpt>
      <trkpt lat="48.07956" lon="-4.22431">
        <ele>55</ele>
        <time>2013-03-17T10:39:18Z</time>
      </trkpt>
      <trkpt lat="48.07948" lon="-4.22442">
        <ele>55</ele>
        <time>2013-03-17T10:39:23Z</time>
      </trkpt>
      <trkpt lat="48.07942" lon="-4.22454">
        <ele>55</ele>
        <time>2013-03-17T10:39:26Z</time>
      </trkpt>
      <trkpt lat="48.07939" lon="-4.22461">
        <ele>55</ele>
        <time>2013-03-17T10:39:28Z</time>
      </trkpt>
      <trkpt lat="48.07931" lon="-4.22471">
        <ele>58</ele>
        <time>2013-03-17T10:39:33Z</time>
      </trkpt>
      <trkpt lat="48.07927" lon="-4.22478">
        <ele>59</ele>
        <time>2013-03-17T10:39:36Z</time>
      </trkpt>
      <trkpt lat="48.07924" lon="-4.22488">
        <ele>61</ele>
        <time>2013-03-17T10:39:39Z</time>
      </trkpt>
      <trkpt lat="48.0792" lon="-4.22494">
        <ele>62</ele>
        <time>2013-03-17T10:39:41Z</time>
      </trkpt>
      <trkpt lat="48.07915" lon="-4.22496">
        <ele>62</ele>
        <time>2013-03-17T10:39:44Z</time>
      </trkpt>
      <trkpt lat="48.07909" lon="-4.22492">
        <ele>61</ele>
        <time>2013-03-17T10:39:49Z</time>
      </trkpt>
      <trkpt lat="48.07906" lon="-4.22487">
        <ele>62</ele>
        <time>2013-03-17T10:39:52Z</time>
      </trkpt>
      <trkpt lat="48.07901" lon="-4.2248">
        <ele>63</ele>
        <time>2013-03-17T10:39:56Z</time>
      </trkpt>
      <trkpt lat="48.07896" lon="-4.22476">
        <ele>64</ele>
        <time>2013-03-17T10:39:59Z</time>
      </trkpt>
      <trkpt lat="48.07891" lon="-4.22474">
        <ele>66</ele>
        <time>2013-03-17T10:40:02Z</time>
      </trkpt>
      <trkpt lat="48.07886" lon="-4.22473">
        <ele>67</ele>
        <time>2013-03-17T10:40:06Z</time>
      </trkpt>
      <trkpt lat="48.07879" lon="-4.22476">
        <ele>67</ele>
        <time>2013-03-17T10:40:09Z</time>
      </trkpt>
      <trkpt lat="48.07874" lon="-4.22478">
        <ele>66</ele>
        <time>2013-03-17T10:40:11Z</time>
      </trkpt>
      <trkpt lat="48.07869" lon="-4.22478">
        <ele>66</ele>
        <time>2013-03-17T10:40:14Z</time>
      </trkpt>
      <trkpt lat="48.07865" lon="-4.22474">
        <ele>67</ele>
        <time>2013-03-17T10:40:17Z</time>
      </trkpt>
      <trkpt lat="48.0786" lon="-4.2247">
        <ele>67</ele>
        <time>2013-03-17T10:40:21Z</time>
      </trkpt>
      <trkpt lat="48.07855" lon="-4.22467">
        <ele>69</ele>
        <time>2013-03-17T10:40:25Z</time>
      </trkpt>
      <trkpt lat="48.0785" lon="-4.2247">
        <ele>72</ele>
        <time>2013-03-17T10:42:23Z</time>
      </trkpt>
      <trkpt lat="48.07848" lon="-4.22478">
        <ele>71</ele>
        <time>2013-03-17T10:42:27Z</time>
      </trkpt>
      <trkpt lat="48.07844" lon="-4.22484">
        <ele>70</ele>
        <time>2013-03-17T10:42:29Z</time>
      </trkpt>
      <trkpt lat="48.0784" lon="-4.22489">
        <ele>70</ele>
        <time>2013-03-17T10:42:31Z</time>
      </trkpt>
      <trkpt lat="48.07837" lon="-4.22498">
        <ele>69</ele>
        <time>2013-03-17T10:42:33Z</time>
      </trkpt>
      <trkpt lat="48.07834" lon="-4.22507">
        <ele>68</ele>
        <time>2013-03-17T10:42:35Z</time>
      </trkpt>
      <trkpt lat="48.07833" lon="-4.22523">
        <ele>65</ele>
        <time>2013-03-17T10:42:38Z</time>
      </trkpt>
      <trkpt lat="48.0783" lon="-4.22534">
        <ele>64</ele>
        <time>2013-03-17T10:42:40Z</time>
      </trkpt>
      <trkpt lat="48.07825" lon="-4.2254">
        <ele>63</ele>
        <time>2013-03-17T10:42:42Z</time>
      </trkpt>
      <trkpt lat="48.0782" lon="-4.22543">
        <ele>63</ele>
        <time>2013-03-17T10:42:44Z</time>
      </trkpt>
      <trkpt lat="48.07812" lon="-4.22545">
        <ele>64</ele>
        <time>2013-03-17T10:42:47Z</time>
      </trkpt>
      <trkpt lat="48.07803" lon="-4.22547">
        <ele>64</ele>
        <time>2013-03-17T10:42:50Z</time>
      </trkpt>
      <trkpt lat="48.07798" lon="-4.2255">
        <ele>64</ele>
        <time>2013-03-17T10:42:52Z</time>
      </trkpt>
      <trkpt lat="48.0779" lon="-4.22555">
        <ele>64</ele>
        <time>2013-03-17T10:42:56Z</time>
      </trkpt>
      <trkpt lat="48.07784" lon="-4.22557">
        <ele>64</ele>
        <time>2013-03-17T10:42:58Z</time>
      </trkpt>
      <trkpt lat="48.07777" lon="-4.2256">
        <ele>64</ele>
        <time>2013-03-17T10:43:00Z</time>
      </trkpt>
      <trkpt lat="48.07772" lon="-4.22563">
        <ele>63</ele>
        <time>2013-03-17T10:43:02Z</time>
      </trkpt>
      <trkpt lat="48.07768" lon="-4.22566">
        <ele>62</ele>
        <time>2013-03-17T10:43:04Z</time>
      </trkpt>
      <trkpt lat="48.07764" lon="-4.2257">
        <ele>62</ele>
        <time>2013-03-17T10:43:06Z</time>
      </trkpt>
      <trkpt lat="48.07759" lon="-4.22575">
        <ele>61</ele>
        <time>2013-03-17T10:43:08Z</time>
      </trkpt>
      <trkpt lat="48.07756" lon="-4.22581">
        <ele>61</ele>
        <time>2013-03-17T10:43:10Z</time>
      </trkpt>
      <trkpt lat="48.07752" lon="-4.22588">
        <ele>61</ele>
        <time>2013-03-17T10:43:12Z</time>
      </trkpt>
      <trkpt lat="48.07749" lon="-4.22594">
        <ele>61</ele>
        <time>2013-03-17T10:43:14Z</time>
      </trkpt>
      <trkpt lat="48.07747" lon="-4.22601">
        <ele>61</ele>
        <time>2013-03-17T10:43:16Z</time>
      </trkpt>
      <trkpt lat="48.07744" lon="-4.22609">
        <ele>62</ele>
        <time>2013-03-17T10:43:18Z</time>
      </trkpt>
      <trkpt lat="48.07742" lon="-4.22617">
        <ele>62</ele>
        <time>2013-03-17T10:43:20Z</time>
      </trkpt>
      <trkpt lat="48.07739" lon="-4.22625">
        <ele>63</ele>
        <time>2013-03-17T10:43:22Z</time>
      </trkpt>
      <trkpt lat="48.07736" lon="-4.22632">
        <ele>64</ele>
        <time>2013-03-17T10:43:24Z</time>
      </trkpt>
      <trkpt lat="48.07733" lon="-4.22638">
        <ele>64</ele>
        <time>2013-03-17T10:43:26Z</time>
      </trkpt>
      <trkpt lat="48.0773" lon="-4.22647">
        <ele>65</ele>
        <time>2013-03-17T10:43:28Z</time>
      </trkpt>
      <trkpt lat="48.07725" lon="-4.22656">
        <ele>65</ele>
        <time>2013-03-17T10:43:30Z</time>
      </trkpt>
      <trkpt lat="48.07722" lon="-4.22663">
        <ele>65</ele>
        <time>2013-03-17T10:43:32Z</time>
      </trkpt>
      <trkpt lat="48.07718" lon="-4.2267">
        <ele>65</ele>
        <time>2013-03-17T10:43:34Z</time>
      </trkpt>
      <trkpt lat="48.07714" lon="-4.22678">
        <ele>65</ele>
        <time>2013-03-17T10:43:36Z</time>
      </trkpt>
      <trkpt lat="48.07709" lon="-4.22685">
        <ele>65</ele>
        <time>2013-03-17T10:43:38Z</time>
      </trkpt>
      <trkpt lat="48.07705" lon="-4.22692">
        <ele>65</ele>
        <time>2013-03-17T10:43:40Z</time>
      </trkpt>
      <trkpt lat="48.077" lon="-4.22698">
        <ele>65</ele>
        <time>2013-03-17T10:43:42Z</time>
      </trkpt>
      <trkpt lat="48.07695" lon="-4.22702">
        <ele>65</ele>
        <time>2013-03-17T10:43:44Z</time>
      </trkpt>
      <trkpt lat="48.07691" lon="-4.22705">
        <ele>65</ele>
        <time>2013-03-17T10:43:46Z</time>
      </trkpt>
      <trkpt lat="48.07686" lon="-4.22708">
        <ele>65</ele>
        <time>2013-03-17T10:43:48Z</time>
      </trkpt>
      <trkpt lat="48.07681" lon="-4.2271">
        <ele>65</ele>
        <time>2013-03-17T10:43:50Z</time>
      </trkpt>
      <trkpt lat="48.07675" lon="-4.22712">
        <ele>65</ele>
        <time>2013-03-17T10:43:52Z</time>
      </trkpt>
      <trkpt lat="48.0767" lon="-4.22712">
        <ele>65</ele>
        <time>2013-03-17T10:43:54Z</time>
      </trkpt>
      <trkpt lat="48.07663" lon="-4.22713">
        <ele>66</ele>
        <time>2013-03-17T10:43:56Z</time>
      </trkpt>
      <trkpt lat="48.07657" lon="-4.22713">
        <ele>66</ele>
        <time>2013-03-17T10:43:58Z</time>
      </trkpt>
      <trkpt lat="48.07651" lon="-4.22714">
        <ele>66</ele>
        <time>2013-03-17T10:44:00Z</time>
      </trkpt>
      <trkpt lat="48.07645" lon="-4.22714">
        <ele>67</ele>
        <time>2013-03-17T10:44:02Z</time>
      </trkpt>
      <trkpt lat="48.07639" lon="-4.22715">
        <ele>68</ele>
        <time>2013-03-17T10:44:04Z</time>
      </trkpt>
      <trkpt lat="48.07633" lon="-4.22716">
        <ele>68</ele>
        <time>2013-03-17T10:44:06Z</time>
      </trkpt>
      <trkpt lat="48.07627" lon="-4.22717">
        <ele>68</ele>
        <time>2013-03-17T10:44:08Z</time>
      </trkpt>
      <trkpt lat="48.07621" lon="-4.22718">
        <ele>68</ele>
        <time>2013-03-17T10:44:10Z</time>
      </trkpt>
      <trkpt lat="48.07615" lon="-4.22718">
        <ele>68</ele>
        <time>2013-03-17T10:44:12Z</time>
      </trkpt>
      <trkpt lat="48.07608" lon="-4.22718">
        <ele>69</ele>
        <time>2013-03-17T10:44:14Z</time>
      </trkpt>
      <trkpt lat="48.07602" lon="-4.22719">
        <ele>69</ele>
        <time>2013-03-17T10:44:16Z</time>
      </trkpt>
      <trkpt lat="48.07596" lon="-4.2272">
        <ele>69</ele>
        <time>2013-03-17T10:44:18Z</time>
      </trkpt>
      <trkpt lat="48.07589" lon="-4.2272">
        <ele>69</ele>
        <time>2013-03-17T10:44:20Z</time>
      </trkpt>
      <trkpt lat="48.07583" lon="-4.22721">
        <ele>69</ele>
        <time>2013-03-17T10:44:22Z</time>
      </trkpt>
      <trkpt lat="48.07576" lon="-4.22722">
        <ele>70</ele>
        <time>2013-03-17T10:44:24Z</time>
      </trkpt>
      <trkpt lat="48.0757" lon="-4.22722">
        <ele>71</ele>
        <time>2013-03-17T10:44:26Z</time>
      </trkpt>
      <trkpt lat="48.07564" lon="-4.22722">
        <ele>71</ele>
        <time>2013-03-17T10:44:28Z</time>
      </trkpt>
      <trkpt lat="48.07557" lon="-4.22722">
        <ele>72</ele>
        <time>2013-03-17T10:44:30Z</time>
      </trkpt>
      <trkpt lat="48.07551" lon="-4.22723">
        <ele>72</ele>
        <time>2013-03-17T10:44:32Z</time>
      </trkpt>
      <trkpt lat="48.07545" lon="-4.22724">
        <ele>73</ele>
        <time>2013-03-17T10:44:34Z</time>
      </trkpt>
      <trkpt lat="48.0754" lon="-4.22725">
        <ele>73</ele>
        <time>2013-03-17T10:44:37Z</time>
      </trkpt>
      <trkpt lat="48.0754" lon="-4.22732">
        <ele>73</ele>
        <time>2013-03-17T10:45:28Z</time>
      </trkpt>
      <trkpt lat="48.07543" lon="-4.22741">
        <ele>73</ele>
        <time>2013-03-17T10:45:31Z</time>
      </trkpt>
      <trkpt lat="48.07544" lon="-4.22748">
        <ele>73</ele>
        <time>2013-03-17T10:45:33Z</time>
      </trkpt>
      <trkpt lat="48.07546" lon="-4.22762">
        <ele>72</ele>
        <time>2013-03-17T10:45:37Z</time>
      </trkpt>
      <trkpt lat="48.07547" lon="-4.22773">
        <ele>71</ele>
        <time>2013-03-17T10:45:39Z</time>
      </trkpt>
      <trkpt lat="48.07548" lon="-4.22783">
        <ele>71</ele>
        <time>2013-03-17T10:45:41Z</time>
      </trkpt>
      <trkpt lat="48.07549" lon="-4.22792">
        <ele>71</ele>
        <time>2013-03-17T10:45:43Z</time>
      </trkpt>
      <trkpt lat="48.07549" lon="-4.22803">
        <ele>70</ele>
        <time>2013-03-17T10:45:45Z</time>
      </trkpt>
      <trkpt lat="48.07551" lon="-4.22812">
        <ele>69</ele>
        <time>2013-03-17T10:45:47Z</time>
      </trkpt>
      <trkpt lat="48.07551" lon="-4.22823">
        <ele>69</ele>
        <time>2013-03-17T10:45:49Z</time>
      </trkpt>
      <trkpt lat="48.07552" lon="-4.22833">
        <ele>69</ele>
        <time>2013-03-17T10:45:51Z</time>
      </trkpt>
      <trkpt lat="48.07555" lon="-4.22842">
        <ele>68</ele>
        <time>2013-03-17T10:45:53Z</time>
      </trkpt>
      <trkpt lat="48.07557" lon="-4.22853">
        <ele>67</ele>
        <time>2013-03-17T10:45:55Z</time>
      </trkpt>
      <trkpt lat="48.07558" lon="-4.22863">
        <ele>67</ele>
        <time>2013-03-17T10:45:57Z</time>
      </trkpt>
      <trkpt lat="48.0756" lon="-4.22873">
        <ele>67</ele>
        <time>2013-03-17T10:45:59Z</time>
      </trkpt>
      <trkpt lat="48.07561" lon="-4.22883">
        <ele>66</ele>
        <time>2013-03-17T10:46:01Z</time>
      </trkpt>
      <trkpt lat="48.07562" lon="-4.22894">
        <ele>66</ele>
        <time>2013-03-17T10:46:03Z</time>
      </trkpt>
      <trkpt lat="48.07563" lon="-4.22905">
        <ele>66</ele>
        <time>2013-03-17T10:46:05Z</time>
      </trkpt>
      <trkpt lat="48.07564" lon="-4.22916">
        <ele>66</ele>
        <time>2013-03-17T10:46:07Z</time>
      </trkpt>
      <trkpt lat="48.07566" lon="-4.22927">
        <ele>66</ele>
        <time>2013-03-17T10:46:09Z</time>
      </trkpt>
      <trkpt lat="48.07569" lon="-4.22937">
        <ele>67</ele>
        <time>2013-03-17T10:46:11Z</time>
      </trkpt>
      <trkpt lat="48.07575" lon="-4.22946">
        <ele>67</ele>
        <time>2013-03-17T10:46:13Z</time>
      </trkpt>
      <trkpt lat="48.07582" lon="-4.22954">
        <ele>67</ele>
        <time>2013-03-17T10:46:15Z</time>
      </trkpt>
      <trkpt lat="48.07585" lon="-4.22959">
        <ele>68</ele>
        <time>2013-03-17T10:46:16Z</time>
      </trkpt>
      <trkpt lat="48.0759" lon="-4.22966">
        <ele>68</ele>
        <time>2013-03-17T10:46:18Z</time>
      </trkpt>
      <trkpt lat="48.07595" lon="-4.22974">
        <ele>68</ele>
        <time>2013-03-17T10:46:20Z</time>
      </trkpt>
      <trkpt lat="48.07601" lon="-4.22984">
        <ele>68</ele>
        <time>2013-03-17T10:46:22Z</time>
      </trkpt>
      <trkpt lat="48.07608" lon="-4.22993">
        <ele>67</ele>
        <time>2013-03-17T10:46:24Z</time>
      </trkpt>
      <trkpt lat="48.07613" lon="-4.23001">
        <ele>67</ele>
        <time>2013-03-17T10:46:26Z</time>
      </trkpt>
      <trkpt lat="48.07617" lon="-4.23006">
        <ele>67</ele>
        <time>2013-03-17T10:46:27Z</time>
      </trkpt>
      <trkpt lat="48.07623" lon="-4.23016">
        <ele>67</ele>
        <time>2013-03-17T10:46:29Z</time>
      </trkpt>
      <trkpt lat="48.07629" lon="-4.23025">
        <ele>67</ele>
        <time>2013-03-17T10:46:31Z</time>
      </trkpt>
      <trkpt lat="48.07636" lon="-4.23034">
        <ele>66</ele>
        <time>2013-03-17T10:46:33Z</time>
      </trkpt>
      <trkpt lat="48.07639" lon="-4.23039">
        <ele>66</ele>
        <time>2013-03-17T10:46:34Z</time>
      </trkpt>
      <trkpt lat="48.07642" lon="-4.23044">
        <ele>66</ele>
        <time>2013-03-17T10:46:35Z</time>
      </trkpt>
      <trkpt lat="48.07646" lon="-4.23049">
        <ele>66</ele>
        <time>2013-03-17T10:46:36Z</time>
      </trkpt>
      <trkpt lat="48.07649" lon="-4.23055">
        <ele>66</ele>
        <time>2013-03-17T10:46:37Z</time>
      </trkpt>
      <trkpt lat="48.07653" lon="-4.23062">
        <ele>65</ele>
        <time>2013-03-17T10:46:38Z</time>
      </trkpt>
      <trkpt lat="48.07657" lon="-4.23067">
        <ele>65</ele>
        <time>2013-03-17T10:46:39Z</time>
      </trkpt>
      <trkpt lat="48.0766" lon="-4.23073">
        <ele>65</ele>
        <time>2013-03-17T10:46:40Z</time>
      </trkpt>
      <trkpt lat="48.07664" lon="-4.2308">
        <ele>64</ele>
        <time>2013-03-17T10:46:41Z</time>
      </trkpt>
      <trkpt lat="48.07669" lon="-4.23086">
        <ele>64</ele>
        <time>2013-03-17T10:46:42Z</time>
      </trkpt>
      <trkpt lat="48.07673" lon="-4.23094">
        <ele>64</ele>
        <time>2013-03-17T10:46:43Z</time>
      </trkpt>
      <trkpt lat="48.07678" lon="-4.23101">
        <ele>63</ele>
        <time>2013-03-17T10:46:44Z</time>
      </trkpt>
      <trkpt lat="48.07683" lon="-4.23109">
        <ele>63</ele>
        <time>2013-03-17T10:46:45Z</time>
      </trkpt>
      <trkpt lat="48.07687" lon="-4.23117">
        <ele>62</ele>
        <time>2013-03-17T10:46:46Z</time>
      </trkpt>
      <trkpt lat="48.07693" lon="-4.23124">
        <ele>62</ele>
        <time>2013-03-17T10:46:47Z</time>
      </trkpt>
      <trkpt lat="48.07698" lon="-4.23132">
        <ele>61</ele>
        <time>2013-03-17T10:46:48Z</time>
      </trkpt>
      <trkpt lat="48.07703" lon="-4.2314">
        <ele>61</ele>
        <time>2013-03-17T10:46:49Z</time>
      </trkpt>
      <trkpt lat="48.07708" lon="-4.23147">
        <ele>60</ele>
        <time>2013-03-17T10:46:50Z</time>
      </trkpt>
      <trkpt lat="48.07713" lon="-4.23154">
        <ele>60</ele>
        <time>2013-03-17T10:46:51Z</time>
      </trkpt>
      <trkpt lat="48.07717" lon="-4.23161">
        <ele>59</ele>
        <time>2013-03-17T10:46:52Z</time>
      </trkpt>
      <trkpt lat="48.07721" lon="-4.23166">
        <ele>58</ele>
        <time>2013-03-17T10:46:53Z</time>
      </trkpt>
      <trkpt lat="48.0773" lon="-4.2318">
        <ele>57</ele>
        <time>2013-03-17T10:46:55Z</time>
      </trkpt>
      <trkpt lat="48.07733" lon="-4.23186">
        <ele>56</ele>
        <time>2013-03-17T10:46:56Z</time>
      </trkpt>
      <trkpt lat="48.07741" lon="-4.23202">
        <ele>55</ele>
        <time>2013-03-17T10:46:59Z</time>
      </trkpt>
      <trkpt lat="48.0775" lon="-4.23218">
        <ele>53</ele>
        <time>2013-03-17T10:47:02Z</time>
      </trkpt>
      <trkpt lat="48.07756" lon="-4.23229">
        <ele>52</ele>
        <time>2013-03-17T10:47:04Z</time>
      </trkpt>
      <trkpt lat="48.07765" lon="-4.23242">
        <ele>50</ele>
        <time>2013-03-17T10:47:07Z</time>
      </trkpt>
      <trkpt lat="48.07768" lon="-4.23249">
        <ele>50</ele>
        <time>2013-03-17T10:47:08Z</time>
      </trkpt>
      <trkpt lat="48.07771" lon="-4.23255">
        <ele>50</ele>
        <time>2013-03-17T10:47:09Z</time>
      </trkpt>
      <trkpt lat="48.07778" lon="-4.23262">
        <ele>49</ele>
        <time>2013-03-17T10:47:11Z</time>
      </trkpt>
      <trkpt lat="48.07786" lon="-4.23274">
        <ele>49</ele>
        <time>2013-03-17T10:47:14Z</time>
      </trkpt>
      <trkpt lat="48.07791" lon="-4.23283">
        <ele>48</ele>
        <time>2013-03-17T10:47:16Z</time>
      </trkpt>
      <trkpt lat="48.07797" lon="-4.23293">
        <ele>48</ele>
        <time>2013-03-17T10:47:19Z</time>
      </trkpt>
      <trkpt lat="48.07803" lon="-4.23303">
        <ele>49</ele>
        <time>2013-03-17T10:47:23Z</time>
      </trkpt>
      <trkpt lat="48.0781" lon="-4.23309">
        <ele>48</ele>
        <time>2013-03-17T10:47:41Z</time>
      </trkpt>
      <trkpt lat="48.07807" lon="-4.23311">
        <ele>46</ele>
        <time>2013-03-17T10:48:32Z</time>
      </trkpt>
      <trkpt lat="48.07802" lon="-4.23306">
        <ele>46</ele>
        <time>2013-03-17T10:48:35Z</time>
      </trkpt>
      <trkpt lat="48.07797" lon="-4.233">
        <ele>45</ele>
        <time>2013-03-17T10:48:38Z</time>
      </trkpt>
      <trkpt lat="48.07793" lon="-4.23295">
        <ele>45</ele>
        <time>2013-03-17T10:48:40Z</time>
      </trkpt>
      <trkpt lat="48.07789" lon="-4.23289">
        <ele>45</ele>
        <time>2013-03-17T10:48:42Z</time>
      </trkpt>
      <trkpt lat="48.07786" lon="-4.23284">
        <ele>45</ele>
        <time>2013-03-17T10:48:44Z</time>
      </trkpt>
      <trkpt lat="48.07781" lon="-4.23274">
        <ele>44</ele>
        <time>2013-03-17T10:48:47Z</time>
      </trkpt>
      <trkpt lat="48.07777" lon="-4.23268">
        <ele>44</ele>
        <time>2013-03-17T10:48:49Z</time>
      </trkpt>
      <trkpt lat="48.07773" lon="-4.23263">
        <ele>43</ele>
        <time>2013-03-17T10:48:51Z</time>
      </trkpt>
      <trkpt lat="48.0777" lon="-4.23256">
        <ele>43</ele>
        <time>2013-03-17T10:48:53Z</time>
      </trkpt>
      <trkpt lat="48.07763" lon="-4.23245">
        <ele>44</ele>
        <time>2013-03-17T10:48:56Z</time>
      </trkpt>
      <trkpt lat="48.0776" lon="-4.23239">
        <ele>44</ele>
        <time>2013-03-17T10:48:58Z</time>
      </trkpt>
      <trkpt lat="48.07756" lon="-4.23234">
        <ele>44</ele>
        <time>2013-03-17T10:49:00Z</time>
      </trkpt>
      <trkpt lat="48.07752" lon="-4.23227">
        <ele>44</ele>
        <time>2013-03-17T10:49:02Z</time>
      </trkpt>
      <trkpt lat="48.07748" lon="-4.23219">
        <ele>45</ele>
        <time>2013-03-17T10:49:04Z</time>
      </trkpt>
      <trkpt lat="48.07743" lon="-4.23211">
        <ele>45</ele>
        <time>2013-03-17T10:49:07Z</time>
      </trkpt>
      <trkpt lat="48.07739" lon="-4.23204">
        <ele>44</ele>
        <time>2013-03-17T10:49:10Z</time>
      </trkpt>
      <trkpt lat="48.07736" lon="-4.23196">
        <ele>44</ele>
        <time>2013-03-17T10:49:13Z</time>
      </trkpt>
      <trkpt lat="48.07733" lon="-4.23191">
        <ele>44</ele>
        <time>2013-03-17T10:49:16Z</time>
      </trkpt>
      <trkpt lat="48.0773" lon="-4.23185">
        <ele>45</ele>
        <time>2013-03-17T10:49:19Z</time>
      </trkpt>
      <trkpt lat="48.07727" lon="-4.23179">
        <ele>47</ele>
        <time>2013-03-17T10:49:22Z</time>
      </trkpt>
      <trkpt lat="48.07724" lon="-4.23175">
        <ele>47</ele>
        <time>2013-03-17T10:49:24Z</time>
      </trkpt>
      <trkpt lat="48.07717" lon="-4.23165">
        <ele>47</ele>
        <time>2013-03-17T10:49:28Z</time>
      </trkpt>
      <trkpt lat="48.07713" lon="-4.23159">
        <ele>48</ele>
        <time>2013-03-17T10:49:31Z</time>
      </trkpt>
      <trkpt lat="48.07709" lon="-4.23153">
        <ele>50</ele>
        <time>2013-03-17T10:49:35Z</time>
      </trkpt>
      <trkpt lat="48.07706" lon="-4.23147">
        <ele>51</ele>
        <time>2013-03-17T10:49:37Z</time>
      </trkpt>
      <trkpt lat="48.07702" lon="-4.23142">
        <ele>52</ele>
        <time>2013-03-17T10:49:41Z</time>
      </trkpt>
      <trkpt lat="48.07699" lon="-4.23136">
        <ele>53</ele>
        <time>2013-03-17T10:49:43Z</time>
      </trkpt>
      <trkpt lat="48.07695" lon="-4.23129">
        <ele>56</ele>
        <time>2013-03-17T10:49:46Z</time>
      </trkpt>
      <trkpt lat="48.07692" lon="-4.23123">
        <ele>57</ele>
        <time>2013-03-17T10:49:49Z</time>
      </trkpt>
      <trkpt lat="48.07688" lon="-4.23116">
        <ele>56</ele>
        <time>2013-03-17T10:49:53Z</time>
      </trkpt>
      <trkpt lat="48.07684" lon="-4.2311">
        <ele>57</ele>
        <time>2013-03-17T10:49:57Z</time>
      </trkpt>
      <trkpt lat="48.0768" lon="-4.23105">
        <ele>57</ele>
        <time>2013-03-17T10:50:00Z</time>
      </trkpt>
      <trkpt lat="48.07676" lon="-4.23098">
        <ele>57</ele>
        <time>2013-03-17T10:50:04Z</time>
      </trkpt>
      <trkpt lat="48.07673" lon="-4.23091">
        <ele>58</ele>
        <time>2013-03-17T10:50:07Z</time>
      </trkpt>
      <trkpt lat="48.07669" lon="-4.23085">
        <ele>59</ele>
        <time>2013-03-17T10:50:10Z</time>
      </trkpt>
      <trkpt lat="48.07663" lon="-4.23078">
        <ele>59</ele>
        <time>2013-03-17T10:50:14Z</time>
      </trkpt>
      <trkpt lat="48.07659" lon="-4.23072">
        <ele>59</ele>
        <time>2013-03-17T10:50:18Z</time>
      </trkpt>
      <trkpt lat="48.07656" lon="-4.23067">
        <ele>59</ele>
        <time>2013-03-17T10:50:20Z</time>
      </trkpt>
      <trkpt lat="48.07651" lon="-4.23061">
        <ele>60</ele>
        <time>2013-03-17T10:50:23Z</time>
      </trkpt>
      <trkpt lat="48.07647" lon="-4.23054">
        <ele>60</ele>
        <time>2013-03-17T10:50:26Z</time>
      </trkpt>
      <trkpt lat="48.07644" lon="-4.23048">
        <ele>61</ele>
        <time>2013-03-17T10:50:29Z</time>
      </trkpt>
      <trkpt lat="48.0764" lon="-4.23042">
        <ele>61</ele>
        <time>2013-03-17T10:50:32Z</time>
      </trkpt>
      <trkpt lat="48.07636" lon="-4.23036">
        <ele>61</ele>
        <time>2013-03-17T10:50:35Z</time>
      </trkpt>
      <trkpt lat="48.07631" lon="-4.23027">
        <ele>61</ele>
        <time>2013-03-17T10:50:39Z</time>
      </trkpt>
      <trkpt lat="48.07628" lon="-4.23021">
        <ele>61</ele>
        <time>2013-03-17T10:50:42Z</time>
      </trkpt>
      <trkpt lat="48.07623" lon="-4.23016">
        <ele>62</ele>
        <time>2013-03-17T10:50:45Z</time>
      </trkpt>
      <trkpt lat="48.07619" lon="-4.23009">
        <ele>63</ele>
        <time>2013-03-17T10:50:48Z</time>
      </trkpt>
      <trkpt lat="48.07616" lon="-4.23004">
        <ele>64</ele>
        <time>2013-03-17T10:50:50Z</time>
      </trkpt>
      <trkpt lat="48.07611" lon="-4.22997">
        <ele>66</ele>
        <time>2013-03-17T10:50:53Z</time>
      </trkpt>
      <trkpt lat="48.07607" lon="-4.22992">
        <ele>67</ele>
        <time>2013-03-17T10:50:56Z</time>
      </trkpt>
      <trkpt lat="48.07602" lon="-4.22987">
        <ele>67</ele>
        <time>2013-03-17T10:50:59Z</time>
      </trkpt>
      <trkpt lat="48.07598" lon="-4.22981">
        <ele>67</ele>
        <time>2013-03-17T10:51:02Z</time>
      </trkpt>
      <trkpt lat="48.07595" lon="-4.22974">
        <ele>66</ele>
        <time>2013-03-17T10:51:06Z</time>
      </trkpt>
      <trkpt lat="48.0759" lon="-4.22968">
        <ele>65</ele>
        <time>2013-03-17T10:51:09Z</time>
      </trkpt>
      <trkpt lat="48.07587" lon="-4.22963">
        <ele>66</ele>
        <time>2013-03-17T10:51:11Z</time>
      </trkpt>
      <trkpt lat="48.07583" lon="-4.22958">
        <ele>66</ele>
        <time>2013-03-17T10:51:14Z</time>
      </trkpt>
      <trkpt lat="48.07579" lon="-4.22951">
        <ele>66</ele>
        <time>2013-03-17T10:51:17Z</time>
      </trkpt>
      <trkpt lat="48.07575" lon="-4.22944">
        <ele>68</ele>
        <time>2013-03-17T10:51:20Z</time>
      </trkpt>
      <trkpt lat="48.07572" lon="-4.22938">
        <ele>68</ele>
        <time>2013-03-17T10:51:22Z</time>
      </trkpt>
      <trkpt lat="48.07568" lon="-4.22934">
        <ele>68</ele>
        <time>2013-03-17T10:51:26Z</time>
      </trkpt>
      <trkpt lat="48.07565" lon="-4.22932">
        <ele>68</ele>
        <time>2013-03-17T10:52:37Z</time>
      </trkpt>
      <trkpt lat="48.07565" lon="-4.22919">
        <ele>68</ele>
        <time>2013-03-17T10:53:08Z</time>
      </trkpt>
      <trkpt lat="48.07565" lon="-4.22912">
        <ele>68</ele>
        <time>2013-03-17T10:53:10Z</time>
      </trkpt>
      <trkpt lat="48.07565" lon="-4.229">
        <ele>68</ele>
        <time>2013-03-17T10:53:13Z</time>
      </trkpt>
      <trkpt lat="48.07564" lon="-4.22891">
        <ele>68</ele>
        <time>2013-03-17T10:53:15Z</time>
      </trkpt>
      <trkpt lat="48.07563" lon="-4.22883">
        <ele>69</ele>
        <time>2013-03-17T10:53:17Z</time>
      </trkpt>
      <trkpt lat="48.07562" lon="-4.22875">
        <ele>69</ele>
        <time>2013-03-17T10:53:19Z</time>
      </trkpt>
      <trkpt lat="48.07561" lon="-4.22866">
        <ele>69</ele>
        <time>2013-03-17T10:53:21Z</time>
      </trkpt>
      <trkpt lat="48.07559" lon="-4.22857">
        <ele>69</ele>
        <time>2013-03-17T10:53:23Z</time>
      </trkpt>
      <trkpt lat="48.07558" lon="-4.22849">
        <ele>69</ele>
        <time>2013-03-17T10:53:25Z</time>
      </trkpt>
      <trkpt lat="48.07557" lon="-4.2284">
        <ele>70</ele>
        <time>2013-03-17T10:53:27Z</time>
      </trkpt>
      <trkpt lat="48.07555" lon="-4.2283">
        <ele>70</ele>
        <time>2013-03-17T10:53:29Z</time>
      </trkpt>
      <trkpt lat="48.07554" lon="-4.22822">
        <ele>70</ele>
        <time>2013-03-17T10:53:31Z</time>
      </trkpt>
      <trkpt lat="48.07552" lon="-4.22814">
        <ele>70</ele>
        <time>2013-03-17T10:53:33Z</time>
      </trkpt>
      <trkpt lat="48.07552" lon="-4.22806">
        <ele>70</ele>
        <time>2013-03-17T10:53:35Z</time>
      </trkpt>
      <trkpt lat="48.07551" lon="-4.22798">
        <ele>69</ele>
        <time>2013-03-17T10:53:37Z</time>
      </trkpt>
      <trkpt lat="48.07551" lon="-4.22789">
        <ele>70</ele>
        <time>2013-03-17T10:53:39Z</time>
      </trkpt>
      <trkpt lat="48.07549" lon="-4.22779">
        <ele>69</ele>
        <time>2013-03-17T10:53:41Z</time>
      </trkpt>
      <trkpt lat="48.07548" lon="-4.2277">
        <ele>70</ele>
        <time>2013-03-17T10:53:43Z</time>
      </trkpt>
      <trkpt lat="48.07546" lon="-4.22761">
        <ele>70</ele>
        <time>2013-03-17T10:53:45Z</time>
      </trkpt>
      <trkpt lat="48.07544" lon="-4.22753">
        <ele>71</ele>
        <time>2013-03-17T10:53:47Z</time>
      </trkpt>
      <trkpt lat="48.07543" lon="-4.22746">
        <ele>71</ele>
        <time>2013-03-17T10:53:49Z</time>
      </trkpt>
      <trkpt lat="48.07543" lon="-4.22738">
        <ele>71</ele>
        <time>2013-03-17T10:53:52Z</time>
      </trkpt>
      <trkpt lat="48.0754" lon="-4.22731">
        <ele>71</ele>
        <time>2013-03-17T10:53:54Z</time>
      </trkpt>
      <trkpt lat="48.07535" lon="-4.22724">
        <ele>71</ele>
        <time>2013-03-17T10:53:56Z</time>
      </trkpt>
      <trkpt lat="48.0753" lon="-4.22717">
        <ele>71</ele>
        <time>2013-03-17T10:53:58Z</time>
      </trkpt>
      <trkpt lat="48.07525" lon="-4.22712">
        <ele>71</ele>
        <time>2013-03-17T10:54:00Z</time>
      </trkpt>
      <trkpt lat="48.0752" lon="-4.22707">
        <ele>72</ele>
        <time>2013-03-17T10:54:02Z</time>
      </trkpt>
      <trkpt lat="48.07515" lon="-4.22702">
        <ele>72</ele>
        <time>2013-03-17T10:54:04Z</time>
      </trkpt>
      <trkpt lat="48.07511" lon="-4.22698">
        <ele>72</ele>
        <time>2013-03-17T10:54:06Z</time>
      </trkpt>
      <trkpt lat="48.07506" lon="-4.22693">
        <ele>72</ele>
        <time>2013-03-17T10:54:08Z</time>
      </trkpt>
      <trkpt lat="48.07501" lon="-4.22689">
        <ele>72</ele>
        <time>2013-03-17T10:54:10Z</time>
      </trkpt>
      <trkpt lat="48.07496" lon="-4.22684">
        <ele>72</ele>
        <time>2013-03-17T10:54:12Z</time>
      </trkpt>
      <trkpt lat="48.07491" lon="-4.2268">
        <ele>73</ele>
        <time>2013-03-17T10:54:14Z</time>
      </trkpt>
      <trkpt lat="48.07486" lon="-4.22675">
        <ele>73</ele>
        <time>2013-03-17T10:54:16Z</time>
      </trkpt>
      <trkpt lat="48.07481" lon="-4.22671">
        <ele>73</ele>
        <time>2013-03-17T10:54:18Z</time>
      </trkpt>
      <trkpt lat="48.07476" lon="-4.22668">
        <ele>73</ele>
        <time>2013-03-17T10:54:20Z</time>
      </trkpt>
      <trkpt lat="48.07471" lon="-4.22664">
        <ele>73</ele>
        <time>2013-03-17T10:54:22Z</time>
      </trkpt>
      <trkpt lat="48.07465" lon="-4.22661">
        <ele>73</ele>
        <time>2013-03-17T10:54:24Z</time>
      </trkpt>
      <trkpt lat="48.0746" lon="-4.22663">
        <ele>73</ele>
        <time>2013-03-17T10:54:26Z</time>
      </trkpt>
      <trkpt lat="48.07455" lon="-4.22668">
        <ele>73</ele>
        <time>2013-03-17T10:54:28Z</time>
      </trkpt>
      <trkpt lat="48.07451" lon="-4.22673">
        <ele>72</ele>
        <time>2013-03-17T10:54:30Z</time>
      </trkpt>
      <trkpt lat="48.07447" lon="-4.22677">
        <ele>72</ele>
        <time>2013-03-17T10:54:32Z</time>
      </trkpt>
      <trkpt lat="48.07442" lon="-4.22679">
        <ele>71</ele>
        <time>2013-03-17T10:54:34Z</time>
      </trkpt>
      <trkpt lat="48.07437" lon="-4.2268">
        <ele>71</ele>
        <time>2013-03-17T10:54:36Z</time>
      </trkpt>
      <trkpt lat="48.07432" lon="-4.2268">
        <ele>71</ele>
        <time>2013-03-17T10:54:38Z</time>
      </trkpt>
      <trkpt lat="48.07425" lon="-4.2268">
        <ele>70</ele>
        <time>2013-03-17T10:54:40Z</time>
      </trkpt>
      <trkpt lat="48.07417" lon="-4.22677">
        <ele>70</ele>
        <time>2013-03-17T10:54:42Z</time>
      </trkpt>
      <trkpt lat="48.07411" lon="-4.22677">
        <ele>70</ele>
        <time>2013-03-17T10:54:44Z</time>
      </trkpt>
      <trkpt lat="48.07405" lon="-4.22676">
        <ele>70</ele>
        <time>2013-03-17T10:54:46Z</time>
      </trkpt>
      <trkpt lat="48.07399" lon="-4.22674">
        <ele>70</ele>
        <time>2013-03-17T10:54:48Z</time>
      </trkpt>
      <trkpt lat="48.07392" lon="-4.22674">
        <ele>71</ele>
        <time>2013-03-17T10:54:50Z</time>
      </trkpt>
      <trkpt lat="48.07385" lon="-4.22675">
        <ele>71</ele>
        <time>2013-03-17T10:54:52Z</time>
      </trkpt>
      <trkpt lat="48.07377" lon="-4.22674">
        <ele>71</ele>
        <time>2013-03-17T10:54:54Z</time>
      </trkpt>
      <trkpt lat="48.07371" lon="-4.22676">
        <ele>72</ele>
        <time>2013-03-17T10:54:56Z</time>
      </trkpt>
      <trkpt lat="48.07365" lon="-4.22681">
        <ele>72</ele>
        <time>2013-03-17T10:54:58Z</time>
      </trkpt>
      <trkpt lat="48.07358" lon="-4.22692">
        <ele>71</ele>
        <time>2013-03-17T10:55:02Z</time>
      </trkpt>
      <trkpt lat="48.07354" lon="-4.22702">
        <ele>71</ele>
        <time>2013-03-17T10:55:04Z</time>
      </trkpt>
      <trkpt lat="48.07351" lon="-4.22708">
        <ele>71</ele>
        <time>2013-03-17T10:55:05Z</time>
      </trkpt>
      <trkpt lat="48.07345" lon="-4.22723">
        <ele>70</ele>
        <time>2013-03-17T10:55:08Z</time>
      </trkpt>
      <trkpt lat="48.07337" lon="-4.22735">
        <ele>68</ele>
        <time>2013-03-17T10:55:11Z</time>
      </trkpt>
      <trkpt lat="48.07332" lon="-4.22738">
        <ele>68</ele>
        <time>2013-03-17T10:55:12Z</time>
      </trkpt>
      <trkpt lat="48.07324" lon="-4.22739">
        <ele>68</ele>
        <time>2013-03-17T10:55:14Z</time>
      </trkpt>
      <trkpt lat="48.07319" lon="-4.22738">
        <ele>67</ele>
        <time>2013-03-17T10:55:15Z</time>
      </trkpt>
      <trkpt lat="48.07313" lon="-4.22736">
        <ele>67</ele>
        <time>2013-03-17T10:55:16Z</time>
      </trkpt>
      <trkpt lat="48.07308" lon="-4.22734">
        <ele>68</ele>
        <time>2013-03-17T10:55:17Z</time>
      </trkpt>
      <trkpt lat="48.07302" lon="-4.22731">
        <ele>68</ele>
        <time>2013-03-17T10:55:18Z</time>
      </trkpt>
      <trkpt lat="48.07296" lon="-4.22729">
        <ele>68</ele>
        <time>2013-03-17T10:55:19Z</time>
      </trkpt>
      <trkpt lat="48.07291" lon="-4.22726">
        <ele>68</ele>
        <time>2013-03-17T10:55:20Z</time>
      </trkpt>
      <trkpt lat="48.07285" lon="-4.22723">
        <ele>68</ele>
        <time>2013-03-17T10:55:21Z</time>
      </trkpt>
      <trkpt lat="48.0728" lon="-4.2272">
        <ele>67</ele>
        <time>2013-03-17T10:55:22Z</time>
      </trkpt>
      <trkpt lat="48.07275" lon="-4.22718">
        <ele>67</ele>
        <time>2013-03-17T10:55:23Z</time>
      </trkpt>
      <trkpt lat="48.07269" lon="-4.22715">
        <ele>67</ele>
        <time>2013-03-17T10:55:24Z</time>
      </trkpt>
      <trkpt lat="48.07263" lon="-4.22713">
        <ele>67</ele>
        <time>2013-03-17T10:55:25Z</time>
      </trkpt>
      <trkpt lat="48.07257" lon="-4.2271">
        <ele>67</ele>
        <time>2013-03-17T10:55:26Z</time>
      </trkpt>
      <trkpt lat="48.07252" lon="-4.22707">
        <ele>67</ele>
        <time>2013-03-17T10:55:27Z</time>
      </trkpt>
      <trkpt lat="48.07247" lon="-4.22705">
        <ele>67</ele>
        <time>2013-03-17T10:55:28Z</time>
      </trkpt>
      <trkpt lat="48.07241" lon="-4.22703">
        <ele>66</ele>
        <time>2013-03-17T10:55:29Z</time>
      </trkpt>
      <trkpt lat="48.07234" lon="-4.22702">
        <ele>66</ele>
        <time>2013-03-17T10:55:30Z</time>
      </trkpt>
      <trkpt lat="48.07228" lon="-4.22702">
        <ele>66</ele>
        <time>2013-03-17T10:55:31Z</time>
      </trkpt>
      <trkpt lat="48.07221" lon="-4.22704">
        <ele>66</ele>
        <time>2013-03-17T10:55:32Z</time>
      </trkpt>
      <trkpt lat="48.07215" lon="-4.22708">
        <ele>66</ele>
        <time>2013-03-17T10:55:33Z</time>
      </trkpt>
      <trkpt lat="48.0721" lon="-4.22712">
        <ele>66</ele>
        <time>2013-03-17T10:55:34Z</time>
      </trkpt>
      <trkpt lat="48.07206" lon="-4.22716">
        <ele>65</ele>
        <time>2013-03-17T10:55:35Z</time>
      </trkpt>
      <trkpt lat="48.07201" lon="-4.22721">
        <ele>64</ele>
        <time>2013-03-17T10:55:36Z</time>
      </trkpt>
      <trkpt lat="48.07196" lon="-4.22725">
        <ele>64</ele>
        <time>2013-03-17T10:55:37Z</time>
      </trkpt>
      <trkpt lat="48.07192" lon="-4.22729">
        <ele>64</ele>
        <time>2013-03-17T10:55:38Z</time>
      </trkpt>
      <trkpt lat="48.07187" lon="-4.22732">
        <ele>63</ele>
        <time>2013-03-17T10:55:39Z</time>
      </trkpt>
      <trkpt lat="48.07181" lon="-4.22735">
        <ele>63</ele>
        <time>2013-03-17T10:55:40Z</time>
      </trkpt>
      <trkpt lat="48.07176" lon="-4.22737">
        <ele>63</ele>
        <time>2013-03-17T10:55:41Z</time>
      </trkpt>
      <trkpt lat="48.07172" lon="-4.22738">
        <ele>63</ele>
        <time>2013-03-17T10:55:42Z</time>
      </trkpt>
      <trkpt lat="48.07162" lon="-4.22738">
        <ele>64</ele>
        <time>2013-03-17T10:55:44Z</time>
      </trkpt>
      <trkpt lat="48.07157" lon="-4.22739">
        <ele>65</ele>
        <time>2013-03-17T10:55:45Z</time>
      </trkpt>
      <trkpt lat="48.07152" lon="-4.22739">
        <ele>66</ele>
        <time>2013-03-17T10:55:46Z</time>
      </trkpt>
      <trkpt lat="48.07147" lon="-4.22739">
        <ele>66</ele>
        <time>2013-03-17T10:55:47Z</time>
      </trkpt>
      <trkpt lat="48.07141" lon="-4.22739">
        <ele>66</ele>
        <time>2013-03-17T10:55:48Z</time>
      </trkpt>
      <trkpt lat="48.07135" lon="-4.22739">
        <ele>66</ele>
        <time>2013-03-17T10:55:49Z</time>
      </trkpt>
      <trkpt lat="48.0713" lon="-4.2274">
        <ele>66</ele>
        <time>2013-03-17T10:55:50Z</time>
      </trkpt>
      <trkpt lat="48.07126" lon="-4.2274">
        <ele>66</ele>
        <time>2013-03-17T10:55:51Z</time>
      </trkpt>
      <trkpt lat="48.07118" lon="-4.2274">
        <ele>66</ele>
        <time>2013-03-17T10:55:53Z</time>
      </trkpt>
      <trkpt lat="48.07108" lon="-4.22741">
        <ele>66</ele>
        <time>2013-03-17T10:55:55Z</time>
      </trkpt>
      <trkpt lat="48.07099" lon="-4.22741">
        <ele>66</ele>
        <time>2013-03-17T10:55:57Z</time>
      </trkpt>
      <trkpt lat="48.07094" lon="-4.22742">
        <ele>65</ele>
        <time>2013-03-17T10:55:58Z</time>
      </trkpt>
      <trkpt lat="48.07085" lon="-4.22743">
        <ele>66</ele>
        <time>2013-03-17T10:56:00Z</time>
      </trkpt>
      <trkpt lat="48.07076" lon="-4.22744">
        <ele>66</ele>
        <time>2013-03-17T10:56:02Z</time>
      </trkpt>
      <trkpt lat="48.07069" lon="-4.22745">
        <ele>66</ele>
        <time>2013-03-17T10:56:04Z</time>
      </trkpt>
      <trkpt lat="48.07061" lon="-4.22745">
        <ele>67</ele>
        <time>2013-03-17T10:56:06Z</time>
      </trkpt>
      <trkpt lat="48.07055" lon="-4.22745">
        <ele>67</ele>
        <time>2013-03-17T10:56:08Z</time>
      </trkpt>
      <trkpt lat="48.07047" lon="-4.22745">
        <ele>67</ele>
        <time>2013-03-17T10:56:10Z</time>
      </trkpt>
      <trkpt lat="48.07036" lon="-4.22746">
        <ele>68</ele>
        <time>2013-03-17T10:56:13Z</time>
      </trkpt>
      <trkpt lat="48.0703" lon="-4.22747">
        <ele>68</ele>
        <time>2013-03-17T10:56:15Z</time>
      </trkpt>
      <trkpt lat="48.07024" lon="-4.22746">
        <ele>69</ele>
        <time>2013-03-17T10:56:17Z</time>
      </trkpt>
      <trkpt lat="48.07015" lon="-4.22739">
        <ele>68</ele>
        <time>2013-03-17T10:56:20Z</time>
      </trkpt>
      <trkpt lat="48.07009" lon="-4.22733">
        <ele>67</ele>
        <time>2013-03-17T10:56:23Z</time>
      </trkpt>
      <trkpt lat="48.07005" lon="-4.22725">
        <ele>67</ele>
        <time>2013-03-17T10:56:26Z</time>
      </trkpt>
      <trkpt lat="48.07001" lon="-4.22719">
        <ele>68</ele>
        <time>2013-03-17T10:56:29Z</time>
      </trkpt>
      <trkpt lat="48.06997" lon="-4.22715">
        <ele>69</ele>
        <time>2013-03-17T10:56:32Z</time>
      </trkpt>
      <trkpt lat="48.06993" lon="-4.2271">
        <ele>72</ele>
        <time>2013-03-17T10:57:26Z</time>
      </trkpt>
      <trkpt lat="48.06994" lon="-4.22702">
        <ele>72</ele>
        <time>2013-03-17T10:57:28Z</time>
      </trkpt>
      <trkpt lat="48.06996" lon="-4.22695">
        <ele>71</ele>
        <time>2013-03-17T10:57:30Z</time>
      </trkpt>
      <trkpt lat="48.06998" lon="-4.22687">
        <ele>70</ele>
        <time>2013-03-17T10:57:32Z</time>
      </trkpt>
      <trkpt lat="48.07" lon="-4.2268">
        <ele>70</ele>
        <time>2013-03-17T10:57:34Z</time>
      </trkpt>
      <trkpt lat="48.07003" lon="-4.22672">
        <ele>70</ele>
        <time>2013-03-17T10:57:36Z</time>
      </trkpt>
      <trkpt lat="48.07006" lon="-4.22664">
        <ele>70</ele>
        <time>2013-03-17T10:57:38Z</time>
      </trkpt>
      <trkpt lat="48.07009" lon="-4.22659">
        <ele>71</ele>
        <time>2013-03-17T10:57:40Z</time>
      </trkpt>
      <trkpt lat="48.07011" lon="-4.22652">
        <ele>71</ele>
        <time>2013-03-17T10:57:42Z</time>
      </trkpt>
      <trkpt lat="48.07015" lon="-4.22641">
        <ele>73</ele>
        <time>2013-03-17T10:57:45Z</time>
      </trkpt>
      <trkpt lat="48.07017" lon="-4.22632">
        <ele>73</ele>
        <time>2013-03-17T10:57:47Z</time>
      </trkpt>
      <trkpt lat="48.07019" lon="-4.22619">
        <ele>73</ele>
        <time>2013-03-17T10:57:49Z</time>
      </trkpt>
      <trkpt lat="48.07021" lon="-4.22607">
        <ele>73</ele>
        <time>2013-03-17T10:57:51Z</time>
      </trkpt>
      <trkpt lat="48.07022" lon="-4.22598">
        <ele>72</ele>
        <time>2013-03-17T10:57:53Z</time>
      </trkpt>
      <trkpt lat="48.07023" lon="-4.22586">
        <ele>74</ele>
        <time>2013-03-17T10:57:56Z</time>
      </trkpt>
      <trkpt lat="48.07024" lon="-4.22578">
        <ele>75</ele>
        <time>2013-03-17T10:57:57Z</time>
      </trkpt>
      <trkpt lat="48.07024" lon="-4.22567">
        <ele>75</ele>
        <time>2013-03-17T10:57:59Z</time>
      </trkpt>
      <trkpt lat="48.07024" lon="-4.22559">
        <ele>75</ele>
        <time>2013-03-17T10:58:00Z</time>
      </trkpt>
      <trkpt lat="48.07024" lon="-4.2255">
        <ele>75</ele>
        <time>2013-03-17T10:58:02Z</time>
      </trkpt>
      <trkpt lat="48.07024" lon="-4.22543">
        <ele>75</ele>
        <time>2013-03-17T10:58:03Z</time>
      </trkpt>
      <trkpt lat="48.07023" lon="-4.22531">
        <ele>75</ele>
        <time>2013-03-17T10:58:05Z</time>
      </trkpt>
      <trkpt lat="48.07023" lon="-4.22519">
        <ele>74</ele>
        <time>2013-03-17T10:58:07Z</time>
      </trkpt>
      <trkpt lat="48.07023" lon="-4.22508">
        <ele>75</ele>
        <time>2013-03-17T10:58:09Z</time>
      </trkpt>
      <trkpt lat="48.07024" lon="-4.22495">
        <ele>75</ele>
        <time>2013-03-17T10:58:11Z</time>
      </trkpt>
      <trkpt lat="48.07024" lon="-4.2248">
        <ele>75</ele>
        <time>2013-03-17T10:58:14Z</time>
      </trkpt>
      <trkpt lat="48.07024" lon="-4.22469">
        <ele>74</ele>
        <time>2013-03-17T10:58:16Z</time>
      </trkpt>
      <trkpt lat="48.07023" lon="-4.22454">
        <ele>72</ele>
        <time>2013-03-17T10:58:19Z</time>
      </trkpt>
      <trkpt lat="48.07023" lon="-4.22441">
        <ele>72</ele>
        <time>2013-03-17T10:58:21Z</time>
      </trkpt>
      <trkpt lat="48.07023" lon="-4.22434">
        <ele>72</ele>
        <time>2013-03-17T10:58:22Z</time>
      </trkpt>
      <trkpt lat="48.07024" lon="-4.22422">
        <ele>73</ele>
        <time>2013-03-17T10:58:24Z</time>
      </trkpt>
      <trkpt lat="48.07024" lon="-4.22415">
        <ele>73</ele>
        <time>2013-03-17T10:58:25Z</time>
      </trkpt>
      <trkpt lat="48.07025" lon="-4.22403">
        <ele>74</ele>
        <time>2013-03-17T10:58:27Z</time>
      </trkpt>
      <trkpt lat="48.07025" lon="-4.22391">
        <ele>75</ele>
        <time>2013-03-17T10:58:29Z</time>
      </trkpt>
      <trkpt lat="48.07025" lon="-4.22378">
        <ele>76</ele>
        <time>2013-03-17T10:58:31Z</time>
      </trkpt>
      <trkpt lat="48.07027" lon="-4.22359">
        <ele>77</ele>
        <time>2013-03-17T10:58:34Z</time>
      </trkpt>
      <trkpt lat="48.07028" lon="-4.22349">
        <ele>78</ele>
        <time>2013-03-17T10:58:36Z</time>
      </trkpt>
      <trkpt lat="48.07029" lon="-4.22335">
        <ele>79</ele>
        <time>2013-03-17T10:58:38Z</time>
      </trkpt>
      <trkpt lat="48.0703" lon="-4.22321">
        <ele>79</ele>
        <time>2013-03-17T10:58:40Z</time>
      </trkpt>
      <trkpt lat="48.0703" lon="-4.22313">
        <ele>79</ele>
        <time>2013-03-17T10:58:41Z</time>
      </trkpt>
      <trkpt lat="48.07031" lon="-4.22306">
        <ele>79</ele>
        <time>2013-03-17T10:58:42Z</time>
      </trkpt>
      <trkpt lat="48.07031" lon="-4.22292">
        <ele>77</ele>
        <time>2013-03-17T10:58:44Z</time>
      </trkpt>
      <trkpt lat="48.07032" lon="-4.22278">
        <ele>77</ele>
        <time>2013-03-17T10:58:46Z</time>
      </trkpt>
      <trkpt lat="48.07032" lon="-4.2227">
        <ele>76</ele>
        <time>2013-03-17T10:58:47Z</time>
      </trkpt>
      <trkpt lat="48.07033" lon="-4.22262">
        <ele>76</ele>
        <time>2013-03-17T10:58:48Z</time>
      </trkpt>
      <trkpt lat="48.07034" lon="-4.22254">
        <ele>76</ele>
        <time>2013-03-17T10:58:49Z</time>
      </trkpt>
      <trkpt lat="48.07034" lon="-4.22246">
        <ele>76</ele>
        <time>2013-03-17T10:58:50Z</time>
      </trkpt>
      <trkpt lat="48.07036" lon="-4.22225">
        <ele>76</ele>
        <time>2013-03-17T10:58:53Z</time>
      </trkpt>
      <trkpt lat="48.07037" lon="-4.22216">
        <ele>75</ele>
        <time>2013-03-17T10:58:54Z</time>
      </trkpt>
      <trkpt lat="48.07038" lon="-4.22206">
        <ele>75</ele>
        <time>2013-03-17T10:58:55Z</time>
      </trkpt>
      <trkpt lat="48.07038" lon="-4.22198">
        <ele>74</ele>
        <time>2013-03-17T10:58:56Z</time>
      </trkpt>
      <trkpt lat="48.07039" lon="-4.22189">
        <ele>73</ele>
        <time>2013-03-17T10:58:57Z</time>
      </trkpt>
      <trkpt lat="48.07038" lon="-4.22172">
        <ele>73</ele>
        <time>2013-03-17T10:58:59Z</time>
      </trkpt>
      <trkpt lat="48.07039" lon="-4.22158">
        <ele>72</ele>
        <time>2013-03-17T10:59:01Z</time>
      </trkpt>
      <trkpt lat="48.07041" lon="-4.22139">
        <ele>72</ele>
        <time>2013-03-17T10:59:03Z</time>
      </trkpt>
      <trkpt lat="48.07042" lon="-4.2213">
        <ele>72</ele>
        <time>2013-03-17T10:59:04Z</time>
      </trkpt>
      <trkpt lat="48.07043" lon="-4.22122">
        <ele>72</ele>
        <time>2013-03-17T10:59:05Z</time>
      </trkpt>
      <trkpt lat="48.07042" lon="-4.22114">
        <ele>72</ele>
        <time>2013-03-17T10:59:06Z</time>
      </trkpt>
      <trkpt lat="48.0704" lon="-4.22106">
        <ele>73</ele>
        <time>2013-03-17T10:59:07Z</time>
      </trkpt>
      <trkpt lat="48.07038" lon="-4.22098">
        <ele>74</ele>
        <time>2013-03-17T10:59:08Z</time>
      </trkpt>
      <trkpt lat="48.07033" lon="-4.22092">
        <ele>74</ele>
        <time>2013-03-17T10:59:09Z</time>
      </trkpt>
      <trkpt lat="48.07028" lon="-4.22086">
        <ele>75</ele>
        <time>2013-03-17T10:59:10Z</time>
      </trkpt>
      <trkpt lat="48.07023" lon="-4.22081">
        <ele>75</ele>
        <time>2013-03-17T10:59:11Z</time>
      </trkpt>
      <trkpt lat="48.07019" lon="-4.22077">
        <ele>75</ele>
        <time>2013-03-17T10:59:12Z</time>
      </trkpt>
      <trkpt lat="48.07014" lon="-4.22073">
        <ele>76</ele>
        <time>2013-03-17T10:59:13Z</time>
      </trkpt>
      <trkpt lat="48.07009" lon="-4.22069">
        <ele>76</ele>
        <time>2013-03-17T10:59:14Z</time>
      </trkpt>
      <trkpt lat="48.07005" lon="-4.22065">
        <ele>77</ele>
        <time>2013-03-17T10:59:15Z</time>
      </trkpt>
      <trkpt lat="48.07" lon="-4.22062">
        <ele>77</ele>
        <time>2013-03-17T10:59:16Z</time>
      </trkpt>
      <trkpt lat="48.06996" lon="-4.22058">
        <ele>78</ele>
        <time>2013-03-17T10:59:17Z</time>
      </trkpt>
      <trkpt lat="48.06991" lon="-4.22054">
        <ele>78</ele>
        <time>2013-03-17T10:59:18Z</time>
      </trkpt>
      <trkpt lat="48.06987" lon="-4.2205">
        <ele>79</ele>
        <time>2013-03-17T10:59:19Z</time>
      </trkpt>
      <trkpt lat="48.06979" lon="-4.22043">
        <ele>80</ele>
        <time>2013-03-17T10:59:21Z</time>
      </trkpt>
      <trkpt lat="48.06971" lon="-4.22037">
        <ele>80</ele>
        <time>2013-03-17T10:59:23Z</time>
      </trkpt>
      <trkpt lat="48.06967" lon="-4.22033">
        <ele>80</ele>
        <time>2013-03-17T10:59:24Z</time>
      </trkpt>
      <trkpt lat="48.06962" lon="-4.22029">
        <ele>81</ele>
        <time>2013-03-17T10:59:25Z</time>
      </trkpt>
      <trkpt lat="48.06958" lon="-4.22025">
        <ele>81</ele>
        <time>2013-03-17T10:59:26Z</time>
      </trkpt>
      <trkpt lat="48.06953" lon="-4.22021">
        <ele>81</ele>
        <time>2013-03-17T10:59:27Z</time>
      </trkpt>
      <trkpt lat="48.06948" lon="-4.22017">
        <ele>82</ele>
        <time>2013-03-17T10:59:28Z</time>
      </trkpt>
      <trkpt lat="48.06944" lon="-4.22013">
        <ele>82</ele>
        <time>2013-03-17T10:59:29Z</time>
      </trkpt>
      <trkpt lat="48.0694" lon="-4.22009">
        <ele>81</ele>
        <time>2013-03-17T10:59:30Z</time>
      </trkpt>
      <trkpt lat="48.06933" lon="-4.22004">
        <ele>82</ele>
        <time>2013-03-17T10:59:32Z</time>
      </trkpt>
      <trkpt lat="48.06922" lon="-4.21995">
        <ele>81</ele>
        <time>2013-03-17T10:59:35Z</time>
      </trkpt>
      <trkpt lat="48.06914" lon="-4.21989">
        <ele>81</ele>
        <time>2013-03-17T10:59:37Z</time>
      </trkpt>
      <trkpt lat="48.0691" lon="-4.21986">
        <ele>82</ele>
        <time>2013-03-17T10:59:38Z</time>
      </trkpt>
      <trkpt lat="48.06905" lon="-4.21984">
        <ele>82</ele>
        <time>2013-03-17T10:59:39Z</time>
      </trkpt>
      <trkpt lat="48.06897" lon="-4.2198">
        <ele>82</ele>
        <time>2013-03-17T10:59:41Z</time>
      </trkpt>
      <trkpt lat="48.06891" lon="-4.21976">
        <ele>82</ele>
        <time>2013-03-17T10:59:42Z</time>
      </trkpt>
      <trkpt lat="48.06883" lon="-4.21972">
        <ele>82</ele>
        <time>2013-03-17T10:59:44Z</time>
      </trkpt>
      <trkpt lat="48.06878" lon="-4.2197">
        <ele>83</ele>
        <time>2013-03-17T10:59:45Z</time>
      </trkpt>
      <trkpt lat="48.06874" lon="-4.21968">
        <ele>83</ele>
        <time>2013-03-17T10:59:47Z</time>
      </trkpt>
      <trkpt lat="48.0687" lon="-4.21964">
        <ele>82</ele>
        <time>2013-03-17T10:59:50Z</time>
      </trkpt>
      <trkpt lat="48.06862" lon="-4.2196">
        <ele>81</ele>
        <time>2013-03-17T10:59:52Z</time>
      </trkpt>
      <trkpt lat="48.06855" lon="-4.21958">
        <ele>82</ele>
        <time>2013-03-17T10:59:53Z</time>
      </trkpt>
      <trkpt lat="48.0685" lon="-4.21956">
        <ele>82</ele>
        <time>2013-03-17T10:59:54Z</time>
      </trkpt>
      <trkpt lat="48.06845" lon="-4.21954">
        <ele>82</ele>
        <time>2013-03-17T10:59:55Z</time>
      </trkpt>
      <trkpt lat="48.06835" lon="-4.2195">
        <ele>83</ele>
        <time>2013-03-17T10:59:57Z</time>
      </trkpt>
      <trkpt lat="48.06831" lon="-4.21949">
        <ele>83</ele>
        <time>2013-03-17T10:59:58Z</time>
      </trkpt>
      <trkpt lat="48.06825" lon="-4.21946">
        <ele>83</ele>
        <time>2013-03-17T10:59:59Z</time>
      </trkpt>
      <trkpt lat="48.06819" lon="-4.21944">
        <ele>84</ele>
        <time>2013-03-17T11:00:00Z</time>
      </trkpt>
      <trkpt lat="48.0681" lon="-4.2194">
        <ele>85</ele>
        <time>2013-03-17T11:00:02Z</time>
      </trkpt>
      <trkpt lat="48.06804" lon="-4.21937">
        <ele>85</ele>
        <time>2013-03-17T11:00:03Z</time>
      </trkpt>
      <trkpt lat="48.06798" lon="-4.21935">
        <ele>85</ele>
        <time>2013-03-17T11:00:04Z</time>
      </trkpt>
      <trkpt lat="48.06793" lon="-4.21932">
        <ele>85</ele>
        <time>2013-03-17T11:00:05Z</time>
      </trkpt>
      <trkpt lat="48.06788" lon="-4.2193">
        <ele>85</ele>
        <time>2013-03-17T11:00:06Z</time>
      </trkpt>
      <trkpt lat="48.06783" lon="-4.21929">
        <ele>85</ele>
        <time>2013-03-17T11:00:07Z</time>
      </trkpt>
      <trkpt lat="48.06776" lon="-4.21926">
        <ele>85</ele>
        <time>2013-03-17T11:00:08Z</time>
      </trkpt>
      <trkpt lat="48.06769" lon="-4.21923">
        <ele>85</ele>
        <time>2013-03-17T11:00:09Z</time>
      </trkpt>
      <trkpt lat="48.06761" lon="-4.2192">
        <ele>85</ele>
        <time>2013-03-17T11:00:10Z</time>
      </trkpt>
      <trkpt lat="48.06754" lon="-4.21917">
        <ele>85</ele>
        <time>2013-03-17T11:00:11Z</time>
      </trkpt>
      <trkpt lat="48.06749" lon="-4.21914">
        <ele>85</ele>
        <time>2013-03-17T11:00:12Z</time>
      </trkpt>
      <trkpt lat="48.06743" lon="-4.21912">
        <ele>85</ele>
        <time>2013-03-17T11:00:13Z</time>
      </trkpt>
      <trkpt lat="48.06738" lon="-4.2191">
        <ele>84</ele>
        <time>2013-03-17T11:00:14Z</time>
      </trkpt>
      <trkpt lat="48.06729" lon="-4.21906">
        <ele>83</ele>
        <time>2013-03-17T11:00:16Z</time>
      </trkpt>
      <trkpt lat="48.06723" lon="-4.21904">
        <ele>83</ele>
        <time>2013-03-17T11:00:17Z</time>
      </trkpt>
      <trkpt lat="48.06717" lon="-4.21901">
        <ele>83</ele>
        <time>2013-03-17T11:00:18Z</time>
      </trkpt>
      <trkpt lat="48.06711" lon="-4.21899">
        <ele>82</ele>
        <time>2013-03-17T11:00:19Z</time>
      </trkpt>
      <trkpt lat="48.06705" lon="-4.21897">
        <ele>82</ele>
        <time>2013-03-17T11:00:20Z</time>
      </trkpt>
      <trkpt lat="48.067" lon="-4.21894">
        <ele>82</ele>
        <time>2013-03-17T11:00:21Z</time>
      </trkpt>
      <trkpt lat="48.06694" lon="-4.21892">
        <ele>82</ele>
        <time>2013-03-17T11:00:22Z</time>
      </trkpt>
      <trkpt lat="48.06681" lon="-4.21888">
        <ele>82</ele>
        <time>2013-03-17T11:00:24Z</time>
      </trkpt>
      <trkpt lat="48.06675" lon="-4.21885">
        <ele>82</ele>
        <time>2013-03-17T11:00:25Z</time>
      </trkpt>
      <trkpt lat="48.06668" lon="-4.21881">
        <ele>81</ele>
        <time>2013-03-17T11:00:26Z</time>
      </trkpt>
      <trkpt lat="48.06662" lon="-4.21878">
        <ele>81</ele>
        <time>2013-03-17T11:00:27Z</time>
      </trkpt>
      <trkpt lat="48.06655" lon="-4.21874">
        <ele>81</ele>
        <time>2013-03-17T11:00:28Z</time>
      </trkpt>
      <trkpt lat="48.06648" lon="-4.2187">
        <ele>81</ele>
        <time>2013-03-17T11:00:29Z</time>
      </trkpt>
      <trkpt lat="48.0664" lon="-4.21866">
        <ele>81</ele>
        <time>2013-03-17T11:00:30Z</time>
      </trkpt>
      <trkpt lat="48.06635" lon="-4.21864">
        <ele>82</ele>
        <time>2013-03-17T11:00:31Z</time>
      </trkpt>
      <trkpt lat="48.06629" lon="-4.21863">
        <ele>82</ele>
        <time>2013-03-17T11:00:32Z</time>
      </trkpt>
      <trkpt lat="48.06623" lon="-4.21861">
        <ele>82</ele>
        <time>2013-03-17T11:00:33Z</time>
      </trkpt>
      <trkpt lat="48.06618" lon="-4.21859">
        <ele>82</ele>
        <time>2013-03-17T11:00:34Z</time>
      </trkpt>
      <trkpt lat="48.06613" lon="-4.21857">
        <ele>82</ele>
        <time>2013-03-17T11:00:35Z</time>
      </trkpt>
      <trkpt lat="48.06608" lon="-4.21854">
        <ele>83</ele>
        <time>2013-03-17T11:00:36Z</time>
      </trkpt>
      <trkpt lat="48.06601" lon="-4.21852">
        <ele>83</ele>
        <time>2013-03-17T11:00:37Z</time>
      </trkpt>
      <trkpt lat="48.06596" lon="-4.2185">
        <ele>84</ele>
        <time>2013-03-17T11:00:38Z</time>
      </trkpt>
      <trkpt lat="48.0659" lon="-4.21848">
        <ele>84</ele>
        <time>2013-03-17T11:00:39Z</time>
      </trkpt>
      <trkpt lat="48.06585" lon="-4.21845">
        <ele>84</ele>
        <time>2013-03-17T11:00:40Z</time>
      </trkpt>
      <trkpt lat="48.06581" lon="-4.21843">
        <ele>85</ele>
        <time>2013-03-17T11:00:41Z</time>
      </trkpt>
      <trkpt lat="48.06567" lon="-4.21839">
        <ele>84</ele>
        <time>2013-03-17T11:00:44Z</time>
      </trkpt>
      <trkpt lat="48.06563" lon="-4.21838">
        <ele>85</ele>
        <time>2013-03-17T11:00:45Z</time>
      </trkpt>
      <trkpt lat="48.06555" lon="-4.21835">
        <ele>84</ele>
        <time>2013-03-17T11:00:47Z</time>
      </trkpt>
      <trkpt lat="48.06547" lon="-4.21832">
        <ele>84</ele>
        <time>2013-03-17T11:00:49Z</time>
      </trkpt>
      <trkpt lat="48.06536" lon="-4.21827">
        <ele>83</ele>
        <time>2013-03-17T11:00:52Z</time>
      </trkpt>
      <trkpt lat="48.06527" lon="-4.21824">
        <ele>83</ele>
        <time>2013-03-17T11:00:54Z</time>
      </trkpt>
      <trkpt lat="48.06516" lon="-4.21819">
        <ele>82</ele>
        <time>2013-03-17T11:00:56Z</time>
      </trkpt>
      <trkpt lat="48.0651" lon="-4.21817">
        <ele>82</ele>
        <time>2013-03-17T11:00:57Z</time>
      </trkpt>
      <trkpt lat="48.06505" lon="-4.21815">
        <ele>81</ele>
        <time>2013-03-17T11:00:58Z</time>
      </trkpt>
      <trkpt lat="48.06499" lon="-4.21812">
        <ele>81</ele>
        <time>2013-03-17T11:00:59Z</time>
      </trkpt>
      <trkpt lat="48.06487" lon="-4.21807">
        <ele>80</ele>
        <time>2013-03-17T11:01:01Z</time>
      </trkpt>
      <trkpt lat="48.06474" lon="-4.21801">
        <ele>80</ele>
        <time>2013-03-17T11:01:03Z</time>
      </trkpt>
      <trkpt lat="48.06462" lon="-4.21794">
        <ele>80</ele>
        <time>2013-03-17T11:01:05Z</time>
      </trkpt>
      <trkpt lat="48.06455" lon="-4.21789">
        <ele>80</ele>
        <time>2013-03-17T11:01:06Z</time>
      </trkpt>
      <trkpt lat="48.0645" lon="-4.21784">
        <ele>80</ele>
        <time>2013-03-17T11:01:07Z</time>
      </trkpt>
      <trkpt lat="48.06445" lon="-4.21778">
        <ele>80</ele>
        <time>2013-03-17T11:01:08Z</time>
      </trkpt>
      <trkpt lat="48.0644" lon="-4.21772">
        <ele>80</ele>
        <time>2013-03-17T11:01:09Z</time>
      </trkpt>
      <trkpt lat="48.06436" lon="-4.21768">
        <ele>80</ele>
        <time>2013-03-17T11:01:10Z</time>
      </trkpt>
      <trkpt lat="48.06433" lon="-4.21763">
        <ele>79</ele>
        <time>2013-03-17T11:01:11Z</time>
      </trkpt>
      <trkpt lat="48.06424" lon="-4.21749">
        <ele>78</ele>
        <time>2013-03-17T11:01:14Z</time>
      </trkpt>
      <trkpt lat="48.06416" lon="-4.21737">
        <ele>78</ele>
        <time>2013-03-17T11:01:17Z</time>
      </trkpt>
      <trkpt lat="48.06411" lon="-4.21726">
        <ele>76</ele>
        <time>2013-03-17T11:01:20Z</time>
      </trkpt>
      <trkpt lat="48.06408" lon="-4.21718">
        <ele>76</ele>
        <time>2013-03-17T11:01:22Z</time>
      </trkpt>
      <trkpt lat="48.06403" lon="-4.21707">
        <ele>76</ele>
        <time>2013-03-17T11:01:26Z</time>
      </trkpt>
      <trkpt lat="48.06393" lon="-4.21712">
        <ele>81</ele>
        <time>2013-03-17T11:02:24Z</time>
      </trkpt>
      <trkpt lat="48.06383" lon="-4.21709">
        <ele>82</ele>
        <time>2013-03-17T11:02:28Z</time>
      </trkpt>
      <trkpt lat="48.06372" lon="-4.21707">
        <ele>84</ele>
        <time>2013-03-17T11:02:34Z</time>
      </trkpt>
      <trkpt lat="48.06366" lon="-4.21707">
        <ele>85</ele>
        <time>2013-03-17T11:02:37Z</time>
      </trkpt>
      <trkpt lat="48.06359" lon="-4.21703">
        <ele>86</ele>
        <time>2013-03-17T11:02:40Z</time>
      </trkpt>
      <trkpt lat="48.06354" lon="-4.21703">
        <ele>87</ele>
        <time>2013-03-17T11:02:43Z</time>
      </trkpt>
      <trkpt lat="48.06347" lon="-4.21701">
        <ele>87</ele>
        <time>2013-03-17T11:02:47Z</time>
      </trkpt>
      <trkpt lat="48.06342" lon="-4.21702">
        <ele>87</ele>
        <time>2013-03-17T11:02:50Z</time>
      </trkpt>
      <trkpt lat="48.06337" lon="-4.21706">
        <ele>86</ele>
        <time>2013-03-17T11:02:53Z</time>
      </trkpt>
      <trkpt lat="48.06334" lon="-4.21714">
        <ele>84</ele>
        <time>2013-03-17T11:02:57Z</time>
      </trkpt>
      <trkpt lat="48.06331" lon="-4.21721">
        <ele>83</ele>
        <time>2013-03-17T11:03:02Z</time>
      </trkpt>
      <trkpt lat="48.06327" lon="-4.21727">
        <ele>83</ele>
        <time>2013-03-17T11:03:05Z</time>
      </trkpt>
      <trkpt lat="48.0632" lon="-4.21742">
        <ele>82</ele>
        <time>2013-03-17T11:03:10Z</time>
      </trkpt>
      <trkpt lat="48.06312" lon="-4.21754">
        <ele>82</ele>
        <time>2013-03-17T11:03:13Z</time>
      </trkpt>
      <trkpt lat="48.06302" lon="-4.21762">
        <ele>82</ele>
        <time>2013-03-17T11:03:16Z</time>
      </trkpt>
      <trkpt lat="48.06298" lon="-4.21777">
        <ele>81</ele>
        <time>2013-03-17T11:03:20Z</time>
      </trkpt>
      <trkpt lat="48.06301" lon="-4.21783">
        <ele>81</ele>
        <time>2013-03-17T11:03:23Z</time>
      </trkpt>
      <trkpt lat="48.06306" lon="-4.21787">
        <ele>80</ele>
        <time>2013-03-17T11:03:25Z</time>
      </trkpt>
      <trkpt lat="48.06314" lon="-4.21788">
        <ele>79</ele>
        <time>2013-03-17T11:03:28Z</time>
      </trkpt>
      <trkpt lat="48.06319" lon="-4.21788">
        <ele>79</ele>
        <time>2013-03-17T11:03:30Z</time>
      </trkpt>
      <trkpt lat="48.06326" lon="-4.21787">
        <ele>78</ele>
        <time>2013-03-17T11:03:32Z</time>
      </trkpt>
      <trkpt lat="48.06335" lon="-4.21785">
        <ele>78</ele>
        <time>2013-03-17T11:03:35Z</time>
      </trkpt>
      <trkpt lat="48.06342" lon="-4.21783">
        <ele>77</ele>
        <time>2013-03-17T11:03:37Z</time>
      </trkpt>
      <trkpt lat="48.06352" lon="-4.21782">
        <ele>77</ele>
        <time>2013-03-17T11:03:40Z</time>
      </trkpt>
      <trkpt lat="48.06365" lon="-4.21785">
        <ele>76</ele>
        <time>2013-03-17T11:03:45Z</time>
      </trkpt>
      <trkpt lat="48.06368" lon="-4.21791">
        <ele>75</ele>
        <time>2013-03-17T11:03:47Z</time>
      </trkpt>
      <trkpt lat="48.06369" lon="-4.21798">
        <ele>75</ele>
        <time>2013-03-17T11:03:49Z</time>
      </trkpt>
      <trkpt lat="48.06361" lon="-4.2181">
        <ele>74</ele>
        <time>2013-03-17T11:03:54Z</time>
      </trkpt>
      <trkpt lat="48.06353" lon="-4.2182">
        <ele>75</ele>
        <time>2013-03-17T11:03:58Z</time>
      </trkpt>
      <trkpt lat="48.06345" lon="-4.21828">
        <ele>75</ele>
        <time>2013-03-17T11:04:02Z</time>
      </trkpt>
      <trkpt lat="48.06336" lon="-4.21833">
        <ele>75</ele>
        <time>2013-03-17T11:04:04Z</time>
      </trkpt>
      <trkpt lat="48.06326" lon="-4.21837">
        <ele>75</ele>
        <time>2013-03-17T11:04:06Z</time>
      </trkpt>
      <trkpt lat="48.06314" lon="-4.21841">
        <ele>74</ele>
        <time>2013-03-17T11:04:08Z</time>
      </trkpt>
      <trkpt lat="48.06306" lon="-4.21847">
        <ele>73</ele>
        <time>2013-03-17T11:04:10Z</time>
      </trkpt>
      <trkpt lat="48.06294" lon="-4.21858">
        <ele>71</ele>
        <time>2013-03-17T11:04:13Z</time>
      </trkpt>
      <trkpt lat="48.06288" lon="-4.21868">
        <ele>70</ele>
        <time>2013-03-17T11:04:16Z</time>
      </trkpt>
      <trkpt lat="48.06281" lon="-4.21873">
        <ele>68</ele>
        <time>2013-03-17T11:04:19Z</time>
      </trkpt>
      <trkpt lat="48.06275" lon="-4.21879">
        <ele>67</ele>
        <time>2013-03-17T11:04:21Z</time>
      </trkpt>
      <trkpt lat="48.06265" lon="-4.21886">
        <ele>66</ele>
        <time>2013-03-17T11:04:24Z</time>
      </trkpt>
      <trkpt lat="48.06257" lon="-4.21894">
        <ele>65</ele>
        <time>2013-03-17T11:04:27Z</time>
      </trkpt>
      <trkpt lat="48.06251" lon="-4.21908">
        <ele>63</ele>
        <time>2013-03-17T11:04:30Z</time>
      </trkpt>
      <trkpt lat="48.06248" lon="-4.21918">
        <ele>62</ele>
        <time>2013-03-17T11:04:32Z</time>
      </trkpt>
      <trkpt lat="48.06244" lon="-4.21925">
        <ele>61</ele>
        <time>2013-03-17T11:04:34Z</time>
      </trkpt>
      <trkpt lat="48.0624" lon="-4.21939">
        <ele>59</ele>
        <time>2013-03-17T11:04:38Z</time>
      </trkpt>
      <trkpt lat="48.06237" lon="-4.21951">
        <ele>59</ele>
        <time>2013-03-17T11:04:42Z</time>
      </trkpt>
      <trkpt lat="48.06233" lon="-4.21959">
        <ele>59</ele>
        <time>2013-03-17T11:04:45Z</time>
      </trkpt>
      <trkpt lat="48.06229" lon="-4.21966">
        <ele>58</ele>
        <time>2013-03-17T11:04:49Z</time>
      </trkpt>
      <trkpt lat="48.06225" lon="-4.21973">
        <ele>59</ele>
        <time>2013-03-17T11:04:52Z</time>
      </trkpt>
      <trkpt lat="48.06221" lon="-4.21982">
        <ele>59</ele>
        <time>2013-03-17T11:04:56Z</time>
      </trkpt>
      <trkpt lat="48.06218" lon="-4.21988">
        <ele>58</ele>
        <time>2013-03-17T11:04:58Z</time>
      </trkpt>
      <trkpt lat="48.06215" lon="-4.21994">
        <ele>57</ele>
        <time>2013-03-17T11:05:00Z</time>
      </trkpt>
      <trkpt lat="48.06211" lon="-4.22">
        <ele>57</ele>
        <time>2013-03-17T11:05:02Z</time>
      </trkpt>
      <trkpt lat="48.06207" lon="-4.22013">
        <ele>55</ele>
        <time>2013-03-17T11:05:06Z</time>
      </trkpt>
      <trkpt lat="48.06206" lon="-4.22023">
        <ele>53</ele>
        <time>2013-03-17T11:05:09Z</time>
      </trkpt>
      <trkpt lat="48.06205" lon="-4.22038">
        <ele>52</ele>
        <time>2013-03-17T11:05:12Z</time>
      </trkpt>
      <trkpt lat="48.06203" lon="-4.22053">
        <ele>48</ele>
        <time>2013-03-17T11:05:16Z</time>
      </trkpt>
      <trkpt lat="48.062" lon="-4.22069">
        <ele>47</ele>
        <time>2013-03-17T11:05:20Z</time>
      </trkpt>
      <trkpt lat="48.062" lon="-4.22078">
        <ele>48</ele>
        <time>2013-03-17T11:05:22Z</time>
      </trkpt>
      <trkpt lat="48.06201" lon="-4.22091">
        <ele>48</ele>
        <time>2013-03-17T11:05:25Z</time>
      </trkpt>
      <trkpt lat="48.06202" lon="-4.22101">
        <ele>49</ele>
        <time>2013-03-17T11:05:27Z</time>
      </trkpt>
      <trkpt lat="48.06205" lon="-4.22115">
        <ele>49</ele>
        <time>2013-03-17T11:05:31Z</time>
      </trkpt>
      <trkpt lat="48.06209" lon="-4.22132">
        <ele>49</ele>
        <time>2013-03-17T11:05:36Z</time>
      </trkpt>
      <trkpt lat="48.06214" lon="-4.22138">
        <ele>49</ele>
        <time>2013-03-17T11:05:38Z</time>
      </trkpt>
      <trkpt lat="48.06221" lon="-4.22143">
        <ele>49</ele>
        <time>2013-03-17T11:05:40Z</time>
      </trkpt>
      <trkpt lat="48.06232" lon="-4.22148">
        <ele>49</ele>
        <time>2013-03-17T11:05:43Z</time>
      </trkpt>
      <trkpt lat="48.06241" lon="-4.22157">
        <ele>48</ele>
        <time>2013-03-17T11:05:47Z</time>
      </trkpt>
      <trkpt lat="48.06245" lon="-4.22163">
        <ele>47</ele>
        <time>2013-03-17T11:05:49Z</time>
      </trkpt>
      <trkpt lat="48.06249" lon="-4.22172">
        <ele>46</ele>
        <time>2013-03-17T11:05:51Z</time>
      </trkpt>
      <trkpt lat="48.06252" lon="-4.22182">
        <ele>45</ele>
        <time>2013-03-17T11:05:53Z</time>
      </trkpt>
      <trkpt lat="48.06254" lon="-4.22192">
        <ele>45</ele>
        <time>2013-03-17T11:05:55Z</time>
      </trkpt>
      <trkpt lat="48.06256" lon="-4.22202">
        <ele>44</ele>
        <time>2013-03-17T11:05:58Z</time>
      </trkpt>
      <trkpt lat="48.06257" lon="-4.22211">
        <ele>45</ele>
        <time>2013-03-17T11:06:01Z</time>
      </trkpt>
      <trkpt lat="48.06257" lon="-4.2222">
        <ele>44</ele>
        <time>2013-03-17T11:06:04Z</time>
      </trkpt>
      <trkpt lat="48.06254" lon="-4.22233">
        <ele>45</ele>
        <time>2013-03-17T11:06:08Z</time>
      </trkpt>
      <trkpt lat="48.06252" lon="-4.22241">
        <ele>45</ele>
        <time>2013-03-17T11:06:10Z</time>
      </trkpt>
      <trkpt lat="48.06248" lon="-4.22253">
        <ele>44</ele>
        <time>2013-03-17T11:06:14Z</time>
      </trkpt>
      <trkpt lat="48.06244" lon="-4.22268">
        <ele>44</ele>
        <time>2013-03-17T11:06:16Z</time>
      </trkpt>
      <trkpt lat="48.06242" lon="-4.22285">
        <ele>45</ele>
        <time>2013-03-17T11:06:18Z</time>
      </trkpt>
      <trkpt lat="48.06241" lon="-4.22293">
        <ele>45</ele>
        <time>2013-03-17T11:06:19Z</time>
      </trkpt>
      <trkpt lat="48.06238" lon="-4.22299">
        <ele>45</ele>
        <time>2013-03-17T11:06:20Z</time>
      </trkpt>
      <trkpt lat="48.06234" lon="-4.2231">
        <ele>45</ele>
        <time>2013-03-17T11:06:22Z</time>
      </trkpt>
      <trkpt lat="48.0623" lon="-4.22328">
        <ele>45</ele>
        <time>2013-03-17T11:06:25Z</time>
      </trkpt>
      <trkpt lat="48.06229" lon="-4.22346">
        <ele>44</ele>
        <time>2013-03-17T11:06:28Z</time>
      </trkpt>
      <trkpt lat="48.06228" lon="-4.22353">
        <ele>44</ele>
        <time>2013-03-17T11:06:29Z</time>
      </trkpt>
      <trkpt lat="48.06227" lon="-4.22366">
        <ele>43</ele>
        <time>2013-03-17T11:06:31Z</time>
      </trkpt>
      <trkpt lat="48.06228" lon="-4.22379">
        <ele>43</ele>
        <time>2013-03-17T11:06:33Z</time>
      </trkpt>
      <trkpt lat="48.06229" lon="-4.22388">
        <ele>42</ele>
        <time>2013-03-17T11:06:34Z</time>
      </trkpt>
      <trkpt lat="48.06229" lon="-4.22395">
        <ele>42</ele>
        <time>2013-03-17T11:06:35Z</time>
      </trkpt>
      <trkpt lat="48.06231" lon="-4.22411">
        <ele>42</ele>
        <time>2013-03-17T11:06:38Z</time>
      </trkpt>
      <trkpt lat="48.0623" lon="-4.22423">
        <ele>42</ele>
        <time>2013-03-17T11:06:40Z</time>
      </trkpt>
      <trkpt lat="48.06226" lon="-4.22438">
        <ele>43</ele>
        <time>2013-03-17T11:06:44Z</time>
      </trkpt>
      <trkpt lat="48.0622" lon="-4.22447">
        <ele>43</ele>
        <time>2013-03-17T11:06:46Z</time>
      </trkpt>
      <trkpt lat="48.06216" lon="-4.22455">
        <ele>44</ele>
        <time>2013-03-17T11:06:48Z</time>
      </trkpt>
      <trkpt lat="48.06214" lon="-4.22464">
        <ele>44</ele>
        <time>2013-03-17T11:06:50Z</time>
      </trkpt>
      <trkpt lat="48.06213" lon="-4.22472">
        <ele>43</ele>
        <time>2013-03-17T11:06:52Z</time>
      </trkpt>
      <trkpt lat="48.06211" lon="-4.22484">
        <ele>43</ele>
        <time>2013-03-17T11:06:54Z</time>
      </trkpt>
      <trkpt lat="48.06209" lon="-4.22493">
        <ele>42</ele>
        <time>2013-03-17T11:06:56Z</time>
      </trkpt>
      <trkpt lat="48.06204" lon="-4.22501">
        <ele>42</ele>
        <time>2013-03-17T11:06:59Z</time>
      </trkpt>
      <trkpt lat="48.06201" lon="-4.22506">
        <ele>42</ele>
        <time>2013-03-17T11:07:00Z</time>
      </trkpt>
      <trkpt lat="48.06198" lon="-4.22511">
        <ele>41</ele>
        <time>2013-03-17T11:07:01Z</time>
      </trkpt>
      <trkpt lat="48.06188" lon="-4.2252">
        <ele>41</ele>
        <time>2013-03-17T11:07:04Z</time>
      </trkpt>
      <trkpt lat="48.06181" lon="-4.22525">
        <ele>42</ele>
        <time>2013-03-17T11:07:06Z</time>
      </trkpt>
      <trkpt lat="48.06173" lon="-4.22529">
        <ele>42</ele>
        <time>2013-03-17T11:07:08Z</time>
      </trkpt>
      <trkpt lat="48.06166" lon="-4.22533">
        <ele>42</ele>
        <time>2013-03-17T11:07:10Z</time>
      </trkpt>
      <trkpt lat="48.06159" lon="-4.22536">
        <ele>43</ele>
        <time>2013-03-17T11:07:12Z</time>
      </trkpt>
      <trkpt lat="48.06153" lon="-4.22538">
        <ele>43</ele>
        <time>2013-03-17T11:07:14Z</time>
      </trkpt>
      <trkpt lat="48.06146" lon="-4.22539">
        <ele>44</ele>
        <time>2013-03-17T11:07:16Z</time>
      </trkpt>
      <trkpt lat="48.0614" lon="-4.2254">
        <ele>44</ele>
        <time>2013-03-17T11:07:18Z</time>
      </trkpt>
      <trkpt lat="48.06133" lon="-4.22543">
        <ele>45</ele>
        <time>2013-03-17T11:07:20Z</time>
      </trkpt>
      <trkpt lat="48.06127" lon="-4.22546">
        <ele>45</ele>
        <time>2013-03-17T11:07:22Z</time>
      </trkpt>
      <trkpt lat="48.0612" lon="-4.2255">
        <ele>45</ele>
        <time>2013-03-17T11:07:24Z</time>
      </trkpt>
      <trkpt lat="48.06114" lon="-4.22554">
        <ele>45</ele>
        <time>2013-03-17T11:07:26Z</time>
      </trkpt>
      <trkpt lat="48.06109" lon="-4.22559">
        <ele>45</ele>
        <time>2013-03-17T11:07:28Z</time>
      </trkpt>
      <trkpt lat="48.06105" lon="-4.22565">
        <ele>45</ele>
        <time>2013-03-17T11:07:30Z</time>
      </trkpt>
      <trkpt lat="48.06099" lon="-4.22573">
        <ele>44</ele>
        <time>2013-03-17T11:07:32Z</time>
      </trkpt>
      <trkpt lat="48.06096" lon="-4.22578">
        <ele>44</ele>
        <time>2013-03-17T11:07:33Z</time>
      </trkpt>
      <trkpt lat="48.06089" lon="-4.22589">
        <ele>43</ele>
        <time>2013-03-17T11:07:36Z</time>
      </trkpt>
      <trkpt lat="48.06081" lon="-4.22602">
        <ele>42</ele>
        <time>2013-03-17T11:07:40Z</time>
      </trkpt>
      <trkpt lat="48.06076" lon="-4.22614">
        <ele>41</ele>
        <time>2013-03-17T11:07:43Z</time>
      </trkpt>
      <trkpt lat="48.0607" lon="-4.22626">
        <ele>40</ele>
        <time>2013-03-17T11:07:46Z</time>
      </trkpt>
      <trkpt lat="48.06064" lon="-4.22641">
        <ele>40</ele>
        <time>2013-03-17T11:07:51Z</time>
      </trkpt>
      <trkpt lat="48.06062" lon="-4.22648">
        <ele>40</ele>
        <time>2013-03-17T11:07:53Z</time>
      </trkpt>
      <trkpt lat="48.06058" lon="-4.22657">
        <ele>41</ele>
        <time>2013-03-17T11:07:56Z</time>
      </trkpt>
      <trkpt lat="48.06055" lon="-4.22662">
        <ele>41</ele>
        <time>2013-03-17T11:07:59Z</time>
      </trkpt>
      <trkpt lat="48.06053" lon="-4.22664">
        <ele>44</ele>
        <time>2013-03-17T11:08:05Z</time>
      </trkpt>
      <trkpt lat="48.06044" lon="-4.22674">
        <ele>33</ele>
        <time>2013-03-17T11:08:55Z</time>
      </trkpt>
      <trkpt lat="48.06041" lon="-4.22683">
        <ele>33</ele>
        <time>2013-03-17T11:08:57Z</time>
      </trkpt>
      <trkpt lat="48.06036" lon="-4.22693">
        <ele>34</ele>
        <time>2013-03-17T11:08:59Z</time>
      </trkpt>
      <trkpt lat="48.06032" lon="-4.22706">
        <ele>34</ele>
        <time>2013-03-17T11:09:02Z</time>
      </trkpt>
      <trkpt lat="48.06028" lon="-4.22718">
        <ele>35</ele>
        <time>2013-03-17T11:09:05Z</time>
      </trkpt>
      <trkpt lat="48.06024" lon="-4.2273">
        <ele>35</ele>
        <time>2013-03-17T11:09:07Z</time>
      </trkpt>
      <trkpt lat="48.06019" lon="-4.2274">
        <ele>35</ele>
        <time>2013-03-17T11:09:09Z</time>
      </trkpt>
      <trkpt lat="48.06016" lon="-4.22746">
        <ele>35</ele>
        <time>2013-03-17T11:09:11Z</time>
      </trkpt>
      <trkpt lat="48.06011" lon="-4.2275">
        <ele>36</ele>
        <time>2013-03-17T11:09:13Z</time>
      </trkpt>
      <trkpt lat="48.06006" lon="-4.22751">
        <ele>36</ele>
        <time>2013-03-17T11:09:15Z</time>
      </trkpt>
      <trkpt lat="48.06" lon="-4.22747">
        <ele>36</ele>
        <time>2013-03-17T11:09:17Z</time>
      </trkpt>
      <trkpt lat="48.05994" lon="-4.22741">
        <ele>36</ele>
        <time>2013-03-17T11:09:19Z</time>
      </trkpt>
      <trkpt lat="48.05987" lon="-4.22736">
        <ele>37</ele>
        <time>2013-03-17T11:09:21Z</time>
      </trkpt>
      <trkpt lat="48.05979" lon="-4.22729">
        <ele>37</ele>
        <time>2013-03-17T11:09:23Z</time>
      </trkpt>
      <trkpt lat="48.05975" lon="-4.22726">
        <ele>37</ele>
        <time>2013-03-17T11:09:24Z</time>
      </trkpt>
      <trkpt lat="48.0597" lon="-4.22722">
        <ele>37</ele>
        <time>2013-03-17T11:09:25Z</time>
      </trkpt>
      <trkpt lat="48.05966" lon="-4.22716">
        <ele>37</ele>
        <time>2013-03-17T11:09:26Z</time>
      </trkpt>
      <trkpt lat="48.05961" lon="-4.22709">
        <ele>36</ele>
        <time>2013-03-17T11:09:27Z</time>
      </trkpt>
      <trkpt lat="48.05957" lon="-4.22702">
        <ele>36</ele>
        <time>2013-03-17T11:09:28Z</time>
      </trkpt>
      <trkpt lat="48.05953" lon="-4.22695">
        <ele>36</ele>
        <time>2013-03-17T11:09:29Z</time>
      </trkpt>
      <trkpt lat="48.05947" lon="-4.22681">
        <ele>35</ele>
        <time>2013-03-17T11:09:31Z</time>
      </trkpt>
      <trkpt lat="48.05944" lon="-4.22675">
        <ele>35</ele>
        <time>2013-03-17T11:09:32Z</time>
      </trkpt>
      <trkpt lat="48.0594" lon="-4.22667">
        <ele>35</ele>
        <time>2013-03-17T11:09:33Z</time>
      </trkpt>
      <trkpt lat="48.05936" lon="-4.22659">
        <ele>35</ele>
        <time>2013-03-17T11:09:34Z</time>
      </trkpt>
      <trkpt lat="48.05932" lon="-4.22652">
        <ele>35</ele>
        <time>2013-03-17T11:09:35Z</time>
      </trkpt>
      <trkpt lat="48.05928" lon="-4.22644">
        <ele>35</ele>
        <time>2013-03-17T11:09:36Z</time>
      </trkpt>
      <trkpt lat="48.05924" lon="-4.22635">
        <ele>35</ele>
        <time>2013-03-17T11:09:37Z</time>
      </trkpt>
      <trkpt lat="48.0592" lon="-4.22628">
        <ele>34</ele>
        <time>2013-03-17T11:09:38Z</time>
      </trkpt>
      <trkpt lat="48.05916" lon="-4.2262">
        <ele>34</ele>
        <time>2013-03-17T11:09:39Z</time>
      </trkpt>
      <trkpt lat="48.05912" lon="-4.22613">
        <ele>35</ele>
        <time>2013-03-17T11:09:40Z</time>
      </trkpt>
      <trkpt lat="48.05906" lon="-4.22606">
        <ele>35</ele>
        <time>2013-03-17T11:09:41Z</time>
      </trkpt>
      <trkpt lat="48.05901" lon="-4.226">
        <ele>34</ele>
        <time>2013-03-17T11:09:42Z</time>
      </trkpt>
      <trkpt lat="48.05896" lon="-4.22594">
        <ele>34</ele>
        <time>2013-03-17T11:09:43Z</time>
      </trkpt>
      <trkpt lat="48.0589" lon="-4.22589">
        <ele>34</ele>
        <time>2013-03-17T11:09:44Z</time>
      </trkpt>
      <trkpt lat="48.05884" lon="-4.22584">
        <ele>34</ele>
        <time>2013-03-17T11:09:45Z</time>
      </trkpt>
      <trkpt lat="48.05878" lon="-4.2258">
        <ele>34</ele>
        <time>2013-03-17T11:09:46Z</time>
      </trkpt>
      <trkpt lat="48.05872" lon="-4.22576">
        <ele>34</ele>
        <time>2013-03-17T11:09:47Z</time>
      </trkpt>
      <trkpt lat="48.05866" lon="-4.22572">
        <ele>35</ele>
        <time>2013-03-17T11:09:48Z</time>
      </trkpt>
      <trkpt lat="48.05861" lon="-4.2257">
        <ele>35</ele>
        <time>2013-03-17T11:09:49Z</time>
      </trkpt>
      <trkpt lat="48.05856" lon="-4.22569">
        <ele>35</ele>
        <time>2013-03-17T11:09:50Z</time>
      </trkpt>
      <trkpt lat="48.05846" lon="-4.22568">
        <ele>35</ele>
        <time>2013-03-17T11:09:52Z</time>
      </trkpt>
      <trkpt lat="48.05842" lon="-4.22569">
        <ele>36</ele>
        <time>2013-03-17T11:09:53Z</time>
      </trkpt>
      <trkpt lat="48.05837" lon="-4.2257">
        <ele>36</ele>
        <time>2013-03-17T11:09:54Z</time>
      </trkpt>
      <trkpt lat="48.05829" lon="-4.22572">
        <ele>36</ele>
        <time>2013-03-17T11:09:56Z</time>
      </trkpt>
      <trkpt lat="48.05822" lon="-4.22572">
        <ele>36</ele>
        <time>2013-03-17T11:09:58Z</time>
      </trkpt>
      <trkpt lat="48.05814" lon="-4.22572">
        <ele>36</ele>
        <time>2013-03-17T11:10:00Z</time>
      </trkpt>
      <trkpt lat="48.05808" lon="-4.22571">
        <ele>36</ele>
        <time>2013-03-17T11:10:02Z</time>
      </trkpt>
      <trkpt lat="48.05801" lon="-4.22571">
        <ele>36</ele>
        <time>2013-03-17T11:10:04Z</time>
      </trkpt>
      <trkpt lat="48.05794" lon="-4.22571">
        <ele>37</ele>
        <time>2013-03-17T11:10:06Z</time>
      </trkpt>
      <trkpt lat="48.05786" lon="-4.2257">
        <ele>38</ele>
        <time>2013-03-17T11:10:08Z</time>
      </trkpt>
      <trkpt lat="48.05779" lon="-4.22568">
        <ele>38</ele>
        <time>2013-03-17T11:10:10Z</time>
      </trkpt>
      <trkpt lat="48.05773" lon="-4.22564">
        <ele>38</ele>
        <time>2013-03-17T11:10:12Z</time>
      </trkpt>
      <trkpt lat="48.05767" lon="-4.2256">
        <ele>39</ele>
        <time>2013-03-17T11:10:14Z</time>
      </trkpt>
      <trkpt lat="48.05759" lon="-4.22555">
        <ele>39</ele>
        <time>2013-03-17T11:10:16Z</time>
      </trkpt>
      <trkpt lat="48.05754" lon="-4.22551">
        <ele>39</ele>
        <time>2013-03-17T11:10:18Z</time>
      </trkpt>
      <trkpt lat="48.05749" lon="-4.22544">
        <ele>40</ele>
        <time>2013-03-17T11:10:20Z</time>
      </trkpt>
      <trkpt lat="48.05744" lon="-4.22538">
        <ele>40</ele>
        <time>2013-03-17T11:10:22Z</time>
      </trkpt>
      <trkpt lat="48.05738" lon="-4.22532">
        <ele>40</ele>
        <time>2013-03-17T11:10:24Z</time>
      </trkpt>
      <trkpt lat="48.05733" lon="-4.22526">
        <ele>41</ele>
        <time>2013-03-17T11:10:26Z</time>
      </trkpt>
      <trkpt lat="48.05729" lon="-4.22521">
        <ele>41</ele>
        <time>2013-03-17T11:10:28Z</time>
      </trkpt>
      <trkpt lat="48.05725" lon="-4.22517">
        <ele>42</ele>
        <time>2013-03-17T11:10:30Z</time>
      </trkpt>
      <trkpt lat="48.05715" lon="-4.22509">
        <ele>41</ele>
        <time>2013-03-17T11:10:33Z</time>
      </trkpt>
      <trkpt lat="48.0571" lon="-4.22504">
        <ele>40</ele>
        <time>2013-03-17T11:10:35Z</time>
      </trkpt>
      <trkpt lat="48.05704" lon="-4.22499">
        <ele>40</ele>
        <time>2013-03-17T11:10:37Z</time>
      </trkpt>
      <trkpt lat="48.05698" lon="-4.22493">
        <ele>41</ele>
        <time>2013-03-17T11:10:39Z</time>
      </trkpt>
      <trkpt lat="48.05694" lon="-4.22489">
        <ele>41</ele>
        <time>2013-03-17T11:10:40Z</time>
      </trkpt>
      <trkpt lat="48.05688" lon="-4.22483">
        <ele>41</ele>
        <time>2013-03-17T11:10:42Z</time>
      </trkpt>
      <trkpt lat="48.05679" lon="-4.22475">
        <ele>40</ele>
        <time>2013-03-17T11:10:45Z</time>
      </trkpt>
      <trkpt lat="48.05672" lon="-4.22469">
        <ele>40</ele>
        <time>2013-03-17T11:10:47Z</time>
      </trkpt>
      <trkpt lat="48.05666" lon="-4.22463">
        <ele>41</ele>
        <time>2013-03-17T11:10:49Z</time>
      </trkpt>
      <trkpt lat="48.05658" lon="-4.22458">
        <ele>40</ele>
        <time>2013-03-17T11:10:51Z</time>
      </trkpt>
      <trkpt lat="48.05651" lon="-4.22453">
        <ele>41</ele>
        <time>2013-03-17T11:10:53Z</time>
      </trkpt>
      <trkpt lat="48.05645" lon="-4.2245">
        <ele>42</ele>
        <time>2013-03-17T11:10:55Z</time>
      </trkpt>
      <trkpt lat="48.05635" lon="-4.22446">
        <ele>43</ele>
        <time>2013-03-17T11:10:58Z</time>
      </trkpt>
      <trkpt lat="48.05628" lon="-4.22442">
        <ele>43</ele>
        <time>2013-03-17T11:11:00Z</time>
      </trkpt>
      <trkpt lat="48.05623" lon="-4.22439">
        <ele>43</ele>
        <time>2013-03-17T11:11:01Z</time>
      </trkpt>
      <trkpt lat="48.05614" lon="-4.22433">
        <ele>43</ele>
        <time>2013-03-17T11:11:03Z</time>
      </trkpt>
      <trkpt lat="48.05609" lon="-4.22429">
        <ele>43</ele>
        <time>2013-03-17T11:11:04Z</time>
      </trkpt>
      <trkpt lat="48.05603" lon="-4.22425">
        <ele>43</ele>
        <time>2013-03-17T11:11:05Z</time>
      </trkpt>
      <trkpt lat="48.05596" lon="-4.2242">
        <ele>43</ele>
        <time>2013-03-17T11:11:06Z</time>
      </trkpt>
      <trkpt lat="48.05589" lon="-4.22413">
        <ele>43</ele>
        <time>2013-03-17T11:11:07Z</time>
      </trkpt>
      <trkpt lat="48.05581" lon="-4.22408">
        <ele>43</ele>
        <time>2013-03-17T11:11:08Z</time>
      </trkpt>
      <trkpt lat="48.05574" lon="-4.22403">
        <ele>43</ele>
        <time>2013-03-17T11:11:09Z</time>
      </trkpt>
      <trkpt lat="48.05567" lon="-4.22399">
        <ele>43</ele>
        <time>2013-03-17T11:11:10Z</time>
      </trkpt>
      <trkpt lat="48.05559" lon="-4.22394">
        <ele>43</ele>
        <time>2013-03-17T11:11:11Z</time>
      </trkpt>
      <trkpt lat="48.05553" lon="-4.2239">
        <ele>43</ele>
        <time>2013-03-17T11:11:12Z</time>
      </trkpt>
      <trkpt lat="48.05548" lon="-4.22386">
        <ele>43</ele>
        <time>2013-03-17T11:11:13Z</time>
      </trkpt>
      <trkpt lat="48.05536" lon="-4.22381">
        <ele>43</ele>
        <time>2013-03-17T11:11:15Z</time>
      </trkpt>
      <trkpt lat="48.0553" lon="-4.22379">
        <ele>43</ele>
        <time>2013-03-17T11:11:16Z</time>
      </trkpt>
      <trkpt lat="48.05525" lon="-4.22378">
        <ele>43</ele>
        <time>2013-03-17T11:11:17Z</time>
      </trkpt>
      <trkpt lat="48.05518" lon="-4.22376">
        <ele>43</ele>
        <time>2013-03-17T11:11:19Z</time>
      </trkpt>
      <trkpt lat="48.05509" lon="-4.22373">
        <ele>42</ele>
        <time>2013-03-17T11:11:21Z</time>
      </trkpt>
      <trkpt lat="48.05502" lon="-4.22371">
        <ele>42</ele>
        <time>2013-03-17T11:11:22Z</time>
      </trkpt>
      <trkpt lat="48.05497" lon="-4.2237">
        <ele>42</ele>
        <time>2013-03-17T11:11:23Z</time>
      </trkpt>
      <trkpt lat="48.05491" lon="-4.22368">
        <ele>41</ele>
        <time>2013-03-17T11:11:25Z</time>
      </trkpt>
      <trkpt lat="48.05483" lon="-4.22367">
        <ele>41</ele>
        <time>2013-03-17T11:11:27Z</time>
      </trkpt>
      <trkpt lat="48.05475" lon="-4.22367">
        <ele>41</ele>
        <time>2013-03-17T11:11:29Z</time>
      </trkpt>
      <trkpt lat="48.0547" lon="-4.22368">
        <ele>41</ele>
        <time>2013-03-17T11:11:30Z</time>
      </trkpt>
      <trkpt lat="48.05463" lon="-4.22368">
        <ele>41</ele>
        <time>2013-03-17T11:11:32Z</time>
      </trkpt>
      <trkpt lat="48.05456" lon="-4.22368">
        <ele>42</ele>
        <time>2013-03-17T11:11:34Z</time>
      </trkpt>
      <trkpt lat="48.05447" lon="-4.22369">
        <ele>43</ele>
        <time>2013-03-17T11:11:36Z</time>
      </trkpt>
      <trkpt lat="48.05442" lon="-4.22369">
        <ele>43</ele>
        <time>2013-03-17T11:11:37Z</time>
      </trkpt>
      <trkpt lat="48.05431" lon="-4.22365">
        <ele>44</ele>
        <time>2013-03-17T11:11:40Z</time>
      </trkpt>
      <trkpt lat="48.05427" lon="-4.22361">
        <ele>44</ele>
        <time>2013-03-17T11:11:41Z</time>
      </trkpt>
      <trkpt lat="48.05419" lon="-4.22353">
        <ele>46</ele>
        <time>2013-03-17T11:11:44Z</time>
      </trkpt>
      <trkpt lat="48.05415" lon="-4.2235">
        <ele>46</ele>
        <time>2013-03-17T11:11:46Z</time>
      </trkpt>
      <trkpt lat="48.05407" lon="-4.22349">
        <ele>45</ele>
        <time>2013-03-17T11:11:50Z</time>
      </trkpt>
      <trkpt lat="48.05402" lon="-4.22348">
        <ele>45</ele>
        <time>2013-03-17T11:11:52Z</time>
      </trkpt>
      <trkpt lat="48.05397" lon="-4.22339">
        <ele>47</ele>
        <time>2013-03-17T11:11:55Z</time>
      </trkpt>
      <trkpt lat="48.05395" lon="-4.2233">
        <ele>48</ele>
        <time>2013-03-17T11:11:57Z</time>
      </trkpt>
      <trkpt lat="48.05392" lon="-4.22322">
        <ele>48</ele>
        <time>2013-03-17T11:11:59Z</time>
      </trkpt>
      <trkpt lat="48.0539" lon="-4.22314">
        <ele>49</ele>
        <time>2013-03-17T11:12:01Z</time>
      </trkpt>
      <trkpt lat="48.05387" lon="-4.22307">
        <ele>48</ele>
        <time>2013-03-17T11:12:03Z</time>
      </trkpt>
      <trkpt lat="48.05383" lon="-4.22297">
        <ele>49</ele>
        <time>2013-03-17T11:12:05Z</time>
      </trkpt>
      <trkpt lat="48.05381" lon="-4.22288">
        <ele>50</ele>
        <time>2013-03-17T11:12:07Z</time>
      </trkpt>
      <trkpt lat="48.05376" lon="-4.22275">
        <ele>51</ele>
        <time>2013-03-17T11:12:11Z</time>
      </trkpt>
      <trkpt lat="48.05373" lon="-4.22266">
        <ele>51</ele>
        <time>2013-03-17T11:12:13Z</time>
      </trkpt>
      <trkpt lat="48.05369" lon="-4.22254">
        <ele>52</ele>
        <time>2013-03-17T11:12:16Z</time>
      </trkpt>
      <trkpt lat="48.05366" lon="-4.22246">
        <ele>53</ele>
        <time>2013-03-17T11:12:18Z</time>
      </trkpt>
      <trkpt lat="48.05363" lon="-4.22239">
        <ele>53</ele>
        <time>2013-03-17T11:12:20Z</time>
      </trkpt>
      <trkpt lat="48.0536" lon="-4.2223">
        <ele>53</ele>
        <time>2013-03-17T11:12:22Z</time>
      </trkpt>
      <trkpt lat="48.05357" lon="-4.2222">
        <ele>52</ele>
        <time>2013-03-17T11:12:24Z</time>
      </trkpt>
      <trkpt lat="48.05354" lon="-4.22209">
        <ele>52</ele>
        <time>2013-03-17T11:12:26Z</time>
      </trkpt>
      <trkpt lat="48.05351" lon="-4.22198">
        <ele>52</ele>
        <time>2013-03-17T11:12:28Z</time>
      </trkpt>
      <trkpt lat="48.05348" lon="-4.22187">
        <ele>52</ele>
        <time>2013-03-17T11:12:30Z</time>
      </trkpt>
      <trkpt lat="48.05345" lon="-4.22177">
        <ele>52</ele>
        <time>2013-03-17T11:12:32Z</time>
      </trkpt>
      <trkpt lat="48.05342" lon="-4.2217">
        <ele>52</ele>
        <time>2013-03-17T11:12:33Z</time>
      </trkpt>
      <trkpt lat="48.05339" lon="-4.22163">
        <ele>52</ele>
        <time>2013-03-17T11:12:34Z</time>
      </trkpt>
      <trkpt lat="48.05337" lon="-4.22157">
        <ele>52</ele>
        <time>2013-03-17T11:12:35Z</time>
      </trkpt>
      <trkpt lat="48.05333" lon="-4.22147">
        <ele>52</ele>
        <time>2013-03-17T11:12:37Z</time>
      </trkpt>
      <trkpt lat="48.05329" lon="-4.22139">
        <ele>52</ele>
        <time>2013-03-17T11:12:39Z</time>
      </trkpt>
      <trkpt lat="48.05325" lon="-4.22129">
        <ele>52</ele>
        <time>2013-03-17T11:12:41Z</time>
      </trkpt>
      <trkpt lat="48.0532" lon="-4.22122">
        <ele>52</ele>
        <time>2013-03-17T11:12:43Z</time>
      </trkpt>
      <trkpt lat="48.05315" lon="-4.22106">
        <ele>54</ele>
        <time>2013-03-17T11:12:46Z</time>
      </trkpt>
      <trkpt lat="48.05312" lon="-4.22096">
        <ele>55</ele>
        <time>2013-03-17T11:12:48Z</time>
      </trkpt>
      <trkpt lat="48.05309" lon="-4.22088">
        <ele>56</ele>
        <time>2013-03-17T11:12:50Z</time>
      </trkpt>
      <trkpt lat="48.05306" lon="-4.2208">
        <ele>56</ele>
        <time>2013-03-17T11:12:52Z</time>
      </trkpt>
      <trkpt lat="48.05301" lon="-4.22067">
        <ele>57</ele>
        <time>2013-03-17T11:12:55Z</time>
      </trkpt>
      <trkpt lat="48.05297" lon="-4.22056">
        <ele>57</ele>
        <time>2013-03-17T11:12:57Z</time>
      </trkpt>
      <trkpt lat="48.05291" lon="-4.2204">
        <ele>56</ele>
        <time>2013-03-17T11:13:00Z</time>
      </trkpt>
      <trkpt lat="48.05288" lon="-4.2203">
        <ele>56</ele>
        <time>2013-03-17T11:13:02Z</time>
      </trkpt>
      <trkpt lat="48.05284" lon="-4.22018">
        <ele>57</ele>
        <time>2013-03-17T11:13:04Z</time>
      </trkpt>
      <trkpt lat="48.05281" lon="-4.22007">
        <ele>57</ele>
        <time>2013-03-17T11:13:06Z</time>
      </trkpt>
      <trkpt lat="48.05279" lon="-4.22">
        <ele>57</ele>
        <time>2013-03-17T11:13:07Z</time>
      </trkpt>
      <trkpt lat="48.05277" lon="-4.21993">
        <ele>57</ele>
        <time>2013-03-17T11:13:08Z</time>
      </trkpt>
      <trkpt lat="48.05275" lon="-4.21982">
        <ele>58</ele>
        <time>2013-03-17T11:13:10Z</time>
      </trkpt>
      <trkpt lat="48.05272" lon="-4.21971">
        <ele>58</ele>
        <time>2013-03-17T11:13:12Z</time>
      </trkpt>
      <trkpt lat="48.0527" lon="-4.21959">
        <ele>59</ele>
        <time>2013-03-17T11:13:14Z</time>
      </trkpt>
      <trkpt lat="48.05269" lon="-4.2195">
        <ele>59</ele>
        <time>2013-03-17T11:13:16Z</time>
      </trkpt>
      <trkpt lat="48.05267" lon="-4.21938">
        <ele>59</ele>
        <time>2013-03-17T11:13:18Z</time>
      </trkpt>
      <trkpt lat="48.05265" lon="-4.21931">
        <ele>59</ele>
        <time>2013-03-17T11:13:19Z</time>
      </trkpt>
      <trkpt lat="48.05264" lon="-4.21924">
        <ele>59</ele>
        <time>2013-03-17T11:13:20Z</time>
      </trkpt>
      <trkpt lat="48.05261" lon="-4.21913">
        <ele>60</ele>
        <time>2013-03-17T11:13:22Z</time>
      </trkpt>
      <trkpt lat="48.05259" lon="-4.21903">
        <ele>60</ele>
        <time>2013-03-17T11:13:24Z</time>
      </trkpt>
      <trkpt lat="48.05257" lon="-4.21894">
        <ele>59</ele>
        <time>2013-03-17T11:13:26Z</time>
      </trkpt>
      <trkpt lat="48.05255" lon="-4.21883">
        <ele>59</ele>
        <time>2013-03-17T11:13:28Z</time>
      </trkpt>
      <trkpt lat="48.05253" lon="-4.21877">
        <ele>59</ele>
        <time>2013-03-17T11:13:29Z</time>
      </trkpt>
      <trkpt lat="48.05249" lon="-4.21858">
        <ele>58</ele>
        <time>2013-03-17T11:13:32Z</time>
      </trkpt>
      <trkpt lat="48.05248" lon="-4.21844">
        <ele>57</ele>
        <time>2013-03-17T11:13:35Z</time>
      </trkpt>
      <trkpt lat="48.05246" lon="-4.21833">
        <ele>55</ele>
        <time>2013-03-17T11:13:37Z</time>
      </trkpt>
      <trkpt lat="48.05244" lon="-4.21824">
        <ele>55</ele>
        <time>2013-03-17T11:13:39Z</time>
      </trkpt>
      <trkpt lat="48.05241" lon="-4.21807">
        <ele>54</ele>
        <time>2013-03-17T11:13:42Z</time>
      </trkpt>
      <trkpt lat="48.05237" lon="-4.21795">
        <ele>53</ele>
        <time>2013-03-17T11:13:44Z</time>
      </trkpt>
      <trkpt lat="48.05234" lon="-4.21781">
        <ele>52</ele>
        <time>2013-03-17T11:13:46Z</time>
      </trkpt>
      <trkpt lat="48.05233" lon="-4.21775">
        <ele>52</ele>
        <time>2013-03-17T11:13:47Z</time>
      </trkpt>
      <trkpt lat="48.05229" lon="-4.21757">
        <ele>52</ele>
        <time>2013-03-17T11:13:50Z</time>
      </trkpt>
      <trkpt lat="48.05226" lon="-4.21742">
        <ele>52</ele>
        <time>2013-03-17T11:13:53Z</time>
      </trkpt>
      <trkpt lat="48.05223" lon="-4.21731">
        <ele>52</ele>
        <time>2013-03-17T11:13:55Z</time>
      </trkpt>
      <trkpt lat="48.05221" lon="-4.21719">
        <ele>52</ele>
        <time>2013-03-17T11:13:57Z</time>
      </trkpt>
      <trkpt lat="48.05219" lon="-4.21711">
        <ele>53</ele>
        <time>2013-03-17T11:13:58Z</time>
      </trkpt>
      <trkpt lat="48.05218" lon="-4.21699">
        <ele>54</ele>
        <time>2013-03-17T11:14:00Z</time>
      </trkpt>
      <trkpt lat="48.05216" lon="-4.21692">
        <ele>54</ele>
        <time>2013-03-17T11:14:01Z</time>
      </trkpt>
      <trkpt lat="48.05214" lon="-4.21679">
        <ele>55</ele>
        <time>2013-03-17T11:14:03Z</time>
      </trkpt>
      <trkpt lat="48.05212" lon="-4.21668">
        <ele>56</ele>
        <time>2013-03-17T11:14:05Z</time>
      </trkpt>
      <trkpt lat="48.05207" lon="-4.21653">
        <ele>57</ele>
        <time>2013-03-17T11:14:08Z</time>
      </trkpt>
      <trkpt lat="48.05205" lon="-4.21642">
        <ele>58</ele>
        <time>2013-03-17T11:14:10Z</time>
      </trkpt>
      <trkpt lat="48.05202" lon="-4.21631">
        <ele>58</ele>
        <time>2013-03-17T11:14:12Z</time>
      </trkpt>
      <trkpt lat="48.052" lon="-4.21619">
        <ele>59</ele>
        <time>2013-03-17T11:14:14Z</time>
      </trkpt>
      <trkpt lat="48.05198" lon="-4.21609">
        <ele>59</ele>
        <time>2013-03-17T11:14:16Z</time>
      </trkpt>
      <trkpt lat="48.05196" lon="-4.21598">
        <ele>60</ele>
        <time>2013-03-17T11:14:18Z</time>
      </trkpt>
      <trkpt lat="48.05195" lon="-4.21587">
        <ele>60</ele>
        <time>2013-03-17T11:14:20Z</time>
      </trkpt>
      <trkpt lat="48.05192" lon="-4.21575">
        <ele>61</ele>
        <time>2013-03-17T11:14:22Z</time>
      </trkpt>
      <trkpt lat="48.05191" lon="-4.21562">
        <ele>61</ele>
        <time>2013-03-17T11:14:24Z</time>
      </trkpt>
      <trkpt lat="48.0519" lon="-4.21551">
        <ele>61</ele>
        <time>2013-03-17T11:14:26Z</time>
      </trkpt>
      <trkpt lat="48.05188" lon="-4.21534">
        <ele>62</ele>
        <time>2013-03-17T11:14:29Z</time>
      </trkpt>
      <trkpt lat="48.05188" lon="-4.21519">
        <ele>62</ele>
        <time>2013-03-17T11:14:32Z</time>
      </trkpt>
      <trkpt lat="48.05188" lon="-4.21503">
        <ele>61</ele>
        <time>2013-03-17T11:14:36Z</time>
      </trkpt>
      <trkpt lat="48.05188" lon="-4.21489">
        <ele>61</ele>
        <time>2013-03-17T11:14:38Z</time>
      </trkpt>
      <trkpt lat="48.05187" lon="-4.21482">
        <ele>61</ele>
        <time>2013-03-17T11:14:39Z</time>
      </trkpt>
      <trkpt lat="48.05187" lon="-4.21475">
        <ele>60</ele>
        <time>2013-03-17T11:14:40Z</time>
      </trkpt>
      <trkpt lat="48.05187" lon="-4.21468">
        <ele>60</ele>
        <time>2013-03-17T11:14:41Z</time>
      </trkpt>
      <trkpt lat="48.05187" lon="-4.21461">
        <ele>60</ele>
        <time>2013-03-17T11:14:42Z</time>
      </trkpt>
      <trkpt lat="48.05187" lon="-4.21454">
        <ele>60</ele>
        <time>2013-03-17T11:14:43Z</time>
      </trkpt>
      <trkpt lat="48.05187" lon="-4.21446">
        <ele>61</ele>
        <time>2013-03-17T11:14:44Z</time>
      </trkpt>
      <trkpt lat="48.05188" lon="-4.21439">
        <ele>61</ele>
        <time>2013-03-17T11:14:45Z</time>
      </trkpt>
      <trkpt lat="48.05188" lon="-4.21432">
        <ele>61</ele>
        <time>2013-03-17T11:14:46Z</time>
      </trkpt>
      <trkpt lat="48.05188" lon="-4.2142">
        <ele>62</ele>
        <time>2013-03-17T11:14:48Z</time>
      </trkpt>
      <trkpt lat="48.05188" lon="-4.21409">
        <ele>62</ele>
        <time>2013-03-17T11:14:50Z</time>
      </trkpt>
      <trkpt lat="48.05188" lon="-4.21398">
        <ele>63</ele>
        <time>2013-03-17T11:14:52Z</time>
      </trkpt>
      <trkpt lat="48.0519" lon="-4.21386">
        <ele>63</ele>
        <time>2013-03-17T11:14:54Z</time>
      </trkpt>
      <trkpt lat="48.05191" lon="-4.21376">
        <ele>63</ele>
        <time>2013-03-17T11:14:56Z</time>
      </trkpt>
      <trkpt lat="48.05193" lon="-4.21365">
        <ele>63</ele>
        <time>2013-03-17T11:14:58Z</time>
      </trkpt>
      <trkpt lat="48.05195" lon="-4.21355">
        <ele>63</ele>
        <time>2013-03-17T11:15:00Z</time>
      </trkpt>
      <trkpt lat="48.05197" lon="-4.21342">
        <ele>63</ele>
        <time>2013-03-17T11:15:02Z</time>
      </trkpt>
      <trkpt lat="48.05198" lon="-4.21328">
        <ele>63</ele>
        <time>2013-03-17T11:15:04Z</time>
      </trkpt>
      <trkpt lat="48.052" lon="-4.21316">
        <ele>63</ele>
        <time>2013-03-17T11:15:06Z</time>
      </trkpt>
      <trkpt lat="48.05202" lon="-4.21306">
        <ele>63</ele>
        <time>2013-03-17T11:15:08Z</time>
      </trkpt>
      <trkpt lat="48.05204" lon="-4.21296">
        <ele>63</ele>
        <time>2013-03-17T11:15:10Z</time>
      </trkpt>
      <trkpt lat="48.05207" lon="-4.21285">
        <ele>63</ele>
        <time>2013-03-17T11:15:12Z</time>
      </trkpt>
      <trkpt lat="48.05209" lon="-4.21278">
        <ele>63</ele>
        <time>2013-03-17T11:15:13Z</time>
      </trkpt>
      <trkpt lat="48.05212" lon="-4.21266">
        <ele>63</ele>
        <time>2013-03-17T11:15:15Z</time>
      </trkpt>
      <trkpt lat="48.05212" lon="-4.21254">
        <ele>63</ele>
        <time>2013-03-17T11:15:17Z</time>
      </trkpt>
      <trkpt lat="48.05216" lon="-4.21244">
        <ele>64</ele>
        <time>2013-03-17T11:15:19Z</time>
      </trkpt>
      <trkpt lat="48.05218" lon="-4.21232">
        <ele>64</ele>
        <time>2013-03-17T11:15:21Z</time>
      </trkpt>
      <trkpt lat="48.0522" lon="-4.21226">
        <ele>64</ele>
        <time>2013-03-17T11:15:22Z</time>
      </trkpt>
      <trkpt lat="48.05224" lon="-4.21216">
        <ele>63</ele>
        <time>2013-03-17T11:15:24Z</time>
      </trkpt>
      <trkpt lat="48.05227" lon="-4.21206">
        <ele>63</ele>
        <time>2013-03-17T11:15:26Z</time>
      </trkpt>
      <trkpt lat="48.05232" lon="-4.21194">
        <ele>63</ele>
        <time>2013-03-17T11:15:28Z</time>
      </trkpt>
      <trkpt lat="48.05236" lon="-4.21184">
        <ele>63</ele>
        <time>2013-03-17T11:15:30Z</time>
      </trkpt>
      <trkpt lat="48.05241" lon="-4.21173">
        <ele>63</ele>
        <time>2013-03-17T11:15:32Z</time>
      </trkpt>
      <trkpt lat="48.05246" lon="-4.21165">
        <ele>63</ele>
        <time>2013-03-17T11:15:34Z</time>
      </trkpt>
      <trkpt lat="48.0525" lon="-4.21154">
        <ele>63</ele>
        <time>2013-03-17T11:15:36Z</time>
      </trkpt>
      <trkpt lat="48.05253" lon="-4.21149">
        <ele>63</ele>
        <time>2013-03-17T11:15:37Z</time>
      </trkpt>
      <trkpt lat="48.05256" lon="-4.21143">
        <ele>63</ele>
        <time>2013-03-17T11:15:38Z</time>
      </trkpt>
      <trkpt lat="48.05261" lon="-4.21133">
        <ele>62</ele>
        <time>2013-03-17T11:15:40Z</time>
      </trkpt>
      <trkpt lat="48.05266" lon="-4.21125">
        <ele>63</ele>
        <time>2013-03-17T11:15:42Z</time>
      </trkpt>
      <trkpt lat="48.0527" lon="-4.21115">
        <ele>63</ele>
        <time>2013-03-17T11:15:44Z</time>
      </trkpt>
      <trkpt lat="48.05275" lon="-4.21103">
        <ele>63</ele>
        <time>2013-03-17T11:15:46Z</time>
      </trkpt>
      <trkpt lat="48.0528" lon="-4.21096">
        <ele>63</ele>
        <time>2013-03-17T11:15:48Z</time>
      </trkpt>
      <trkpt lat="48.05286" lon="-4.21087">
        <ele>63</ele>
        <time>2013-03-17T11:15:50Z</time>
      </trkpt>
      <trkpt lat="48.05292" lon="-4.21078">
        <ele>62</ele>
        <time>2013-03-17T11:15:52Z</time>
      </trkpt>
      <trkpt lat="48.05297" lon="-4.2107">
        <ele>62</ele>
        <time>2013-03-17T11:15:54Z</time>
      </trkpt>
      <trkpt lat="48.05302" lon="-4.21063">
        <ele>62</ele>
        <time>2013-03-17T11:15:56Z</time>
      </trkpt>
      <trkpt lat="48.05309" lon="-4.21057">
        <ele>62</ele>
        <time>2013-03-17T11:15:58Z</time>
      </trkpt>
      <trkpt lat="48.05318" lon="-4.21046">
        <ele>63</ele>
        <time>2013-03-17T11:16:02Z</time>
      </trkpt>
      <trkpt lat="48.05324" lon="-4.21038">
        <ele>63</ele>
        <time>2013-03-17T11:16:04Z</time>
      </trkpt>
      <trkpt lat="48.05329" lon="-4.21032">
        <ele>63</ele>
        <time>2013-03-17T11:16:06Z</time>
      </trkpt>
      <trkpt lat="48.05336" lon="-4.2102">
        <ele>62</ele>
        <time>2013-03-17T11:16:09Z</time>
      </trkpt>
      <trkpt lat="48.05344" lon="-4.21011">
        <ele>60</ele>
        <time>2013-03-17T11:16:13Z</time>
      </trkpt>
      <trkpt lat="48.05351" lon="-4.21">
        <ele>59</ele>
        <time>2013-03-17T11:16:16Z</time>
      </trkpt>
      <trkpt lat="48.05358" lon="-4.2099">
        <ele>58</ele>
        <time>2013-03-17T11:16:19Z</time>
      </trkpt>
      <trkpt lat="48.05365" lon="-4.20978">
        <ele>56</ele>
        <time>2013-03-17T11:16:23Z</time>
      </trkpt>
      <trkpt lat="48.05373" lon="-4.20965">
        <ele>54</ele>
        <time>2013-03-17T11:16:27Z</time>
      </trkpt>
      <trkpt lat="48.05379" lon="-4.20955">
        <ele>51</ele>
        <time>2013-03-17T11:16:30Z</time>
      </trkpt>
      <trkpt lat="48.05384" lon="-4.20944">
        <ele>49</ele>
        <time>2013-03-17T11:16:33Z</time>
      </trkpt>
      <trkpt lat="48.05392" lon="-4.20932">
        <ele>47</ele>
        <time>2013-03-17T11:16:37Z</time>
      </trkpt>
      <trkpt lat="48.05399" lon="-4.20922">
        <ele>45</ele>
        <time>2013-03-17T11:16:40Z</time>
      </trkpt>
      <trkpt lat="48.05407" lon="-4.20911">
        <ele>44</ele>
        <time>2013-03-17T11:16:44Z</time>
      </trkpt>
      <trkpt lat="48.05414" lon="-4.20901">
        <ele>42</ele>
        <time>2013-03-17T11:16:47Z</time>
      </trkpt>
      <trkpt lat="48.05424" lon="-4.2089">
        <ele>42</ele>
        <time>2013-03-17T11:16:50Z</time>
      </trkpt>
      <trkpt lat="48.05434" lon="-4.20881">
        <ele>40</ele>
        <time>2013-03-17T11:16:53Z</time>
      </trkpt>
      <trkpt lat="48.05445" lon="-4.20875">
        <ele>39</ele>
        <time>2013-03-17T11:16:56Z</time>
      </trkpt>
      <trkpt lat="48.05455" lon="-4.20868">
        <ele>38</ele>
        <time>2013-03-17T11:16:59Z</time>
      </trkpt>
      <trkpt lat="48.05466" lon="-4.2086">
        <ele>37</ele>
        <time>2013-03-17T11:17:02Z</time>
      </trkpt>
      <trkpt lat="48.05475" lon="-4.20855">
        <ele>36</ele>
        <time>2013-03-17T11:17:04Z</time>
      </trkpt>
      <trkpt lat="48.05484" lon="-4.20848">
        <ele>37</ele>
        <time>2013-03-17T11:17:06Z</time>
      </trkpt>
      <trkpt lat="48.05495" lon="-4.20841">
        <ele>36</ele>
        <time>2013-03-17T11:17:09Z</time>
      </trkpt>
      <trkpt lat="48.05504" lon="-4.20836">
        <ele>36</ele>
        <time>2013-03-17T11:17:11Z</time>
      </trkpt>
      <trkpt lat="48.05513" lon="-4.20829">
        <ele>36</ele>
        <time>2013-03-17T11:17:13Z</time>
      </trkpt>
      <trkpt lat="48.05523" lon="-4.20824">
        <ele>37</ele>
        <time>2013-03-17T11:17:15Z</time>
      </trkpt>
      <trkpt lat="48.05533" lon="-4.20819">
        <ele>38</ele>
        <time>2013-03-17T11:17:17Z</time>
      </trkpt>
      <trkpt lat="48.05543" lon="-4.20814">
        <ele>38</ele>
        <time>2013-03-17T11:17:19Z</time>
      </trkpt>
      <trkpt lat="48.05553" lon="-4.20808">
        <ele>40</ele>
        <time>2013-03-17T11:17:21Z</time>
      </trkpt>
      <trkpt lat="48.05564" lon="-4.20803">
        <ele>41</ele>
        <time>2013-03-17T11:17:23Z</time>
      </trkpt>
      <trkpt lat="48.05574" lon="-4.208">
        <ele>42</ele>
        <time>2013-03-17T11:17:24Z</time>
      </trkpt>
      <trkpt lat="48.05585" lon="-4.20796">
        <ele>44</ele>
        <time>2013-03-17T11:17:25Z</time>
      </trkpt>
      <trkpt lat="48.05599" lon="-4.20793">
        <ele>46</ele>
        <time>2013-03-17T11:17:26Z</time>
      </trkpt>
      <trkpt lat="48.0561" lon="-4.2079">
        <ele>48</ele>
        <time>2013-03-17T11:17:27Z</time>
      </trkpt>
      <trkpt lat="48.0562" lon="-4.20787">
        <ele>50</ele>
        <time>2013-03-17T11:17:28Z</time>
      </trkpt>
      <trkpt lat="48.05627" lon="-4.20785">
        <ele>51</ele>
        <time>2013-03-17T11:17:29Z</time>
      </trkpt>
      <trkpt lat="48.05633" lon="-4.20783">
        <ele>53</ele>
        <time>2013-03-17T11:17:30Z</time>
      </trkpt>
      <trkpt lat="48.05639" lon="-4.2078">
        <ele>55</ele>
        <time>2013-03-17T11:17:31Z</time>
      </trkpt>
      <trkpt lat="48.05643" lon="-4.20777">
        <ele>56</ele>
        <time>2013-03-17T11:17:32Z</time>
      </trkpt>
      <trkpt lat="48.05648" lon="-4.20774">
        <ele>57</ele>
        <time>2013-03-17T11:17:33Z</time>
      </trkpt>
      <trkpt lat="48.05652" lon="-4.2077">
        <ele>58</ele>
        <time>2013-03-17T11:17:34Z</time>
      </trkpt>
      <trkpt lat="48.05657" lon="-4.20766">
        <ele>59</ele>
        <time>2013-03-17T11:17:35Z</time>
      </trkpt>
      <trkpt lat="48.05662" lon="-4.20762">
        <ele>60</ele>
        <time>2013-03-17T11:17:36Z</time>
      </trkpt>
      <trkpt lat="48.05669" lon="-4.20756">
        <ele>61</ele>
        <time>2013-03-17T11:17:38Z</time>
      </trkpt>
      <trkpt lat="48.05674" lon="-4.20752">
        <ele>62</ele>
        <time>2013-03-17T11:17:39Z</time>
      </trkpt>
      <trkpt lat="48.05678" lon="-4.20747">
        <ele>63</ele>
        <time>2013-03-17T11:17:40Z</time>
      </trkpt>
      <trkpt lat="48.05683" lon="-4.20743">
        <ele>63</ele>
        <time>2013-03-17T11:17:41Z</time>
      </trkpt>
      <trkpt lat="48.05687" lon="-4.20738">
        <ele>64</ele>
        <time>2013-03-17T11:17:42Z</time>
      </trkpt>
      <trkpt lat="48.05692" lon="-4.20733">
        <ele>65</ele>
        <time>2013-03-17T11:17:43Z</time>
      </trkpt>
      <trkpt lat="48.05697" lon="-4.20728">
        <ele>66</ele>
        <time>2013-03-17T11:17:44Z</time>
      </trkpt>
      <trkpt lat="48.05701" lon="-4.20723">
        <ele>66</ele>
        <time>2013-03-17T11:17:45Z</time>
      </trkpt>
      <trkpt lat="48.05705" lon="-4.20717">
        <ele>67</ele>
        <time>2013-03-17T11:17:46Z</time>
      </trkpt>
      <trkpt lat="48.05709" lon="-4.20712">
        <ele>68</ele>
        <time>2013-03-17T11:17:47Z</time>
      </trkpt>
      <trkpt lat="48.05713" lon="-4.20706">
        <ele>69</ele>
        <time>2013-03-17T11:17:48Z</time>
      </trkpt>
      <trkpt lat="48.05716" lon="-4.207">
        <ele>70</ele>
        <time>2013-03-17T11:17:49Z</time>
      </trkpt>
      <trkpt lat="48.05719" lon="-4.20694">
        <ele>71</ele>
        <time>2013-03-17T11:17:50Z</time>
      </trkpt>
      <trkpt lat="48.05722" lon="-4.20687">
        <ele>71</ele>
        <time>2013-03-17T11:17:51Z</time>
      </trkpt>
      <trkpt lat="48.05726" lon="-4.20681">
        <ele>72</ele>
        <time>2013-03-17T11:17:52Z</time>
      </trkpt>
      <trkpt lat="48.05729" lon="-4.20675">
        <ele>73</ele>
        <time>2013-03-17T11:17:53Z</time>
      </trkpt>
      <trkpt lat="48.05733" lon="-4.20669">
        <ele>73</ele>
        <time>2013-03-17T11:17:54Z</time>
      </trkpt>
      <trkpt lat="48.05736" lon="-4.20663">
        <ele>73</ele>
        <time>2013-03-17T11:17:55Z</time>
      </trkpt>
      <trkpt lat="48.05739" lon="-4.20657">
        <ele>74</ele>
        <time>2013-03-17T11:17:56Z</time>
      </trkpt>
      <trkpt lat="48.05742" lon="-4.2065">
        <ele>74</ele>
        <time>2013-03-17T11:17:57Z</time>
      </trkpt>
      <trkpt lat="48.05745" lon="-4.20643">
        <ele>74</ele>
        <time>2013-03-17T11:17:58Z</time>
      </trkpt>
      <trkpt lat="48.05748" lon="-4.20637">
        <ele>75</ele>
        <time>2013-03-17T11:17:59Z</time>
      </trkpt>
      <trkpt lat="48.05751" lon="-4.2063">
        <ele>75</ele>
        <time>2013-03-17T11:18:00Z</time>
      </trkpt>
      <trkpt lat="48.05753" lon="-4.20623">
        <ele>75</ele>
        <time>2013-03-17T11:18:01Z</time>
      </trkpt>
      <trkpt lat="48.05756" lon="-4.20615">
        <ele>76</ele>
        <time>2013-03-17T11:18:02Z</time>
      </trkpt>
      <trkpt lat="48.05759" lon="-4.20608">
        <ele>76</ele>
        <time>2013-03-17T11:18:03Z</time>
      </trkpt>
      <trkpt lat="48.05761" lon="-4.20601">
        <ele>76</ele>
        <time>2013-03-17T11:18:04Z</time>
      </trkpt>
      <trkpt lat="48.05764" lon="-4.20594">
        <ele>76</ele>
        <time>2013-03-17T11:18:05Z</time>
      </trkpt>
      <trkpt lat="48.05766" lon="-4.20587">
        <ele>76</ele>
        <time>2013-03-17T11:18:06Z</time>
      </trkpt>
      <trkpt lat="48.05768" lon="-4.20579">
        <ele>77</ele>
        <time>2013-03-17T11:18:07Z</time>
      </trkpt>
      <trkpt lat="48.0577" lon="-4.20571">
        <ele>77</ele>
        <time>2013-03-17T11:18:08Z</time>
      </trkpt>
      <trkpt lat="48.05772" lon="-4.20564">
        <ele>77</ele>
        <time>2013-03-17T11:18:09Z</time>
      </trkpt>
      <trkpt lat="48.05774" lon="-4.20556">
        <ele>77</ele>
        <time>2013-03-17T11:18:10Z</time>
      </trkpt>
      <trkpt lat="48.05775" lon="-4.20549">
        <ele>77</ele>
        <time>2013-03-17T11:18:11Z</time>
      </trkpt>
      <trkpt lat="48.05776" lon="-4.20541">
        <ele>78</ele>
        <time>2013-03-17T11:18:12Z</time>
      </trkpt>
      <trkpt lat="48.05777" lon="-4.20533">
        <ele>78</ele>
        <time>2013-03-17T11:18:13Z</time>
      </trkpt>
      <trkpt lat="48.05778" lon="-4.20525">
        <ele>78</ele>
        <time>2013-03-17T11:18:14Z</time>
      </trkpt>
      <trkpt lat="48.05779" lon="-4.20517">
        <ele>78</ele>
        <time>2013-03-17T11:18:15Z</time>
      </trkpt>
      <trkpt lat="48.0578" lon="-4.20509">
        <ele>78</ele>
        <time>2013-03-17T11:18:16Z</time>
      </trkpt>
      <trkpt lat="48.0578" lon="-4.205">
        <ele>77</ele>
        <time>2013-03-17T11:18:17Z</time>
      </trkpt>
      <trkpt lat="48.05781" lon="-4.20492">
        <ele>77</ele>
        <time>2013-03-17T11:18:18Z</time>
      </trkpt>
      <trkpt lat="48.05783" lon="-4.20483">
        <ele>77</ele>
        <time>2013-03-17T11:18:19Z</time>
      </trkpt>
      <trkpt lat="48.05784" lon="-4.20475">
        <ele>77</ele>
        <time>2013-03-17T11:18:20Z</time>
      </trkpt>
      <trkpt lat="48.05785" lon="-4.20463">
        <ele>77</ele>
        <time>2013-03-17T11:18:22Z</time>
      </trkpt>
      <trkpt lat="48.05785" lon="-4.20455">
        <ele>78</ele>
        <time>2013-03-17T11:18:23Z</time>
      </trkpt>
      <trkpt lat="48.05786" lon="-4.20448">
        <ele>78</ele>
        <time>2013-03-17T11:18:24Z</time>
      </trkpt>
      <trkpt lat="48.05786" lon="-4.20434">
        <ele>78</ele>
        <time>2013-03-17T11:18:26Z</time>
      </trkpt>
      <trkpt lat="48.05785" lon="-4.20421">
        <ele>79</ele>
        <time>2013-03-17T11:18:28Z</time>
      </trkpt>
      <trkpt lat="48.05783" lon="-4.2041">
        <ele>79</ele>
        <time>2013-03-17T11:18:30Z</time>
      </trkpt>
      <trkpt lat="48.05782" lon="-4.20399">
        <ele>80</ele>
        <time>2013-03-17T11:18:32Z</time>
      </trkpt>
      <trkpt lat="48.0578" lon="-4.20382">
        <ele>79</ele>
        <time>2013-03-17T11:18:35Z</time>
      </trkpt>
      <trkpt lat="48.0578" lon="-4.20374">
        <ele>79</ele>
        <time>2013-03-17T11:18:37Z</time>
      </trkpt>
      <trkpt lat="48.0578" lon="-4.20367">
        <ele>80</ele>
        <time>2013-03-17T11:18:39Z</time>
      </trkpt>
      <trkpt lat="48.05779" lon="-4.20358">
        <ele>80</ele>
        <time>2013-03-17T11:18:41Z</time>
      </trkpt>
      <trkpt lat="48.05778" lon="-4.20347">
        <ele>79</ele>
        <time>2013-03-17T11:18:43Z</time>
      </trkpt>
      <trkpt lat="48.05777" lon="-4.2034">
        <ele>79</ele>
        <time>2013-03-17T11:18:44Z</time>
      </trkpt>
      <trkpt lat="48.05776" lon="-4.20333">
        <ele>79</ele>
        <time>2013-03-17T11:18:45Z</time>
      </trkpt>
      <trkpt lat="48.05775" lon="-4.20325">
        <ele>79</ele>
        <time>2013-03-17T11:18:46Z</time>
      </trkpt>
      <trkpt lat="48.05773" lon="-4.20317">
        <ele>80</ele>
        <time>2013-03-17T11:18:47Z</time>
      </trkpt>
      <trkpt lat="48.05772" lon="-4.20309">
        <ele>80</ele>
        <time>2013-03-17T11:18:48Z</time>
      </trkpt>
      <trkpt lat="48.0577" lon="-4.20301">
        <ele>80</ele>
        <time>2013-03-17T11:18:49Z</time>
      </trkpt>
      <trkpt lat="48.05768" lon="-4.20292">
        <ele>80</ele>
        <time>2013-03-17T11:18:50Z</time>
      </trkpt>
      <trkpt lat="48.05766" lon="-4.20285">
        <ele>80</ele>
        <time>2013-03-17T11:18:51Z</time>
      </trkpt>
      <trkpt lat="48.05764" lon="-4.20277">
        <ele>80</ele>
        <time>2013-03-17T11:18:52Z</time>
      </trkpt>
      <trkpt lat="48.05762" lon="-4.20269">
        <ele>81</ele>
        <time>2013-03-17T11:18:53Z</time>
      </trkpt>
      <trkpt lat="48.0576" lon="-4.20261">
        <ele>81</ele>
        <time>2013-03-17T11:18:54Z</time>
      </trkpt>
      <trkpt lat="48.05757" lon="-4.20253">
        <ele>81</ele>
        <time>2013-03-17T11:18:55Z</time>
      </trkpt>
      <trkpt lat="48.05754" lon="-4.20244">
        <ele>82</ele>
        <time>2013-03-17T11:18:56Z</time>
      </trkpt>
      <trkpt lat="48.05751" lon="-4.20236">
        <ele>82</ele>
        <time>2013-03-17T11:18:57Z</time>
      </trkpt>
      <trkpt lat="48.05749" lon="-4.20228">
        <ele>82</ele>
        <time>2013-03-17T11:18:58Z</time>
      </trkpt>
      <trkpt lat="48.05746" lon="-4.20219">
        <ele>82</ele>
        <time>2013-03-17T11:18:59Z</time>
      </trkpt>
      <trkpt lat="48.05742" lon="-4.20212">
        <ele>82</ele>
        <time>2013-03-17T11:19:00Z</time>
      </trkpt>
      <trkpt lat="48.05739" lon="-4.20204">
        <ele>82</ele>
        <time>2013-03-17T11:19:01Z</time>
      </trkpt>
      <trkpt lat="48.05734" lon="-4.20195">
        <ele>83</ele>
        <time>2013-03-17T11:19:02Z</time>
      </trkpt>
      <trkpt lat="48.0573" lon="-4.20186">
        <ele>83</ele>
        <time>2013-03-17T11:19:03Z</time>
      </trkpt>
      <trkpt lat="48.05726" lon="-4.20177">
        <ele>83</ele>
        <time>2013-03-17T11:19:04Z</time>
      </trkpt>
      <trkpt lat="48.05722" lon="-4.20168">
        <ele>84</ele>
        <time>2013-03-17T11:19:05Z</time>
      </trkpt>
      <trkpt lat="48.05718" lon="-4.20162">
        <ele>84</ele>
        <time>2013-03-17T11:19:06Z</time>
      </trkpt>
      <trkpt lat="48.05713" lon="-4.20154">
        <ele>83</ele>
        <time>2013-03-17T11:19:07Z</time>
      </trkpt>
      <trkpt lat="48.05708" lon="-4.20147">
        <ele>83</ele>
        <time>2013-03-17T11:19:08Z</time>
      </trkpt>
      <trkpt lat="48.05703" lon="-4.2014">
        <ele>83</ele>
        <time>2013-03-17T11:19:09Z</time>
      </trkpt>
      <trkpt lat="48.05699" lon="-4.20133">
        <ele>83</ele>
        <time>2013-03-17T11:19:10Z</time>
      </trkpt>
      <trkpt lat="48.05688" lon="-4.20119">
        <ele>82</ele>
        <time>2013-03-17T11:19:12Z</time>
      </trkpt>
      <trkpt lat="48.05683" lon="-4.20113">
        <ele>82</ele>
        <time>2013-03-17T11:19:13Z</time>
      </trkpt>
      <trkpt lat="48.05679" lon="-4.20107">
        <ele>83</ele>
        <time>2013-03-17T11:19:14Z</time>
      </trkpt>
      <trkpt lat="48.05674" lon="-4.201">
        <ele>83</ele>
        <time>2013-03-17T11:19:15Z</time>
      </trkpt>
      <trkpt lat="48.05669" lon="-4.20094">
        <ele>83</ele>
        <time>2013-03-17T11:19:16Z</time>
      </trkpt>
      <trkpt lat="48.05663" lon="-4.20087">
        <ele>84</ele>
        <time>2013-03-17T11:19:17Z</time>
      </trkpt>
      <trkpt lat="48.05658" lon="-4.20082">
        <ele>84</ele>
        <time>2013-03-17T11:19:18Z</time>
      </trkpt>
      <trkpt lat="48.05648" lon="-4.20072">
        <ele>84</ele>
        <time>2013-03-17T11:19:20Z</time>
      </trkpt>
      <trkpt lat="48.05642" lon="-4.20068">
        <ele>83</ele>
        <time>2013-03-17T11:19:21Z</time>
      </trkpt>
      <trkpt lat="48.0563" lon="-4.20061">
        <ele>83</ele>
        <time>2013-03-17T11:19:23Z</time>
      </trkpt>
      <trkpt lat="48.05625" lon="-4.20057">
        <ele>83</ele>
        <time>2013-03-17T11:19:24Z</time>
      </trkpt>
      <trkpt lat="48.05618" lon="-4.20053">
        <ele>83</ele>
        <time>2013-03-17T11:19:25Z</time>
      </trkpt>
      <trkpt lat="48.05612" lon="-4.20048">
        <ele>82</ele>
        <time>2013-03-17T11:19:26Z</time>
      </trkpt>
      <trkpt lat="48.05606" lon="-4.20044">
        <ele>82</ele>
        <time>2013-03-17T11:19:27Z</time>
      </trkpt>
      <trkpt lat="48.05599" lon="-4.20039">
        <ele>81</ele>
        <time>2013-03-17T11:19:28Z</time>
      </trkpt>
      <trkpt lat="48.05593" lon="-4.20036">
        <ele>81</ele>
        <time>2013-03-17T11:19:29Z</time>
      </trkpt>
      <trkpt lat="48.05586" lon="-4.20033">
        <ele>80</ele>
        <time>2013-03-17T11:19:30Z</time>
      </trkpt>
      <trkpt lat="48.05579" lon="-4.2003">
        <ele>80</ele>
        <time>2013-03-17T11:19:31Z</time>
      </trkpt>
      <trkpt lat="48.05574" lon="-4.20028">
        <ele>80</ele>
        <time>2013-03-17T11:19:32Z</time>
      </trkpt>
      <trkpt lat="48.05563" lon="-4.20027">
        <ele>78</ele>
        <time>2013-03-17T11:19:34Z</time>
      </trkpt>
      <trkpt lat="48.05556" lon="-4.20026">
        <ele>78</ele>
        <time>2013-03-17T11:19:35Z</time>
      </trkpt>
      <trkpt lat="48.05549" lon="-4.20023">
        <ele>77</ele>
        <time>2013-03-17T11:19:36Z</time>
      </trkpt>
      <trkpt lat="48.05541" lon="-4.20021">
        <ele>76</ele>
        <time>2013-03-17T11:19:37Z</time>
      </trkpt>
      <trkpt lat="48.05535" lon="-4.2002">
        <ele>76</ele>
        <time>2013-03-17T11:19:38Z</time>
      </trkpt>
      <trkpt lat="48.05523" lon="-4.20018">
        <ele>75</ele>
        <time>2013-03-17T11:19:40Z</time>
      </trkpt>
      <trkpt lat="48.05516" lon="-4.20016">
        <ele>75</ele>
        <time>2013-03-17T11:19:41Z</time>
      </trkpt>
      <trkpt lat="48.05509" lon="-4.20014">
        <ele>74</ele>
        <time>2013-03-17T11:19:42Z</time>
      </trkpt>
      <trkpt lat="48.05497" lon="-4.20012">
        <ele>75</ele>
        <time>2013-03-17T11:19:44Z</time>
      </trkpt>
      <trkpt lat="48.05492" lon="-4.20011">
        <ele>76</ele>
        <time>2013-03-17T11:19:45Z</time>
      </trkpt>
      <trkpt lat="48.05482" lon="-4.20009">
        <ele>76</ele>
        <time>2013-03-17T11:19:47Z</time>
      </trkpt>
      <trkpt lat="48.05471" lon="-4.20006">
        <ele>76</ele>
        <time>2013-03-17T11:19:49Z</time>
      </trkpt>
      <trkpt lat="48.05466" lon="-4.20005">
        <ele>76</ele>
        <time>2013-03-17T11:19:50Z</time>
      </trkpt>
      <trkpt lat="48.05458" lon="-4.20002">
        <ele>76</ele>
        <time>2013-03-17T11:19:52Z</time>
      </trkpt>
      <trkpt lat="48.05452" lon="-4.19999">
        <ele>77</ele>
        <time>2013-03-17T11:19:53Z</time>
      </trkpt>
      <trkpt lat="48.05445" lon="-4.19996">
        <ele>77</ele>
        <time>2013-03-17T11:19:55Z</time>
      </trkpt>
      <trkpt lat="48.0544" lon="-4.19995">
        <ele>77</ele>
        <time>2013-03-17T11:19:56Z</time>
      </trkpt>
      <trkpt lat="48.05435" lon="-4.19988">
        <ele>77</ele>
        <time>2013-03-17T11:19:58Z</time>
      </trkpt>
      <trkpt lat="48.05436" lon="-4.1998">
        <ele>77</ele>
        <time>2013-03-17T11:20:01Z</time>
      </trkpt>
      <trkpt lat="48.05439" lon="-4.19973">
        <ele>77</ele>
        <time>2013-03-17T11:20:04Z</time>
      </trkpt>
      <trkpt lat="48.05436" lon="-4.19964">
        <ele>77</ele>
        <time>2013-03-17T11:20:07Z</time>
      </trkpt>
      <trkpt lat="48.05441" lon="-4.19965">
        <ele>78</ele>
        <time>2013-03-17T11:20:11Z</time>
      </trkpt>
      <trkpt lat="48.05444" lon="-4.19972">
        <ele>78</ele>
        <time>2013-03-17T11:20:14Z</time>
      </trkpt>
      <trkpt lat="48.05443" lon="-4.19979">
        <ele>78</ele>
        <time>2013-03-17T11:20:28Z</time>
      </trkpt>
    </trkseg>
  </trk>
</gpx>